<?xml version="1.0" encoding="UTF-8" standalone="no" ?>
<gpx xmlns="http://www.topografix.com/GPX/1/1" xmlns:xsi="http://www.w3.org/2001/XMLSchema-instance" xsi:schemaLocation="http://www.topografix.com/GPX/1/1 http://www.topografix.com/GPX/1/1/gpx.xsd" version="1.1" creator="VisuGPX - https://www.visugpx.com">
  <metadata>
    <name>Circuit de Ouezy.</name>
    <desc><![CDATA[Circuit facile qui peut être allongé au départ ou au retour, en grimpant plusieurs fois le coteau d\'Argences.]]></desc>
  </metadata>
  <trk>
    <name><![CDATA[Le circuit de Ouezy.]]></name>
    <trkseg>
      <trkpt lat="49.12736" lon="-0.16571">
        <ele>18</ele>
        <time>2013-12-08T07:25:04Z</time>
      </trkpt>
      <trkpt lat="49.12736" lon="-0.16571">
        <ele>18</ele>
        <time>2013-12-08T07:25:05Z</time>
      </trkpt>
      <trkpt lat="49.12737" lon="-0.16572">
        <ele>18.2000008</ele>
        <time>2013-12-08T07:26:13Z</time>
      </trkpt>
      <trkpt lat="49.12735" lon="-0.16575">
        <ele>18.2000008</ele>
        <time>2013-12-08T07:26:17Z</time>
      </trkpt>
      <trkpt lat="49.12736" lon="-0.16574">
        <ele>18.2000008</ele>
        <time>2013-12-08T07:30:25Z</time>
      </trkpt>
      <trkpt lat="49.12735" lon="-0.16574">
        <ele>18.2000008</ele>
        <time>2013-12-08T07:30:28Z</time>
      </trkpt>
      <trkpt lat="49.12741" lon="-0.16571">
        <ele>18.2000008</ele>
        <time>2013-12-08T07:36:51Z</time>
      </trkpt>
      <trkpt lat="49.12742" lon="-0.1657">
        <ele>18.2000008</ele>
        <time>2013-12-08T07:36:54Z</time>
      </trkpt>
      <trkpt lat="49.12742" lon="-0.16568">
        <ele>18.2000008</ele>
        <time>2013-12-08T07:37:01Z</time>
      </trkpt>
      <trkpt lat="49.12742" lon="-0.16566">
        <ele>18.2000008</ele>
        <time>2013-12-08T07:37:02Z</time>
      </trkpt>
      <trkpt lat="49.12743" lon="-0.16565">
        <ele>18.2000008</ele>
        <time>2013-12-08T07:37:03Z</time>
      </trkpt>
      <trkpt lat="49.12748" lon="-0.16554">
        <ele>18.2000008</ele>
        <time>2013-12-08T07:37:09Z</time>
      </trkpt>
      <trkpt lat="49.12748" lon="-0.16549">
        <ele>18.2000008</ele>
        <time>2013-12-08T07:37:13Z</time>
      </trkpt>
      <trkpt lat="49.12748" lon="-0.1655">
        <ele>18.2000008</ele>
        <time>2013-12-08T07:37:14Z</time>
      </trkpt>
      <trkpt lat="49.12749" lon="-0.1655">
        <ele>18.2000008</ele>
        <time>2013-12-08T07:37:19Z</time>
      </trkpt>
      <trkpt lat="49.12748" lon="-0.16551">
        <ele>18.2000008</ele>
        <time>2013-12-08T07:37:20Z</time>
      </trkpt>
      <trkpt lat="49.12748" lon="-0.16551">
        <ele>18.2000008</ele>
        <time>2013-12-08T07:37:52Z</time>
      </trkpt>
      <trkpt lat="49.12748" lon="-0.16551">
        <ele>18.2000008</ele>
        <time>2013-12-08T07:37:53Z</time>
      </trkpt>
      <trkpt lat="49.12748" lon="-0.1655">
        <ele>18.2000008</ele>
        <time>2013-12-08T07:39:26Z</time>
      </trkpt>
      <trkpt lat="49.12747" lon="-0.16549">
        <ele>18.2000008</ele>
        <time>2013-12-08T07:39:27Z</time>
      </trkpt>
      <trkpt lat="49.12745" lon="-0.16545">
        <ele>18.2000008</ele>
        <time>2013-12-08T07:39:30Z</time>
      </trkpt>
      <trkpt lat="49.12743" lon="-0.16543">
        <ele>18.2000008</ele>
        <time>2013-12-08T07:39:31Z</time>
      </trkpt>
      <trkpt lat="49.12736" lon="-0.16536">
        <ele>18.2000008</ele>
        <time>2013-12-08T07:39:35Z</time>
      </trkpt>
      <trkpt lat="49.12728" lon="-0.16523">
        <ele>18.2000008</ele>
        <time>2013-12-08T07:39:40Z</time>
      </trkpt>
      <trkpt lat="49.12722" lon="-0.16513">
        <ele>18.2000008</ele>
        <time>2013-12-08T07:39:46Z</time>
      </trkpt>
      <trkpt lat="49.12722" lon="-0.16511">
        <ele>18.2000008</ele>
        <time>2013-12-08T07:39:49Z</time>
      </trkpt>
      <trkpt lat="49.12718" lon="-0.16504">
        <ele>18.2000008</ele>
        <time>2013-12-08T07:39:52Z</time>
      </trkpt>
      <trkpt lat="49.12707" lon="-0.16487">
        <ele>18.2000008</ele>
        <time>2013-12-08T07:39:57Z</time>
      </trkpt>
      <trkpt lat="49.12692" lon="-0.16471">
        <ele>18.2000008</ele>
        <time>2013-12-08T07:40:02Z</time>
      </trkpt>
      <trkpt lat="49.12683" lon="-0.1645">
        <ele>18.2000008</ele>
        <time>2013-12-08T07:40:07Z</time>
      </trkpt>
      <trkpt lat="49.12688" lon="-0.1643">
        <ele>18.2000008</ele>
        <time>2013-12-08T07:40:11Z</time>
      </trkpt>
      <trkpt lat="49.12699" lon="-0.16408">
        <ele>18.2000008</ele>
        <time>2013-12-08T07:40:16Z</time>
      </trkpt>
      <trkpt lat="49.12704" lon="-0.16397">
        <ele>18.2000008</ele>
        <time>2013-12-08T07:40:19Z</time>
      </trkpt>
      <trkpt lat="49.12704" lon="-0.16394">
        <ele>18.2000008</ele>
        <time>2013-12-08T07:40:20Z</time>
      </trkpt>
      <trkpt lat="49.12703" lon="-0.16391">
        <ele>18.2000008</ele>
        <time>2013-12-08T07:40:21Z</time>
      </trkpt>
      <trkpt lat="49.12703" lon="-0.16388">
        <ele>18.2000008</ele>
        <time>2013-12-08T07:40:22Z</time>
      </trkpt>
      <trkpt lat="49.12704" lon="-0.16376">
        <ele>18.2000008</ele>
        <time>2013-12-08T07:40:26Z</time>
      </trkpt>
      <trkpt lat="49.12704" lon="-0.16353">
        <ele>18.2000008</ele>
        <time>2013-12-08T07:40:33Z</time>
      </trkpt>
      <trkpt lat="49.12704" lon="-0.16347">
        <ele>18.2000008</ele>
        <time>2013-12-08T07:40:35Z</time>
      </trkpt>
      <trkpt lat="49.12704" lon="-0.16338">
        <ele>18.2000008</ele>
        <time>2013-12-08T07:40:38Z</time>
      </trkpt>
      <trkpt lat="49.12711" lon="-0.16317">
        <ele>18.2000008</ele>
        <time>2013-12-08T07:40:44Z</time>
      </trkpt>
      <trkpt lat="49.12712" lon="-0.16307">
        <ele>18.2000008</ele>
        <time>2013-12-08T07:40:46Z</time>
      </trkpt>
      <trkpt lat="49.1271" lon="-0.16304">
        <ele>18.2000008</ele>
        <time>2013-12-08T07:40:47Z</time>
      </trkpt>
      <trkpt lat="49.12701" lon="-0.16304">
        <ele>18.2000008</ele>
        <time>2013-12-08T07:40:50Z</time>
      </trkpt>
      <trkpt lat="49.1268" lon="-0.16308">
        <ele>18.2000008</ele>
        <time>2013-12-08T07:40:56Z</time>
      </trkpt>
      <trkpt lat="49.12668" lon="-0.163">
        <ele>18.2000008</ele>
        <time>2013-12-08T07:41:01Z</time>
      </trkpt>
      <trkpt lat="49.12655" lon="-0.16292">
        <ele>18.2000008</ele>
        <time>2013-12-08T07:41:07Z</time>
      </trkpt>
      <trkpt lat="49.12652" lon="-0.1629">
        <ele>18.2000008</ele>
        <time>2013-12-08T07:41:09Z</time>
      </trkpt>
      <trkpt lat="49.12648" lon="-0.16286">
        <ele>18.2000008</ele>
        <time>2013-12-08T07:41:12Z</time>
      </trkpt>
      <trkpt lat="49.12639" lon="-0.16277">
        <ele>18.2000008</ele>
        <time>2013-12-08T07:41:18Z</time>
      </trkpt>
      <trkpt lat="49.12623" lon="-0.16268">
        <ele>18.2000008</ele>
        <time>2013-12-08T07:41:25Z</time>
      </trkpt>
      <trkpt lat="49.12605" lon="-0.16263">
        <ele>18.2000008</ele>
        <time>2013-12-08T07:41:31Z</time>
      </trkpt>
      <trkpt lat="49.12597" lon="-0.16261">
        <ele>18.2000008</ele>
        <time>2013-12-08T07:41:36Z</time>
      </trkpt>
      <trkpt lat="49.12591" lon="-0.1626">
        <ele>18.2000008</ele>
        <time>2013-12-08T07:41:42Z</time>
      </trkpt>
      <trkpt lat="49.1259" lon="-0.1626">
        <ele>18.2000008</ele>
        <time>2013-12-08T07:41:45Z</time>
      </trkpt>
      <trkpt lat="49.12587" lon="-0.16259">
        <ele>18.2000008</ele>
        <time>2013-12-08T07:41:49Z</time>
      </trkpt>
      <trkpt lat="49.12586" lon="-0.16257">
        <ele>18.2000008</ele>
        <time>2013-12-08T07:41:51Z</time>
      </trkpt>
      <trkpt lat="49.12586" lon="-0.16256">
        <ele>18.2000008</ele>
        <time>2013-12-08T07:41:52Z</time>
      </trkpt>
      <trkpt lat="49.12584" lon="-0.16255">
        <ele>18.2000008</ele>
        <time>2013-12-08T07:41:54Z</time>
      </trkpt>
      <trkpt lat="49.1258" lon="-0.1626">
        <ele>18.2000008</ele>
        <time>2013-12-08T07:41:58Z</time>
      </trkpt>
      <trkpt lat="49.12579" lon="-0.16266">
        <ele>18.2000008</ele>
        <time>2013-12-08T07:42:02Z</time>
      </trkpt>
      <trkpt lat="49.12572" lon="-0.16261">
        <ele>18.2000008</ele>
        <time>2013-12-08T07:42:06Z</time>
      </trkpt>
      <trkpt lat="49.12558" lon="-0.16246">
        <ele>18.2000008</ele>
        <time>2013-12-08T07:42:13Z</time>
      </trkpt>
      <trkpt lat="49.12543" lon="-0.16228">
        <ele>18.2000008</ele>
        <time>2013-12-08T07:42:19Z</time>
      </trkpt>
      <trkpt lat="49.12527" lon="-0.16204">
        <ele>18.2000008</ele>
        <time>2013-12-08T07:42:26Z</time>
      </trkpt>
      <trkpt lat="49.12503" lon="-0.16171">
        <ele>18.2000008</ele>
        <time>2013-12-08T07:42:35Z</time>
      </trkpt>
      <trkpt lat="49.12494" lon="-0.16157">
        <ele>18.2000008</ele>
        <time>2013-12-08T07:42:39Z</time>
      </trkpt>
      <trkpt lat="49.12489" lon="-0.16126">
        <ele>18.2000008</ele>
        <time>2013-12-08T07:42:44Z</time>
      </trkpt>
      <trkpt lat="49.12484" lon="-0.16098">
        <ele>18.2000008</ele>
        <time>2013-12-08T07:42:48Z</time>
      </trkpt>
      <trkpt lat="49.12484" lon="-0.16076">
        <ele>18.2000008</ele>
        <time>2013-12-08T07:42:51Z</time>
      </trkpt>
      <trkpt lat="49.12485" lon="-0.16069">
        <ele>18.2000008</ele>
        <time>2013-12-08T07:42:52Z</time>
      </trkpt>
      <trkpt lat="49.12486" lon="-0.16063">
        <ele>18.2000008</ele>
        <time>2013-12-08T07:42:53Z</time>
      </trkpt>
      <trkpt lat="49.12491" lon="-0.16044">
        <ele>18.2000008</ele>
        <time>2013-12-08T07:42:56Z</time>
      </trkpt>
      <trkpt lat="49.12499" lon="-0.1602">
        <ele>18.2000008</ele>
        <time>2013-12-08T07:43:00Z</time>
      </trkpt>
      <trkpt lat="49.12504" lon="-0.16002">
        <ele>18.2000008</ele>
        <time>2013-12-08T07:43:03Z</time>
      </trkpt>
      <trkpt lat="49.12508" lon="-0.15983">
        <ele>18.2000008</ele>
        <time>2013-12-08T07:43:06Z</time>
      </trkpt>
      <trkpt lat="49.12514" lon="-0.15959">
        <ele>18.2000008</ele>
        <time>2013-12-08T07:43:10Z</time>
      </trkpt>
      <trkpt lat="49.12521" lon="-0.15922">
        <ele>18.2000008</ele>
        <time>2013-12-08T07:43:16Z</time>
      </trkpt>
      <trkpt lat="49.12522" lon="-0.15917">
        <ele>18.2000008</ele>
        <time>2013-12-08T07:43:17Z</time>
      </trkpt>
      <trkpt lat="49.12525" lon="-0.15881">
        <ele>18.2000008</ele>
        <time>2013-12-08T07:43:23Z</time>
      </trkpt>
      <trkpt lat="49.12528" lon="-0.15845">
        <ele>18.2000008</ele>
        <time>2013-12-08T07:43:29Z</time>
      </trkpt>
      <trkpt lat="49.12533" lon="-0.15809">
        <ele>18.2000008</ele>
        <time>2013-12-08T07:43:35Z</time>
      </trkpt>
      <trkpt lat="49.1254" lon="-0.15762">
        <ele>18.2000008</ele>
        <time>2013-12-08T07:43:42Z</time>
      </trkpt>
      <trkpt lat="49.12542" lon="-0.15758">
        <ele>18.2000008</ele>
        <time>2013-12-08T07:43:43Z</time>
      </trkpt>
      <trkpt lat="49.12549" lon="-0.15753">
        <ele>18.2000008</ele>
        <time>2013-12-08T07:43:46Z</time>
      </trkpt>
      <trkpt lat="49.12558" lon="-0.1576">
        <ele>18.2000008</ele>
        <time>2013-12-08T07:43:51Z</time>
      </trkpt>
      <trkpt lat="49.12561" lon="-0.15762">
        <ele>18.2000008</ele>
        <time>2013-12-08T07:43:52Z</time>
      </trkpt>
      <trkpt lat="49.12578" lon="-0.15777">
        <ele>18.2000008</ele>
        <time>2013-12-08T07:44:00Z</time>
      </trkpt>
      <trkpt lat="49.1258" lon="-0.15779">
        <ele>18.6000004</ele>
        <time>2013-12-08T07:44:01Z</time>
      </trkpt>
      <trkpt lat="49.12582" lon="-0.15781">
        <ele>19</ele>
        <time>2013-12-08T07:44:02Z</time>
      </trkpt>
      <trkpt lat="49.12583" lon="-0.15783">
        <ele>19.3999996</ele>
        <time>2013-12-08T07:44:03Z</time>
      </trkpt>
      <trkpt lat="49.12585" lon="-0.15786">
        <ele>19.7999992</ele>
        <time>2013-12-08T07:44:04Z</time>
      </trkpt>
      <trkpt lat="49.12587" lon="-0.15789">
        <ele>20.2000008</ele>
        <time>2013-12-08T07:44:05Z</time>
      </trkpt>
      <trkpt lat="49.12591" lon="-0.15794">
        <ele>20.2000008</ele>
        <time>2013-12-08T07:44:07Z</time>
      </trkpt>
      <trkpt lat="49.12602" lon="-0.15806">
        <ele>20.2000008</ele>
        <time>2013-12-08T07:44:12Z</time>
      </trkpt>
      <trkpt lat="49.12613" lon="-0.15815">
        <ele>20.2000008</ele>
        <time>2013-12-08T07:44:18Z</time>
      </trkpt>
      <trkpt lat="49.12614" lon="-0.15815">
        <ele>20.2000008</ele>
        <time>2013-12-08T07:44:20Z</time>
      </trkpt>
      <trkpt lat="49.12614" lon="-0.15815">
        <ele>20.2000008</ele>
        <time>2013-12-08T07:44:34Z</time>
      </trkpt>
      <trkpt lat="49.12616" lon="-0.15813">
        <ele>20.2000008</ele>
        <time>2013-12-08T07:44:35Z</time>
      </trkpt>
      <trkpt lat="49.12618" lon="-0.15806">
        <ele>20.2000008</ele>
        <time>2013-12-08T07:44:39Z</time>
      </trkpt>
      <trkpt lat="49.12621" lon="-0.158">
        <ele>20.2000008</ele>
        <time>2013-12-08T07:44:44Z</time>
      </trkpt>
      <trkpt lat="49.12623" lon="-0.15798">
        <ele>20.2000008</ele>
        <time>2013-12-08T07:44:50Z</time>
      </trkpt>
      <trkpt lat="49.12626" lon="-0.15795">
        <ele>20.2000008</ele>
        <time>2013-12-08T07:44:55Z</time>
      </trkpt>
      <trkpt lat="49.12626" lon="-0.15794">
        <ele>20.2000008</ele>
        <time>2013-12-08T07:44:58Z</time>
      </trkpt>
      <trkpt lat="49.12626" lon="-0.15794">
        <ele>20.2000008</ele>
        <time>2013-12-08T07:44:59Z</time>
      </trkpt>
      <trkpt lat="49.12626" lon="-0.15794">
        <ele>20.2000008</ele>
        <time>2013-12-08T07:45:02Z</time>
      </trkpt>
      <trkpt lat="49.12626" lon="-0.15793">
        <ele>20.2000008</ele>
        <time>2013-12-08T07:45:03Z</time>
      </trkpt>
      <trkpt lat="49.12626" lon="-0.15793">
        <ele>20.2000008</ele>
        <time>2013-12-08T07:45:08Z</time>
      </trkpt>
      <trkpt lat="49.12627" lon="-0.15792">
        <ele>20.2000008</ele>
        <time>2013-12-08T07:45:09Z</time>
      </trkpt>
      <trkpt lat="49.12628" lon="-0.1579">
        <ele>20.2000008</ele>
        <time>2013-12-08T07:45:10Z</time>
      </trkpt>
      <trkpt lat="49.12635" lon="-0.15778">
        <ele>20.2000008</ele>
        <time>2013-12-08T07:45:15Z</time>
      </trkpt>
      <trkpt lat="49.12636" lon="-0.15774">
        <ele>20.2000008</ele>
        <time>2013-12-08T07:45:17Z</time>
      </trkpt>
      <trkpt lat="49.12638" lon="-0.15769">
        <ele>20.2000008</ele>
        <time>2013-12-08T07:45:19Z</time>
      </trkpt>
      <trkpt lat="49.1265" lon="-0.15756">
        <ele>20.6000004</ele>
        <time>2013-12-08T07:45:25Z</time>
      </trkpt>
      <trkpt lat="49.12652" lon="-0.15754">
        <ele>21.2000008</ele>
        <time>2013-12-08T07:45:26Z</time>
      </trkpt>
      <trkpt lat="49.12654" lon="-0.15752">
        <ele>21.6000004</ele>
        <time>2013-12-08T07:45:27Z</time>
      </trkpt>
      <trkpt lat="49.12656" lon="-0.15749">
        <ele>22</ele>
        <time>2013-12-08T07:45:28Z</time>
      </trkpt>
      <trkpt lat="49.12659" lon="-0.15747">
        <ele>22.3999996</ele>
        <time>2013-12-08T07:45:29Z</time>
      </trkpt>
      <trkpt lat="49.12664" lon="-0.15744">
        <ele>22.3999996</ele>
        <time>2013-12-08T07:45:31Z</time>
      </trkpt>
      <trkpt lat="49.12673" lon="-0.15736">
        <ele>22.3999996</ele>
        <time>2013-12-08T07:45:36Z</time>
      </trkpt>
      <trkpt lat="49.12675" lon="-0.15734">
        <ele>22.7999992</ele>
        <time>2013-12-08T07:45:37Z</time>
      </trkpt>
      <trkpt lat="49.12677" lon="-0.15733">
        <ele>23.3999996</ele>
        <time>2013-12-08T07:45:38Z</time>
      </trkpt>
      <trkpt lat="49.12679" lon="-0.15732">
        <ele>23.7999992</ele>
        <time>2013-12-08T07:45:39Z</time>
      </trkpt>
      <trkpt lat="49.12681" lon="-0.15731">
        <ele>24.2000008</ele>
        <time>2013-12-08T07:45:40Z</time>
      </trkpt>
      <trkpt lat="49.12683" lon="-0.15731">
        <ele>24.6000004</ele>
        <time>2013-12-08T07:45:41Z</time>
      </trkpt>
      <trkpt lat="49.12685" lon="-0.1573">
        <ele>24.6000004</ele>
        <time>2013-12-08T07:45:42Z</time>
      </trkpt>
      <trkpt lat="49.12691" lon="-0.15728">
        <ele>24.6000004</ele>
        <time>2013-12-08T07:45:45Z</time>
      </trkpt>
      <trkpt lat="49.12697" lon="-0.15724">
        <ele>25</ele>
        <time>2013-12-08T07:45:48Z</time>
      </trkpt>
      <trkpt lat="49.12699" lon="-0.15723">
        <ele>25.3999996</ele>
        <time>2013-12-08T07:45:49Z</time>
      </trkpt>
      <trkpt lat="49.12702" lon="-0.15721">
        <ele>26</ele>
        <time>2013-12-08T07:45:50Z</time>
      </trkpt>
      <trkpt lat="49.12704" lon="-0.1572">
        <ele>26.3999996</ele>
        <time>2013-12-08T07:45:51Z</time>
      </trkpt>
      <trkpt lat="49.12706" lon="-0.15718">
        <ele>26.7999992</ele>
        <time>2013-12-08T07:45:52Z</time>
      </trkpt>
      <trkpt lat="49.12712" lon="-0.15714">
        <ele>26.7999992</ele>
        <time>2013-12-08T07:45:55Z</time>
      </trkpt>
      <trkpt lat="49.12721" lon="-0.15709">
        <ele>27.2000008</ele>
        <time>2013-12-08T07:45:59Z</time>
      </trkpt>
      <trkpt lat="49.12723" lon="-0.15707">
        <ele>27.6000004</ele>
        <time>2013-12-08T07:46:00Z</time>
      </trkpt>
      <trkpt lat="49.12725" lon="-0.15706">
        <ele>28</ele>
        <time>2013-12-08T07:46:01Z</time>
      </trkpt>
      <trkpt lat="49.12727" lon="-0.15705">
        <ele>28.3999996</ele>
        <time>2013-12-08T07:46:02Z</time>
      </trkpt>
      <trkpt lat="49.1273" lon="-0.15703">
        <ele>28.7999992</ele>
        <time>2013-12-08T07:46:03Z</time>
      </trkpt>
      <trkpt lat="49.1274" lon="-0.15693">
        <ele>28.7999992</ele>
        <time>2013-12-08T07:46:09Z</time>
      </trkpt>
      <trkpt lat="49.12743" lon="-0.15689">
        <ele>29.2000008</ele>
        <time>2013-12-08T07:46:11Z</time>
      </trkpt>
      <trkpt lat="49.12745" lon="-0.15687">
        <ele>29.6000004</ele>
        <time>2013-12-08T07:46:12Z</time>
      </trkpt>
      <trkpt lat="49.12748" lon="-0.15684">
        <ele>30</ele>
        <time>2013-12-08T07:46:13Z</time>
      </trkpt>
      <trkpt lat="49.12749" lon="-0.15682">
        <ele>30.3999996</ele>
        <time>2013-12-08T07:46:14Z</time>
      </trkpt>
      <trkpt lat="49.12751" lon="-0.1568">
        <ele>30.7999992</ele>
        <time>2013-12-08T07:46:15Z</time>
      </trkpt>
      <trkpt lat="49.12752" lon="-0.15678">
        <ele>30.7999992</ele>
        <time>2013-12-08T07:46:16Z</time>
      </trkpt>
      <trkpt lat="49.12756" lon="-0.15665">
        <ele>30.7999992</ele>
        <time>2013-12-08T07:46:22Z</time>
      </trkpt>
      <trkpt lat="49.12758" lon="-0.15659">
        <ele>31.2000008</ele>
        <time>2013-12-08T07:46:24Z</time>
      </trkpt>
      <trkpt lat="49.12759" lon="-0.15657">
        <ele>31.7999992</ele>
        <time>2013-12-08T07:46:25Z</time>
      </trkpt>
      <trkpt lat="49.1276" lon="-0.15655">
        <ele>32.2000008</ele>
        <time>2013-12-08T07:46:26Z</time>
      </trkpt>
      <trkpt lat="49.12761" lon="-0.15652">
        <ele>32.5999985</ele>
        <time>2013-12-08T07:46:27Z</time>
      </trkpt>
      <trkpt lat="49.12762" lon="-0.1565">
        <ele>33</ele>
        <time>2013-12-08T07:46:28Z</time>
      </trkpt>
      <trkpt lat="49.12763" lon="-0.15648">
        <ele>33</ele>
        <time>2013-12-08T07:46:29Z</time>
      </trkpt>
      <trkpt lat="49.12766" lon="-0.15642">
        <ele>33</ele>
        <time>2013-12-08T07:46:32Z</time>
      </trkpt>
      <trkpt lat="49.12769" lon="-0.1564">
        <ele>33</ele>
        <time>2013-12-08T07:46:34Z</time>
      </trkpt>
      <trkpt lat="49.12774" lon="-0.15634">
        <ele>33.4000015</ele>
        <time>2013-12-08T07:46:37Z</time>
      </trkpt>
      <trkpt lat="49.12775" lon="-0.15632">
        <ele>33.7999992</ele>
        <time>2013-12-08T07:46:38Z</time>
      </trkpt>
      <trkpt lat="49.12776" lon="-0.1563">
        <ele>34.2000008</ele>
        <time>2013-12-08T07:46:39Z</time>
      </trkpt>
      <trkpt lat="49.12777" lon="-0.15629">
        <ele>34.5999985</ele>
        <time>2013-12-08T07:46:40Z</time>
      </trkpt>
      <trkpt lat="49.12779" lon="-0.15627">
        <ele>35</ele>
        <time>2013-12-08T07:46:41Z</time>
      </trkpt>
      <trkpt lat="49.12788" lon="-0.15617">
        <ele>35.5999985</ele>
        <time>2013-12-08T07:46:48Z</time>
      </trkpt>
      <trkpt lat="49.12789" lon="-0.15616">
        <ele>36</ele>
        <time>2013-12-08T07:46:49Z</time>
      </trkpt>
      <trkpt lat="49.12789" lon="-0.15615">
        <ele>36.4000015</ele>
        <time>2013-12-08T07:46:50Z</time>
      </trkpt>
      <trkpt lat="49.1279" lon="-0.15614">
        <ele>36.7999992</ele>
        <time>2013-12-08T07:46:51Z</time>
      </trkpt>
      <trkpt lat="49.12791" lon="-0.15612">
        <ele>37.2000008</ele>
        <time>2013-12-08T07:46:52Z</time>
      </trkpt>
      <trkpt lat="49.12795" lon="-0.15608">
        <ele>37.2000008</ele>
        <time>2013-12-08T07:46:55Z</time>
      </trkpt>
      <trkpt lat="49.12797" lon="-0.15604">
        <ele>37.5999985</ele>
        <time>2013-12-08T07:46:58Z</time>
      </trkpt>
      <trkpt lat="49.12798" lon="-0.15603">
        <ele>38</ele>
        <time>2013-12-08T07:46:59Z</time>
      </trkpt>
      <trkpt lat="49.12799" lon="-0.15601">
        <ele>38.4000015</ele>
        <time>2013-12-08T07:47:00Z</time>
      </trkpt>
      <trkpt lat="49.12799" lon="-0.156">
        <ele>38.7999992</ele>
        <time>2013-12-08T07:47:01Z</time>
      </trkpt>
      <trkpt lat="49.128" lon="-0.15599">
        <ele>39.2000008</ele>
        <time>2013-12-08T07:47:02Z</time>
      </trkpt>
      <trkpt lat="49.12802" lon="-0.15595">
        <ele>39.5999985</ele>
        <time>2013-12-08T07:47:06Z</time>
      </trkpt>
      <trkpt lat="49.12803" lon="-0.15594">
        <ele>40</ele>
        <time>2013-12-08T07:47:07Z</time>
      </trkpt>
      <trkpt lat="49.12804" lon="-0.15593">
        <ele>40.5999985</ele>
        <time>2013-12-08T07:47:08Z</time>
      </trkpt>
      <trkpt lat="49.12805" lon="-0.15591">
        <ele>41</ele>
        <time>2013-12-08T07:47:09Z</time>
      </trkpt>
      <trkpt lat="49.12806" lon="-0.15589">
        <ele>41.4000015</ele>
        <time>2013-12-08T07:47:10Z</time>
      </trkpt>
      <trkpt lat="49.12808" lon="-0.15586">
        <ele>41.7999992</ele>
        <time>2013-12-08T07:47:13Z</time>
      </trkpt>
      <trkpt lat="49.12809" lon="-0.15584">
        <ele>42.2000008</ele>
        <time>2013-12-08T07:47:14Z</time>
      </trkpt>
      <trkpt lat="49.1281" lon="-0.15583">
        <ele>42.5999985</ele>
        <time>2013-12-08T07:47:15Z</time>
      </trkpt>
      <trkpt lat="49.12811" lon="-0.15582">
        <ele>43.2000008</ele>
        <time>2013-12-08T07:47:16Z</time>
      </trkpt>
      <trkpt lat="49.12812" lon="-0.1558">
        <ele>43.5999985</ele>
        <time>2013-12-08T07:47:17Z</time>
      </trkpt>
      <trkpt lat="49.12815" lon="-0.15576">
        <ele>44</ele>
        <time>2013-12-08T07:47:20Z</time>
      </trkpt>
      <trkpt lat="49.12815" lon="-0.15574">
        <ele>44.5999985</ele>
        <time>2013-12-08T07:47:21Z</time>
      </trkpt>
      <trkpt lat="49.12816" lon="-0.15573">
        <ele>45</ele>
        <time>2013-12-08T07:47:22Z</time>
      </trkpt>
      <trkpt lat="49.12817" lon="-0.15571">
        <ele>45.4000015</ele>
        <time>2013-12-08T07:47:23Z</time>
      </trkpt>
      <trkpt lat="49.12818" lon="-0.15569">
        <ele>46</ele>
        <time>2013-12-08T07:47:24Z</time>
      </trkpt>
      <trkpt lat="49.12821" lon="-0.15567">
        <ele>46</ele>
        <time>2013-12-08T07:47:26Z</time>
      </trkpt>
      <trkpt lat="49.12822" lon="-0.15565">
        <ele>46.4000015</ele>
        <time>2013-12-08T07:47:27Z</time>
      </trkpt>
      <trkpt lat="49.12823" lon="-0.15563">
        <ele>46.7999992</ele>
        <time>2013-12-08T07:47:28Z</time>
      </trkpt>
      <trkpt lat="49.12823" lon="-0.15562">
        <ele>47.2000008</ele>
        <time>2013-12-08T07:47:29Z</time>
      </trkpt>
      <trkpt lat="49.12824" lon="-0.1556">
        <ele>47.5999985</ele>
        <time>2013-12-08T07:47:30Z</time>
      </trkpt>
      <trkpt lat="49.12824" lon="-0.15559">
        <ele>48</ele>
        <time>2013-12-08T07:47:31Z</time>
      </trkpt>
      <trkpt lat="49.12826" lon="-0.15555">
        <ele>48</ele>
        <time>2013-12-08T07:47:34Z</time>
      </trkpt>
      <trkpt lat="49.12827" lon="-0.15551">
        <ele>48.4000015</ele>
        <time>2013-12-08T07:47:36Z</time>
      </trkpt>
      <trkpt lat="49.12827" lon="-0.15549">
        <ele>49</ele>
        <time>2013-12-08T07:47:37Z</time>
      </trkpt>
      <trkpt lat="49.12827" lon="-0.15548">
        <ele>49.4000015</ele>
        <time>2013-12-08T07:47:38Z</time>
      </trkpt>
      <trkpt lat="49.12828" lon="-0.15547">
        <ele>49.7999992</ele>
        <time>2013-12-08T07:47:39Z</time>
      </trkpt>
      <trkpt lat="49.12829" lon="-0.15545">
        <ele>50.2000008</ele>
        <time>2013-12-08T07:47:40Z</time>
      </trkpt>
      <trkpt lat="49.12835" lon="-0.15538">
        <ele>50.2000008</ele>
        <time>2013-12-08T07:47:46Z</time>
      </trkpt>
      <trkpt lat="49.12835" lon="-0.15537">
        <ele>50.5999985</ele>
        <time>2013-12-08T07:47:47Z</time>
      </trkpt>
      <trkpt lat="49.12836" lon="-0.15535">
        <ele>51</ele>
        <time>2013-12-08T07:47:48Z</time>
      </trkpt>
      <trkpt lat="49.12837" lon="-0.15534">
        <ele>51.4000015</ele>
        <time>2013-12-08T07:47:49Z</time>
      </trkpt>
      <trkpt lat="49.12838" lon="-0.15532">
        <ele>51.7999992</ele>
        <time>2013-12-08T07:47:50Z</time>
      </trkpt>
      <trkpt lat="49.12839" lon="-0.15531">
        <ele>52.2000008</ele>
        <time>2013-12-08T07:47:51Z</time>
      </trkpt>
      <trkpt lat="49.12841" lon="-0.15528">
        <ele>52.2000008</ele>
        <time>2013-12-08T07:47:53Z</time>
      </trkpt>
      <trkpt lat="49.12845" lon="-0.15521">
        <ele>52.5999985</ele>
        <time>2013-12-08T07:47:59Z</time>
      </trkpt>
      <trkpt lat="49.12846" lon="-0.15521">
        <ele>53.5999985</ele>
        <time>2013-12-08T07:48:00Z</time>
      </trkpt>
      <trkpt lat="49.12847" lon="-0.1552">
        <ele>54</ele>
        <time>2013-12-08T07:48:01Z</time>
      </trkpt>
      <trkpt lat="49.12848" lon="-0.15519">
        <ele>54.4000015</ele>
        <time>2013-12-08T07:48:02Z</time>
      </trkpt>
      <trkpt lat="49.12849" lon="-0.15518">
        <ele>54.4000015</ele>
        <time>2013-12-08T07:48:03Z</time>
      </trkpt>
      <trkpt lat="49.12851" lon="-0.15515">
        <ele>54.4000015</ele>
        <time>2013-12-08T07:48:05Z</time>
      </trkpt>
      <trkpt lat="49.12851" lon="-0.15514">
        <ele>54.4000015</ele>
        <time>2013-12-08T07:48:06Z</time>
      </trkpt>
      <trkpt lat="49.12852" lon="-0.15512">
        <ele>54.7999992</ele>
        <time>2013-12-08T07:48:08Z</time>
      </trkpt>
      <trkpt lat="49.12853" lon="-0.1551">
        <ele>55.2000008</ele>
        <time>2013-12-08T07:48:09Z</time>
      </trkpt>
      <trkpt lat="49.12854" lon="-0.15509">
        <ele>55.5999985</ele>
        <time>2013-12-08T07:48:10Z</time>
      </trkpt>
      <trkpt lat="49.12855" lon="-0.15507">
        <ele>56</ele>
        <time>2013-12-08T07:48:11Z</time>
      </trkpt>
      <trkpt lat="49.12856" lon="-0.15506">
        <ele>56.4000015</ele>
        <time>2013-12-08T07:48:12Z</time>
      </trkpt>
      <trkpt lat="49.1286" lon="-0.15497">
        <ele>56.7999992</ele>
        <time>2013-12-08T07:48:17Z</time>
      </trkpt>
      <trkpt lat="49.12861" lon="-0.15496">
        <ele>57.2000008</ele>
        <time>2013-12-08T07:48:18Z</time>
      </trkpt>
      <trkpt lat="49.12862" lon="-0.15496">
        <ele>57.5999985</ele>
        <time>2013-12-08T07:48:19Z</time>
      </trkpt>
      <trkpt lat="49.12863" lon="-0.15495">
        <ele>58</ele>
        <time>2013-12-08T07:48:20Z</time>
      </trkpt>
      <trkpt lat="49.12864" lon="-0.15495">
        <ele>58.5999985</ele>
        <time>2013-12-08T07:48:21Z</time>
      </trkpt>
      <trkpt lat="49.12867" lon="-0.15492">
        <ele>59</ele>
        <time>2013-12-08T07:48:24Z</time>
      </trkpt>
      <trkpt lat="49.12868" lon="-0.1549">
        <ele>59.4000015</ele>
        <time>2013-12-08T07:48:25Z</time>
      </trkpt>
      <trkpt lat="49.12869" lon="-0.15489">
        <ele>59.7999992</ele>
        <time>2013-12-08T07:48:26Z</time>
      </trkpt>
      <trkpt lat="49.1287" lon="-0.15487">
        <ele>60.2000008</ele>
        <time>2013-12-08T07:48:27Z</time>
      </trkpt>
      <trkpt lat="49.1287" lon="-0.15486">
        <ele>60.5999985</ele>
        <time>2013-12-08T07:48:28Z</time>
      </trkpt>
      <trkpt lat="49.12871" lon="-0.15483">
        <ele>60.5999985</ele>
        <time>2013-12-08T07:48:31Z</time>
      </trkpt>
      <trkpt lat="49.12873" lon="-0.15482">
        <ele>61</ele>
        <time>2013-12-08T07:48:33Z</time>
      </trkpt>
      <trkpt lat="49.12873" lon="-0.15481">
        <ele>61.4000015</ele>
        <time>2013-12-08T07:48:34Z</time>
      </trkpt>
      <trkpt lat="49.12874" lon="-0.15479">
        <ele>61.7999992</ele>
        <time>2013-12-08T07:48:35Z</time>
      </trkpt>
      <trkpt lat="49.12874" lon="-0.15478">
        <ele>62.2000008</ele>
        <time>2013-12-08T07:48:36Z</time>
      </trkpt>
      <trkpt lat="49.12875" lon="-0.15477">
        <ele>62.5999985</ele>
        <time>2013-12-08T07:48:37Z</time>
      </trkpt>
      <trkpt lat="49.12876" lon="-0.15476">
        <ele>62.5999985</ele>
        <time>2013-12-08T07:48:38Z</time>
      </trkpt>
      <trkpt lat="49.12878" lon="-0.15471">
        <ele>63</ele>
        <time>2013-12-08T07:48:41Z</time>
      </trkpt>
      <trkpt lat="49.12878" lon="-0.1547">
        <ele>63.4000015</ele>
        <time>2013-12-08T07:48:42Z</time>
      </trkpt>
      <trkpt lat="49.12878" lon="-0.15468">
        <ele>63.7999992</ele>
        <time>2013-12-08T07:48:43Z</time>
      </trkpt>
      <trkpt lat="49.12879" lon="-0.15467">
        <ele>64.1999969</ele>
        <time>2013-12-08T07:48:44Z</time>
      </trkpt>
      <trkpt lat="49.12879" lon="-0.15466">
        <ele>64.5999985</ele>
        <time>2013-12-08T07:48:45Z</time>
      </trkpt>
      <trkpt lat="49.12881" lon="-0.1546">
        <ele>65.4000015</ele>
        <time>2013-12-08T07:48:49Z</time>
      </trkpt>
      <trkpt lat="49.12882" lon="-0.15458">
        <ele>65.8000031</ele>
        <time>2013-12-08T07:48:50Z</time>
      </trkpt>
      <trkpt lat="49.12883" lon="-0.15456">
        <ele>66.1999969</ele>
        <time>2013-12-08T07:48:51Z</time>
      </trkpt>
      <trkpt lat="49.12884" lon="-0.15454">
        <ele>66.5999985</ele>
        <time>2013-12-08T07:48:52Z</time>
      </trkpt>
      <trkpt lat="49.12886" lon="-0.15446">
        <ele>67</ele>
        <time>2013-12-08T07:48:57Z</time>
      </trkpt>
      <trkpt lat="49.12887" lon="-0.15445">
        <ele>67.4000015</ele>
        <time>2013-12-08T07:48:58Z</time>
      </trkpt>
      <trkpt lat="49.12887" lon="-0.15443">
        <ele>68</ele>
        <time>2013-12-08T07:48:59Z</time>
      </trkpt>
      <trkpt lat="49.12887" lon="-0.15442">
        <ele>68.4000015</ele>
        <time>2013-12-08T07:49:00Z</time>
      </trkpt>
      <trkpt lat="49.12888" lon="-0.1544">
        <ele>68.8000031</ele>
        <time>2013-12-08T07:49:01Z</time>
      </trkpt>
      <trkpt lat="49.12888" lon="-0.15437">
        <ele>68.8000031</ele>
        <time>2013-12-08T07:49:03Z</time>
      </trkpt>
      <trkpt lat="49.12889" lon="-0.15433">
        <ele>68.8000031</ele>
        <time>2013-12-08T07:49:05Z</time>
      </trkpt>
      <trkpt lat="49.1289" lon="-0.15429">
        <ele>69.1999969</ele>
        <time>2013-12-08T07:49:07Z</time>
      </trkpt>
      <trkpt lat="49.12891" lon="-0.15428">
        <ele>69.5999985</ele>
        <time>2013-12-08T07:49:08Z</time>
      </trkpt>
      <trkpt lat="49.12891" lon="-0.15427">
        <ele>70</ele>
        <time>2013-12-08T07:49:09Z</time>
      </trkpt>
      <trkpt lat="49.12892" lon="-0.15425">
        <ele>70.4000015</ele>
        <time>2013-12-08T07:49:10Z</time>
      </trkpt>
      <trkpt lat="49.12892" lon="-0.15423">
        <ele>70.8000031</ele>
        <time>2013-12-08T07:49:11Z</time>
      </trkpt>
      <trkpt lat="49.12895" lon="-0.15416">
        <ele>70.8000031</ele>
        <time>2013-12-08T07:49:14Z</time>
      </trkpt>
      <trkpt lat="49.12894" lon="-0.15414">
        <ele>70.8000031</ele>
        <time>2013-12-08T07:49:15Z</time>
      </trkpt>
      <trkpt lat="49.12893" lon="-0.15411">
        <ele>70.8000031</ele>
        <time>2013-12-08T07:49:18Z</time>
      </trkpt>
      <trkpt lat="49.12893" lon="-0.15409">
        <ele>70.8000031</ele>
        <time>2013-12-08T07:50:25Z</time>
      </trkpt>
      <trkpt lat="49.12893" lon="-0.15408">
        <ele>70.8000031</ele>
        <time>2013-12-08T07:50:26Z</time>
      </trkpt>
      <trkpt lat="49.12891" lon="-0.15406">
        <ele>70.8000031</ele>
        <time>2013-12-08T07:50:28Z</time>
      </trkpt>
      <trkpt lat="49.12889" lon="-0.15403">
        <ele>70.8000031</ele>
        <time>2013-12-08T07:50:30Z</time>
      </trkpt>
      <trkpt lat="49.12888" lon="-0.15402">
        <ele>70.8000031</ele>
        <time>2013-12-08T07:50:31Z</time>
      </trkpt>
      <trkpt lat="49.12886" lon="-0.15393">
        <ele>70.8000031</ele>
        <time>2013-12-08T07:50:34Z</time>
      </trkpt>
      <trkpt lat="49.12884" lon="-0.15386">
        <ele>70.8000031</ele>
        <time>2013-12-08T07:50:36Z</time>
      </trkpt>
      <trkpt lat="49.1287" lon="-0.15362">
        <ele>70.8000031</ele>
        <time>2013-12-08T07:50:42Z</time>
      </trkpt>
      <trkpt lat="49.12861" lon="-0.1535">
        <ele>71.1999969</ele>
        <time>2013-12-08T07:50:46Z</time>
      </trkpt>
      <trkpt lat="49.12858" lon="-0.15346">
        <ele>71.5999985</ele>
        <time>2013-12-08T07:50:47Z</time>
      </trkpt>
      <trkpt lat="49.12854" lon="-0.15342">
        <ele>72</ele>
        <time>2013-12-08T07:50:48Z</time>
      </trkpt>
      <trkpt lat="49.1285" lon="-0.15338">
        <ele>72.4000015</ele>
        <time>2013-12-08T07:50:49Z</time>
      </trkpt>
      <trkpt lat="49.12848" lon="-0.15334">
        <ele>72.8000031</ele>
        <time>2013-12-08T07:50:50Z</time>
      </trkpt>
      <trkpt lat="49.1284" lon="-0.1532">
        <ele>72.8000031</ele>
        <time>2013-12-08T07:50:53Z</time>
      </trkpt>
      <trkpt lat="49.12825" lon="-0.15291">
        <ele>72.8000031</ele>
        <time>2013-12-08T07:50:59Z</time>
      </trkpt>
      <trkpt lat="49.12822" lon="-0.15289">
        <ele>72.8000031</ele>
        <time>2013-12-08T07:51:00Z</time>
      </trkpt>
      <trkpt lat="49.12815" lon="-0.15291">
        <ele>72.8000031</ele>
        <time>2013-12-08T07:51:02Z</time>
      </trkpt>
      <trkpt lat="49.12799" lon="-0.15303">
        <ele>73.1999969</ele>
        <time>2013-12-08T07:51:06Z</time>
      </trkpt>
      <trkpt lat="49.12795" lon="-0.15306">
        <ele>73.5999985</ele>
        <time>2013-12-08T07:51:07Z</time>
      </trkpt>
      <trkpt lat="49.12792" lon="-0.15307">
        <ele>74</ele>
        <time>2013-12-08T07:51:08Z</time>
      </trkpt>
      <trkpt lat="49.12788" lon="-0.15308">
        <ele>74.4000015</ele>
        <time>2013-12-08T07:51:09Z</time>
      </trkpt>
      <trkpt lat="49.12783" lon="-0.15309">
        <ele>75</ele>
        <time>2013-12-08T07:51:10Z</time>
      </trkpt>
      <trkpt lat="49.12778" lon="-0.15308">
        <ele>75</ele>
        <time>2013-12-08T07:51:11Z</time>
      </trkpt>
      <trkpt lat="49.12768" lon="-0.15305">
        <ele>75</ele>
        <time>2013-12-08T07:51:13Z</time>
      </trkpt>
      <trkpt lat="49.12754" lon="-0.15296">
        <ele>75</ele>
        <time>2013-12-08T07:51:17Z</time>
      </trkpt>
      <trkpt lat="49.12743" lon="-0.15289">
        <ele>75</ele>
        <time>2013-12-08T07:51:20Z</time>
      </trkpt>
      <trkpt lat="49.12736" lon="-0.15284">
        <ele>75</ele>
        <time>2013-12-08T07:51:22Z</time>
      </trkpt>
      <trkpt lat="49.12713" lon="-0.15276">
        <ele>75</ele>
        <time>2013-12-08T07:51:27Z</time>
      </trkpt>
      <trkpt lat="49.12689" lon="-0.15271">
        <ele>75</ele>
        <time>2013-12-08T07:51:32Z</time>
      </trkpt>
      <trkpt lat="49.12684" lon="-0.15269">
        <ele>75</ele>
        <time>2013-12-08T07:51:33Z</time>
      </trkpt>
      <trkpt lat="49.12655" lon="-0.15258">
        <ele>75</ele>
        <time>2013-12-08T07:51:39Z</time>
      </trkpt>
      <trkpt lat="49.12626" lon="-0.15248">
        <ele>75</ele>
        <time>2013-12-08T07:51:45Z</time>
      </trkpt>
      <trkpt lat="49.12601" lon="-0.15242">
        <ele>75</ele>
        <time>2013-12-08T07:51:50Z</time>
      </trkpt>
      <trkpt lat="49.12597" lon="-0.15241">
        <ele>75</ele>
        <time>2013-12-08T07:51:51Z</time>
      </trkpt>
      <trkpt lat="49.12568" lon="-0.1523">
        <ele>75</ele>
        <time>2013-12-08T07:51:57Z</time>
      </trkpt>
      <trkpt lat="49.12549" lon="-0.15222">
        <ele>75</ele>
        <time>2013-12-08T07:52:01Z</time>
      </trkpt>
      <trkpt lat="49.1254" lon="-0.15216">
        <ele>75</ele>
        <time>2013-12-08T07:52:03Z</time>
      </trkpt>
      <trkpt lat="49.12536" lon="-0.15213">
        <ele>75</ele>
        <time>2013-12-08T07:52:04Z</time>
      </trkpt>
      <trkpt lat="49.12525" lon="-0.15197">
        <ele>75</ele>
        <time>2013-12-08T07:52:07Z</time>
      </trkpt>
      <trkpt lat="49.12516" lon="-0.15177">
        <ele>75</ele>
        <time>2013-12-08T07:52:10Z</time>
      </trkpt>
      <trkpt lat="49.12513" lon="-0.1517">
        <ele>75</ele>
        <time>2013-12-08T07:52:11Z</time>
      </trkpt>
      <trkpt lat="49.1251" lon="-0.15163">
        <ele>75</ele>
        <time>2013-12-08T07:52:12Z</time>
      </trkpt>
      <trkpt lat="49.12505" lon="-0.15149">
        <ele>75</ele>
        <time>2013-12-08T07:52:14Z</time>
      </trkpt>
      <trkpt lat="49.12501" lon="-0.15135">
        <ele>75</ele>
        <time>2013-12-08T07:52:16Z</time>
      </trkpt>
      <trkpt lat="49.12498" lon="-0.15129">
        <ele>75</ele>
        <time>2013-12-08T07:52:17Z</time>
      </trkpt>
      <trkpt lat="49.12483" lon="-0.15107">
        <ele>75</ele>
        <time>2013-12-08T07:52:21Z</time>
      </trkpt>
      <trkpt lat="49.12479" lon="-0.15104">
        <ele>75</ele>
        <time>2013-12-08T07:52:22Z</time>
      </trkpt>
      <trkpt lat="49.1247" lon="-0.15092">
        <ele>75</ele>
        <time>2013-12-08T07:52:26Z</time>
      </trkpt>
      <trkpt lat="49.12469" lon="-0.1509">
        <ele>74.4000015</ele>
        <time>2013-12-08T07:52:28Z</time>
      </trkpt>
      <trkpt lat="49.12468" lon="-0.15089">
        <ele>74</ele>
        <time>2013-12-08T07:52:29Z</time>
      </trkpt>
      <trkpt lat="49.12468" lon="-0.15089">
        <ele>72.8000031</ele>
        <time>2013-12-08T07:52:43Z</time>
      </trkpt>
      <trkpt lat="49.12468" lon="-0.15086">
        <ele>72.8000031</ele>
        <time>2013-12-08T07:52:44Z</time>
      </trkpt>
      <trkpt lat="49.12471" lon="-0.15077">
        <ele>72.8000031</ele>
        <time>2013-12-08T07:52:46Z</time>
      </trkpt>
      <trkpt lat="49.12476" lon="-0.15059">
        <ele>72.8000031</ele>
        <time>2013-12-08T07:52:49Z</time>
      </trkpt>
      <trkpt lat="49.1248" lon="-0.15044">
        <ele>72.8000031</ele>
        <time>2013-12-08T07:52:51Z</time>
      </trkpt>
      <trkpt lat="49.12494" lon="-0.14997">
        <ele>72.8000031</ele>
        <time>2013-12-08T07:52:57Z</time>
      </trkpt>
      <trkpt lat="49.12509" lon="-0.1494">
        <ele>72.8000031</ele>
        <time>2013-12-08T07:53:04Z</time>
      </trkpt>
      <trkpt lat="49.12512" lon="-0.14932">
        <ele>72.8000031</ele>
        <time>2013-12-08T07:53:05Z</time>
      </trkpt>
      <trkpt lat="49.12521" lon="-0.14901">
        <ele>72.4000015</ele>
        <time>2013-12-08T07:53:09Z</time>
      </trkpt>
      <trkpt lat="49.12523" lon="-0.14895">
        <ele>71.8000031</ele>
        <time>2013-12-08T07:53:10Z</time>
      </trkpt>
      <trkpt lat="49.12525" lon="-0.14888">
        <ele>71.4000015</ele>
        <time>2013-12-08T07:53:11Z</time>
      </trkpt>
      <trkpt lat="49.12528" lon="-0.14881">
        <ele>71</ele>
        <time>2013-12-08T07:53:12Z</time>
      </trkpt>
      <trkpt lat="49.1253" lon="-0.14874">
        <ele>70.5999985</ele>
        <time>2013-12-08T07:53:13Z</time>
      </trkpt>
      <trkpt lat="49.12535" lon="-0.14858">
        <ele>70.5999985</ele>
        <time>2013-12-08T07:53:15Z</time>
      </trkpt>
      <trkpt lat="49.12552" lon="-0.14798">
        <ele>70.1999969</ele>
        <time>2013-12-08T07:53:22Z</time>
      </trkpt>
      <trkpt lat="49.12554" lon="-0.1479">
        <ele>69.8000031</ele>
        <time>2013-12-08T07:53:23Z</time>
      </trkpt>
      <trkpt lat="49.12556" lon="-0.14783">
        <ele>69.4000015</ele>
        <time>2013-12-08T07:53:24Z</time>
      </trkpt>
      <trkpt lat="49.12557" lon="-0.14776">
        <ele>69</ele>
        <time>2013-12-08T07:53:25Z</time>
      </trkpt>
      <trkpt lat="49.12559" lon="-0.14769">
        <ele>68.5999985</ele>
        <time>2013-12-08T07:53:26Z</time>
      </trkpt>
      <trkpt lat="49.12562" lon="-0.14762">
        <ele>68.5999985</ele>
        <time>2013-12-08T07:53:27Z</time>
      </trkpt>
      <trkpt lat="49.12563" lon="-0.14755">
        <ele>68.5999985</ele>
        <time>2013-12-08T07:53:28Z</time>
      </trkpt>
      <trkpt lat="49.12567" lon="-0.1474">
        <ele>68.5999985</ele>
        <time>2013-12-08T07:53:30Z</time>
      </trkpt>
      <trkpt lat="49.12568" lon="-0.14732">
        <ele>68.5999985</ele>
        <time>2013-12-08T07:53:31Z</time>
      </trkpt>
      <trkpt lat="49.12581" lon="-0.14684">
        <ele>68.5999985</ele>
        <time>2013-12-08T07:53:37Z</time>
      </trkpt>
      <trkpt lat="49.12584" lon="-0.14675">
        <ele>68</ele>
        <time>2013-12-08T07:53:39Z</time>
      </trkpt>
      <trkpt lat="49.12585" lon="-0.14672">
        <ele>67.5999985</ele>
        <time>2013-12-08T07:53:40Z</time>
      </trkpt>
      <trkpt lat="49.12586" lon="-0.14669">
        <ele>67.1999969</ele>
        <time>2013-12-08T07:53:41Z</time>
      </trkpt>
      <trkpt lat="49.12586" lon="-0.14667">
        <ele>66.5999985</ele>
        <time>2013-12-08T07:53:42Z</time>
      </trkpt>
      <trkpt lat="49.12587" lon="-0.14666">
        <ele>66.1999969</ele>
        <time>2013-12-08T07:53:43Z</time>
      </trkpt>
      <trkpt lat="49.12588" lon="-0.14662">
        <ele>66.1999969</ele>
        <time>2013-12-08T07:53:46Z</time>
      </trkpt>
      <trkpt lat="49.12589" lon="-0.1466">
        <ele>66.1999969</ele>
        <time>2013-12-08T07:53:48Z</time>
      </trkpt>
      <trkpt lat="49.12591" lon="-0.14655">
        <ele>66.1999969</ele>
        <time>2013-12-08T07:53:50Z</time>
      </trkpt>
      <trkpt lat="49.12598" lon="-0.14635">
        <ele>66.1999969</ele>
        <time>2013-12-08T07:53:55Z</time>
      </trkpt>
      <trkpt lat="49.12612" lon="-0.14628">
        <ele>66.1999969</ele>
        <time>2013-12-08T07:53:59Z</time>
      </trkpt>
      <trkpt lat="49.12619" lon="-0.14624">
        <ele>66.1999969</ele>
        <time>2013-12-08T07:54:01Z</time>
      </trkpt>
      <trkpt lat="49.12629" lon="-0.14613">
        <ele>66.1999969</ele>
        <time>2013-12-08T07:54:04Z</time>
      </trkpt>
      <trkpt lat="49.12633" lon="-0.146">
        <ele>66.1999969</ele>
        <time>2013-12-08T07:54:06Z</time>
      </trkpt>
      <trkpt lat="49.12637" lon="-0.14583">
        <ele>66.1999969</ele>
        <time>2013-12-08T07:54:09Z</time>
      </trkpt>
      <trkpt lat="49.12639" lon="-0.14566">
        <ele>65.8000031</ele>
        <time>2013-12-08T07:54:12Z</time>
      </trkpt>
      <trkpt lat="49.12641" lon="-0.14559">
        <ele>65.1999969</ele>
        <time>2013-12-08T07:54:13Z</time>
      </trkpt>
      <trkpt lat="49.12642" lon="-0.14552">
        <ele>64.8000031</ele>
        <time>2013-12-08T07:54:14Z</time>
      </trkpt>
      <trkpt lat="49.12643" lon="-0.14545">
        <ele>64.4000015</ele>
        <time>2013-12-08T07:54:15Z</time>
      </trkpt>
      <trkpt lat="49.12643" lon="-0.14538">
        <ele>64</ele>
        <time>2013-12-08T07:54:16Z</time>
      </trkpt>
      <trkpt lat="49.12644" lon="-0.14533">
        <ele>64</ele>
        <time>2013-12-08T07:54:17Z</time>
      </trkpt>
      <trkpt lat="49.12646" lon="-0.14521">
        <ele>64</ele>
        <time>2013-12-08T07:54:19Z</time>
      </trkpt>
      <trkpt lat="49.1265" lon="-0.14499">
        <ele>63.4000015</ele>
        <time>2013-12-08T07:54:23Z</time>
      </trkpt>
      <trkpt lat="49.12651" lon="-0.14494">
        <ele>63</ele>
        <time>2013-12-08T07:54:24Z</time>
      </trkpt>
      <trkpt lat="49.12653" lon="-0.14489">
        <ele>62.4000015</ele>
        <time>2013-12-08T07:54:25Z</time>
      </trkpt>
      <trkpt lat="49.12655" lon="-0.14483">
        <ele>62</ele>
        <time>2013-12-08T07:54:26Z</time>
      </trkpt>
      <trkpt lat="49.12657" lon="-0.14477">
        <ele>61.4000015</ele>
        <time>2013-12-08T07:54:27Z</time>
      </trkpt>
      <trkpt lat="49.12661" lon="-0.14461">
        <ele>61.4000015</ele>
        <time>2013-12-08T07:54:30Z</time>
      </trkpt>
      <trkpt lat="49.12662" lon="-0.1445">
        <ele>61.4000015</ele>
        <time>2013-12-08T07:54:33Z</time>
      </trkpt>
      <trkpt lat="49.12661" lon="-0.14447">
        <ele>61.4000015</ele>
        <time>2013-12-08T07:54:34Z</time>
      </trkpt>
      <trkpt lat="49.12649" lon="-0.14446">
        <ele>61.4000015</ele>
        <time>2013-12-08T07:54:38Z</time>
      </trkpt>
      <trkpt lat="49.12642" lon="-0.14452">
        <ele>61.4000015</ele>
        <time>2013-12-08T07:54:40Z</time>
      </trkpt>
      <trkpt lat="49.12635" lon="-0.14459">
        <ele>61.4000015</ele>
        <time>2013-12-08T07:54:42Z</time>
      </trkpt>
      <trkpt lat="49.12615" lon="-0.14462">
        <ele>61.4000015</ele>
        <time>2013-12-08T07:54:47Z</time>
      </trkpt>
      <trkpt lat="49.12591" lon="-0.1446">
        <ele>61.4000015</ele>
        <time>2013-12-08T07:54:53Z</time>
      </trkpt>
      <trkpt lat="49.12575" lon="-0.14459">
        <ele>61.4000015</ele>
        <time>2013-12-08T07:54:57Z</time>
      </trkpt>
      <trkpt lat="49.12567" lon="-0.14459">
        <ele>61.4000015</ele>
        <time>2013-12-08T07:54:59Z</time>
      </trkpt>
      <trkpt lat="49.12563" lon="-0.14459">
        <ele>61.7999992</ele>
        <time>2013-12-08T07:55:00Z</time>
      </trkpt>
      <trkpt lat="49.12559" lon="-0.14458">
        <ele>62.2000008</ele>
        <time>2013-12-08T07:55:01Z</time>
      </trkpt>
      <trkpt lat="49.12556" lon="-0.14458">
        <ele>62.7999992</ele>
        <time>2013-12-08T07:55:02Z</time>
      </trkpt>
      <trkpt lat="49.12552" lon="-0.14458">
        <ele>63.2000008</ele>
        <time>2013-12-08T07:55:03Z</time>
      </trkpt>
      <trkpt lat="49.12549" lon="-0.14457">
        <ele>63.5999985</ele>
        <time>2013-12-08T07:55:04Z</time>
      </trkpt>
      <trkpt lat="49.12545" lon="-0.14456">
        <ele>63.5999985</ele>
        <time>2013-12-08T07:55:05Z</time>
      </trkpt>
      <trkpt lat="49.12524" lon="-0.14451">
        <ele>63.5999985</ele>
        <time>2013-12-08T07:55:10Z</time>
      </trkpt>
      <trkpt lat="49.12506" lon="-0.14445">
        <ele>63.5999985</ele>
        <time>2013-12-08T07:55:14Z</time>
      </trkpt>
      <trkpt lat="49.12502" lon="-0.14444">
        <ele>64</ele>
        <time>2013-12-08T07:55:15Z</time>
      </trkpt>
      <trkpt lat="49.12499" lon="-0.14443">
        <ele>64.4000015</ele>
        <time>2013-12-08T07:55:16Z</time>
      </trkpt>
      <trkpt lat="49.12496" lon="-0.14442">
        <ele>64.8000031</ele>
        <time>2013-12-08T07:55:17Z</time>
      </trkpt>
      <trkpt lat="49.12493" lon="-0.14441">
        <ele>65.1999969</ele>
        <time>2013-12-08T07:55:18Z</time>
      </trkpt>
      <trkpt lat="49.1249" lon="-0.14441">
        <ele>65.5999985</ele>
        <time>2013-12-08T07:55:19Z</time>
      </trkpt>
      <trkpt lat="49.12476" lon="-0.14441">
        <ele>65.5999985</ele>
        <time>2013-12-08T07:55:23Z</time>
      </trkpt>
      <trkpt lat="49.12452" lon="-0.14437">
        <ele>65.5999985</ele>
        <time>2013-12-08T07:55:29Z</time>
      </trkpt>
      <trkpt lat="49.12428" lon="-0.14428">
        <ele>66</ele>
        <time>2013-12-08T07:55:35Z</time>
      </trkpt>
      <trkpt lat="49.12424" lon="-0.14427">
        <ele>66.4000015</ele>
        <time>2013-12-08T07:55:36Z</time>
      </trkpt>
      <trkpt lat="49.1242" lon="-0.14425">
        <ele>66.8000031</ele>
        <time>2013-12-08T07:55:37Z</time>
      </trkpt>
      <trkpt lat="49.12416" lon="-0.14424">
        <ele>67.1999969</ele>
        <time>2013-12-08T07:55:38Z</time>
      </trkpt>
      <trkpt lat="49.12412" lon="-0.14422">
        <ele>67.5999985</ele>
        <time>2013-12-08T07:55:39Z</time>
      </trkpt>
      <trkpt lat="49.12404" lon="-0.14418">
        <ele>67.5999985</ele>
        <time>2013-12-08T07:55:41Z</time>
      </trkpt>
      <trkpt lat="49.12373" lon="-0.14406">
        <ele>67.5999985</ele>
        <time>2013-12-08T07:55:48Z</time>
      </trkpt>
      <trkpt lat="49.12347" lon="-0.14397">
        <ele>67.5999985</ele>
        <time>2013-12-08T07:55:53Z</time>
      </trkpt>
      <trkpt lat="49.12328" lon="-0.14388">
        <ele>67.5999985</ele>
        <time>2013-12-08T07:55:57Z</time>
      </trkpt>
      <trkpt lat="49.12325" lon="-0.14382">
        <ele>67.5999985</ele>
        <time>2013-12-08T07:55:58Z</time>
      </trkpt>
      <trkpt lat="49.12321" lon="-0.14366">
        <ele>67.1999969</ele>
        <time>2013-12-08T07:56:01Z</time>
      </trkpt>
      <trkpt lat="49.1232" lon="-0.14358">
        <ele>66.8000031</ele>
        <time>2013-12-08T07:56:02Z</time>
      </trkpt>
      <trkpt lat="49.12319" lon="-0.14349">
        <ele>66.4000015</ele>
        <time>2013-12-08T07:56:03Z</time>
      </trkpt>
      <trkpt lat="49.12317" lon="-0.1434">
        <ele>66</ele>
        <time>2013-12-08T07:56:04Z</time>
      </trkpt>
      <trkpt lat="49.12314" lon="-0.1433">
        <ele>65.4000015</ele>
        <time>2013-12-08T07:56:05Z</time>
      </trkpt>
      <trkpt lat="49.12312" lon="-0.14321">
        <ele>65.4000015</ele>
        <time>2013-12-08T07:56:06Z</time>
      </trkpt>
      <trkpt lat="49.12294" lon="-0.14257">
        <ele>65.4000015</ele>
        <time>2013-12-08T07:56:12Z</time>
      </trkpt>
      <trkpt lat="49.12288" lon="-0.14238">
        <ele>64.4000015</ele>
        <time>2013-12-08T07:56:14Z</time>
      </trkpt>
      <trkpt lat="49.12285" lon="-0.1423">
        <ele>63.7999992</ele>
        <time>2013-12-08T07:56:15Z</time>
      </trkpt>
      <trkpt lat="49.12282" lon="-0.14222">
        <ele>63.4000015</ele>
        <time>2013-12-08T07:56:16Z</time>
      </trkpt>
      <trkpt lat="49.12279" lon="-0.14215">
        <ele>62.7999992</ele>
        <time>2013-12-08T07:56:17Z</time>
      </trkpt>
      <trkpt lat="49.12276" lon="-0.14207">
        <ele>62.2000008</ele>
        <time>2013-12-08T07:56:18Z</time>
      </trkpt>
      <trkpt lat="49.12272" lon="-0.14199">
        <ele>61.5999985</ele>
        <time>2013-12-08T07:56:19Z</time>
      </trkpt>
      <trkpt lat="49.12269" lon="-0.14191">
        <ele>61</ele>
        <time>2013-12-08T07:56:20Z</time>
      </trkpt>
      <trkpt lat="49.12266" lon="-0.14183">
        <ele>60.5999985</ele>
        <time>2013-12-08T07:56:21Z</time>
      </trkpt>
      <trkpt lat="49.12263" lon="-0.14175">
        <ele>60.5999985</ele>
        <time>2013-12-08T07:56:22Z</time>
      </trkpt>
      <trkpt lat="49.12243" lon="-0.14123">
        <ele>60.5999985</ele>
        <time>2013-12-08T07:56:28Z</time>
      </trkpt>
      <trkpt lat="49.12218" lon="-0.14074">
        <ele>60</ele>
        <time>2013-12-08T07:56:34Z</time>
      </trkpt>
      <trkpt lat="49.12214" lon="-0.14067">
        <ele>59.5999985</ele>
        <time>2013-12-08T07:56:35Z</time>
      </trkpt>
      <trkpt lat="49.12211" lon="-0.14061">
        <ele>59.2000008</ele>
        <time>2013-12-08T07:56:36Z</time>
      </trkpt>
      <trkpt lat="49.12209" lon="-0.14057">
        <ele>58.7999992</ele>
        <time>2013-12-08T07:56:37Z</time>
      </trkpt>
      <trkpt lat="49.12207" lon="-0.14054">
        <ele>58.2000008</ele>
        <time>2013-12-08T07:56:38Z</time>
      </trkpt>
      <trkpt lat="49.12191" lon="-0.14025">
        <ele>58.2000008</ele>
        <time>2013-12-08T07:56:46Z</time>
      </trkpt>
      <trkpt lat="49.12186" lon="-0.14006">
        <ele>58.2000008</ele>
        <time>2013-12-08T07:56:51Z</time>
      </trkpt>
      <trkpt lat="49.12185" lon="-0.13964">
        <ele>58.2000008</ele>
        <time>2013-12-08T07:56:59Z</time>
      </trkpt>
      <trkpt lat="49.12183" lon="-0.13921">
        <ele>58.2000008</ele>
        <time>2013-12-08T07:57:06Z</time>
      </trkpt>
      <trkpt lat="49.12183" lon="-0.13908">
        <ele>58.2000008</ele>
        <time>2013-12-08T07:57:08Z</time>
      </trkpt>
      <trkpt lat="49.12183" lon="-0.1387">
        <ele>58.2000008</ele>
        <time>2013-12-08T07:57:13Z</time>
      </trkpt>
      <trkpt lat="49.12182" lon="-0.13807">
        <ele>58.2000008</ele>
        <time>2013-12-08T07:57:21Z</time>
      </trkpt>
      <trkpt lat="49.12182" lon="-0.138">
        <ele>57.7999992</ele>
        <time>2013-12-08T07:57:22Z</time>
      </trkpt>
      <trkpt lat="49.12181" lon="-0.13794">
        <ele>57.4000015</ele>
        <time>2013-12-08T07:57:23Z</time>
      </trkpt>
      <trkpt lat="49.12178" lon="-0.13789">
        <ele>57</ele>
        <time>2013-12-08T07:57:24Z</time>
      </trkpt>
      <trkpt lat="49.12175" lon="-0.13785">
        <ele>56.4000015</ele>
        <time>2013-12-08T07:57:25Z</time>
      </trkpt>
      <trkpt lat="49.12172" lon="-0.13783">
        <ele>56</ele>
        <time>2013-12-08T07:57:26Z</time>
      </trkpt>
      <trkpt lat="49.1216" lon="-0.13784">
        <ele>56</ele>
        <time>2013-12-08T07:57:29Z</time>
      </trkpt>
      <trkpt lat="49.12156" lon="-0.13803">
        <ele>56</ele>
        <time>2013-12-08T07:57:32Z</time>
      </trkpt>
      <trkpt lat="49.12154" lon="-0.13811">
        <ele>56</ele>
        <time>2013-12-08T07:57:33Z</time>
      </trkpt>
      <trkpt lat="49.12147" lon="-0.13844">
        <ele>56</ele>
        <time>2013-12-08T07:57:38Z</time>
      </trkpt>
      <trkpt lat="49.12139" lon="-0.13884">
        <ele>56</ele>
        <time>2013-12-08T07:57:44Z</time>
      </trkpt>
      <trkpt lat="49.1213" lon="-0.13933">
        <ele>56</ele>
        <time>2013-12-08T07:57:51Z</time>
      </trkpt>
      <trkpt lat="49.12121" lon="-0.13984">
        <ele>56</ele>
        <time>2013-12-08T07:57:59Z</time>
      </trkpt>
      <trkpt lat="49.12119" lon="-0.14001">
        <ele>56</ele>
        <time>2013-12-08T07:58:03Z</time>
      </trkpt>
      <trkpt lat="49.12117" lon="-0.14009">
        <ele>56</ele>
        <time>2013-12-08T07:58:07Z</time>
      </trkpt>
      <trkpt lat="49.12116" lon="-0.1401">
        <ele>56</ele>
        <time>2013-12-08T07:58:08Z</time>
      </trkpt>
      <trkpt lat="49.12115" lon="-0.1401">
        <ele>56.4000015</ele>
        <time>2013-12-08T07:58:09Z</time>
      </trkpt>
      <trkpt lat="49.12113" lon="-0.14008">
        <ele>56.7999992</ele>
        <time>2013-12-08T07:58:10Z</time>
      </trkpt>
      <trkpt lat="49.12111" lon="-0.14004">
        <ele>57.2000008</ele>
        <time>2013-12-08T07:58:11Z</time>
      </trkpt>
      <trkpt lat="49.1211" lon="-0.14">
        <ele>57.5999985</ele>
        <time>2013-12-08T07:58:12Z</time>
      </trkpt>
      <trkpt lat="49.12107" lon="-0.13996">
        <ele>58</ele>
        <time>2013-12-08T07:58:13Z</time>
      </trkpt>
      <trkpt lat="49.121" lon="-0.1399">
        <ele>58</ele>
        <time>2013-12-08T07:58:15Z</time>
      </trkpt>
      <trkpt lat="49.12096" lon="-0.13988">
        <ele>58</ele>
        <time>2013-12-08T07:58:16Z</time>
      </trkpt>
      <trkpt lat="49.12078" lon="-0.13978">
        <ele>57.5999985</ele>
        <time>2013-12-08T07:58:20Z</time>
      </trkpt>
      <trkpt lat="49.12074" lon="-0.13976">
        <ele>57.2000008</ele>
        <time>2013-12-08T07:58:21Z</time>
      </trkpt>
      <trkpt lat="49.1207" lon="-0.13974">
        <ele>56.5999985</ele>
        <time>2013-12-08T07:58:22Z</time>
      </trkpt>
      <trkpt lat="49.12066" lon="-0.13971">
        <ele>56.2000008</ele>
        <time>2013-12-08T07:58:23Z</time>
      </trkpt>
      <trkpt lat="49.12062" lon="-0.13968">
        <ele>55.7999992</ele>
        <time>2013-12-08T07:58:24Z</time>
      </trkpt>
      <trkpt lat="49.12054" lon="-0.13961">
        <ele>55.7999992</ele>
        <time>2013-12-08T07:58:26Z</time>
      </trkpt>
      <trkpt lat="49.12046" lon="-0.13952">
        <ele>55.4000015</ele>
        <time>2013-12-08T07:58:28Z</time>
      </trkpt>
      <trkpt lat="49.12042" lon="-0.13946">
        <ele>55</ele>
        <time>2013-12-08T07:58:29Z</time>
      </trkpt>
      <trkpt lat="49.12038" lon="-0.1394">
        <ele>54.4000015</ele>
        <time>2013-12-08T07:58:30Z</time>
      </trkpt>
      <trkpt lat="49.12035" lon="-0.13935">
        <ele>54</ele>
        <time>2013-12-08T07:58:31Z</time>
      </trkpt>
      <trkpt lat="49.12032" lon="-0.1393">
        <ele>53.5999985</ele>
        <time>2013-12-08T07:58:32Z</time>
      </trkpt>
      <trkpt lat="49.12028" lon="-0.13925">
        <ele>53.5999985</ele>
        <time>2013-12-08T07:58:33Z</time>
      </trkpt>
      <trkpt lat="49.12015" lon="-0.13904">
        <ele>53.2000008</ele>
        <time>2013-12-08T07:58:37Z</time>
      </trkpt>
      <trkpt lat="49.12013" lon="-0.139">
        <ele>52.5999985</ele>
        <time>2013-12-08T07:58:38Z</time>
      </trkpt>
      <trkpt lat="49.1201" lon="-0.13896">
        <ele>52.2000008</ele>
        <time>2013-12-08T07:58:39Z</time>
      </trkpt>
      <trkpt lat="49.12007" lon="-0.13891">
        <ele>51.7999992</ele>
        <time>2013-12-08T07:58:40Z</time>
      </trkpt>
      <trkpt lat="49.12004" lon="-0.13886">
        <ele>51.2000008</ele>
        <time>2013-12-08T07:58:41Z</time>
      </trkpt>
      <trkpt lat="49.11998" lon="-0.13876">
        <ele>50.7999992</ele>
        <time>2013-12-08T07:58:43Z</time>
      </trkpt>
      <trkpt lat="49.11997" lon="-0.13872">
        <ele>50.4000015</ele>
        <time>2013-12-08T07:58:44Z</time>
      </trkpt>
      <trkpt lat="49.11994" lon="-0.13867">
        <ele>49.7999992</ele>
        <time>2013-12-08T07:58:45Z</time>
      </trkpt>
      <trkpt lat="49.11991" lon="-0.13863">
        <ele>49.4000015</ele>
        <time>2013-12-08T07:58:46Z</time>
      </trkpt>
      <trkpt lat="49.11988" lon="-0.1386">
        <ele>49</ele>
        <time>2013-12-08T07:58:47Z</time>
      </trkpt>
      <trkpt lat="49.11983" lon="-0.13859">
        <ele>49</ele>
        <time>2013-12-08T07:58:49Z</time>
      </trkpt>
      <trkpt lat="49.11976" lon="-0.13869">
        <ele>49</ele>
        <time>2013-12-08T07:58:52Z</time>
      </trkpt>
      <trkpt lat="49.11968" lon="-0.13878">
        <ele>49</ele>
        <time>2013-12-08T07:58:56Z</time>
      </trkpt>
      <trkpt lat="49.11967" lon="-0.13878">
        <ele>49</ele>
        <time>2013-12-08T07:58:57Z</time>
      </trkpt>
      <trkpt lat="49.11965" lon="-0.13874">
        <ele>49</ele>
        <time>2013-12-08T07:59:07Z</time>
      </trkpt>
      <trkpt lat="49.11964" lon="-0.13872">
        <ele>49</ele>
        <time>2013-12-08T07:59:08Z</time>
      </trkpt>
      <trkpt lat="49.11953" lon="-0.13852">
        <ele>49</ele>
        <time>2013-12-08T07:59:13Z</time>
      </trkpt>
      <trkpt lat="49.11933" lon="-0.13818">
        <ele>49</ele>
        <time>2013-12-08T07:59:19Z</time>
      </trkpt>
      <trkpt lat="49.11919" lon="-0.13792">
        <ele>48.5999985</ele>
        <time>2013-12-08T07:59:23Z</time>
      </trkpt>
      <trkpt lat="49.11915" lon="-0.13785">
        <ele>48.2000008</ele>
        <time>2013-12-08T07:59:24Z</time>
      </trkpt>
      <trkpt lat="49.11911" lon="-0.13778">
        <ele>47.7999992</ele>
        <time>2013-12-08T07:59:25Z</time>
      </trkpt>
      <trkpt lat="49.11906" lon="-0.13771">
        <ele>47.2000008</ele>
        <time>2013-12-08T07:59:26Z</time>
      </trkpt>
      <trkpt lat="49.11902" lon="-0.13764">
        <ele>46.7999992</ele>
        <time>2013-12-08T07:59:27Z</time>
      </trkpt>
      <trkpt lat="49.11884" lon="-0.1373">
        <ele>46.7999992</ele>
        <time>2013-12-08T07:59:32Z</time>
      </trkpt>
      <trkpt lat="49.1186" lon="-0.13686">
        <ele>46.7999992</ele>
        <time>2013-12-08T07:59:39Z</time>
      </trkpt>
      <trkpt lat="49.11839" lon="-0.13647">
        <ele>46.7999992</ele>
        <time>2013-12-08T07:59:46Z</time>
      </trkpt>
      <trkpt lat="49.11815" lon="-0.13605">
        <ele>46.7999992</ele>
        <time>2013-12-08T07:59:54Z</time>
      </trkpt>
      <trkpt lat="49.11795" lon="-0.13566">
        <ele>46.4000015</ele>
        <time>2013-12-08T08:00:00Z</time>
      </trkpt>
      <trkpt lat="49.11791" lon="-0.1356">
        <ele>46</ele>
        <time>2013-12-08T08:00:01Z</time>
      </trkpt>
      <trkpt lat="49.11786" lon="-0.13553">
        <ele>45.5999985</ele>
        <time>2013-12-08T08:00:02Z</time>
      </trkpt>
      <trkpt lat="49.11782" lon="-0.13546">
        <ele>45.2000008</ele>
        <time>2013-12-08T08:00:03Z</time>
      </trkpt>
      <trkpt lat="49.11777" lon="-0.13538">
        <ele>44.7999992</ele>
        <time>2013-12-08T08:00:04Z</time>
      </trkpt>
      <trkpt lat="49.11773" lon="-0.13531">
        <ele>44.7999992</ele>
        <time>2013-12-08T08:00:05Z</time>
      </trkpt>
      <trkpt lat="49.11769" lon="-0.13525">
        <ele>44.2000008</ele>
        <time>2013-12-08T08:00:06Z</time>
      </trkpt>
      <trkpt lat="49.11765" lon="-0.13518">
        <ele>43.7999992</ele>
        <time>2013-12-08T08:00:07Z</time>
      </trkpt>
      <trkpt lat="49.11761" lon="-0.13511">
        <ele>43.2000008</ele>
        <time>2013-12-08T08:00:08Z</time>
      </trkpt>
      <trkpt lat="49.11757" lon="-0.13504">
        <ele>42.7999992</ele>
        <time>2013-12-08T08:00:09Z</time>
      </trkpt>
      <trkpt lat="49.11753" lon="-0.13497">
        <ele>42.2000008</ele>
        <time>2013-12-08T08:00:10Z</time>
      </trkpt>
      <trkpt lat="49.11739" lon="-0.13467">
        <ele>41.7999992</ele>
        <time>2013-12-08T08:00:14Z</time>
      </trkpt>
      <trkpt lat="49.11736" lon="-0.13459">
        <ele>41.2000008</ele>
        <time>2013-12-08T08:00:15Z</time>
      </trkpt>
      <trkpt lat="49.11733" lon="-0.1345">
        <ele>40.7999992</ele>
        <time>2013-12-08T08:00:16Z</time>
      </trkpt>
      <trkpt lat="49.1173" lon="-0.13442">
        <ele>40.4000015</ele>
        <time>2013-12-08T08:00:17Z</time>
      </trkpt>
      <trkpt lat="49.11727" lon="-0.13435">
        <ele>39.7999992</ele>
        <time>2013-12-08T08:00:18Z</time>
      </trkpt>
      <trkpt lat="49.11721" lon="-0.13415">
        <ele>39.7999992</ele>
        <time>2013-12-08T08:00:21Z</time>
      </trkpt>
      <trkpt lat="49.11719" lon="-0.13409">
        <ele>39.7999992</ele>
        <time>2013-12-08T08:00:22Z</time>
      </trkpt>
      <trkpt lat="49.11717" lon="-0.13394">
        <ele>39.7999992</ele>
        <time>2013-12-08T08:00:25Z</time>
      </trkpt>
      <trkpt lat="49.11723" lon="-0.13381">
        <ele>39.7999992</ele>
        <time>2013-12-08T08:00:28Z</time>
      </trkpt>
      <trkpt lat="49.11726" lon="-0.13376">
        <ele>39.7999992</ele>
        <time>2013-12-08T08:00:29Z</time>
      </trkpt>
      <trkpt lat="49.11741" lon="-0.13356">
        <ele>39.7999992</ele>
        <time>2013-12-08T08:00:33Z</time>
      </trkpt>
      <trkpt lat="49.11761" lon="-0.13333">
        <ele>39.7999992</ele>
        <time>2013-12-08T08:00:39Z</time>
      </trkpt>
      <trkpt lat="49.11778" lon="-0.13309">
        <ele>39.7999992</ele>
        <time>2013-12-08T08:00:45Z</time>
      </trkpt>
      <trkpt lat="49.11775" lon="-0.13301">
        <ele>39.7999992</ele>
        <time>2013-12-08T08:00:47Z</time>
      </trkpt>
      <trkpt lat="49.11764" lon="-0.13302">
        <ele>39.7999992</ele>
        <time>2013-12-08T08:00:50Z</time>
      </trkpt>
      <trkpt lat="49.1174" lon="-0.13306">
        <ele>39.7999992</ele>
        <time>2013-12-08T08:00:55Z</time>
      </trkpt>
      <trkpt lat="49.11708" lon="-0.13309">
        <ele>39.7999992</ele>
        <time>2013-12-08T08:01:01Z</time>
      </trkpt>
      <trkpt lat="49.11675" lon="-0.13314">
        <ele>39.7999992</ele>
        <time>2013-12-08T08:01:07Z</time>
      </trkpt>
      <trkpt lat="49.11641" lon="-0.13318">
        <ele>39.7999992</ele>
        <time>2013-12-08T08:01:14Z</time>
      </trkpt>
      <trkpt lat="49.11595" lon="-0.13325">
        <ele>39.7999992</ele>
        <time>2013-12-08T08:01:23Z</time>
      </trkpt>
      <trkpt lat="49.11582" lon="-0.13327">
        <ele>40.4000015</ele>
        <time>2013-12-08T08:01:26Z</time>
      </trkpt>
      <trkpt lat="49.11578" lon="-0.13326">
        <ele>40.7999992</ele>
        <time>2013-12-08T08:01:27Z</time>
      </trkpt>
      <trkpt lat="49.11574" lon="-0.13326">
        <ele>41.2000008</ele>
        <time>2013-12-08T08:01:28Z</time>
      </trkpt>
      <trkpt lat="49.1157" lon="-0.13327">
        <ele>41.5999985</ele>
        <time>2013-12-08T08:01:29Z</time>
      </trkpt>
      <trkpt lat="49.11566" lon="-0.13328">
        <ele>42</ele>
        <time>2013-12-08T08:01:30Z</time>
      </trkpt>
      <trkpt lat="49.11545" lon="-0.1333">
        <ele>42</ele>
        <time>2013-12-08T08:01:35Z</time>
      </trkpt>
      <trkpt lat="49.11532" lon="-0.13333">
        <ele>42</ele>
        <time>2013-12-08T08:01:38Z</time>
      </trkpt>
      <trkpt lat="49.11526" lon="-0.13334">
        <ele>42</ele>
        <time>2013-12-08T08:01:40Z</time>
      </trkpt>
      <trkpt lat="49.11518" lon="-0.13335">
        <ele>42</ele>
        <time>2013-12-08T08:01:42Z</time>
      </trkpt>
      <trkpt lat="49.11509" lon="-0.13336">
        <ele>42.4000015</ele>
        <time>2013-12-08T08:01:45Z</time>
      </trkpt>
      <trkpt lat="49.11506" lon="-0.13337">
        <ele>43</ele>
        <time>2013-12-08T08:01:46Z</time>
      </trkpt>
      <trkpt lat="49.11503" lon="-0.13338">
        <ele>43.4000015</ele>
        <time>2013-12-08T08:01:47Z</time>
      </trkpt>
      <trkpt lat="49.115" lon="-0.13339">
        <ele>43.7999992</ele>
        <time>2013-12-08T08:01:48Z</time>
      </trkpt>
      <trkpt lat="49.11497" lon="-0.13339">
        <ele>44.2000008</ele>
        <time>2013-12-08T08:01:49Z</time>
      </trkpt>
      <trkpt lat="49.11491" lon="-0.13339">
        <ele>44.2000008</ele>
        <time>2013-12-08T08:01:51Z</time>
      </trkpt>
      <trkpt lat="49.11469" lon="-0.13341">
        <ele>44.5999985</ele>
        <time>2013-12-08T08:01:58Z</time>
      </trkpt>
      <trkpt lat="49.11466" lon="-0.13342">
        <ele>45</ele>
        <time>2013-12-08T08:01:59Z</time>
      </trkpt>
      <trkpt lat="49.11462" lon="-0.13343">
        <ele>45.5999985</ele>
        <time>2013-12-08T08:02:00Z</time>
      </trkpt>
      <trkpt lat="49.11459" lon="-0.13343">
        <ele>46.4000015</ele>
        <time>2013-12-08T08:02:01Z</time>
      </trkpt>
      <trkpt lat="49.1145" lon="-0.13344">
        <ele>46.4000015</ele>
        <time>2013-12-08T08:02:04Z</time>
      </trkpt>
      <trkpt lat="49.11441" lon="-0.13345">
        <ele>46.7999992</ele>
        <time>2013-12-08T08:02:07Z</time>
      </trkpt>
      <trkpt lat="49.11438" lon="-0.13345">
        <ele>47.2000008</ele>
        <time>2013-12-08T08:02:08Z</time>
      </trkpt>
      <trkpt lat="49.11435" lon="-0.13345">
        <ele>47.5999985</ele>
        <time>2013-12-08T08:02:09Z</time>
      </trkpt>
      <trkpt lat="49.11433" lon="-0.13345">
        <ele>48</ele>
        <time>2013-12-08T08:02:10Z</time>
      </trkpt>
      <trkpt lat="49.1143" lon="-0.13346">
        <ele>48.4000015</ele>
        <time>2013-12-08T08:02:11Z</time>
      </trkpt>
      <trkpt lat="49.11424" lon="-0.13348">
        <ele>48.4000015</ele>
        <time>2013-12-08T08:02:13Z</time>
      </trkpt>
      <trkpt lat="49.11407" lon="-0.13351">
        <ele>48.4000015</ele>
        <time>2013-12-08T08:02:17Z</time>
      </trkpt>
      <trkpt lat="49.11383" lon="-0.13353">
        <ele>48.7999992</ele>
        <time>2013-12-08T08:02:23Z</time>
      </trkpt>
      <trkpt lat="49.11379" lon="-0.13353">
        <ele>49.4000015</ele>
        <time>2013-12-08T08:02:24Z</time>
      </trkpt>
      <trkpt lat="49.11375" lon="-0.13353">
        <ele>49.7999992</ele>
        <time>2013-12-08T08:02:25Z</time>
      </trkpt>
      <trkpt lat="49.11371" lon="-0.13354">
        <ele>50.5999985</ele>
        <time>2013-12-08T08:02:26Z</time>
      </trkpt>
      <trkpt lat="49.11356" lon="-0.13355">
        <ele>50.5999985</ele>
        <time>2013-12-08T08:02:30Z</time>
      </trkpt>
      <trkpt lat="49.11336" lon="-0.13358">
        <ele>51</ele>
        <time>2013-12-08T08:02:36Z</time>
      </trkpt>
      <trkpt lat="49.11333" lon="-0.13358">
        <ele>51.4000015</ele>
        <time>2013-12-08T08:02:37Z</time>
      </trkpt>
      <trkpt lat="49.11329" lon="-0.13358">
        <ele>52</ele>
        <time>2013-12-08T08:02:38Z</time>
      </trkpt>
      <trkpt lat="49.11326" lon="-0.13358">
        <ele>52.4000015</ele>
        <time>2013-12-08T08:02:39Z</time>
      </trkpt>
      <trkpt lat="49.11323" lon="-0.13358">
        <ele>52.7999992</ele>
        <time>2013-12-08T08:02:40Z</time>
      </trkpt>
      <trkpt lat="49.1132" lon="-0.13359">
        <ele>52.7999992</ele>
        <time>2013-12-08T08:02:41Z</time>
      </trkpt>
      <trkpt lat="49.11303" lon="-0.13356">
        <ele>52.7999992</ele>
        <time>2013-12-08T08:02:47Z</time>
      </trkpt>
      <trkpt lat="49.11296" lon="-0.13357">
        <ele>52.7999992</ele>
        <time>2013-12-08T08:02:52Z</time>
      </trkpt>
      <trkpt lat="49.11294" lon="-0.13358">
        <ele>53.2000008</ele>
        <time>2013-12-08T08:02:53Z</time>
      </trkpt>
      <trkpt lat="49.11292" lon="-0.13359">
        <ele>53.5999985</ele>
        <time>2013-12-08T08:02:54Z</time>
      </trkpt>
      <trkpt lat="49.1129" lon="-0.13359">
        <ele>54</ele>
        <time>2013-12-08T08:02:55Z</time>
      </trkpt>
      <trkpt lat="49.11288" lon="-0.13359">
        <ele>54.4000015</ele>
        <time>2013-12-08T08:02:56Z</time>
      </trkpt>
      <trkpt lat="49.11285" lon="-0.13359">
        <ele>54.7999992</ele>
        <time>2013-12-08T08:02:57Z</time>
      </trkpt>
      <trkpt lat="49.11269" lon="-0.13357">
        <ele>54.7999992</ele>
        <time>2013-12-08T08:03:02Z</time>
      </trkpt>
      <trkpt lat="49.11257" lon="-0.13359">
        <ele>55.2000008</ele>
        <time>2013-12-08T08:03:05Z</time>
      </trkpt>
      <trkpt lat="49.11253" lon="-0.13359">
        <ele>55.5999985</ele>
        <time>2013-12-08T08:03:06Z</time>
      </trkpt>
      <trkpt lat="49.1125" lon="-0.13359">
        <ele>56</ele>
        <time>2013-12-08T08:03:07Z</time>
      </trkpt>
      <trkpt lat="49.11246" lon="-0.13359">
        <ele>56.5999985</ele>
        <time>2013-12-08T08:03:08Z</time>
      </trkpt>
      <trkpt lat="49.11243" lon="-0.1336">
        <ele>57</ele>
        <time>2013-12-08T08:03:09Z</time>
      </trkpt>
      <trkpt lat="49.11225" lon="-0.13359">
        <ele>57</ele>
        <time>2013-12-08T08:03:14Z</time>
      </trkpt>
      <trkpt lat="49.11197" lon="-0.13354">
        <ele>57</ele>
        <time>2013-12-08T08:03:21Z</time>
      </trkpt>
      <trkpt lat="49.11191" lon="-0.13353">
        <ele>57.4000015</ele>
        <time>2013-12-08T08:03:23Z</time>
      </trkpt>
      <trkpt lat="49.11187" lon="-0.13353">
        <ele>57.7999992</ele>
        <time>2013-12-08T08:03:24Z</time>
      </trkpt>
      <trkpt lat="49.11184" lon="-0.13353">
        <ele>58.2000008</ele>
        <time>2013-12-08T08:03:25Z</time>
      </trkpt>
      <trkpt lat="49.1118" lon="-0.13352">
        <ele>58.7999992</ele>
        <time>2013-12-08T08:03:26Z</time>
      </trkpt>
      <trkpt lat="49.11177" lon="-0.13351">
        <ele>59.2000008</ele>
        <time>2013-12-08T08:03:27Z</time>
      </trkpt>
      <trkpt lat="49.11154" lon="-0.13348">
        <ele>59.2000008</ele>
        <time>2013-12-08T08:03:33Z</time>
      </trkpt>
      <trkpt lat="49.1113" lon="-0.13356">
        <ele>59.2000008</ele>
        <time>2013-12-08T08:03:39Z</time>
      </trkpt>
      <trkpt lat="49.11112" lon="-0.13361">
        <ele>59.2000008</ele>
        <time>2013-12-08T08:03:44Z</time>
      </trkpt>
      <trkpt lat="49.11088" lon="-0.13366">
        <ele>59.2000008</ele>
        <time>2013-12-08T08:03:50Z</time>
      </trkpt>
      <trkpt lat="49.11069" lon="-0.13368">
        <ele>59.2000008</ele>
        <time>2013-12-08T08:03:55Z</time>
      </trkpt>
      <trkpt lat="49.11049" lon="-0.13372">
        <ele>59.5999985</ele>
        <time>2013-12-08T08:04:00Z</time>
      </trkpt>
      <trkpt lat="49.11045" lon="-0.13373">
        <ele>60</ele>
        <time>2013-12-08T08:04:01Z</time>
      </trkpt>
      <trkpt lat="49.1104" lon="-0.13373">
        <ele>60.4000015</ele>
        <time>2013-12-08T08:04:02Z</time>
      </trkpt>
      <trkpt lat="49.11037" lon="-0.13374">
        <ele>60.7999992</ele>
        <time>2013-12-08T08:04:03Z</time>
      </trkpt>
      <trkpt lat="49.11033" lon="-0.13375">
        <ele>61.2000008</ele>
        <time>2013-12-08T08:04:04Z</time>
      </trkpt>
      <trkpt lat="49.1102" lon="-0.13377">
        <ele>61.2000008</ele>
        <time>2013-12-08T08:04:07Z</time>
      </trkpt>
      <trkpt lat="49.10996" lon="-0.1338">
        <ele>61.2000008</ele>
        <time>2013-12-08T08:04:13Z</time>
      </trkpt>
      <trkpt lat="49.10979" lon="-0.13375">
        <ele>61.2000008</ele>
        <time>2013-12-08T08:04:18Z</time>
      </trkpt>
      <trkpt lat="49.10974" lon="-0.13373">
        <ele>61.2000008</ele>
        <time>2013-12-08T08:04:19Z</time>
      </trkpt>
      <trkpt lat="49.10959" lon="-0.13362">
        <ele>61.2000008</ele>
        <time>2013-12-08T08:04:23Z</time>
      </trkpt>
      <trkpt lat="49.10943" lon="-0.13351">
        <ele>61.5999985</ele>
        <time>2013-12-08T08:04:27Z</time>
      </trkpt>
      <trkpt lat="49.10939" lon="-0.13349">
        <ele>62</ele>
        <time>2013-12-08T08:04:28Z</time>
      </trkpt>
      <trkpt lat="49.10935" lon="-0.13348">
        <ele>62.5999985</ele>
        <time>2013-12-08T08:04:29Z</time>
      </trkpt>
      <trkpt lat="49.10931" lon="-0.13347">
        <ele>63</ele>
        <time>2013-12-08T08:04:30Z</time>
      </trkpt>
      <trkpt lat="49.10926" lon="-0.13346">
        <ele>63.4000015</ele>
        <time>2013-12-08T08:04:31Z</time>
      </trkpt>
      <trkpt lat="49.10908" lon="-0.13348">
        <ele>63.4000015</ele>
        <time>2013-12-08T08:04:35Z</time>
      </trkpt>
      <trkpt lat="49.10896" lon="-0.13349">
        <ele>63.4000015</ele>
        <time>2013-12-08T08:04:38Z</time>
      </trkpt>
      <trkpt lat="49.10887" lon="-0.13351">
        <ele>63.4000015</ele>
        <time>2013-12-08T08:04:40Z</time>
      </trkpt>
      <trkpt lat="49.10858" lon="-0.13353">
        <ele>63.4000015</ele>
        <time>2013-12-08T08:04:46Z</time>
      </trkpt>
      <trkpt lat="49.10832" lon="-0.13354">
        <ele>63.4000015</ele>
        <time>2013-12-08T08:04:52Z</time>
      </trkpt>
      <trkpt lat="49.10815" lon="-0.1335">
        <ele>63.4000015</ele>
        <time>2013-12-08T08:04:57Z</time>
      </trkpt>
      <trkpt lat="49.10804" lon="-0.13343">
        <ele>63</ele>
        <time>2013-12-08T08:05:01Z</time>
      </trkpt>
      <trkpt lat="49.10801" lon="-0.13341">
        <ele>62.4000015</ele>
        <time>2013-12-08T08:05:02Z</time>
      </trkpt>
      <trkpt lat="49.10797" lon="-0.13338">
        <ele>62</ele>
        <time>2013-12-08T08:05:03Z</time>
      </trkpt>
      <trkpt lat="49.10794" lon="-0.13335">
        <ele>61.5999985</ele>
        <time>2013-12-08T08:05:04Z</time>
      </trkpt>
      <trkpt lat="49.10791" lon="-0.13332">
        <ele>61.2000008</ele>
        <time>2013-12-08T08:05:05Z</time>
      </trkpt>
      <trkpt lat="49.10789" lon="-0.13328">
        <ele>61.2000008</ele>
        <time>2013-12-08T08:05:06Z</time>
      </trkpt>
      <trkpt lat="49.10785" lon="-0.13322">
        <ele>61.2000008</ele>
        <time>2013-12-08T08:05:08Z</time>
      </trkpt>
      <trkpt lat="49.10778" lon="-0.13317">
        <ele>61.2000008</ele>
        <time>2013-12-08T08:05:10Z</time>
      </trkpt>
      <trkpt lat="49.10771" lon="-0.13308">
        <ele>61.2000008</ele>
        <time>2013-12-08T08:05:14Z</time>
      </trkpt>
      <trkpt lat="49.1077" lon="-0.13306">
        <ele>61.2000008</ele>
        <time>2013-12-08T08:05:17Z</time>
      </trkpt>
      <trkpt lat="49.10769" lon="-0.13303">
        <ele>63.2000008</ele>
        <time>2013-12-08T08:07:42Z</time>
      </trkpt>
      <trkpt lat="49.1077" lon="-0.13301">
        <ele>63.2000008</ele>
        <time>2013-12-08T08:07:43Z</time>
      </trkpt>
      <trkpt lat="49.10768" lon="-0.13293">
        <ele>63.2000008</ele>
        <time>2013-12-08T08:07:46Z</time>
      </trkpt>
      <trkpt lat="49.10767" lon="-0.13289">
        <ele>63.2000008</ele>
        <time>2013-12-08T08:07:48Z</time>
      </trkpt>
      <trkpt lat="49.10768" lon="-0.13286">
        <ele>63.2000008</ele>
        <time>2013-12-08T08:07:49Z</time>
      </trkpt>
      <trkpt lat="49.10768" lon="-0.13275">
        <ele>63.2000008</ele>
        <time>2013-12-08T08:07:51Z</time>
      </trkpt>
      <trkpt lat="49.10767" lon="-0.13259">
        <ele>63.2000008</ele>
        <time>2013-12-08T08:07:54Z</time>
      </trkpt>
      <trkpt lat="49.10766" lon="-0.13242">
        <ele>63.2000008</ele>
        <time>2013-12-08T08:07:57Z</time>
      </trkpt>
      <trkpt lat="49.10765" lon="-0.13222">
        <ele>63.2000008</ele>
        <time>2013-12-08T08:08:02Z</time>
      </trkpt>
      <trkpt lat="49.10758" lon="-0.13209">
        <ele>63.2000008</ele>
        <time>2013-12-08T08:08:06Z</time>
      </trkpt>
      <trkpt lat="49.10754" lon="-0.13209">
        <ele>63.2000008</ele>
        <time>2013-12-08T08:08:07Z</time>
      </trkpt>
      <trkpt lat="49.1073" lon="-0.13211">
        <ele>63.2000008</ele>
        <time>2013-12-08T08:08:12Z</time>
      </trkpt>
      <trkpt lat="49.10686" lon="-0.13216">
        <ele>63.2000008</ele>
        <time>2013-12-08T08:08:21Z</time>
      </trkpt>
      <trkpt lat="49.10663" lon="-0.1322">
        <ele>63.2000008</ele>
        <time>2013-12-08T08:08:26Z</time>
      </trkpt>
      <trkpt lat="49.10659" lon="-0.13221">
        <ele>63.2000008</ele>
        <time>2013-12-08T08:08:27Z</time>
      </trkpt>
      <trkpt lat="49.10644" lon="-0.13224">
        <ele>64</ele>
        <time>2013-12-08T08:08:30Z</time>
      </trkpt>
      <trkpt lat="49.10639" lon="-0.13225">
        <ele>64.4000015</ele>
        <time>2013-12-08T08:08:31Z</time>
      </trkpt>
      <trkpt lat="49.10635" lon="-0.13227">
        <ele>64.8000031</ele>
        <time>2013-12-08T08:08:32Z</time>
      </trkpt>
      <trkpt lat="49.1063" lon="-0.13228">
        <ele>65.1999969</ele>
        <time>2013-12-08T08:08:33Z</time>
      </trkpt>
      <trkpt lat="49.1062" lon="-0.13229">
        <ele>65.1999969</ele>
        <time>2013-12-08T08:08:35Z</time>
      </trkpt>
      <trkpt lat="49.10591" lon="-0.13233">
        <ele>65.1999969</ele>
        <time>2013-12-08T08:08:41Z</time>
      </trkpt>
      <trkpt lat="49.10554" lon="-0.13239">
        <ele>65.1999969</ele>
        <time>2013-12-08T08:08:49Z</time>
      </trkpt>
      <trkpt lat="49.10527" lon="-0.13242">
        <ele>65.1999969</ele>
        <time>2013-12-08T08:08:55Z</time>
      </trkpt>
      <trkpt lat="49.1052" lon="-0.13235">
        <ele>64.8000031</ele>
        <time>2013-12-08T08:08:57Z</time>
      </trkpt>
      <trkpt lat="49.10518" lon="-0.1323">
        <ele>64.4000015</ele>
        <time>2013-12-08T08:08:58Z</time>
      </trkpt>
      <trkpt lat="49.10518" lon="-0.13223">
        <ele>63.7999992</ele>
        <time>2013-12-08T08:08:59Z</time>
      </trkpt>
      <trkpt lat="49.10517" lon="-0.13217">
        <ele>63.4000015</ele>
        <time>2013-12-08T08:09:00Z</time>
      </trkpt>
      <trkpt lat="49.10517" lon="-0.13211">
        <ele>63</ele>
        <time>2013-12-08T08:09:01Z</time>
      </trkpt>
      <trkpt lat="49.10517" lon="-0.13205">
        <ele>63</ele>
        <time>2013-12-08T08:09:02Z</time>
      </trkpt>
      <trkpt lat="49.10515" lon="-0.13163">
        <ele>63</ele>
        <time>2013-12-08T08:09:09Z</time>
      </trkpt>
      <trkpt lat="49.10514" lon="-0.13127">
        <ele>63</ele>
        <time>2013-12-08T08:09:15Z</time>
      </trkpt>
      <trkpt lat="49.10512" lon="-0.13079">
        <ele>63</ele>
        <time>2013-12-08T08:09:22Z</time>
      </trkpt>
      <trkpt lat="49.10511" lon="-0.13045">
        <ele>63</ele>
        <time>2013-12-08T08:09:27Z</time>
      </trkpt>
      <trkpt lat="49.10509" lon="-0.13031">
        <ele>63</ele>
        <time>2013-12-08T08:09:29Z</time>
      </trkpt>
      <trkpt lat="49.10507" lon="-0.12988">
        <ele>63</ele>
        <time>2013-12-08T08:09:35Z</time>
      </trkpt>
      <trkpt lat="49.10507" lon="-0.12981">
        <ele>63</ele>
        <time>2013-12-08T08:09:36Z</time>
      </trkpt>
      <trkpt lat="49.10504" lon="-0.12941">
        <ele>63</ele>
        <time>2013-12-08T08:09:41Z</time>
      </trkpt>
      <trkpt lat="49.10503" lon="-0.12926">
        <ele>63</ele>
        <time>2013-12-08T08:09:43Z</time>
      </trkpt>
      <trkpt lat="49.10503" lon="-0.12912">
        <ele>63</ele>
        <time>2013-12-08T08:09:45Z</time>
      </trkpt>
      <trkpt lat="49.10503" lon="-0.12905">
        <ele>63</ele>
        <time>2013-12-08T08:09:46Z</time>
      </trkpt>
      <trkpt lat="49.10504" lon="-0.12892">
        <ele>63</ele>
        <time>2013-12-08T08:09:48Z</time>
      </trkpt>
      <trkpt lat="49.10504" lon="-0.12876">
        <ele>63</ele>
        <time>2013-12-08T08:09:50Z</time>
      </trkpt>
      <trkpt lat="49.10501" lon="-0.12827">
        <ele>63</ele>
        <time>2013-12-08T08:09:56Z</time>
      </trkpt>
      <trkpt lat="49.10501" lon="-0.12819">
        <ele>62.4000015</ele>
        <time>2013-12-08T08:09:57Z</time>
      </trkpt>
      <trkpt lat="49.105" lon="-0.1281">
        <ele>62</ele>
        <time>2013-12-08T08:09:58Z</time>
      </trkpt>
      <trkpt lat="49.105" lon="-0.12802">
        <ele>61.5999985</ele>
        <time>2013-12-08T08:09:59Z</time>
      </trkpt>
      <trkpt lat="49.105" lon="-0.12792">
        <ele>61</ele>
        <time>2013-12-08T08:10:00Z</time>
      </trkpt>
      <trkpt lat="49.10499" lon="-0.12783">
        <ele>60.5999985</ele>
        <time>2013-12-08T08:10:01Z</time>
      </trkpt>
      <trkpt lat="49.10498" lon="-0.12764">
        <ele>60.5999985</ele>
        <time>2013-12-08T08:10:03Z</time>
      </trkpt>
      <trkpt lat="49.10496" lon="-0.12727">
        <ele>60.2000008</ele>
        <time>2013-12-08T08:10:07Z</time>
      </trkpt>
      <trkpt lat="49.10496" lon="-0.12718">
        <ele>59.7999992</ele>
        <time>2013-12-08T08:10:08Z</time>
      </trkpt>
      <trkpt lat="49.10495" lon="-0.12708">
        <ele>59</ele>
        <time>2013-12-08T08:10:09Z</time>
      </trkpt>
      <trkpt lat="49.10494" lon="-0.12698">
        <ele>58.5999985</ele>
        <time>2013-12-08T08:10:10Z</time>
      </trkpt>
      <trkpt lat="49.10493" lon="-0.12671">
        <ele>58.2000008</ele>
        <time>2013-12-08T08:10:13Z</time>
      </trkpt>
      <trkpt lat="49.10492" lon="-0.12663">
        <ele>57.7999992</ele>
        <time>2013-12-08T08:10:14Z</time>
      </trkpt>
      <trkpt lat="49.10491" lon="-0.12654">
        <ele>57.2000008</ele>
        <time>2013-12-08T08:10:15Z</time>
      </trkpt>
      <trkpt lat="49.10491" lon="-0.12645">
        <ele>56.7999992</ele>
        <time>2013-12-08T08:10:16Z</time>
      </trkpt>
      <trkpt lat="49.1049" lon="-0.12637">
        <ele>56.4000015</ele>
        <time>2013-12-08T08:10:17Z</time>
      </trkpt>
      <trkpt lat="49.10488" lon="-0.12614">
        <ele>56</ele>
        <time>2013-12-08T08:10:20Z</time>
      </trkpt>
      <trkpt lat="49.10488" lon="-0.12608">
        <ele>55.5999985</ele>
        <time>2013-12-08T08:10:21Z</time>
      </trkpt>
      <trkpt lat="49.10487" lon="-0.12602">
        <ele>55</ele>
        <time>2013-12-08T08:10:22Z</time>
      </trkpt>
      <trkpt lat="49.10487" lon="-0.12598">
        <ele>54.5999985</ele>
        <time>2013-12-08T08:10:23Z</time>
      </trkpt>
      <trkpt lat="49.10487" lon="-0.12594">
        <ele>54.2000008</ele>
        <time>2013-12-08T08:10:24Z</time>
      </trkpt>
      <trkpt lat="49.10487" lon="-0.12591">
        <ele>54.2000008</ele>
        <time>2013-12-08T08:10:25Z</time>
      </trkpt>
      <trkpt lat="49.10486" lon="-0.12583">
        <ele>54.2000008</ele>
        <time>2013-12-08T08:10:28Z</time>
      </trkpt>
      <trkpt lat="49.10486" lon="-0.12579">
        <ele>54.2000008</ele>
        <time>2013-12-08T08:10:29Z</time>
      </trkpt>
      <trkpt lat="49.10485" lon="-0.12575">
        <ele>53.7999992</ele>
        <time>2013-12-08T08:10:30Z</time>
      </trkpt>
      <trkpt lat="49.10485" lon="-0.1257">
        <ele>53.4000015</ele>
        <time>2013-12-08T08:10:31Z</time>
      </trkpt>
      <trkpt lat="49.10485" lon="-0.12565">
        <ele>53</ele>
        <time>2013-12-08T08:10:32Z</time>
      </trkpt>
      <trkpt lat="49.10485" lon="-0.12559">
        <ele>52.2000008</ele>
        <time>2013-12-08T08:10:33Z</time>
      </trkpt>
      <trkpt lat="49.10484" lon="-0.12537">
        <ele>52.2000008</ele>
        <time>2013-12-08T08:10:36Z</time>
      </trkpt>
      <trkpt lat="49.10483" lon="-0.1252">
        <ele>52.2000008</ele>
        <time>2013-12-08T08:10:38Z</time>
      </trkpt>
      <trkpt lat="49.1048" lon="-0.12466">
        <ele>51.7999992</ele>
        <time>2013-12-08T08:10:44Z</time>
      </trkpt>
      <trkpt lat="49.1048" lon="-0.12457">
        <ele>51.2000008</ele>
        <time>2013-12-08T08:10:45Z</time>
      </trkpt>
      <trkpt lat="49.10479" lon="-0.12448">
        <ele>50.7999992</ele>
        <time>2013-12-08T08:10:46Z</time>
      </trkpt>
      <trkpt lat="49.10479" lon="-0.12439">
        <ele>50.4000015</ele>
        <time>2013-12-08T08:10:47Z</time>
      </trkpt>
      <trkpt lat="49.10478" lon="-0.12431">
        <ele>49.7999992</ele>
        <time>2013-12-08T08:10:48Z</time>
      </trkpt>
      <trkpt lat="49.10477" lon="-0.12406">
        <ele>49.4000015</ele>
        <time>2013-12-08T08:10:51Z</time>
      </trkpt>
      <trkpt lat="49.10477" lon="-0.12398">
        <ele>49</ele>
        <time>2013-12-08T08:10:52Z</time>
      </trkpt>
      <trkpt lat="49.10476" lon="-0.12389">
        <ele>48.5999985</ele>
        <time>2013-12-08T08:10:53Z</time>
      </trkpt>
      <trkpt lat="49.10476" lon="-0.1238">
        <ele>48</ele>
        <time>2013-12-08T08:10:54Z</time>
      </trkpt>
      <trkpt lat="49.10475" lon="-0.12371">
        <ele>47.5999985</ele>
        <time>2013-12-08T08:10:55Z</time>
      </trkpt>
      <trkpt lat="49.10474" lon="-0.12362">
        <ele>47.5999985</ele>
        <time>2013-12-08T08:10:56Z</time>
      </trkpt>
      <trkpt lat="49.10471" lon="-0.12315">
        <ele>47.2000008</ele>
        <time>2013-12-08T08:11:01Z</time>
      </trkpt>
      <trkpt lat="49.1047" lon="-0.12305">
        <ele>46.7999992</ele>
        <time>2013-12-08T08:11:02Z</time>
      </trkpt>
      <trkpt lat="49.1047" lon="-0.12296">
        <ele>46.4000015</ele>
        <time>2013-12-08T08:11:03Z</time>
      </trkpt>
      <trkpt lat="49.10469" lon="-0.12287">
        <ele>46</ele>
        <time>2013-12-08T08:11:04Z</time>
      </trkpt>
      <trkpt lat="49.10469" lon="-0.12278">
        <ele>45.5999985</ele>
        <time>2013-12-08T08:11:05Z</time>
      </trkpt>
      <trkpt lat="49.10467" lon="-0.1225">
        <ele>45.2000008</ele>
        <time>2013-12-08T08:11:08Z</time>
      </trkpt>
      <trkpt lat="49.10466" lon="-0.1224">
        <ele>44.5999985</ele>
        <time>2013-12-08T08:11:09Z</time>
      </trkpt>
      <trkpt lat="49.10465" lon="-0.12231">
        <ele>44.2000008</ele>
        <time>2013-12-08T08:11:10Z</time>
      </trkpt>
      <trkpt lat="49.10465" lon="-0.12222">
        <ele>43.7999992</ele>
        <time>2013-12-08T08:11:11Z</time>
      </trkpt>
      <trkpt lat="49.10465" lon="-0.12213">
        <ele>43.2000008</ele>
        <time>2013-12-08T08:11:12Z</time>
      </trkpt>
      <trkpt lat="49.10464" lon="-0.12205">
        <ele>43.2000008</ele>
        <time>2013-12-08T08:11:13Z</time>
      </trkpt>
      <trkpt lat="49.10465" lon="-0.12196">
        <ele>42.7999992</ele>
        <time>2013-12-08T08:11:14Z</time>
      </trkpt>
      <trkpt lat="49.10465" lon="-0.12187">
        <ele>42.4000015</ele>
        <time>2013-12-08T08:11:15Z</time>
      </trkpt>
      <trkpt lat="49.10465" lon="-0.12178">
        <ele>42</ele>
        <time>2013-12-08T08:11:16Z</time>
      </trkpt>
      <trkpt lat="49.10465" lon="-0.12168">
        <ele>41.5999985</ele>
        <time>2013-12-08T08:11:17Z</time>
      </trkpt>
      <trkpt lat="49.10464" lon="-0.12159">
        <ele>41.2000008</ele>
        <time>2013-12-08T08:11:18Z</time>
      </trkpt>
      <trkpt lat="49.10462" lon="-0.12133">
        <ele>41.2000008</ele>
        <time>2013-12-08T08:11:21Z</time>
      </trkpt>
      <trkpt lat="49.10462" lon="-0.12125">
        <ele>40.7999992</ele>
        <time>2013-12-08T08:11:22Z</time>
      </trkpt>
      <trkpt lat="49.10461" lon="-0.12116">
        <ele>39.7999992</ele>
        <time>2013-12-08T08:11:23Z</time>
      </trkpt>
      <trkpt lat="49.10461" lon="-0.12107">
        <ele>39.4000015</ele>
        <time>2013-12-08T08:11:24Z</time>
      </trkpt>
      <trkpt lat="49.10461" lon="-0.12099">
        <ele>39</ele>
        <time>2013-12-08T08:11:25Z</time>
      </trkpt>
      <trkpt lat="49.10459" lon="-0.12076">
        <ele>39</ele>
        <time>2013-12-08T08:11:28Z</time>
      </trkpt>
      <trkpt lat="49.10456" lon="-0.12065">
        <ele>39</ele>
        <time>2013-12-08T08:11:30Z</time>
      </trkpt>
      <trkpt lat="49.10453" lon="-0.12063">
        <ele>38.5999985</ele>
        <time>2013-12-08T08:11:31Z</time>
      </trkpt>
      <trkpt lat="49.1045" lon="-0.12063">
        <ele>38.2000008</ele>
        <time>2013-12-08T08:11:32Z</time>
      </trkpt>
      <trkpt lat="49.10446" lon="-0.12063">
        <ele>37.7999992</ele>
        <time>2013-12-08T08:11:33Z</time>
      </trkpt>
      <trkpt lat="49.10443" lon="-0.12062">
        <ele>37.4000015</ele>
        <time>2013-12-08T08:11:34Z</time>
      </trkpt>
      <trkpt lat="49.1044" lon="-0.12062">
        <ele>37</ele>
        <time>2013-12-08T08:11:35Z</time>
      </trkpt>
      <trkpt lat="49.10432" lon="-0.12061">
        <ele>37</ele>
        <time>2013-12-08T08:11:37Z</time>
      </trkpt>
      <trkpt lat="49.10409" lon="-0.12059">
        <ele>37</ele>
        <time>2013-12-08T08:11:43Z</time>
      </trkpt>
      <trkpt lat="49.10378" lon="-0.12055">
        <ele>37.4000015</ele>
        <time>2013-12-08T08:11:50Z</time>
      </trkpt>
      <trkpt lat="49.10373" lon="-0.12054">
        <ele>37.7999992</ele>
        <time>2013-12-08T08:11:51Z</time>
      </trkpt>
      <trkpt lat="49.10369" lon="-0.12053">
        <ele>38.2000008</ele>
        <time>2013-12-08T08:11:52Z</time>
      </trkpt>
      <trkpt lat="49.10364" lon="-0.12052">
        <ele>38.5999985</ele>
        <time>2013-12-08T08:11:53Z</time>
      </trkpt>
      <trkpt lat="49.10359" lon="-0.1205">
        <ele>39</ele>
        <time>2013-12-08T08:11:54Z</time>
      </trkpt>
      <trkpt lat="49.10346" lon="-0.12045">
        <ele>39</ele>
        <time>2013-12-08T08:11:57Z</time>
      </trkpt>
      <trkpt lat="49.1031" lon="-0.12035">
        <ele>39</ele>
        <time>2013-12-08T08:12:04Z</time>
      </trkpt>
      <trkpt lat="49.10276" lon="-0.12024">
        <ele>38.5999985</ele>
        <time>2013-12-08T08:12:10Z</time>
      </trkpt>
      <trkpt lat="49.1027" lon="-0.12023">
        <ele>38.2000008</ele>
        <time>2013-12-08T08:12:11Z</time>
      </trkpt>
      <trkpt lat="49.10263" lon="-0.12021">
        <ele>37.7999992</ele>
        <time>2013-12-08T08:12:12Z</time>
      </trkpt>
      <trkpt lat="49.10257" lon="-0.1202">
        <ele>36.7999992</ele>
        <time>2013-12-08T08:12:13Z</time>
      </trkpt>
      <trkpt lat="49.10224" lon="-0.12012">
        <ele>36.7999992</ele>
        <time>2013-12-08T08:12:18Z</time>
      </trkpt>
      <trkpt lat="49.10218" lon="-0.1201">
        <ele>36.4000015</ele>
        <time>2013-12-08T08:12:19Z</time>
      </trkpt>
      <trkpt lat="49.10211" lon="-0.12008">
        <ele>36</ele>
        <time>2013-12-08T08:12:20Z</time>
      </trkpt>
      <trkpt lat="49.10205" lon="-0.12005">
        <ele>35.5999985</ele>
        <time>2013-12-08T08:12:21Z</time>
      </trkpt>
      <trkpt lat="49.10198" lon="-0.12003">
        <ele>35.2000008</ele>
        <time>2013-12-08T08:12:22Z</time>
      </trkpt>
      <trkpt lat="49.10191" lon="-0.12">
        <ele>34.7999992</ele>
        <time>2013-12-08T08:12:23Z</time>
      </trkpt>
      <trkpt lat="49.10177" lon="-0.11994">
        <ele>34.7999992</ele>
        <time>2013-12-08T08:12:25Z</time>
      </trkpt>
      <trkpt lat="49.10155" lon="-0.11985">
        <ele>34.4000015</ele>
        <time>2013-12-08T08:12:28Z</time>
      </trkpt>
      <trkpt lat="49.10147" lon="-0.11981">
        <ele>33.7999992</ele>
        <time>2013-12-08T08:12:29Z</time>
      </trkpt>
      <trkpt lat="49.10139" lon="-0.11978">
        <ele>33.4000015</ele>
        <time>2013-12-08T08:12:30Z</time>
      </trkpt>
      <trkpt lat="49.10131" lon="-0.11974">
        <ele>33</ele>
        <time>2013-12-08T08:12:31Z</time>
      </trkpt>
      <trkpt lat="49.10122" lon="-0.1197">
        <ele>32.5999985</ele>
        <time>2013-12-08T08:12:32Z</time>
      </trkpt>
      <trkpt lat="49.10113" lon="-0.11966">
        <ele>32</ele>
        <time>2013-12-08T08:12:33Z</time>
      </trkpt>
      <trkpt lat="49.10104" lon="-0.11962">
        <ele>31.6000004</ele>
        <time>2013-12-08T08:12:34Z</time>
      </trkpt>
      <trkpt lat="49.10095" lon="-0.11958">
        <ele>31.2000008</ele>
        <time>2013-12-08T08:12:35Z</time>
      </trkpt>
      <trkpt lat="49.10086" lon="-0.11955">
        <ele>30.7999992</ele>
        <time>2013-12-08T08:12:36Z</time>
      </trkpt>
      <trkpt lat="49.10076" lon="-0.11952">
        <ele>29.7999992</ele>
        <time>2013-12-08T08:12:37Z</time>
      </trkpt>
      <trkpt lat="49.10066" lon="-0.11949">
        <ele>29.2000008</ele>
        <time>2013-12-08T08:12:38Z</time>
      </trkpt>
      <trkpt lat="49.10056" lon="-0.11946">
        <ele>28.7999992</ele>
        <time>2013-12-08T08:12:39Z</time>
      </trkpt>
      <trkpt lat="49.10046" lon="-0.11944">
        <ele>28.2000008</ele>
        <time>2013-12-08T08:12:40Z</time>
      </trkpt>
      <trkpt lat="49.10037" lon="-0.11942">
        <ele>27.7999992</ele>
        <time>2013-12-08T08:12:41Z</time>
      </trkpt>
      <trkpt lat="49.10027" lon="-0.11939">
        <ele>27.2000008</ele>
        <time>2013-12-08T08:12:42Z</time>
      </trkpt>
      <trkpt lat="49.10018" lon="-0.11938">
        <ele>26.7999992</ele>
        <time>2013-12-08T08:12:43Z</time>
      </trkpt>
      <trkpt lat="49.10009" lon="-0.11936">
        <ele>26.3999996</ele>
        <time>2013-12-08T08:12:44Z</time>
      </trkpt>
      <trkpt lat="49.10001" lon="-0.11934">
        <ele>26</ele>
        <time>2013-12-08T08:12:45Z</time>
      </trkpt>
      <trkpt lat="49.09963" lon="-0.11925">
        <ele>26</ele>
        <time>2013-12-08T08:12:50Z</time>
      </trkpt>
      <trkpt lat="49.0992" lon="-0.11914">
        <ele>26</ele>
        <time>2013-12-08T08:12:57Z</time>
      </trkpt>
      <trkpt lat="49.0989" lon="-0.11905">
        <ele>26.7999992</ele>
        <time>2013-12-08T08:13:02Z</time>
      </trkpt>
      <trkpt lat="49.09884" lon="-0.11902">
        <ele>27.2000008</ele>
        <time>2013-12-08T08:13:03Z</time>
      </trkpt>
      <trkpt lat="49.09878" lon="-0.119">
        <ele>27.6000004</ele>
        <time>2013-12-08T08:13:04Z</time>
      </trkpt>
      <trkpt lat="49.09872" lon="-0.11897">
        <ele>28</ele>
        <time>2013-12-08T08:13:05Z</time>
      </trkpt>
      <trkpt lat="49.09824" lon="-0.11874">
        <ele>28</ele>
        <time>2013-12-08T08:13:13Z</time>
      </trkpt>
      <trkpt lat="49.09779" lon="-0.11863">
        <ele>28</ele>
        <time>2013-12-08T08:13:20Z</time>
      </trkpt>
      <trkpt lat="49.09767" lon="-0.11862">
        <ele>28</ele>
        <time>2013-12-08T08:13:22Z</time>
      </trkpt>
      <trkpt lat="49.09757" lon="-0.1186">
        <ele>28</ele>
        <time>2013-12-08T08:13:24Z</time>
      </trkpt>
      <trkpt lat="49.09751" lon="-0.11844">
        <ele>28</ele>
        <time>2013-12-08T08:13:27Z</time>
      </trkpt>
      <trkpt lat="49.09751" lon="-0.1183">
        <ele>28</ele>
        <time>2013-12-08T08:13:29Z</time>
      </trkpt>
      <trkpt lat="49.09751" lon="-0.11823">
        <ele>28</ele>
        <time>2013-12-08T08:13:30Z</time>
      </trkpt>
      <trkpt lat="49.09751" lon="-0.11807">
        <ele>28</ele>
        <time>2013-12-08T08:13:32Z</time>
      </trkpt>
      <trkpt lat="49.0975" lon="-0.11792">
        <ele>27.6000004</ele>
        <time>2013-12-08T08:13:34Z</time>
      </trkpt>
      <trkpt lat="49.0975" lon="-0.11784">
        <ele>27</ele>
        <time>2013-12-08T08:13:35Z</time>
      </trkpt>
      <trkpt lat="49.0975" lon="-0.11776">
        <ele>26.6000004</ele>
        <time>2013-12-08T08:13:36Z</time>
      </trkpt>
      <trkpt lat="49.0975" lon="-0.11768">
        <ele>26.2000008</ele>
        <time>2013-12-08T08:13:37Z</time>
      </trkpt>
      <trkpt lat="49.0975" lon="-0.11761">
        <ele>25.6000004</ele>
        <time>2013-12-08T08:13:38Z</time>
      </trkpt>
      <trkpt lat="49.0975" lon="-0.11753">
        <ele>25.6000004</ele>
        <time>2013-12-08T08:13:39Z</time>
      </trkpt>
      <trkpt lat="49.0975" lon="-0.11737">
        <ele>25.6000004</ele>
        <time>2013-12-08T08:13:41Z</time>
      </trkpt>
      <trkpt lat="49.0975" lon="-0.11721">
        <ele>25.6000004</ele>
        <time>2013-12-08T08:13:43Z</time>
      </trkpt>
      <trkpt lat="49.09749" lon="-0.11681">
        <ele>25.2000008</ele>
        <time>2013-12-08T08:13:48Z</time>
      </trkpt>
      <trkpt lat="49.09748" lon="-0.11672">
        <ele>24.7999992</ele>
        <time>2013-12-08T08:13:49Z</time>
      </trkpt>
      <trkpt lat="49.09748" lon="-0.11664">
        <ele>24.3999996</ele>
        <time>2013-12-08T08:13:50Z</time>
      </trkpt>
      <trkpt lat="49.09748" lon="-0.11656">
        <ele>23.6000004</ele>
        <time>2013-12-08T08:13:51Z</time>
      </trkpt>
      <trkpt lat="49.09749" lon="-0.11609">
        <ele>23.6000004</ele>
        <time>2013-12-08T08:13:57Z</time>
      </trkpt>
      <trkpt lat="49.0975" lon="-0.11585">
        <ele>23.2000008</ele>
        <time>2013-12-08T08:14:01Z</time>
      </trkpt>
      <trkpt lat="49.09749" lon="-0.11581">
        <ele>22.7999992</ele>
        <time>2013-12-08T08:14:02Z</time>
      </trkpt>
      <trkpt lat="49.09748" lon="-0.11578">
        <ele>22.3999996</ele>
        <time>2013-12-08T08:14:03Z</time>
      </trkpt>
      <trkpt lat="49.09745" lon="-0.11576">
        <ele>21.7999992</ele>
        <time>2013-12-08T08:14:04Z</time>
      </trkpt>
      <trkpt lat="49.09743" lon="-0.11575">
        <ele>21.3999996</ele>
        <time>2013-12-08T08:14:05Z</time>
      </trkpt>
      <trkpt lat="49.09741" lon="-0.11576">
        <ele>21.3999996</ele>
        <time>2013-12-08T08:14:06Z</time>
      </trkpt>
      <trkpt lat="49.09736" lon="-0.11585">
        <ele>21.3999996</ele>
        <time>2013-12-08T08:14:09Z</time>
      </trkpt>
      <trkpt lat="49.09731" lon="-0.1159">
        <ele>21.3999996</ele>
        <time>2013-12-08T08:14:11Z</time>
      </trkpt>
      <trkpt lat="49.09724" lon="-0.11598">
        <ele>21.3999996</ele>
        <time>2013-12-08T08:14:14Z</time>
      </trkpt>
      <trkpt lat="49.09718" lon="-0.116">
        <ele>21.3999996</ele>
        <time>2013-12-08T08:14:16Z</time>
      </trkpt>
      <trkpt lat="49.09703" lon="-0.11608">
        <ele>21.3999996</ele>
        <time>2013-12-08T08:14:21Z</time>
      </trkpt>
      <trkpt lat="49.09684" lon="-0.1161">
        <ele>21.3999996</ele>
        <time>2013-12-08T08:14:27Z</time>
      </trkpt>
      <trkpt lat="49.09667" lon="-0.11609">
        <ele>21.3999996</ele>
        <time>2013-12-08T08:14:32Z</time>
      </trkpt>
      <trkpt lat="49.09655" lon="-0.11605">
        <ele>21.3999996</ele>
        <time>2013-12-08T08:14:35Z</time>
      </trkpt>
      <trkpt lat="49.09639" lon="-0.11595">
        <ele>21.3999996</ele>
        <time>2013-12-08T08:14:39Z</time>
      </trkpt>
      <trkpt lat="49.09613" lon="-0.11582">
        <ele>21.3999996</ele>
        <time>2013-12-08T08:14:45Z</time>
      </trkpt>
      <trkpt lat="49.09574" lon="-0.11558">
        <ele>21.3999996</ele>
        <time>2013-12-08T08:14:53Z</time>
      </trkpt>
      <trkpt lat="49.09549" lon="-0.11548">
        <ele>21.3999996</ele>
        <time>2013-12-08T08:14:58Z</time>
      </trkpt>
      <trkpt lat="49.09544" lon="-0.11547">
        <ele>21.3999996</ele>
        <time>2013-12-08T08:14:59Z</time>
      </trkpt>
      <trkpt lat="49.09515" lon="-0.11544">
        <ele>21.3999996</ele>
        <time>2013-12-08T08:15:05Z</time>
      </trkpt>
      <trkpt lat="49.09509" lon="-0.11544">
        <ele>21.3999996</ele>
        <time>2013-12-08T08:15:06Z</time>
      </trkpt>
      <trkpt lat="49.09494" lon="-0.1154">
        <ele>21.3999996</ele>
        <time>2013-12-08T08:15:09Z</time>
      </trkpt>
      <trkpt lat="49.0947" lon="-0.1152">
        <ele>21.3999996</ele>
        <time>2013-12-08T08:15:15Z</time>
      </trkpt>
      <trkpt lat="49.09449" lon="-0.11496">
        <ele>21.3999996</ele>
        <time>2013-12-08T08:15:21Z</time>
      </trkpt>
      <trkpt lat="49.09429" lon="-0.11475">
        <ele>21.3999996</ele>
        <time>2013-12-08T08:15:26Z</time>
      </trkpt>
      <trkpt lat="49.09412" lon="-0.1146">
        <ele>21.3999996</ele>
        <time>2013-12-08T08:15:31Z</time>
      </trkpt>
      <trkpt lat="49.09398" lon="-0.11452">
        <ele>21.3999996</ele>
        <time>2013-12-08T08:15:35Z</time>
      </trkpt>
      <trkpt lat="49.09395" lon="-0.11454">
        <ele>21.3999996</ele>
        <time>2013-12-08T08:15:36Z</time>
      </trkpt>
      <trkpt lat="49.09388" lon="-0.11466">
        <ele>21.3999996</ele>
        <time>2013-12-08T08:15:40Z</time>
      </trkpt>
      <trkpt lat="49.09373" lon="-0.11488">
        <ele>21.3999996</ele>
        <time>2013-12-08T08:15:45Z</time>
      </trkpt>
      <trkpt lat="49.09353" lon="-0.11517">
        <ele>21.3999996</ele>
        <time>2013-12-08T08:15:51Z</time>
      </trkpt>
      <trkpt lat="49.0933" lon="-0.11552">
        <ele>21.3999996</ele>
        <time>2013-12-08T08:15:57Z</time>
      </trkpt>
      <trkpt lat="49.09304" lon="-0.11593">
        <ele>21.3999996</ele>
        <time>2013-12-08T08:16:04Z</time>
      </trkpt>
      <trkpt lat="49.09286" lon="-0.11624">
        <ele>21.3999996</ele>
        <time>2013-12-08T08:16:09Z</time>
      </trkpt>
      <trkpt lat="49.09282" lon="-0.1163">
        <ele>21.3999996</ele>
        <time>2013-12-08T08:16:10Z</time>
      </trkpt>
      <trkpt lat="49.0927" lon="-0.11648">
        <ele>21</ele>
        <time>2013-12-08T08:16:13Z</time>
      </trkpt>
      <trkpt lat="49.09266" lon="-0.11654">
        <ele>20.6000004</ele>
        <time>2013-12-08T08:16:14Z</time>
      </trkpt>
      <trkpt lat="49.09263" lon="-0.11659">
        <ele>20.2000008</ele>
        <time>2013-12-08T08:16:15Z</time>
      </trkpt>
      <trkpt lat="49.09259" lon="-0.11665">
        <ele>19.7999992</ele>
        <time>2013-12-08T08:16:16Z</time>
      </trkpt>
      <trkpt lat="49.09255" lon="-0.1167">
        <ele>19.3999996</ele>
        <time>2013-12-08T08:16:17Z</time>
      </trkpt>
      <trkpt lat="49.09243" lon="-0.11683">
        <ele>19.3999996</ele>
        <time>2013-12-08T08:16:20Z</time>
      </trkpt>
      <trkpt lat="49.09224" lon="-0.11696">
        <ele>19.3999996</ele>
        <time>2013-12-08T08:16:24Z</time>
      </trkpt>
      <trkpt lat="49.09219" lon="-0.11699">
        <ele>19.3999996</ele>
        <time>2013-12-08T08:16:25Z</time>
      </trkpt>
      <trkpt lat="49.09176" lon="-0.11727">
        <ele>19.3999996</ele>
        <time>2013-12-08T08:16:34Z</time>
      </trkpt>
      <trkpt lat="49.09139" lon="-0.11756">
        <ele>19.3999996</ele>
        <time>2013-12-08T08:16:42Z</time>
      </trkpt>
      <trkpt lat="49.09107" lon="-0.11785">
        <ele>19.3999996</ele>
        <time>2013-12-08T08:16:49Z</time>
      </trkpt>
      <trkpt lat="49.09087" lon="-0.11807">
        <ele>19.3999996</ele>
        <time>2013-12-08T08:16:54Z</time>
      </trkpt>
      <trkpt lat="49.0908" lon="-0.11814">
        <ele>19.3999996</ele>
        <time>2013-12-08T08:16:56Z</time>
      </trkpt>
      <trkpt lat="49.09076" lon="-0.11828">
        <ele>19.3999996</ele>
        <time>2013-12-08T08:16:59Z</time>
      </trkpt>
      <trkpt lat="49.09079" lon="-0.11844">
        <ele>19.3999996</ele>
        <time>2013-12-08T08:17:02Z</time>
      </trkpt>
      <trkpt lat="49.09082" lon="-0.11854">
        <ele>19.3999996</ele>
        <time>2013-12-08T08:17:04Z</time>
      </trkpt>
      <trkpt lat="49.09092" lon="-0.1188">
        <ele>19.3999996</ele>
        <time>2013-12-08T08:17:11Z</time>
      </trkpt>
      <trkpt lat="49.09094" lon="-0.11891">
        <ele>19.3999996</ele>
        <time>2013-12-08T08:17:14Z</time>
      </trkpt>
      <trkpt lat="49.09091" lon="-0.11898">
        <ele>19.3999996</ele>
        <time>2013-12-08T08:17:16Z</time>
      </trkpt>
      <trkpt lat="49.09085" lon="-0.11902">
        <ele>19.3999996</ele>
        <time>2013-12-08T08:17:18Z</time>
      </trkpt>
      <trkpt lat="49.09075" lon="-0.11909">
        <ele>19.3999996</ele>
        <time>2013-12-08T08:17:21Z</time>
      </trkpt>
      <trkpt lat="49.09045" lon="-0.11932">
        <ele>19.3999996</ele>
        <time>2013-12-08T08:17:30Z</time>
      </trkpt>
      <trkpt lat="49.09024" lon="-0.11951">
        <ele>19.3999996</ele>
        <time>2013-12-08T08:17:37Z</time>
      </trkpt>
      <trkpt lat="49.09015" lon="-0.11968">
        <ele>19.3999996</ele>
        <time>2013-12-08T08:17:41Z</time>
      </trkpt>
      <trkpt lat="49.09015" lon="-0.11973">
        <ele>19.3999996</ele>
        <time>2013-12-08T08:17:42Z</time>
      </trkpt>
      <trkpt lat="49.09019" lon="-0.1199">
        <ele>19.3999996</ele>
        <time>2013-12-08T08:17:45Z</time>
      </trkpt>
      <trkpt lat="49.09023" lon="-0.12">
        <ele>19.3999996</ele>
        <time>2013-12-08T08:17:47Z</time>
      </trkpt>
      <trkpt lat="49.09035" lon="-0.12044">
        <ele>19.3999996</ele>
        <time>2013-12-08T08:17:55Z</time>
      </trkpt>
      <trkpt lat="49.09037" lon="-0.12081">
        <ele>19.3999996</ele>
        <time>2013-12-08T08:18:01Z</time>
      </trkpt>
      <trkpt lat="49.09043" lon="-0.12117">
        <ele>19.3999996</ele>
        <time>2013-12-08T08:18:08Z</time>
      </trkpt>
      <trkpt lat="49.09044" lon="-0.12125">
        <ele>19.3999996</ele>
        <time>2013-12-08T08:18:10Z</time>
      </trkpt>
      <trkpt lat="49.09043" lon="-0.12128">
        <ele>19.3999996</ele>
        <time>2013-12-08T08:18:11Z</time>
      </trkpt>
      <trkpt lat="49.09035" lon="-0.12133">
        <ele>19.3999996</ele>
        <time>2013-12-08T08:18:15Z</time>
      </trkpt>
      <trkpt lat="49.09033" lon="-0.12135">
        <ele>19.3999996</ele>
        <time>2013-12-08T08:18:16Z</time>
      </trkpt>
      <trkpt lat="49.09021" lon="-0.12141">
        <ele>19.3999996</ele>
        <time>2013-12-08T08:18:20Z</time>
      </trkpt>
      <trkpt lat="49.09004" lon="-0.12155">
        <ele>19.3999996</ele>
        <time>2013-12-08T08:18:27Z</time>
      </trkpt>
      <trkpt lat="49.08983" lon="-0.12168">
        <ele>19.3999996</ele>
        <time>2013-12-08T08:18:33Z</time>
      </trkpt>
      <trkpt lat="49.08962" lon="-0.12175">
        <ele>19.3999996</ele>
        <time>2013-12-08T08:18:40Z</time>
      </trkpt>
      <trkpt lat="49.08953" lon="-0.1217">
        <ele>19.3999996</ele>
        <time>2013-12-08T08:18:44Z</time>
      </trkpt>
      <trkpt lat="49.08939" lon="-0.12175">
        <ele>19.3999996</ele>
        <time>2013-12-08T08:18:48Z</time>
      </trkpt>
      <trkpt lat="49.08931" lon="-0.1218">
        <ele>19.7999992</ele>
        <time>2013-12-08T08:18:50Z</time>
      </trkpt>
      <trkpt lat="49.08926" lon="-0.12183">
        <ele>20.2000008</ele>
        <time>2013-12-08T08:18:51Z</time>
      </trkpt>
      <trkpt lat="49.08922" lon="-0.12185">
        <ele>20.6000004</ele>
        <time>2013-12-08T08:18:52Z</time>
      </trkpt>
      <trkpt lat="49.08917" lon="-0.12187">
        <ele>21</ele>
        <time>2013-12-08T08:18:53Z</time>
      </trkpt>
      <trkpt lat="49.08912" lon="-0.1219">
        <ele>21.3999996</ele>
        <time>2013-12-08T08:18:54Z</time>
      </trkpt>
      <trkpt lat="49.08907" lon="-0.12191">
        <ele>21.3999996</ele>
        <time>2013-12-08T08:18:55Z</time>
      </trkpt>
      <trkpt lat="49.08873" lon="-0.12194">
        <ele>21.3999996</ele>
        <time>2013-12-08T08:19:02Z</time>
      </trkpt>
      <trkpt lat="49.08839" lon="-0.12185">
        <ele>21.3999996</ele>
        <time>2013-12-08T08:19:09Z</time>
      </trkpt>
      <trkpt lat="49.08823" lon="-0.12181">
        <ele>21.7999992</ele>
        <time>2013-12-08T08:19:12Z</time>
      </trkpt>
      <trkpt lat="49.08818" lon="-0.1218">
        <ele>22.2000008</ele>
        <time>2013-12-08T08:19:13Z</time>
      </trkpt>
      <trkpt lat="49.08813" lon="-0.12179">
        <ele>22.6000004</ele>
        <time>2013-12-08T08:19:14Z</time>
      </trkpt>
      <trkpt lat="49.08807" lon="-0.12177">
        <ele>23</ele>
        <time>2013-12-08T08:19:15Z</time>
      </trkpt>
      <trkpt lat="49.08802" lon="-0.12177">
        <ele>23.3999996</ele>
        <time>2013-12-08T08:19:16Z</time>
      </trkpt>
      <trkpt lat="49.08768" lon="-0.1217">
        <ele>23.3999996</ele>
        <time>2013-12-08T08:19:23Z</time>
      </trkpt>
      <trkpt lat="49.08747" lon="-0.12169">
        <ele>23.3999996</ele>
        <time>2013-12-08T08:19:27Z</time>
      </trkpt>
      <trkpt lat="49.08733" lon="-0.1217">
        <ele>23.3999996</ele>
        <time>2013-12-08T08:19:30Z</time>
      </trkpt>
      <trkpt lat="49.08708" lon="-0.12181">
        <ele>23.7999992</ele>
        <time>2013-12-08T08:19:35Z</time>
      </trkpt>
      <trkpt lat="49.08703" lon="-0.12184">
        <ele>24.2000008</ele>
        <time>2013-12-08T08:19:36Z</time>
      </trkpt>
      <trkpt lat="49.08698" lon="-0.12187">
        <ele>25.2000008</ele>
        <time>2013-12-08T08:19:37Z</time>
      </trkpt>
      <trkpt lat="49.08693" lon="-0.1219">
        <ele>25.6000004</ele>
        <time>2013-12-08T08:19:38Z</time>
      </trkpt>
      <trkpt lat="49.08664" lon="-0.1221">
        <ele>25.6000004</ele>
        <time>2013-12-08T08:19:44Z</time>
      </trkpt>
      <trkpt lat="49.08626" lon="-0.12236">
        <ele>26</ele>
        <time>2013-12-08T08:19:52Z</time>
      </trkpt>
      <trkpt lat="49.08621" lon="-0.12239">
        <ele>26.3999996</ele>
        <time>2013-12-08T08:19:53Z</time>
      </trkpt>
      <trkpt lat="49.08617" lon="-0.12242">
        <ele>26.7999992</ele>
        <time>2013-12-08T08:19:54Z</time>
      </trkpt>
      <trkpt lat="49.08612" lon="-0.12245">
        <ele>27.2000008</ele>
        <time>2013-12-08T08:19:55Z</time>
      </trkpt>
      <trkpt lat="49.08608" lon="-0.12248">
        <ele>27.6000004</ele>
        <time>2013-12-08T08:19:56Z</time>
      </trkpt>
      <trkpt lat="49.08585" lon="-0.12265">
        <ele>27.6000004</ele>
        <time>2013-12-08T08:20:01Z</time>
      </trkpt>
      <trkpt lat="49.0855" lon="-0.12295">
        <ele>27.6000004</ele>
        <time>2013-12-08T08:20:08Z</time>
      </trkpt>
      <trkpt lat="49.08513" lon="-0.12331">
        <ele>27.6000004</ele>
        <time>2013-12-08T08:20:14Z</time>
      </trkpt>
      <trkpt lat="49.08485" lon="-0.12353">
        <ele>27.6000004</ele>
        <time>2013-12-08T08:20:19Z</time>
      </trkpt>
      <trkpt lat="49.08458" lon="-0.1237">
        <ele>27.6000004</ele>
        <time>2013-12-08T08:20:25Z</time>
      </trkpt>
      <trkpt lat="49.0843" lon="-0.12385">
        <ele>28</ele>
        <time>2013-12-08T08:20:31Z</time>
      </trkpt>
      <trkpt lat="49.08426" lon="-0.12388">
        <ele>28.3999996</ele>
        <time>2013-12-08T08:20:32Z</time>
      </trkpt>
      <trkpt lat="49.0842" lon="-0.12391">
        <ele>28.7999992</ele>
        <time>2013-12-08T08:20:33Z</time>
      </trkpt>
      <trkpt lat="49.08415" lon="-0.12394">
        <ele>29.2000008</ele>
        <time>2013-12-08T08:20:34Z</time>
      </trkpt>
      <trkpt lat="49.08411" lon="-0.12397">
        <ele>29.6000004</ele>
        <time>2013-12-08T08:20:35Z</time>
      </trkpt>
      <trkpt lat="49.08401" lon="-0.12404">
        <ele>30.2000008</ele>
        <time>2013-12-08T08:20:37Z</time>
      </trkpt>
      <trkpt lat="49.08396" lon="-0.12406">
        <ele>30.6000004</ele>
        <time>2013-12-08T08:20:38Z</time>
      </trkpt>
      <trkpt lat="49.08392" lon="-0.12409">
        <ele>31</ele>
        <time>2013-12-08T08:20:39Z</time>
      </trkpt>
      <trkpt lat="49.08389" lon="-0.12411">
        <ele>31.3999996</ele>
        <time>2013-12-08T08:20:40Z</time>
      </trkpt>
      <trkpt lat="49.08385" lon="-0.12413">
        <ele>31.7999992</ele>
        <time>2013-12-08T08:20:41Z</time>
      </trkpt>
      <trkpt lat="49.08365" lon="-0.12424">
        <ele>32.2000008</ele>
        <time>2013-12-08T08:20:47Z</time>
      </trkpt>
      <trkpt lat="49.08363" lon="-0.12426">
        <ele>32.5999985</ele>
        <time>2013-12-08T08:20:48Z</time>
      </trkpt>
      <trkpt lat="49.0836" lon="-0.12428">
        <ele>33</ele>
        <time>2013-12-08T08:20:49Z</time>
      </trkpt>
      <trkpt lat="49.08357" lon="-0.12429">
        <ele>33.4000015</ele>
        <time>2013-12-08T08:20:50Z</time>
      </trkpt>
      <trkpt lat="49.08355" lon="-0.12427">
        <ele>33.7999992</ele>
        <time>2013-12-08T08:20:51Z</time>
      </trkpt>
      <trkpt lat="49.08348" lon="-0.12414">
        <ele>33.7999992</ele>
        <time>2013-12-08T08:20:55Z</time>
      </trkpt>
      <trkpt lat="49.08347" lon="-0.1241">
        <ele>33.7999992</ele>
        <time>2013-12-08T08:20:56Z</time>
      </trkpt>
      <trkpt lat="49.08343" lon="-0.12399">
        <ele>33.7999992</ele>
        <time>2013-12-08T08:21:00Z</time>
      </trkpt>
      <trkpt lat="49.08343" lon="-0.12399">
        <ele>33.7999992</ele>
        <time>2013-12-08T08:21:01Z</time>
      </trkpt>
      <trkpt lat="49.08343" lon="-0.12397">
        <ele>33.7999992</ele>
        <time>2013-12-08T08:21:10Z</time>
      </trkpt>
      <trkpt lat="49.08341" lon="-0.12391">
        <ele>33.7999992</ele>
        <time>2013-12-08T08:21:12Z</time>
      </trkpt>
      <trkpt lat="49.08333" lon="-0.1237">
        <ele>33.7999992</ele>
        <time>2013-12-08T08:21:17Z</time>
      </trkpt>
      <trkpt lat="49.0833" lon="-0.1236">
        <ele>33.7999992</ele>
        <time>2013-12-08T08:21:19Z</time>
      </trkpt>
      <trkpt lat="49.08325" lon="-0.12349">
        <ele>33.7999992</ele>
        <time>2013-12-08T08:21:21Z</time>
      </trkpt>
      <trkpt lat="49.08324" lon="-0.12343">
        <ele>33.7999992</ele>
        <time>2013-12-08T08:21:22Z</time>
      </trkpt>
      <trkpt lat="49.08311" lon="-0.12309">
        <ele>33.7999992</ele>
        <time>2013-12-08T08:21:28Z</time>
      </trkpt>
      <trkpt lat="49.08304" lon="-0.12292">
        <ele>33.7999992</ele>
        <time>2013-12-08T08:21:31Z</time>
      </trkpt>
      <trkpt lat="49.08297" lon="-0.12273">
        <ele>33.7999992</ele>
        <time>2013-12-08T08:21:34Z</time>
      </trkpt>
      <trkpt lat="49.0828" lon="-0.12226">
        <ele>33.7999992</ele>
        <time>2013-12-08T08:21:41Z</time>
      </trkpt>
      <trkpt lat="49.08257" lon="-0.12174">
        <ele>33.7999992</ele>
        <time>2013-12-08T08:21:48Z</time>
      </trkpt>
      <trkpt lat="49.08238" lon="-0.12132">
        <ele>33.7999992</ele>
        <time>2013-12-08T08:21:54Z</time>
      </trkpt>
      <trkpt lat="49.08235" lon="-0.12126">
        <ele>33.7999992</ele>
        <time>2013-12-08T08:21:55Z</time>
      </trkpt>
      <trkpt lat="49.08223" lon="-0.12094">
        <ele>33.7999992</ele>
        <time>2013-12-08T08:22:00Z</time>
      </trkpt>
      <trkpt lat="49.08221" lon="-0.12088">
        <ele>33.7999992</ele>
        <time>2013-12-08T08:22:01Z</time>
      </trkpt>
      <trkpt lat="49.08206" lon="-0.12046">
        <ele>33.7999992</ele>
        <time>2013-12-08T08:22:08Z</time>
      </trkpt>
      <trkpt lat="49.08193" lon="-0.1201">
        <ele>33.7999992</ele>
        <time>2013-12-08T08:22:14Z</time>
      </trkpt>
      <trkpt lat="49.08178" lon="-0.11967">
        <ele>33.7999992</ele>
        <time>2013-12-08T08:22:21Z</time>
      </trkpt>
      <trkpt lat="49.08162" lon="-0.11925">
        <ele>33.7999992</ele>
        <time>2013-12-08T08:22:28Z</time>
      </trkpt>
      <trkpt lat="49.08146" lon="-0.1188">
        <ele>33.7999992</ele>
        <time>2013-12-08T08:22:35Z</time>
      </trkpt>
      <trkpt lat="49.08142" lon="-0.11867">
        <ele>33.7999992</ele>
        <time>2013-12-08T08:22:37Z</time>
      </trkpt>
      <trkpt lat="49.08132" lon="-0.11839">
        <ele>33.7999992</ele>
        <time>2013-12-08T08:22:41Z</time>
      </trkpt>
      <trkpt lat="49.0812" lon="-0.11796">
        <ele>33.7999992</ele>
        <time>2013-12-08T08:22:47Z</time>
      </trkpt>
      <trkpt lat="49.0811" lon="-0.11763">
        <ele>33.7999992</ele>
        <time>2013-12-08T08:22:52Z</time>
      </trkpt>
      <trkpt lat="49.08097" lon="-0.11722">
        <ele>33.7999992</ele>
        <time>2013-12-08T08:22:58Z</time>
      </trkpt>
      <trkpt lat="49.08079" lon="-0.1167">
        <ele>33.4000015</ele>
        <time>2013-12-08T08:23:05Z</time>
      </trkpt>
      <trkpt lat="49.08076" lon="-0.11663">
        <ele>33</ele>
        <time>2013-12-08T08:23:06Z</time>
      </trkpt>
      <trkpt lat="49.08074" lon="-0.11655">
        <ele>32.5999985</ele>
        <time>2013-12-08T08:23:07Z</time>
      </trkpt>
      <trkpt lat="49.08071" lon="-0.11647">
        <ele>32.2000008</ele>
        <time>2013-12-08T08:23:08Z</time>
      </trkpt>
      <trkpt lat="49.08068" lon="-0.11639">
        <ele>31.7999992</ele>
        <time>2013-12-08T08:23:09Z</time>
      </trkpt>
      <trkpt lat="49.0806" lon="-0.11617">
        <ele>31.7999992</ele>
        <time>2013-12-08T08:23:12Z</time>
      </trkpt>
      <trkpt lat="49.08036" lon="-0.11551">
        <ele>31.7999992</ele>
        <time>2013-12-08T08:23:21Z</time>
      </trkpt>
      <trkpt lat="49.08031" lon="-0.11538">
        <ele>31.7999992</ele>
        <time>2013-12-08T08:23:23Z</time>
      </trkpt>
      <trkpt lat="49.08025" lon="-0.11524">
        <ele>31.7999992</ele>
        <time>2013-12-08T08:23:25Z</time>
      </trkpt>
      <trkpt lat="49.08006" lon="-0.11467">
        <ele>31.7999992</ele>
        <time>2013-12-08T08:23:33Z</time>
      </trkpt>
      <trkpt lat="49.07984" lon="-0.11408">
        <ele>31.7999992</ele>
        <time>2013-12-08T08:23:41Z</time>
      </trkpt>
      <trkpt lat="49.07963" lon="-0.11347">
        <ele>31.7999992</ele>
        <time>2013-12-08T08:23:49Z</time>
      </trkpt>
      <trkpt lat="49.07953" lon="-0.11317">
        <ele>31.3999996</ele>
        <time>2013-12-08T08:23:53Z</time>
      </trkpt>
      <trkpt lat="49.0795" lon="-0.11309">
        <ele>31</ele>
        <time>2013-12-08T08:23:54Z</time>
      </trkpt>
      <trkpt lat="49.07947" lon="-0.113">
        <ele>30.6000004</ele>
        <time>2013-12-08T08:23:55Z</time>
      </trkpt>
      <trkpt lat="49.07944" lon="-0.11291">
        <ele>30.2000008</ele>
        <time>2013-12-08T08:23:56Z</time>
      </trkpt>
      <trkpt lat="49.07941" lon="-0.11283">
        <ele>29.7999992</ele>
        <time>2013-12-08T08:23:57Z</time>
      </trkpt>
      <trkpt lat="49.07924" lon="-0.11234">
        <ele>29.7999992</ele>
        <time>2013-12-08T08:24:03Z</time>
      </trkpt>
      <trkpt lat="49.07921" lon="-0.11225">
        <ele>29.3999996</ele>
        <time>2013-12-08T08:24:04Z</time>
      </trkpt>
      <trkpt lat="49.07918" lon="-0.11217">
        <ele>29</ele>
        <time>2013-12-08T08:24:05Z</time>
      </trkpt>
      <trkpt lat="49.07916" lon="-0.11208">
        <ele>28.6000004</ele>
        <time>2013-12-08T08:24:06Z</time>
      </trkpt>
      <trkpt lat="49.07914" lon="-0.11199">
        <ele>28.2000008</ele>
        <time>2013-12-08T08:24:07Z</time>
      </trkpt>
      <trkpt lat="49.07912" lon="-0.11191">
        <ele>27.7999992</ele>
        <time>2013-12-08T08:24:08Z</time>
      </trkpt>
      <trkpt lat="49.07909" lon="-0.11173">
        <ele>27.7999992</ele>
        <time>2013-12-08T08:24:10Z</time>
      </trkpt>
      <trkpt lat="49.07908" lon="-0.11165">
        <ele>27.7999992</ele>
        <time>2013-12-08T08:24:11Z</time>
      </trkpt>
      <trkpt lat="49.07909" lon="-0.11151">
        <ele>27.3999996</ele>
        <time>2013-12-08T08:24:13Z</time>
      </trkpt>
      <trkpt lat="49.07911" lon="-0.11145">
        <ele>27</ele>
        <time>2013-12-08T08:24:14Z</time>
      </trkpt>
      <trkpt lat="49.07913" lon="-0.1114">
        <ele>26.6000004</ele>
        <time>2013-12-08T08:24:15Z</time>
      </trkpt>
      <trkpt lat="49.07915" lon="-0.11134">
        <ele>26.2000008</ele>
        <time>2013-12-08T08:24:16Z</time>
      </trkpt>
      <trkpt lat="49.07916" lon="-0.11129">
        <ele>25.7999992</ele>
        <time>2013-12-08T08:24:17Z</time>
      </trkpt>
      <trkpt lat="49.07918" lon="-0.11124">
        <ele>25.7999992</ele>
        <time>2013-12-08T08:24:18Z</time>
      </trkpt>
      <trkpt lat="49.0792" lon="-0.11105">
        <ele>25.7999992</ele>
        <time>2013-12-08T08:24:22Z</time>
      </trkpt>
      <trkpt lat="49.07905" lon="-0.11076">
        <ele>25.7999992</ele>
        <time>2013-12-08T08:24:28Z</time>
      </trkpt>
      <trkpt lat="49.07893" lon="-0.11053">
        <ele>25.7999992</ele>
        <time>2013-12-08T08:24:33Z</time>
      </trkpt>
      <trkpt lat="49.07884" lon="-0.11038">
        <ele>25.2000008</ele>
        <time>2013-12-08T08:24:37Z</time>
      </trkpt>
      <trkpt lat="49.07882" lon="-0.11035">
        <ele>24.7999992</ele>
        <time>2013-12-08T08:24:38Z</time>
      </trkpt>
      <trkpt lat="49.07879" lon="-0.11031">
        <ele>24.3999996</ele>
        <time>2013-12-08T08:24:39Z</time>
      </trkpt>
      <trkpt lat="49.07877" lon="-0.11027">
        <ele>24</ele>
        <time>2013-12-08T08:24:40Z</time>
      </trkpt>
      <trkpt lat="49.07875" lon="-0.11023">
        <ele>23.6000004</ele>
        <time>2013-12-08T08:24:41Z</time>
      </trkpt>
      <trkpt lat="49.07867" lon="-0.11008">
        <ele>23.6000004</ele>
        <time>2013-12-08T08:24:45Z</time>
      </trkpt>
      <trkpt lat="49.07861" lon="-0.10996">
        <ele>23.6000004</ele>
        <time>2013-12-08T08:24:50Z</time>
      </trkpt>
      <trkpt lat="49.07862" lon="-0.10996">
        <ele>23.6000004</ele>
        <time>2013-12-08T08:25:45Z</time>
      </trkpt>
      <trkpt lat="49.0786" lon="-0.10989">
        <ele>23.6000004</ele>
        <time>2013-12-08T08:25:49Z</time>
      </trkpt>
      <trkpt lat="49.07859" lon="-0.10988">
        <ele>23.6000004</ele>
        <time>2013-12-08T08:25:50Z</time>
      </trkpt>
      <trkpt lat="49.07859" lon="-0.10987">
        <ele>23.6000004</ele>
        <time>2013-12-08T08:25:51Z</time>
      </trkpt>
      <trkpt lat="49.07858" lon="-0.10987">
        <ele>23.6000004</ele>
        <time>2013-12-08T08:26:20Z</time>
      </trkpt>
      <trkpt lat="49.07858" lon="-0.10985">
        <ele>23.6000004</ele>
        <time>2013-12-08T08:26:21Z</time>
      </trkpt>
      <trkpt lat="49.07853" lon="-0.10975">
        <ele>23.6000004</ele>
        <time>2013-12-08T08:26:25Z</time>
      </trkpt>
      <trkpt lat="49.07852" lon="-0.10972">
        <ele>23.6000004</ele>
        <time>2013-12-08T08:26:26Z</time>
      </trkpt>
      <trkpt lat="49.07839" lon="-0.10943">
        <ele>23.6000004</ele>
        <time>2013-12-08T08:26:34Z</time>
      </trkpt>
      <trkpt lat="49.07825" lon="-0.10906">
        <ele>23.6000004</ele>
        <time>2013-12-08T08:26:43Z</time>
      </trkpt>
      <trkpt lat="49.07822" lon="-0.10896">
        <ele>24</ele>
        <time>2013-12-08T08:26:45Z</time>
      </trkpt>
      <trkpt lat="49.0782" lon="-0.10892">
        <ele>24.3999996</ele>
        <time>2013-12-08T08:26:46Z</time>
      </trkpt>
      <trkpt lat="49.07818" lon="-0.10887">
        <ele>24.7999992</ele>
        <time>2013-12-08T08:26:47Z</time>
      </trkpt>
      <trkpt lat="49.07816" lon="-0.10883">
        <ele>25.2000008</ele>
        <time>2013-12-08T08:26:48Z</time>
      </trkpt>
      <trkpt lat="49.07815" lon="-0.10878">
        <ele>25.6000004</ele>
        <time>2013-12-08T08:26:49Z</time>
      </trkpt>
      <trkpt lat="49.07813" lon="-0.10873">
        <ele>25.6000004</ele>
        <time>2013-12-08T08:26:50Z</time>
      </trkpt>
      <trkpt lat="49.0781" lon="-0.10858">
        <ele>25.6000004</ele>
        <time>2013-12-08T08:26:54Z</time>
      </trkpt>
      <trkpt lat="49.0781" lon="-0.10854">
        <ele>25.6000004</ele>
        <time>2013-12-08T08:26:55Z</time>
      </trkpt>
      <trkpt lat="49.07815" lon="-0.10843">
        <ele>25.6000004</ele>
        <time>2013-12-08T08:26:58Z</time>
      </trkpt>
      <trkpt lat="49.07819" lon="-0.10836">
        <ele>25.6000004</ele>
        <time>2013-12-08T08:27:00Z</time>
      </trkpt>
      <trkpt lat="49.0783" lon="-0.1081">
        <ele>25.6000004</ele>
        <time>2013-12-08T08:27:05Z</time>
      </trkpt>
      <trkpt lat="49.07827" lon="-0.10785">
        <ele>25.6000004</ele>
        <time>2013-12-08T08:27:09Z</time>
      </trkpt>
      <trkpt lat="49.0782" lon="-0.1077">
        <ele>25.6000004</ele>
        <time>2013-12-08T08:27:12Z</time>
      </trkpt>
      <trkpt lat="49.0781" lon="-0.10753">
        <ele>25.6000004</ele>
        <time>2013-12-08T08:27:16Z</time>
      </trkpt>
      <trkpt lat="49.078" lon="-0.1073">
        <ele>25.6000004</ele>
        <time>2013-12-08T08:27:21Z</time>
      </trkpt>
      <trkpt lat="49.07785" lon="-0.10697">
        <ele>25.6000004</ele>
        <time>2013-12-08T08:27:28Z</time>
      </trkpt>
      <trkpt lat="49.07769" lon="-0.10662">
        <ele>25.6000004</ele>
        <time>2013-12-08T08:27:35Z</time>
      </trkpt>
      <trkpt lat="49.07755" lon="-0.10628">
        <ele>25.6000004</ele>
        <time>2013-12-08T08:27:41Z</time>
      </trkpt>
      <trkpt lat="49.07744" lon="-0.10599">
        <ele>26.2000008</ele>
        <time>2013-12-08T08:27:47Z</time>
      </trkpt>
      <trkpt lat="49.07742" lon="-0.10594">
        <ele>26.6000004</ele>
        <time>2013-12-08T08:27:48Z</time>
      </trkpt>
      <trkpt lat="49.0774" lon="-0.10588">
        <ele>27</ele>
        <time>2013-12-08T08:27:49Z</time>
      </trkpt>
      <trkpt lat="49.07738" lon="-0.10582">
        <ele>27.7999992</ele>
        <time>2013-12-08T08:27:50Z</time>
      </trkpt>
      <trkpt lat="49.0773" lon="-0.10562">
        <ele>27.7999992</ele>
        <time>2013-12-08T08:27:54Z</time>
      </trkpt>
      <trkpt lat="49.07719" lon="-0.10523">
        <ele>27.7999992</ele>
        <time>2013-12-08T08:28:01Z</time>
      </trkpt>
      <trkpt lat="49.07715" lon="-0.10512">
        <ele>27.7999992</ele>
        <time>2013-12-08T08:28:03Z</time>
      </trkpt>
      <trkpt lat="49.07708" lon="-0.10491">
        <ele>27.7999992</ele>
        <time>2013-12-08T08:28:07Z</time>
      </trkpt>
      <trkpt lat="49.07702" lon="-0.1047">
        <ele>27.7999992</ele>
        <time>2013-12-08T08:28:11Z</time>
      </trkpt>
      <trkpt lat="49.07697" lon="-0.10454">
        <ele>27.7999992</ele>
        <time>2013-12-08T08:28:14Z</time>
      </trkpt>
      <trkpt lat="49.0769" lon="-0.1042">
        <ele>27.7999992</ele>
        <time>2013-12-08T08:28:21Z</time>
      </trkpt>
      <trkpt lat="49.07696" lon="-0.10416">
        <ele>27.7999992</ele>
        <time>2013-12-08T08:28:24Z</time>
      </trkpt>
      <trkpt lat="49.07704" lon="-0.10413">
        <ele>28.2000008</ele>
        <time>2013-12-08T08:28:27Z</time>
      </trkpt>
      <trkpt lat="49.07707" lon="-0.10413">
        <ele>28.6000004</ele>
        <time>2013-12-08T08:28:28Z</time>
      </trkpt>
      <trkpt lat="49.07711" lon="-0.10412">
        <ele>29</ele>
        <time>2013-12-08T08:28:29Z</time>
      </trkpt>
      <trkpt lat="49.07714" lon="-0.10412">
        <ele>29.3999996</ele>
        <time>2013-12-08T08:28:30Z</time>
      </trkpt>
      <trkpt lat="49.07718" lon="-0.10412">
        <ele>29.7999992</ele>
        <time>2013-12-08T08:28:31Z</time>
      </trkpt>
      <trkpt lat="49.07729" lon="-0.10409">
        <ele>30.2000008</ele>
        <time>2013-12-08T08:28:34Z</time>
      </trkpt>
      <trkpt lat="49.07732" lon="-0.10406">
        <ele>30.6000004</ele>
        <time>2013-12-08T08:28:35Z</time>
      </trkpt>
      <trkpt lat="49.07735" lon="-0.10404">
        <ele>31</ele>
        <time>2013-12-08T08:28:36Z</time>
      </trkpt>
      <trkpt lat="49.07738" lon="-0.10401">
        <ele>31.3999996</ele>
        <time>2013-12-08T08:28:37Z</time>
      </trkpt>
      <trkpt lat="49.0774" lon="-0.10399">
        <ele>32</ele>
        <time>2013-12-08T08:28:38Z</time>
      </trkpt>
      <trkpt lat="49.07746" lon="-0.10395">
        <ele>32</ele>
        <time>2013-12-08T08:28:40Z</time>
      </trkpt>
      <trkpt lat="49.07755" lon="-0.10393">
        <ele>32</ele>
        <time>2013-12-08T08:28:44Z</time>
      </trkpt>
      <trkpt lat="49.07759" lon="-0.10392">
        <ele>32</ele>
        <time>2013-12-08T08:28:47Z</time>
      </trkpt>
      <trkpt lat="49.07759" lon="-0.10392">
        <ele>32</ele>
        <time>2013-12-08T08:29:28Z</time>
      </trkpt>
      <trkpt lat="49.07762" lon="-0.10392">
        <ele>32</ele>
        <time>2013-12-08T08:29:29Z</time>
      </trkpt>
      <trkpt lat="49.0777" lon="-0.10392">
        <ele>32</ele>
        <time>2013-12-08T08:29:32Z</time>
      </trkpt>
      <trkpt lat="49.07773" lon="-0.10393">
        <ele>32</ele>
        <time>2013-12-08T08:29:33Z</time>
      </trkpt>
      <trkpt lat="49.07792" lon="-0.10394">
        <ele>31.3999996</ele>
        <time>2013-12-08T08:29:37Z</time>
      </trkpt>
      <trkpt lat="49.07797" lon="-0.10395">
        <ele>31</ele>
        <time>2013-12-08T08:29:38Z</time>
      </trkpt>
      <trkpt lat="49.07802" lon="-0.10396">
        <ele>30.6000004</ele>
        <time>2013-12-08T08:29:39Z</time>
      </trkpt>
      <trkpt lat="49.07808" lon="-0.10396">
        <ele>30.2000008</ele>
        <time>2013-12-08T08:29:40Z</time>
      </trkpt>
      <trkpt lat="49.07813" lon="-0.10396">
        <ele>29.7999992</ele>
        <time>2013-12-08T08:29:41Z</time>
      </trkpt>
      <trkpt lat="49.07835" lon="-0.10396">
        <ele>29.7999992</ele>
        <time>2013-12-08T08:29:45Z</time>
      </trkpt>
      <trkpt lat="49.07844" lon="-0.10397">
        <ele>29.3999996</ele>
        <time>2013-12-08T08:29:47Z</time>
      </trkpt>
      <trkpt lat="49.07848" lon="-0.10397">
        <ele>29</ele>
        <time>2013-12-08T08:29:48Z</time>
      </trkpt>
      <trkpt lat="49.07852" lon="-0.10396">
        <ele>28.6000004</ele>
        <time>2013-12-08T08:29:49Z</time>
      </trkpt>
      <trkpt lat="49.07856" lon="-0.10396">
        <ele>28.2000008</ele>
        <time>2013-12-08T08:29:50Z</time>
      </trkpt>
      <trkpt lat="49.0786" lon="-0.10395">
        <ele>27.7999992</ele>
        <time>2013-12-08T08:29:51Z</time>
      </trkpt>
      <trkpt lat="49.07865" lon="-0.10395">
        <ele>27.7999992</ele>
        <time>2013-12-08T08:29:52Z</time>
      </trkpt>
      <trkpt lat="49.07882" lon="-0.10394">
        <ele>27.7999992</ele>
        <time>2013-12-08T08:29:56Z</time>
      </trkpt>
      <trkpt lat="49.07911" lon="-0.10385">
        <ele>27.7999992</ele>
        <time>2013-12-08T08:30:02Z</time>
      </trkpt>
      <trkpt lat="49.0794" lon="-0.10372">
        <ele>27.7999992</ele>
        <time>2013-12-08T08:30:08Z</time>
      </trkpt>
      <trkpt lat="49.07968" lon="-0.10355">
        <ele>27.7999992</ele>
        <time>2013-12-08T08:30:14Z</time>
      </trkpt>
      <trkpt lat="49.08006" lon="-0.10328">
        <ele>27.7999992</ele>
        <time>2013-12-08T08:30:22Z</time>
      </trkpt>
      <trkpt lat="49.08041" lon="-0.10298">
        <ele>27.7999992</ele>
        <time>2013-12-08T08:30:30Z</time>
      </trkpt>
      <trkpt lat="49.08075" lon="-0.10264">
        <ele>27.7999992</ele>
        <time>2013-12-08T08:30:38Z</time>
      </trkpt>
      <trkpt lat="49.08089" lon="-0.10252">
        <ele>27.3999996</ele>
        <time>2013-12-08T08:30:41Z</time>
      </trkpt>
      <trkpt lat="49.08093" lon="-0.10249">
        <ele>27</ele>
        <time>2013-12-08T08:30:42Z</time>
      </trkpt>
      <trkpt lat="49.08098" lon="-0.10244">
        <ele>26</ele>
        <time>2013-12-08T08:30:43Z</time>
      </trkpt>
      <trkpt lat="49.08102" lon="-0.1024">
        <ele>25.6000004</ele>
        <time>2013-12-08T08:30:44Z</time>
      </trkpt>
      <trkpt lat="49.08121" lon="-0.10226">
        <ele>25.6000004</ele>
        <time>2013-12-08T08:30:48Z</time>
      </trkpt>
      <trkpt lat="49.08129" lon="-0.10219">
        <ele>25.6000004</ele>
        <time>2013-12-08T08:30:50Z</time>
      </trkpt>
      <trkpt lat="49.08162" lon="-0.10198">
        <ele>25.6000004</ele>
        <time>2013-12-08T08:30:57Z</time>
      </trkpt>
      <trkpt lat="49.08181" lon="-0.10187">
        <ele>25.2000008</ele>
        <time>2013-12-08T08:31:01Z</time>
      </trkpt>
      <trkpt lat="49.08186" lon="-0.10184">
        <ele>24.7999992</ele>
        <time>2013-12-08T08:31:02Z</time>
      </trkpt>
      <trkpt lat="49.08191" lon="-0.10182">
        <ele>24.3999996</ele>
        <time>2013-12-08T08:31:03Z</time>
      </trkpt>
      <trkpt lat="49.08196" lon="-0.10179">
        <ele>24</ele>
        <time>2013-12-08T08:31:04Z</time>
      </trkpt>
      <trkpt lat="49.08201" lon="-0.10176">
        <ele>23.3999996</ele>
        <time>2013-12-08T08:31:05Z</time>
      </trkpt>
      <trkpt lat="49.08237" lon="-0.10156">
        <ele>23.3999996</ele>
        <time>2013-12-08T08:31:12Z</time>
      </trkpt>
      <trkpt lat="49.08248" lon="-0.10149">
        <ele>23</ele>
        <time>2013-12-08T08:31:14Z</time>
      </trkpt>
      <trkpt lat="49.08252" lon="-0.10146">
        <ele>22.6000004</ele>
        <time>2013-12-08T08:31:15Z</time>
      </trkpt>
      <trkpt lat="49.08256" lon="-0.10142">
        <ele>22.2000008</ele>
        <time>2013-12-08T08:31:16Z</time>
      </trkpt>
      <trkpt lat="49.08259" lon="-0.10139">
        <ele>21.7999992</ele>
        <time>2013-12-08T08:31:17Z</time>
      </trkpt>
      <trkpt lat="49.08261" lon="-0.10136">
        <ele>21.3999996</ele>
        <time>2013-12-08T08:31:18Z</time>
      </trkpt>
      <trkpt lat="49.08263" lon="-0.10134">
        <ele>21.3999996</ele>
        <time>2013-12-08T08:31:21Z</time>
      </trkpt>
      <trkpt lat="49.08264" lon="-0.10134">
        <ele>21</ele>
        <time>2013-12-08T08:31:23Z</time>
      </trkpt>
      <trkpt lat="49.08265" lon="-0.10134">
        <ele>20.6000004</ele>
        <time>2013-12-08T08:31:24Z</time>
      </trkpt>
      <trkpt lat="49.08267" lon="-0.10133">
        <ele>20.2000008</ele>
        <time>2013-12-08T08:31:25Z</time>
      </trkpt>
      <trkpt lat="49.0827" lon="-0.10134">
        <ele>19.7999992</ele>
        <time>2013-12-08T08:31:26Z</time>
      </trkpt>
      <trkpt lat="49.08272" lon="-0.10135">
        <ele>19.3999996</ele>
        <time>2013-12-08T08:31:27Z</time>
      </trkpt>
      <trkpt lat="49.08279" lon="-0.10135">
        <ele>19.3999996</ele>
        <time>2013-12-08T08:31:30Z</time>
      </trkpt>
      <trkpt lat="49.08282" lon="-0.10135">
        <ele>19.3999996</ele>
        <time>2013-12-08T08:31:32Z</time>
      </trkpt>
      <trkpt lat="49.08291" lon="-0.10136">
        <ele>19.3999996</ele>
        <time>2013-12-08T08:31:37Z</time>
      </trkpt>
      <trkpt lat="49.08308" lon="-0.10134">
        <ele>19.3999996</ele>
        <time>2013-12-08T08:31:41Z</time>
      </trkpt>
      <trkpt lat="49.08325" lon="-0.10135">
        <ele>19</ele>
        <time>2013-12-08T08:31:45Z</time>
      </trkpt>
      <trkpt lat="49.08329" lon="-0.10136">
        <ele>18.3999996</ele>
        <time>2013-12-08T08:31:46Z</time>
      </trkpt>
      <trkpt lat="49.08334" lon="-0.10137">
        <ele>18</ele>
        <time>2013-12-08T08:31:47Z</time>
      </trkpt>
      <trkpt lat="49.08338" lon="-0.10138">
        <ele>17.6000004</ele>
        <time>2013-12-08T08:31:48Z</time>
      </trkpt>
      <trkpt lat="49.08343" lon="-0.10139">
        <ele>17.2000008</ele>
        <time>2013-12-08T08:31:49Z</time>
      </trkpt>
      <trkpt lat="49.08362" lon="-0.1014">
        <ele>17.2000008</ele>
        <time>2013-12-08T08:31:53Z</time>
      </trkpt>
      <trkpt lat="49.08384" lon="-0.10125">
        <ele>17.2000008</ele>
        <time>2013-12-08T08:31:58Z</time>
      </trkpt>
      <trkpt lat="49.08422" lon="-0.10101">
        <ele>17.2000008</ele>
        <time>2013-12-08T08:32:06Z</time>
      </trkpt>
      <trkpt lat="49.08426" lon="-0.10099">
        <ele>17.2000008</ele>
        <time>2013-12-08T08:32:07Z</time>
      </trkpt>
      <trkpt lat="49.08435" lon="-0.10094">
        <ele>16.7999992</ele>
        <time>2013-12-08T08:32:09Z</time>
      </trkpt>
      <trkpt lat="49.0844" lon="-0.10093">
        <ele>16.3999996</ele>
        <time>2013-12-08T08:32:10Z</time>
      </trkpt>
      <trkpt lat="49.08445" lon="-0.1009">
        <ele>16</ele>
        <time>2013-12-08T08:32:11Z</time>
      </trkpt>
      <trkpt lat="49.0845" lon="-0.10089">
        <ele>15.6000004</ele>
        <time>2013-12-08T08:32:12Z</time>
      </trkpt>
      <trkpt lat="49.08456" lon="-0.10087">
        <ele>15.1999998</ele>
        <time>2013-12-08T08:32:13Z</time>
      </trkpt>
      <trkpt lat="49.08461" lon="-0.10086">
        <ele>15.1999998</ele>
        <time>2013-12-08T08:32:14Z</time>
      </trkpt>
      <trkpt lat="49.08472" lon="-0.10082">
        <ele>15.1999998</ele>
        <time>2013-12-08T08:32:16Z</time>
      </trkpt>
      <trkpt lat="49.08483" lon="-0.10084">
        <ele>15.1999998</ele>
        <time>2013-12-08T08:32:18Z</time>
      </trkpt>
      <trkpt lat="49.08498" lon="-0.10094">
        <ele>15.1999998</ele>
        <time>2013-12-08T08:32:21Z</time>
      </trkpt>
      <trkpt lat="49.08508" lon="-0.101">
        <ele>15.1999998</ele>
        <time>2013-12-08T08:32:23Z</time>
      </trkpt>
      <trkpt lat="49.08512" lon="-0.10104">
        <ele>14.8000002</ele>
        <time>2013-12-08T08:32:24Z</time>
      </trkpt>
      <trkpt lat="49.08516" lon="-0.10107">
        <ele>14.3999996</ele>
        <time>2013-12-08T08:32:25Z</time>
      </trkpt>
      <trkpt lat="49.0852" lon="-0.1011">
        <ele>14</ele>
        <time>2013-12-08T08:32:26Z</time>
      </trkpt>
      <trkpt lat="49.08524" lon="-0.10112">
        <ele>13.6000004</ele>
        <time>2013-12-08T08:32:27Z</time>
      </trkpt>
      <trkpt lat="49.08529" lon="-0.10114">
        <ele>13.1999998</ele>
        <time>2013-12-08T08:32:28Z</time>
      </trkpt>
      <trkpt lat="49.0855" lon="-0.10119">
        <ele>13.1999998</ele>
        <time>2013-12-08T08:32:33Z</time>
      </trkpt>
      <trkpt lat="49.08555" lon="-0.10119">
        <ele>13.1999998</ele>
        <time>2013-12-08T08:32:34Z</time>
      </trkpt>
      <trkpt lat="49.08567" lon="-0.10117">
        <ele>13.1999998</ele>
        <time>2013-12-08T08:32:37Z</time>
      </trkpt>
      <trkpt lat="49.08576" lon="-0.10117">
        <ele>13.1999998</ele>
        <time>2013-12-08T08:32:39Z</time>
      </trkpt>
      <trkpt lat="49.086" lon="-0.10114">
        <ele>13.1999998</ele>
        <time>2013-12-08T08:32:45Z</time>
      </trkpt>
      <trkpt lat="49.08627" lon="-0.10096">
        <ele>13.1999998</ele>
        <time>2013-12-08T08:32:51Z</time>
      </trkpt>
      <trkpt lat="49.08644" lon="-0.10084">
        <ele>13.1999998</ele>
        <time>2013-12-08T08:32:55Z</time>
      </trkpt>
      <trkpt lat="49.08652" lon="-0.10077">
        <ele>13.1999998</ele>
        <time>2013-12-08T08:32:57Z</time>
      </trkpt>
      <trkpt lat="49.08677" lon="-0.10053">
        <ele>13.1999998</ele>
        <time>2013-12-08T08:33:04Z</time>
      </trkpt>
      <trkpt lat="49.08684" lon="-0.10031">
        <ele>13.1999998</ele>
        <time>2013-12-08T08:33:08Z</time>
      </trkpt>
      <trkpt lat="49.08688" lon="-0.09996">
        <ele>13.1999998</ele>
        <time>2013-12-08T08:33:14Z</time>
      </trkpt>
      <trkpt lat="49.0869" lon="-0.09979">
        <ele>13.6000004</ele>
        <time>2013-12-08T08:33:17Z</time>
      </trkpt>
      <trkpt lat="49.08691" lon="-0.09973">
        <ele>14</ele>
        <time>2013-12-08T08:33:18Z</time>
      </trkpt>
      <trkpt lat="49.08691" lon="-0.09967">
        <ele>14.3999996</ele>
        <time>2013-12-08T08:33:19Z</time>
      </trkpt>
      <trkpt lat="49.08691" lon="-0.09962">
        <ele>14.8000002</ele>
        <time>2013-12-08T08:33:20Z</time>
      </trkpt>
      <trkpt lat="49.0869" lon="-0.09956">
        <ele>15.1999998</ele>
        <time>2013-12-08T08:33:21Z</time>
      </trkpt>
      <trkpt lat="49.08687" lon="-0.09925">
        <ele>15.1999998</ele>
        <time>2013-12-08T08:33:27Z</time>
      </trkpt>
      <trkpt lat="49.08686" lon="-0.09921">
        <ele>15.6000004</ele>
        <time>2013-12-08T08:33:28Z</time>
      </trkpt>
      <trkpt lat="49.08684" lon="-0.09915">
        <ele>16</ele>
        <time>2013-12-08T08:33:29Z</time>
      </trkpt>
      <trkpt lat="49.08683" lon="-0.0991">
        <ele>16.3999996</ele>
        <time>2013-12-08T08:33:30Z</time>
      </trkpt>
      <trkpt lat="49.08682" lon="-0.09905">
        <ele>16.7999992</ele>
        <time>2013-12-08T08:33:31Z</time>
      </trkpt>
      <trkpt lat="49.0868" lon="-0.099">
        <ele>17.2000008</ele>
        <time>2013-12-08T08:33:32Z</time>
      </trkpt>
      <trkpt lat="49.08676" lon="-0.09885">
        <ele>17.2000008</ele>
        <time>2013-12-08T08:33:35Z</time>
      </trkpt>
      <trkpt lat="49.08672" lon="-0.0987">
        <ele>17.6000004</ele>
        <time>2013-12-08T08:33:38Z</time>
      </trkpt>
      <trkpt lat="49.08671" lon="-0.09864">
        <ele>18.2000008</ele>
        <time>2013-12-08T08:33:39Z</time>
      </trkpt>
      <trkpt lat="49.08669" lon="-0.09859">
        <ele>18.6000004</ele>
        <time>2013-12-08T08:33:40Z</time>
      </trkpt>
      <trkpt lat="49.08668" lon="-0.09855">
        <ele>19</ele>
        <time>2013-12-08T08:33:41Z</time>
      </trkpt>
      <trkpt lat="49.08667" lon="-0.0985">
        <ele>19.3999996</ele>
        <time>2013-12-08T08:33:42Z</time>
      </trkpt>
      <trkpt lat="49.08657" lon="-0.09812">
        <ele>19.3999996</ele>
        <time>2013-12-08T08:33:49Z</time>
      </trkpt>
      <trkpt lat="49.08654" lon="-0.09802">
        <ele>19.7999992</ele>
        <time>2013-12-08T08:33:51Z</time>
      </trkpt>
      <trkpt lat="49.08653" lon="-0.09797">
        <ele>20.2000008</ele>
        <time>2013-12-08T08:33:52Z</time>
      </trkpt>
      <trkpt lat="49.08651" lon="-0.09792">
        <ele>20.6000004</ele>
        <time>2013-12-08T08:33:53Z</time>
      </trkpt>
      <trkpt lat="49.08649" lon="-0.09786">
        <ele>21</ele>
        <time>2013-12-08T08:33:54Z</time>
      </trkpt>
      <trkpt lat="49.08648" lon="-0.0978">
        <ele>21.3999996</ele>
        <time>2013-12-08T08:33:55Z</time>
      </trkpt>
      <trkpt lat="49.08635" lon="-0.09733">
        <ele>21.3999996</ele>
        <time>2013-12-08T08:34:03Z</time>
      </trkpt>
      <trkpt lat="49.08622" lon="-0.09687">
        <ele>21.3999996</ele>
        <time>2013-12-08T08:34:11Z</time>
      </trkpt>
      <trkpt lat="49.08606" lon="-0.09653">
        <ele>21.7999992</ele>
        <time>2013-12-08T08:34:18Z</time>
      </trkpt>
      <trkpt lat="49.08605" lon="-0.0965">
        <ele>22.2000008</ele>
        <time>2013-12-08T08:34:19Z</time>
      </trkpt>
      <trkpt lat="49.08603" lon="-0.09646">
        <ele>22.6000004</ele>
        <time>2013-12-08T08:34:20Z</time>
      </trkpt>
      <trkpt lat="49.08601" lon="-0.09643">
        <ele>23</ele>
        <time>2013-12-08T08:34:21Z</time>
      </trkpt>
      <trkpt lat="49.086" lon="-0.09639">
        <ele>23.3999996</ele>
        <time>2013-12-08T08:34:22Z</time>
      </trkpt>
      <trkpt lat="49.08593" lon="-0.09629">
        <ele>23.3999996</ele>
        <time>2013-12-08T08:34:25Z</time>
      </trkpt>
      <trkpt lat="49.08576" lon="-0.09603">
        <ele>23.3999996</ele>
        <time>2013-12-08T08:34:31Z</time>
      </trkpt>
      <trkpt lat="49.08551" lon="-0.09568">
        <ele>23.3999996</ele>
        <time>2013-12-08T08:34:38Z</time>
      </trkpt>
      <trkpt lat="49.08546" lon="-0.09555">
        <ele>23</ele>
        <time>2013-12-08T08:34:41Z</time>
      </trkpt>
      <trkpt lat="49.08544" lon="-0.0955">
        <ele>22.6000004</ele>
        <time>2013-12-08T08:34:42Z</time>
      </trkpt>
      <trkpt lat="49.08543" lon="-0.09546">
        <ele>22.2000008</ele>
        <time>2013-12-08T08:34:43Z</time>
      </trkpt>
      <trkpt lat="49.08542" lon="-0.09542">
        <ele>21.7999992</ele>
        <time>2013-12-08T08:34:44Z</time>
      </trkpt>
      <trkpt lat="49.0854" lon="-0.09537">
        <ele>21.3999996</ele>
        <time>2013-12-08T08:34:45Z</time>
      </trkpt>
      <trkpt lat="49.08537" lon="-0.09528">
        <ele>21.3999996</ele>
        <time>2013-12-08T08:34:47Z</time>
      </trkpt>
      <trkpt lat="49.08532" lon="-0.09502">
        <ele>21</ele>
        <time>2013-12-08T08:34:53Z</time>
      </trkpt>
      <trkpt lat="49.0853" lon="-0.09498">
        <ele>20.6000004</ele>
        <time>2013-12-08T08:34:54Z</time>
      </trkpt>
      <trkpt lat="49.08528" lon="-0.09496">
        <ele>20.2000008</ele>
        <time>2013-12-08T08:34:55Z</time>
      </trkpt>
      <trkpt lat="49.08527" lon="-0.09492">
        <ele>19.7999992</ele>
        <time>2013-12-08T08:34:56Z</time>
      </trkpt>
      <trkpt lat="49.08526" lon="-0.09489">
        <ele>19.3999996</ele>
        <time>2013-12-08T08:34:57Z</time>
      </trkpt>
      <trkpt lat="49.08524" lon="-0.09482">
        <ele>19.3999996</ele>
        <time>2013-12-08T08:34:59Z</time>
      </trkpt>
      <trkpt lat="49.0852" lon="-0.09471">
        <ele>19.3999996</ele>
        <time>2013-12-08T08:35:03Z</time>
      </trkpt>
      <trkpt lat="49.08518" lon="-0.09466">
        <ele>19.3999996</ele>
        <time>2013-12-08T08:35:05Z</time>
      </trkpt>
      <trkpt lat="49.08518" lon="-0.09462">
        <ele>19.3999996</ele>
        <time>2013-12-08T08:35:06Z</time>
      </trkpt>
      <trkpt lat="49.08519" lon="-0.09458">
        <ele>19.3999996</ele>
        <time>2013-12-08T08:35:09Z</time>
      </trkpt>
      <trkpt lat="49.08519" lon="-0.09456">
        <ele>19.3999996</ele>
        <time>2013-12-08T08:35:11Z</time>
      </trkpt>
      <trkpt lat="49.08519" lon="-0.09454">
        <ele>19.3999996</ele>
        <time>2013-12-08T08:35:15Z</time>
      </trkpt>
      <trkpt lat="49.08519" lon="-0.09453">
        <ele>19.3999996</ele>
        <time>2013-12-08T08:35:17Z</time>
      </trkpt>
      <trkpt lat="49.08519" lon="-0.09451">
        <ele>19.3999996</ele>
        <time>2013-12-08T08:35:23Z</time>
      </trkpt>
      <trkpt lat="49.08519" lon="-0.09449">
        <ele>19.3999996</ele>
        <time>2013-12-08T08:35:24Z</time>
      </trkpt>
      <trkpt lat="49.08518" lon="-0.09445">
        <ele>21.3999996</ele>
        <time>2013-12-08T08:35:30Z</time>
      </trkpt>
      <trkpt lat="49.08517" lon="-0.09442">
        <ele>21.3999996</ele>
        <time>2013-12-08T08:35:32Z</time>
      </trkpt>
      <trkpt lat="49.08517" lon="-0.09442">
        <ele>21.3999996</ele>
        <time>2013-12-08T08:35:33Z</time>
      </trkpt>
      <trkpt lat="49.08515" lon="-0.09437">
        <ele>21.3999996</ele>
        <time>2013-12-08T08:35:36Z</time>
      </trkpt>
      <trkpt lat="49.08515" lon="-0.09436">
        <ele>21.3999996</ele>
        <time>2013-12-08T08:35:37Z</time>
      </trkpt>
      <trkpt lat="49.08514" lon="-0.09434">
        <ele>21.3999996</ele>
        <time>2013-12-08T08:35:38Z</time>
      </trkpt>
      <trkpt lat="49.08515" lon="-0.0943">
        <ele>21.7999992</ele>
        <time>2013-12-08T08:35:40Z</time>
      </trkpt>
      <trkpt lat="49.08515" lon="-0.09428">
        <ele>22.2000008</ele>
        <time>2013-12-08T08:35:41Z</time>
      </trkpt>
      <trkpt lat="49.08514" lon="-0.09426">
        <ele>22.7999992</ele>
        <time>2013-12-08T08:35:42Z</time>
      </trkpt>
      <trkpt lat="49.08514" lon="-0.09424">
        <ele>23.2000008</ele>
        <time>2013-12-08T08:35:43Z</time>
      </trkpt>
      <trkpt lat="49.08513" lon="-0.09422">
        <ele>23.6000004</ele>
        <time>2013-12-08T08:35:44Z</time>
      </trkpt>
      <trkpt lat="49.08513" lon="-0.09418">
        <ele>23.6000004</ele>
        <time>2013-12-08T08:35:46Z</time>
      </trkpt>
      <trkpt lat="49.08513" lon="-0.09417">
        <ele>23.6000004</ele>
        <time>2013-12-08T08:35:47Z</time>
      </trkpt>
      <trkpt lat="49.08513" lon="-0.09411">
        <ele>23.6000004</ele>
        <time>2013-12-08T08:35:49Z</time>
      </trkpt>
      <trkpt lat="49.08512" lon="-0.09409">
        <ele>24</ele>
        <time>2013-12-08T08:35:50Z</time>
      </trkpt>
      <trkpt lat="49.08512" lon="-0.09405">
        <ele>24.3999996</ele>
        <time>2013-12-08T08:35:51Z</time>
      </trkpt>
      <trkpt lat="49.08512" lon="-0.09403">
        <ele>25</ele>
        <time>2013-12-08T08:35:52Z</time>
      </trkpt>
      <trkpt lat="49.08512" lon="-0.094">
        <ele>25.3999996</ele>
        <time>2013-12-08T08:35:53Z</time>
      </trkpt>
      <trkpt lat="49.08512" lon="-0.09397">
        <ele>25.7999992</ele>
        <time>2013-12-08T08:35:54Z</time>
      </trkpt>
      <trkpt lat="49.08514" lon="-0.09386">
        <ele>25.7999992</ele>
        <time>2013-12-08T08:35:59Z</time>
      </trkpt>
      <trkpt lat="49.08514" lon="-0.09384">
        <ele>26.2000008</ele>
        <time>2013-12-08T08:36:00Z</time>
      </trkpt>
      <trkpt lat="49.08514" lon="-0.09381">
        <ele>26.6000004</ele>
        <time>2013-12-08T08:36:01Z</time>
      </trkpt>
      <trkpt lat="49.08514" lon="-0.09379">
        <ele>27</ele>
        <time>2013-12-08T08:36:02Z</time>
      </trkpt>
      <trkpt lat="49.08515" lon="-0.09377">
        <ele>27.3999996</ele>
        <time>2013-12-08T08:36:03Z</time>
      </trkpt>
      <trkpt lat="49.08515" lon="-0.09375">
        <ele>27.7999992</ele>
        <time>2013-12-08T08:36:04Z</time>
      </trkpt>
      <trkpt lat="49.08515" lon="-0.09372">
        <ele>27.7999992</ele>
        <time>2013-12-08T08:36:06Z</time>
      </trkpt>
      <trkpt lat="49.08514" lon="-0.09368">
        <ele>27.7999992</ele>
        <time>2013-12-08T08:36:08Z</time>
      </trkpt>
      <trkpt lat="49.08514" lon="-0.09365">
        <ele>28.3999996</ele>
        <time>2013-12-08T08:36:09Z</time>
      </trkpt>
      <trkpt lat="49.08514" lon="-0.09363">
        <ele>28.7999992</ele>
        <time>2013-12-08T08:36:10Z</time>
      </trkpt>
      <trkpt lat="49.08513" lon="-0.09359">
        <ele>29.2000008</ele>
        <time>2013-12-08T08:36:11Z</time>
      </trkpt>
      <trkpt lat="49.08513" lon="-0.09357">
        <ele>29.6000004</ele>
        <time>2013-12-08T08:36:12Z</time>
      </trkpt>
      <trkpt lat="49.08513" lon="-0.09354">
        <ele>30</ele>
        <time>2013-12-08T08:36:13Z</time>
      </trkpt>
      <trkpt lat="49.08513" lon="-0.09352">
        <ele>30</ele>
        <time>2013-12-08T08:36:14Z</time>
      </trkpt>
      <trkpt lat="49.08514" lon="-0.09339">
        <ele>30</ele>
        <time>2013-12-08T08:36:20Z</time>
      </trkpt>
      <trkpt lat="49.08514" lon="-0.09333">
        <ele>30.3999996</ele>
        <time>2013-12-08T08:36:22Z</time>
      </trkpt>
      <trkpt lat="49.08515" lon="-0.09331">
        <ele>30.7999992</ele>
        <time>2013-12-08T08:36:23Z</time>
      </trkpt>
      <trkpt lat="49.08516" lon="-0.09328">
        <ele>31.2000008</ele>
        <time>2013-12-08T08:36:24Z</time>
      </trkpt>
      <trkpt lat="49.08516" lon="-0.09326">
        <ele>31.6000004</ele>
        <time>2013-12-08T08:36:25Z</time>
      </trkpt>
      <trkpt lat="49.08517" lon="-0.09323">
        <ele>32</ele>
        <time>2013-12-08T08:36:26Z</time>
      </trkpt>
      <trkpt lat="49.08517" lon="-0.09317">
        <ele>32</ele>
        <time>2013-12-08T08:36:28Z</time>
      </trkpt>
      <trkpt lat="49.08518" lon="-0.09312">
        <ele>32</ele>
        <time>2013-12-08T08:36:30Z</time>
      </trkpt>
      <trkpt lat="49.0852" lon="-0.09305">
        <ele>32</ele>
        <time>2013-12-08T08:36:34Z</time>
      </trkpt>
      <trkpt lat="49.08523" lon="-0.09289">
        <ele>32</ele>
        <time>2013-12-08T08:36:41Z</time>
      </trkpt>
      <trkpt lat="49.08526" lon="-0.09279">
        <ele>32.5999985</ele>
        <time>2013-12-08T08:36:47Z</time>
      </trkpt>
      <trkpt lat="49.08526" lon="-0.09278">
        <ele>33</ele>
        <time>2013-12-08T08:36:48Z</time>
      </trkpt>
      <trkpt lat="49.08527" lon="-0.09276">
        <ele>34.2000008</ele>
        <time>2013-12-08T08:36:54Z</time>
      </trkpt>
      <trkpt lat="49.08528" lon="-0.09272">
        <ele>34.2000008</ele>
        <time>2013-12-08T08:36:57Z</time>
      </trkpt>
      <trkpt lat="49.08527" lon="-0.09269">
        <ele>34.2000008</ele>
        <time>2013-12-08T08:36:58Z</time>
      </trkpt>
      <trkpt lat="49.08528" lon="-0.09256">
        <ele>34.2000008</ele>
        <time>2013-12-08T08:37:02Z</time>
      </trkpt>
      <trkpt lat="49.08528" lon="-0.0925">
        <ele>34.2000008</ele>
        <time>2013-12-08T08:37:03Z</time>
      </trkpt>
      <trkpt lat="49.08531" lon="-0.09227">
        <ele>34.2000008</ele>
        <time>2013-12-08T08:37:08Z</time>
      </trkpt>
      <trkpt lat="49.08529" lon="-0.09203">
        <ele>34.2000008</ele>
        <time>2013-12-08T08:37:14Z</time>
      </trkpt>
      <trkpt lat="49.08527" lon="-0.0918">
        <ele>34.2000008</ele>
        <time>2013-12-08T08:37:20Z</time>
      </trkpt>
      <trkpt lat="49.08527" lon="-0.09176">
        <ele>34.5999985</ele>
        <time>2013-12-08T08:37:21Z</time>
      </trkpt>
      <trkpt lat="49.08528" lon="-0.09172">
        <ele>35</ele>
        <time>2013-12-08T08:37:22Z</time>
      </trkpt>
      <trkpt lat="49.08527" lon="-0.09169">
        <ele>35.4000015</ele>
        <time>2013-12-08T08:37:23Z</time>
      </trkpt>
      <trkpt lat="49.08527" lon="-0.09166">
        <ele>35.7999992</ele>
        <time>2013-12-08T08:37:24Z</time>
      </trkpt>
      <trkpt lat="49.08527" lon="-0.09164">
        <ele>36.2000008</ele>
        <time>2013-12-08T08:37:25Z</time>
      </trkpt>
      <trkpt lat="49.08524" lon="-0.09148">
        <ele>36.2000008</ele>
        <time>2013-12-08T08:37:31Z</time>
      </trkpt>
      <trkpt lat="49.08524" lon="-0.09141">
        <ele>36.2000008</ele>
        <time>2013-12-08T08:37:33Z</time>
      </trkpt>
      <trkpt lat="49.08523" lon="-0.09129">
        <ele>36.5999985</ele>
        <time>2013-12-08T08:37:36Z</time>
      </trkpt>
      <trkpt lat="49.08523" lon="-0.09126">
        <ele>37</ele>
        <time>2013-12-08T08:37:37Z</time>
      </trkpt>
      <trkpt lat="49.08522" lon="-0.09123">
        <ele>37.4000015</ele>
        <time>2013-12-08T08:37:38Z</time>
      </trkpt>
      <trkpt lat="49.08522" lon="-0.09119">
        <ele>37.7999992</ele>
        <time>2013-12-08T08:37:39Z</time>
      </trkpt>
      <trkpt lat="49.08522" lon="-0.09116">
        <ele>38.2000008</ele>
        <time>2013-12-08T08:37:40Z</time>
      </trkpt>
      <trkpt lat="49.08522" lon="-0.09113">
        <ele>38.2000008</ele>
        <time>2013-12-08T08:37:41Z</time>
      </trkpt>
      <trkpt lat="49.08526" lon="-0.09103">
        <ele>38.2000008</ele>
        <time>2013-12-08T08:37:44Z</time>
      </trkpt>
      <trkpt lat="49.08528" lon="-0.09099">
        <ele>38.2000008</ele>
        <time>2013-12-08T08:37:46Z</time>
      </trkpt>
      <trkpt lat="49.08537" lon="-0.09087">
        <ele>38.2000008</ele>
        <time>2013-12-08T08:37:52Z</time>
      </trkpt>
      <trkpt lat="49.08547" lon="-0.09071">
        <ele>38.2000008</ele>
        <time>2013-12-08T08:37:59Z</time>
      </trkpt>
      <trkpt lat="49.0855" lon="-0.09063">
        <ele>38.5999985</ele>
        <time>2013-12-08T08:38:02Z</time>
      </trkpt>
      <trkpt lat="49.08552" lon="-0.09061">
        <ele>39</ele>
        <time>2013-12-08T08:38:03Z</time>
      </trkpt>
      <trkpt lat="49.08554" lon="-0.09059">
        <ele>39.5999985</ele>
        <time>2013-12-08T08:38:04Z</time>
      </trkpt>
      <trkpt lat="49.08555" lon="-0.09058">
        <ele>40</ele>
        <time>2013-12-08T08:38:05Z</time>
      </trkpt>
      <trkpt lat="49.08557" lon="-0.09056">
        <ele>40.4000015</ele>
        <time>2013-12-08T08:38:06Z</time>
      </trkpt>
      <trkpt lat="49.08559" lon="-0.09053">
        <ele>40.4000015</ele>
        <time>2013-12-08T08:38:08Z</time>
      </trkpt>
      <trkpt lat="49.08562" lon="-0.0905">
        <ele>40.4000015</ele>
        <time>2013-12-08T08:38:10Z</time>
      </trkpt>
      <trkpt lat="49.08568" lon="-0.09043">
        <ele>40.4000015</ele>
        <time>2013-12-08T08:38:16Z</time>
      </trkpt>
      <trkpt lat="49.0857" lon="-0.09041">
        <ele>40.7999992</ele>
        <time>2013-12-08T08:38:17Z</time>
      </trkpt>
      <trkpt lat="49.08571" lon="-0.09039">
        <ele>41.2000008</ele>
        <time>2013-12-08T08:38:18Z</time>
      </trkpt>
      <trkpt lat="49.08572" lon="-0.09038">
        <ele>41.5999985</ele>
        <time>2013-12-08T08:38:19Z</time>
      </trkpt>
      <trkpt lat="49.08574" lon="-0.09035">
        <ele>42</ele>
        <time>2013-12-08T08:38:20Z</time>
      </trkpt>
      <trkpt lat="49.08576" lon="-0.09032">
        <ele>42.4000015</ele>
        <time>2013-12-08T08:38:21Z</time>
      </trkpt>
      <trkpt lat="49.08589" lon="-0.09022">
        <ele>42.4000015</ele>
        <time>2013-12-08T08:38:27Z</time>
      </trkpt>
      <trkpt lat="49.08599" lon="-0.09015">
        <ele>43.2000008</ele>
        <time>2013-12-08T08:38:32Z</time>
      </trkpt>
      <trkpt lat="49.08601" lon="-0.09015">
        <ele>43.5999985</ele>
        <time>2013-12-08T08:38:33Z</time>
      </trkpt>
      <trkpt lat="49.08602" lon="-0.09015">
        <ele>44</ele>
        <time>2013-12-08T08:38:34Z</time>
      </trkpt>
      <trkpt lat="49.08603" lon="-0.09015">
        <ele>44.4000015</ele>
        <time>2013-12-08T08:38:35Z</time>
      </trkpt>
      <trkpt lat="49.0861" lon="-0.09015">
        <ele>44.4000015</ele>
        <time>2013-12-08T08:38:39Z</time>
      </trkpt>
      <trkpt lat="49.08617" lon="-0.09016">
        <ele>44.7999992</ele>
        <time>2013-12-08T08:38:43Z</time>
      </trkpt>
      <trkpt lat="49.08619" lon="-0.09016">
        <ele>45.4000015</ele>
        <time>2013-12-08T08:38:44Z</time>
      </trkpt>
      <trkpt lat="49.08621" lon="-0.09016">
        <ele>45.7999992</ele>
        <time>2013-12-08T08:38:45Z</time>
      </trkpt>
      <trkpt lat="49.08623" lon="-0.09016">
        <ele>46.2000008</ele>
        <time>2013-12-08T08:38:46Z</time>
      </trkpt>
      <trkpt lat="49.08624" lon="-0.09015">
        <ele>46.5999985</ele>
        <time>2013-12-08T08:38:47Z</time>
      </trkpt>
      <trkpt lat="49.08631" lon="-0.09016">
        <ele>46.5999985</ele>
        <time>2013-12-08T08:38:51Z</time>
      </trkpt>
      <trkpt lat="49.08637" lon="-0.09017">
        <ele>47</ele>
        <time>2013-12-08T08:38:54Z</time>
      </trkpt>
      <trkpt lat="49.08639" lon="-0.09016">
        <ele>47.4000015</ele>
        <time>2013-12-08T08:38:55Z</time>
      </trkpt>
      <trkpt lat="49.08641" lon="-0.09016">
        <ele>47.7999992</ele>
        <time>2013-12-08T08:38:56Z</time>
      </trkpt>
      <trkpt lat="49.08643" lon="-0.09015">
        <ele>48.5999985</ele>
        <time>2013-12-08T08:38:57Z</time>
      </trkpt>
      <trkpt lat="49.08645" lon="-0.09015">
        <ele>48.5999985</ele>
        <time>2013-12-08T08:38:58Z</time>
      </trkpt>
      <trkpt lat="49.08658" lon="-0.09015">
        <ele>48.5999985</ele>
        <time>2013-12-08T08:39:05Z</time>
      </trkpt>
      <trkpt lat="49.0866" lon="-0.09015">
        <ele>49</ele>
        <time>2013-12-08T08:39:06Z</time>
      </trkpt>
      <trkpt lat="49.08663" lon="-0.09015">
        <ele>49.4000015</ele>
        <time>2013-12-08T08:39:07Z</time>
      </trkpt>
      <trkpt lat="49.08665" lon="-0.09014">
        <ele>49.7999992</ele>
        <time>2013-12-08T08:39:08Z</time>
      </trkpt>
      <trkpt lat="49.08666" lon="-0.09014">
        <ele>50.4000015</ele>
        <time>2013-12-08T08:39:09Z</time>
      </trkpt>
      <trkpt lat="49.08668" lon="-0.09013">
        <ele>50.7999992</ele>
        <time>2013-12-08T08:39:10Z</time>
      </trkpt>
      <trkpt lat="49.08673" lon="-0.09008">
        <ele>50.7999992</ele>
        <time>2013-12-08T08:39:13Z</time>
      </trkpt>
      <trkpt lat="49.0868" lon="-0.09001">
        <ele>51.2000008</ele>
        <time>2013-12-08T08:39:18Z</time>
      </trkpt>
      <trkpt lat="49.08681" lon="-0.08999">
        <ele>51.5999985</ele>
        <time>2013-12-08T08:39:19Z</time>
      </trkpt>
      <trkpt lat="49.08682" lon="-0.08997">
        <ele>52</ele>
        <time>2013-12-08T08:39:20Z</time>
      </trkpt>
      <trkpt lat="49.08683" lon="-0.08996">
        <ele>52.5999985</ele>
        <time>2013-12-08T08:39:21Z</time>
      </trkpt>
      <trkpt lat="49.08685" lon="-0.08994">
        <ele>53</ele>
        <time>2013-12-08T08:39:22Z</time>
      </trkpt>
      <trkpt lat="49.08692" lon="-0.08987">
        <ele>53.4000015</ele>
        <time>2013-12-08T08:39:26Z</time>
      </trkpt>
      <trkpt lat="49.08693" lon="-0.08986">
        <ele>53.7999992</ele>
        <time>2013-12-08T08:39:27Z</time>
      </trkpt>
      <trkpt lat="49.08694" lon="-0.08984">
        <ele>54.2000008</ele>
        <time>2013-12-08T08:39:28Z</time>
      </trkpt>
      <trkpt lat="49.08696" lon="-0.08983">
        <ele>54.5999985</ele>
        <time>2013-12-08T08:39:29Z</time>
      </trkpt>
      <trkpt lat="49.08698" lon="-0.08981">
        <ele>55</ele>
        <time>2013-12-08T08:39:30Z</time>
      </trkpt>
      <trkpt lat="49.08702" lon="-0.08977">
        <ele>55</ele>
        <time>2013-12-08T08:39:32Z</time>
      </trkpt>
      <trkpt lat="49.08711" lon="-0.08969">
        <ele>55.4000015</ele>
        <time>2013-12-08T08:39:38Z</time>
      </trkpt>
      <trkpt lat="49.08712" lon="-0.08968">
        <ele>55.7999992</ele>
        <time>2013-12-08T08:39:39Z</time>
      </trkpt>
      <trkpt lat="49.08714" lon="-0.08966">
        <ele>56.2000008</ele>
        <time>2013-12-08T08:39:40Z</time>
      </trkpt>
      <trkpt lat="49.08715" lon="-0.08964">
        <ele>56.7999992</ele>
        <time>2013-12-08T08:39:41Z</time>
      </trkpt>
      <trkpt lat="49.08715" lon="-0.08962">
        <ele>57.2000008</ele>
        <time>2013-12-08T08:39:42Z</time>
      </trkpt>
      <trkpt lat="49.08716" lon="-0.0896">
        <ele>57.2000008</ele>
        <time>2013-12-08T08:39:43Z</time>
      </trkpt>
      <trkpt lat="49.08719" lon="-0.08957">
        <ele>57.2000008</ele>
        <time>2013-12-08T08:39:45Z</time>
      </trkpt>
      <trkpt lat="49.08723" lon="-0.0895">
        <ele>57.2000008</ele>
        <time>2013-12-08T08:39:49Z</time>
      </trkpt>
      <trkpt lat="49.08724" lon="-0.08948">
        <ele>57.5999985</ele>
        <time>2013-12-08T08:39:50Z</time>
      </trkpt>
      <trkpt lat="49.08725" lon="-0.08947">
        <ele>58</ele>
        <time>2013-12-08T08:39:51Z</time>
      </trkpt>
      <trkpt lat="49.08727" lon="-0.08945">
        <ele>58.4000015</ele>
        <time>2013-12-08T08:39:52Z</time>
      </trkpt>
      <trkpt lat="49.08728" lon="-0.08944">
        <ele>58.7999992</ele>
        <time>2013-12-08T08:39:53Z</time>
      </trkpt>
      <trkpt lat="49.08729" lon="-0.08942">
        <ele>59.2000008</ele>
        <time>2013-12-08T08:39:54Z</time>
      </trkpt>
      <trkpt lat="49.08732" lon="-0.08937">
        <ele>59.2000008</ele>
        <time>2013-12-08T08:39:57Z</time>
      </trkpt>
      <trkpt lat="49.08736" lon="-0.08933">
        <ele>59.7999992</ele>
        <time>2013-12-08T08:40:01Z</time>
      </trkpt>
      <trkpt lat="49.08737" lon="-0.0893">
        <ele>60.2000008</ele>
        <time>2013-12-08T08:40:02Z</time>
      </trkpt>
      <trkpt lat="49.08738" lon="-0.08928">
        <ele>60.5999985</ele>
        <time>2013-12-08T08:40:03Z</time>
      </trkpt>
      <trkpt lat="49.08739" lon="-0.08926">
        <ele>61</ele>
        <time>2013-12-08T08:40:04Z</time>
      </trkpt>
      <trkpt lat="49.0874" lon="-0.08926">
        <ele>61.4000015</ele>
        <time>2013-12-08T08:40:05Z</time>
      </trkpt>
      <trkpt lat="49.08744" lon="-0.0892">
        <ele>61.4000015</ele>
        <time>2013-12-08T08:40:09Z</time>
      </trkpt>
      <trkpt lat="49.08745" lon="-0.08919">
        <ele>61.4000015</ele>
        <time>2013-12-08T08:40:10Z</time>
      </trkpt>
      <trkpt lat="49.08746" lon="-0.08917">
        <ele>61.7999992</ele>
        <time>2013-12-08T08:40:11Z</time>
      </trkpt>
      <trkpt lat="49.08748" lon="-0.08915">
        <ele>62.4000015</ele>
        <time>2013-12-08T08:40:12Z</time>
      </trkpt>
      <trkpt lat="49.08749" lon="-0.08914">
        <ele>62.7999992</ele>
        <time>2013-12-08T08:40:13Z</time>
      </trkpt>
      <trkpt lat="49.08751" lon="-0.08913">
        <ele>63.2000008</ele>
        <time>2013-12-08T08:40:14Z</time>
      </trkpt>
      <trkpt lat="49.08752" lon="-0.08911">
        <ele>63.5999985</ele>
        <time>2013-12-08T08:40:15Z</time>
      </trkpt>
      <trkpt lat="49.08757" lon="-0.08903">
        <ele>63.5999985</ele>
        <time>2013-12-08T08:40:19Z</time>
      </trkpt>
      <trkpt lat="49.0876" lon="-0.08899">
        <ele>63.5999985</ele>
        <time>2013-12-08T08:40:21Z</time>
      </trkpt>
      <trkpt lat="49.08771" lon="-0.08891">
        <ele>64</ele>
        <time>2013-12-08T08:40:26Z</time>
      </trkpt>
      <trkpt lat="49.08773" lon="-0.08891">
        <ele>64.4000015</ele>
        <time>2013-12-08T08:40:27Z</time>
      </trkpt>
      <trkpt lat="49.08775" lon="-0.0889">
        <ele>64.8000031</ele>
        <time>2013-12-08T08:40:28Z</time>
      </trkpt>
      <trkpt lat="49.08777" lon="-0.0889">
        <ele>65.1999969</ele>
        <time>2013-12-08T08:40:29Z</time>
      </trkpt>
      <trkpt lat="49.08779" lon="-0.08889">
        <ele>65.8000031</ele>
        <time>2013-12-08T08:40:30Z</time>
      </trkpt>
      <trkpt lat="49.08784" lon="-0.08885">
        <ele>65.8000031</ele>
        <time>2013-12-08T08:40:32Z</time>
      </trkpt>
      <trkpt lat="49.08797" lon="-0.08876">
        <ele>65.8000031</ele>
        <time>2013-12-08T08:40:38Z</time>
      </trkpt>
      <trkpt lat="49.08811" lon="-0.08864">
        <ele>66.1999969</ele>
        <time>2013-12-08T08:40:44Z</time>
      </trkpt>
      <trkpt lat="49.08813" lon="-0.08861">
        <ele>66.5999985</ele>
        <time>2013-12-08T08:40:45Z</time>
      </trkpt>
      <trkpt lat="49.08816" lon="-0.08859">
        <ele>67</ele>
        <time>2013-12-08T08:40:46Z</time>
      </trkpt>
      <trkpt lat="49.08819" lon="-0.08857">
        <ele>67.4000015</ele>
        <time>2013-12-08T08:40:47Z</time>
      </trkpt>
      <trkpt lat="49.08821" lon="-0.08855">
        <ele>67.8000031</ele>
        <time>2013-12-08T08:40:48Z</time>
      </trkpt>
      <trkpt lat="49.08826" lon="-0.0885">
        <ele>67.8000031</ele>
        <time>2013-12-08T08:40:50Z</time>
      </trkpt>
      <trkpt lat="49.08838" lon="-0.0884">
        <ele>67.8000031</ele>
        <time>2013-12-08T08:40:55Z</time>
      </trkpt>
      <trkpt lat="49.08842" lon="-0.08835">
        <ele>67.8000031</ele>
        <time>2013-12-08T08:40:59Z</time>
      </trkpt>
      <trkpt lat="49.08842" lon="-0.08835">
        <ele>67.8000031</ele>
        <time>2013-12-08T08:41:18Z</time>
      </trkpt>
      <trkpt lat="49.08842" lon="-0.08835">
        <ele>67.8000031</ele>
        <time>2013-12-08T08:41:19Z</time>
      </trkpt>
      <trkpt lat="49.08842" lon="-0.08834">
        <ele>67.8000031</ele>
        <time>2013-12-08T08:42:30Z</time>
      </trkpt>
      <trkpt lat="49.08842" lon="-0.08835">
        <ele>67.8000031</ele>
        <time>2013-12-08T08:42:31Z</time>
      </trkpt>
      <trkpt lat="49.08842" lon="-0.08835">
        <ele>67.8000031</ele>
        <time>2013-12-08T08:43:24Z</time>
      </trkpt>
      <trkpt lat="49.08842" lon="-0.08835">
        <ele>67.8000031</ele>
        <time>2013-12-08T08:43:25Z</time>
      </trkpt>
      <trkpt lat="49.08842" lon="-0.08834">
        <ele>67.8000031</ele>
        <time>2013-12-08T08:43:29Z</time>
      </trkpt>
      <trkpt lat="49.08842" lon="-0.08835">
        <ele>67.8000031</ele>
        <time>2013-12-08T08:43:30Z</time>
      </trkpt>
      <trkpt lat="49.08843" lon="-0.08832">
        <ele>67.8000031</ele>
        <time>2013-12-08T08:43:48Z</time>
      </trkpt>
      <trkpt lat="49.08844" lon="-0.08829">
        <ele>67.8000031</ele>
        <time>2013-12-08T08:43:49Z</time>
      </trkpt>
      <trkpt lat="49.08845" lon="-0.08828">
        <ele>67.8000031</ele>
        <time>2013-12-08T08:43:50Z</time>
      </trkpt>
      <trkpt lat="49.0885" lon="-0.08824">
        <ele>67.8000031</ele>
        <time>2013-12-08T08:43:53Z</time>
      </trkpt>
      <trkpt lat="49.08856" lon="-0.0882">
        <ele>67.8000031</ele>
        <time>2013-12-08T08:43:56Z</time>
      </trkpt>
      <trkpt lat="49.08861" lon="-0.08816">
        <ele>67.8000031</ele>
        <time>2013-12-08T08:43:59Z</time>
      </trkpt>
      <trkpt lat="49.08863" lon="-0.08814">
        <ele>67.8000031</ele>
        <time>2013-12-08T08:44:02Z</time>
      </trkpt>
      <trkpt lat="49.08863" lon="-0.08814">
        <ele>67.8000031</ele>
        <time>2013-12-08T08:44:24Z</time>
      </trkpt>
      <trkpt lat="49.08864" lon="-0.08813">
        <ele>67.8000031</ele>
        <time>2013-12-08T08:44:25Z</time>
      </trkpt>
      <trkpt lat="49.08876" lon="-0.08804">
        <ele>67.8000031</ele>
        <time>2013-12-08T08:44:30Z</time>
      </trkpt>
      <trkpt lat="49.08879" lon="-0.08803">
        <ele>67.4000015</ele>
        <time>2013-12-08T08:44:31Z</time>
      </trkpt>
      <trkpt lat="49.08883" lon="-0.08801">
        <ele>67</ele>
        <time>2013-12-08T08:44:32Z</time>
      </trkpt>
      <trkpt lat="49.08886" lon="-0.08798">
        <ele>66.5999985</ele>
        <time>2013-12-08T08:44:33Z</time>
      </trkpt>
      <trkpt lat="49.0889" lon="-0.08796">
        <ele>66.1999969</ele>
        <time>2013-12-08T08:44:34Z</time>
      </trkpt>
      <trkpt lat="49.08894" lon="-0.08795">
        <ele>65.8000031</ele>
        <time>2013-12-08T08:44:35Z</time>
      </trkpt>
      <trkpt lat="49.08903" lon="-0.08791">
        <ele>65.8000031</ele>
        <time>2013-12-08T08:44:37Z</time>
      </trkpt>
      <trkpt lat="49.08917" lon="-0.08782">
        <ele>65.8000031</ele>
        <time>2013-12-08T08:44:40Z</time>
      </trkpt>
      <trkpt lat="49.08947" lon="-0.08766">
        <ele>65.8000031</ele>
        <time>2013-12-08T08:44:45Z</time>
      </trkpt>
      <trkpt lat="49.08973" lon="-0.08754">
        <ele>65.4000015</ele>
        <time>2013-12-08T08:44:49Z</time>
      </trkpt>
      <trkpt lat="49.0898" lon="-0.08751">
        <ele>65</ele>
        <time>2013-12-08T08:44:50Z</time>
      </trkpt>
      <trkpt lat="49.08986" lon="-0.08748">
        <ele>64.5999985</ele>
        <time>2013-12-08T08:44:51Z</time>
      </trkpt>
      <trkpt lat="49.08992" lon="-0.08744">
        <ele>64.1999969</ele>
        <time>2013-12-08T08:44:52Z</time>
      </trkpt>
      <trkpt lat="49.08999" lon="-0.08739">
        <ele>63.7999992</ele>
        <time>2013-12-08T08:44:53Z</time>
      </trkpt>
      <trkpt lat="49.09012" lon="-0.08729">
        <ele>63.7999992</ele>
        <time>2013-12-08T08:44:55Z</time>
      </trkpt>
      <trkpt lat="49.09062" lon="-0.08686">
        <ele>63.7999992</ele>
        <time>2013-12-08T08:45:03Z</time>
      </trkpt>
      <trkpt lat="49.09069" lon="-0.08681">
        <ele>63.4000015</ele>
        <time>2013-12-08T08:45:04Z</time>
      </trkpt>
      <trkpt lat="49.09075" lon="-0.08676">
        <ele>63</ele>
        <time>2013-12-08T08:45:05Z</time>
      </trkpt>
      <trkpt lat="49.09081" lon="-0.0867">
        <ele>62.5999985</ele>
        <time>2013-12-08T08:45:06Z</time>
      </trkpt>
      <trkpt lat="49.09088" lon="-0.08665">
        <ele>62.2000008</ele>
        <time>2013-12-08T08:45:07Z</time>
      </trkpt>
      <trkpt lat="49.09095" lon="-0.0866">
        <ele>61.7999992</ele>
        <time>2013-12-08T08:45:08Z</time>
      </trkpt>
      <trkpt lat="49.09114" lon="-0.08644">
        <ele>61.2000008</ele>
        <time>2013-12-08T08:45:11Z</time>
      </trkpt>
      <trkpt lat="49.09121" lon="-0.08638">
        <ele>60.7999992</ele>
        <time>2013-12-08T08:45:12Z</time>
      </trkpt>
      <trkpt lat="49.09127" lon="-0.08632">
        <ele>60.4000015</ele>
        <time>2013-12-08T08:45:13Z</time>
      </trkpt>
      <trkpt lat="49.09133" lon="-0.08625">
        <ele>60</ele>
        <time>2013-12-08T08:45:14Z</time>
      </trkpt>
      <trkpt lat="49.09139" lon="-0.08616">
        <ele>59.5999985</ele>
        <time>2013-12-08T08:45:15Z</time>
      </trkpt>
      <trkpt lat="49.09149" lon="-0.086">
        <ele>59.5999985</ele>
        <time>2013-12-08T08:45:17Z</time>
      </trkpt>
      <trkpt lat="49.09182" lon="-0.0855">
        <ele>59</ele>
        <time>2013-12-08T08:45:23Z</time>
      </trkpt>
      <trkpt lat="49.09188" lon="-0.08542">
        <ele>58.5999985</ele>
        <time>2013-12-08T08:45:24Z</time>
      </trkpt>
      <trkpt lat="49.09195" lon="-0.08535">
        <ele>58.2000008</ele>
        <time>2013-12-08T08:45:25Z</time>
      </trkpt>
      <trkpt lat="49.09201" lon="-0.08527">
        <ele>57.7999992</ele>
        <time>2013-12-08T08:45:26Z</time>
      </trkpt>
      <trkpt lat="49.09208" lon="-0.0852">
        <ele>57.2000008</ele>
        <time>2013-12-08T08:45:27Z</time>
      </trkpt>
      <trkpt lat="49.09214" lon="-0.08511">
        <ele>57.2000008</ele>
        <time>2013-12-08T08:45:28Z</time>
      </trkpt>
      <trkpt lat="49.09218" lon="-0.085">
        <ele>57.2000008</ele>
        <time>2013-12-08T08:45:29Z</time>
      </trkpt>
      <trkpt lat="49.09231" lon="-0.0847">
        <ele>57.2000008</ele>
        <time>2013-12-08T08:45:32Z</time>
      </trkpt>
      <trkpt lat="49.0924" lon="-0.0845">
        <ele>56.7999992</ele>
        <time>2013-12-08T08:45:34Z</time>
      </trkpt>
      <trkpt lat="49.09244" lon="-0.08442">
        <ele>56.4000015</ele>
        <time>2013-12-08T08:45:35Z</time>
      </trkpt>
      <trkpt lat="49.0925" lon="-0.08434">
        <ele>56</ele>
        <time>2013-12-08T08:45:36Z</time>
      </trkpt>
      <trkpt lat="49.09256" lon="-0.08425">
        <ele>55.5999985</ele>
        <time>2013-12-08T08:45:37Z</time>
      </trkpt>
      <trkpt lat="49.09262" lon="-0.08416">
        <ele>55.2000008</ele>
        <time>2013-12-08T08:45:38Z</time>
      </trkpt>
      <trkpt lat="49.09268" lon="-0.08409">
        <ele>55.2000008</ele>
        <time>2013-12-08T08:45:39Z</time>
      </trkpt>
      <trkpt lat="49.09283" lon="-0.08399">
        <ele>55.2000008</ele>
        <time>2013-12-08T08:45:41Z</time>
      </trkpt>
      <trkpt lat="49.09298" lon="-0.0839">
        <ele>54.7999992</ele>
        <time>2013-12-08T08:45:43Z</time>
      </trkpt>
      <trkpt lat="49.09306" lon="-0.08386">
        <ele>54.4000015</ele>
        <time>2013-12-08T08:45:44Z</time>
      </trkpt>
      <trkpt lat="49.09314" lon="-0.08382">
        <ele>53.7999992</ele>
        <time>2013-12-08T08:45:45Z</time>
      </trkpt>
      <trkpt lat="49.09321" lon="-0.08378">
        <ele>53.4000015</ele>
        <time>2013-12-08T08:45:46Z</time>
      </trkpt>
      <trkpt lat="49.0933" lon="-0.08374">
        <ele>53</ele>
        <time>2013-12-08T08:45:47Z</time>
      </trkpt>
      <trkpt lat="49.09361" lon="-0.0836">
        <ele>52.5999985</ele>
        <time>2013-12-08T08:45:51Z</time>
      </trkpt>
      <trkpt lat="49.09369" lon="-0.08355">
        <ele>52.2000008</ele>
        <time>2013-12-08T08:45:52Z</time>
      </trkpt>
      <trkpt lat="49.09376" lon="-0.08352">
        <ele>51.5999985</ele>
        <time>2013-12-08T08:45:53Z</time>
      </trkpt>
      <trkpt lat="49.09383" lon="-0.08348">
        <ele>51.2000008</ele>
        <time>2013-12-08T08:45:54Z</time>
      </trkpt>
      <trkpt lat="49.0939" lon="-0.08345">
        <ele>50.7999992</ele>
        <time>2013-12-08T08:45:55Z</time>
      </trkpt>
      <trkpt lat="49.09402" lon="-0.08339">
        <ele>50.2000008</ele>
        <time>2013-12-08T08:45:57Z</time>
      </trkpt>
      <trkpt lat="49.09406" lon="-0.08338">
        <ele>49</ele>
        <time>2013-12-08T08:45:58Z</time>
      </trkpt>
      <trkpt lat="49.0941" lon="-0.08336">
        <ele>48.2000008</ele>
        <time>2013-12-08T08:45:59Z</time>
      </trkpt>
      <trkpt lat="49.09413" lon="-0.08336">
        <ele>47.4000015</ele>
        <time>2013-12-08T08:46:00Z</time>
      </trkpt>
      <trkpt lat="49.09415" lon="-0.08337">
        <ele>46.7999992</ele>
        <time>2013-12-08T08:46:01Z</time>
      </trkpt>
      <trkpt lat="49.09417" lon="-0.08335">
        <ele>46</ele>
        <time>2013-12-08T08:46:02Z</time>
      </trkpt>
      <trkpt lat="49.09418" lon="-0.08338">
        <ele>45.2000008</ele>
        <time>2013-12-08T08:46:03Z</time>
      </trkpt>
      <trkpt lat="49.09418" lon="-0.08341">
        <ele>44.5999985</ele>
        <time>2013-12-08T08:46:04Z</time>
      </trkpt>
      <trkpt lat="49.09418" lon="-0.08343">
        <ele>43.7999992</ele>
        <time>2013-12-08T08:46:05Z</time>
      </trkpt>
      <trkpt lat="49.09414" lon="-0.08357">
        <ele>43.7999992</ele>
        <time>2013-12-08T08:46:09Z</time>
      </trkpt>
      <trkpt lat="49.09408" lon="-0.08373">
        <ele>43.7999992</ele>
        <time>2013-12-08T08:46:13Z</time>
      </trkpt>
      <trkpt lat="49.09406" lon="-0.08378">
        <ele>43.7999992</ele>
        <time>2013-12-08T08:46:14Z</time>
      </trkpt>
      <trkpt lat="49.09402" lon="-0.08388">
        <ele>44.2000008</ele>
        <time>2013-12-08T08:46:16Z</time>
      </trkpt>
      <trkpt lat="49.094" lon="-0.08391">
        <ele>44.5999985</ele>
        <time>2013-12-08T08:46:17Z</time>
      </trkpt>
      <trkpt lat="49.09398" lon="-0.08395">
        <ele>45.2000008</ele>
        <time>2013-12-08T08:46:18Z</time>
      </trkpt>
      <trkpt lat="49.09397" lon="-0.08399">
        <ele>45.5999985</ele>
        <time>2013-12-08T08:46:19Z</time>
      </trkpt>
      <trkpt lat="49.09396" lon="-0.08402">
        <ele>46</ele>
        <time>2013-12-08T08:46:20Z</time>
      </trkpt>
      <trkpt lat="49.09394" lon="-0.08412">
        <ele>46.4000015</ele>
        <time>2013-12-08T08:46:23Z</time>
      </trkpt>
      <trkpt lat="49.09394" lon="-0.08413">
        <ele>46.7999992</ele>
        <time>2013-12-08T08:46:24Z</time>
      </trkpt>
      <trkpt lat="49.09394" lon="-0.08413">
        <ele>47.2000008</ele>
        <time>2013-12-08T08:46:25Z</time>
      </trkpt>
      <trkpt lat="49.09394" lon="-0.08413">
        <ele>48</ele>
        <time>2013-12-08T08:46:30Z</time>
      </trkpt>
      <trkpt lat="49.09394" lon="-0.08422">
        <ele>48</ele>
        <time>2013-12-08T08:46:34Z</time>
      </trkpt>
      <trkpt lat="49.09396" lon="-0.08447">
        <ele>48</ele>
        <time>2013-12-08T08:46:40Z</time>
      </trkpt>
      <trkpt lat="49.09399" lon="-0.08479">
        <ele>48.4000015</ele>
        <time>2013-12-08T08:46:45Z</time>
      </trkpt>
      <trkpt lat="49.09398" lon="-0.08486">
        <ele>48.7999992</ele>
        <time>2013-12-08T08:46:46Z</time>
      </trkpt>
      <trkpt lat="49.09398" lon="-0.08494">
        <ele>49.2000008</ele>
        <time>2013-12-08T08:46:47Z</time>
      </trkpt>
      <trkpt lat="49.09398" lon="-0.08501">
        <ele>50</ele>
        <time>2013-12-08T08:46:48Z</time>
      </trkpt>
      <trkpt lat="49.09397" lon="-0.08516">
        <ele>50</ele>
        <time>2013-12-08T08:46:50Z</time>
      </trkpt>
      <trkpt lat="49.09397" lon="-0.08524">
        <ele>50</ele>
        <time>2013-12-08T08:46:51Z</time>
      </trkpt>
      <trkpt lat="49.09401" lon="-0.08574">
        <ele>50</ele>
        <time>2013-12-08T08:46:57Z</time>
      </trkpt>
      <trkpt lat="49.09404" lon="-0.08591">
        <ele>50</ele>
        <time>2013-12-08T08:46:59Z</time>
      </trkpt>
      <trkpt lat="49.09412" lon="-0.08617">
        <ele>50</ele>
        <time>2013-12-08T08:47:02Z</time>
      </trkpt>
      <trkpt lat="49.0942" lon="-0.08634">
        <ele>50</ele>
        <time>2013-12-08T08:47:05Z</time>
      </trkpt>
      <trkpt lat="49.09423" lon="-0.08635">
        <ele>50</ele>
        <time>2013-12-08T08:47:06Z</time>
      </trkpt>
      <trkpt lat="49.09434" lon="-0.08623">
        <ele>50</ele>
        <time>2013-12-08T08:47:09Z</time>
      </trkpt>
      <trkpt lat="49.09438" lon="-0.08619">
        <ele>50</ele>
        <time>2013-12-08T08:47:10Z</time>
      </trkpt>
      <trkpt lat="49.09463" lon="-0.08594">
        <ele>50</ele>
        <time>2013-12-08T08:47:15Z</time>
      </trkpt>
      <trkpt lat="49.09468" lon="-0.08589">
        <ele>50</ele>
        <time>2013-12-08T08:47:16Z</time>
      </trkpt>
      <trkpt lat="49.09486" lon="-0.08577">
        <ele>50</ele>
        <time>2013-12-08T08:47:19Z</time>
      </trkpt>
      <trkpt lat="49.09519" lon="-0.0856">
        <ele>50</ele>
        <time>2013-12-08T08:47:24Z</time>
      </trkpt>
      <trkpt lat="49.09568" lon="-0.08544">
        <ele>50</ele>
        <time>2013-12-08T08:47:31Z</time>
      </trkpt>
      <trkpt lat="49.09608" lon="-0.08535">
        <ele>50</ele>
        <time>2013-12-08T08:47:37Z</time>
      </trkpt>
      <trkpt lat="49.09635" lon="-0.08535">
        <ele>49.5999985</ele>
        <time>2013-12-08T08:47:41Z</time>
      </trkpt>
      <trkpt lat="49.09641" lon="-0.08535">
        <ele>49.2000008</ele>
        <time>2013-12-08T08:47:42Z</time>
      </trkpt>
      <trkpt lat="49.09648" lon="-0.08536">
        <ele>48.7999992</ele>
        <time>2013-12-08T08:47:43Z</time>
      </trkpt>
      <trkpt lat="49.09654" lon="-0.08537">
        <ele>48.4000015</ele>
        <time>2013-12-08T08:47:44Z</time>
      </trkpt>
      <trkpt lat="49.09661" lon="-0.08537">
        <ele>48</ele>
        <time>2013-12-08T08:47:45Z</time>
      </trkpt>
      <trkpt lat="49.09672" lon="-0.08536">
        <ele>48</ele>
        <time>2013-12-08T08:47:47Z</time>
      </trkpt>
      <trkpt lat="49.09696" lon="-0.08535">
        <ele>48</ele>
        <time>2013-12-08T08:47:51Z</time>
      </trkpt>
      <trkpt lat="49.09717" lon="-0.08532">
        <ele>48</ele>
        <time>2013-12-08T08:47:55Z</time>
      </trkpt>
      <trkpt lat="49.09721" lon="-0.08529">
        <ele>47.5999985</ele>
        <time>2013-12-08T08:47:56Z</time>
      </trkpt>
      <trkpt lat="49.09725" lon="-0.08528">
        <ele>47.2000008</ele>
        <time>2013-12-08T08:47:57Z</time>
      </trkpt>
      <trkpt lat="49.09729" lon="-0.08527">
        <ele>46.7999992</ele>
        <time>2013-12-08T08:47:58Z</time>
      </trkpt>
      <trkpt lat="49.09733" lon="-0.08528">
        <ele>46.4000015</ele>
        <time>2013-12-08T08:47:59Z</time>
      </trkpt>
      <trkpt lat="49.09738" lon="-0.08527">
        <ele>46</ele>
        <time>2013-12-08T08:48:00Z</time>
      </trkpt>
      <trkpt lat="49.09765" lon="-0.08525">
        <ele>46</ele>
        <time>2013-12-08T08:48:06Z</time>
      </trkpt>
      <trkpt lat="49.09769" lon="-0.08525">
        <ele>46</ele>
        <time>2013-12-08T08:48:07Z</time>
      </trkpt>
      <trkpt lat="49.09802" lon="-0.08525">
        <ele>46</ele>
        <time>2013-12-08T08:48:14Z</time>
      </trkpt>
      <trkpt lat="49.09831" lon="-0.08528">
        <ele>46</ele>
        <time>2013-12-08T08:48:20Z</time>
      </trkpt>
      <trkpt lat="49.09854" lon="-0.0853">
        <ele>46</ele>
        <time>2013-12-08T08:48:25Z</time>
      </trkpt>
      <trkpt lat="49.09889" lon="-0.08534">
        <ele>46</ele>
        <time>2013-12-08T08:48:32Z</time>
      </trkpt>
      <trkpt lat="49.099" lon="-0.08536">
        <ele>46</ele>
        <time>2013-12-08T08:48:36Z</time>
      </trkpt>
      <trkpt lat="49.099" lon="-0.08539">
        <ele>46</ele>
        <time>2013-12-08T08:48:37Z</time>
      </trkpt>
      <trkpt lat="49.09898" lon="-0.08546">
        <ele>46</ele>
        <time>2013-12-08T08:48:39Z</time>
      </trkpt>
      <trkpt lat="49.09898" lon="-0.08567">
        <ele>46</ele>
        <time>2013-12-08T08:48:43Z</time>
      </trkpt>
      <trkpt lat="49.09899" lon="-0.08593">
        <ele>46</ele>
        <time>2013-12-08T08:48:47Z</time>
      </trkpt>
      <trkpt lat="49.09902" lon="-0.08608">
        <ele>46</ele>
        <time>2013-12-08T08:48:49Z</time>
      </trkpt>
      <trkpt lat="49.0991" lon="-0.08633">
        <ele>46</ele>
        <time>2013-12-08T08:48:53Z</time>
      </trkpt>
      <trkpt lat="49.09913" lon="-0.08645">
        <ele>46</ele>
        <time>2013-12-08T08:48:55Z</time>
      </trkpt>
      <trkpt lat="49.09919" lon="-0.08667">
        <ele>46</ele>
        <time>2013-12-08T08:48:59Z</time>
      </trkpt>
      <trkpt lat="49.09925" lon="-0.08686">
        <ele>46</ele>
        <time>2013-12-08T08:49:02Z</time>
      </trkpt>
      <trkpt lat="49.09928" lon="-0.08699">
        <ele>46</ele>
        <time>2013-12-08T08:49:04Z</time>
      </trkpt>
      <trkpt lat="49.0993" lon="-0.08706">
        <ele>45.5999985</ele>
        <time>2013-12-08T08:49:05Z</time>
      </trkpt>
      <trkpt lat="49.09932" lon="-0.08713">
        <ele>45.2000008</ele>
        <time>2013-12-08T08:49:06Z</time>
      </trkpt>
      <trkpt lat="49.09934" lon="-0.08719">
        <ele>44.7999992</ele>
        <time>2013-12-08T08:49:07Z</time>
      </trkpt>
      <trkpt lat="49.09935" lon="-0.08727">
        <ele>44.4000015</ele>
        <time>2013-12-08T08:49:08Z</time>
      </trkpt>
      <trkpt lat="49.09934" lon="-0.08734">
        <ele>44</ele>
        <time>2013-12-08T08:49:09Z</time>
      </trkpt>
      <trkpt lat="49.09931" lon="-0.0874">
        <ele>44</ele>
        <time>2013-12-08T08:49:10Z</time>
      </trkpt>
      <trkpt lat="49.09928" lon="-0.08744">
        <ele>43.4000015</ele>
        <time>2013-12-08T08:49:11Z</time>
      </trkpt>
      <trkpt lat="49.09924" lon="-0.08746">
        <ele>43</ele>
        <time>2013-12-08T08:49:12Z</time>
      </trkpt>
      <trkpt lat="49.09922" lon="-0.08749">
        <ele>42.5999985</ele>
        <time>2013-12-08T08:49:13Z</time>
      </trkpt>
      <trkpt lat="49.09919" lon="-0.08751">
        <ele>41.7999992</ele>
        <time>2013-12-08T08:49:14Z</time>
      </trkpt>
      <trkpt lat="49.09908" lon="-0.08761">
        <ele>41.7999992</ele>
        <time>2013-12-08T08:49:18Z</time>
      </trkpt>
      <trkpt lat="49.09882" lon="-0.08778">
        <ele>41.7999992</ele>
        <time>2013-12-08T08:49:26Z</time>
      </trkpt>
      <trkpt lat="49.09878" lon="-0.0878">
        <ele>42.2000008</ele>
        <time>2013-12-08T08:49:27Z</time>
      </trkpt>
      <trkpt lat="49.09874" lon="-0.08781">
        <ele>42.5999985</ele>
        <time>2013-12-08T08:49:28Z</time>
      </trkpt>
      <trkpt lat="49.0987" lon="-0.08783">
        <ele>43</ele>
        <time>2013-12-08T08:49:29Z</time>
      </trkpt>
      <trkpt lat="49.09867" lon="-0.08784">
        <ele>43.4000015</ele>
        <time>2013-12-08T08:49:30Z</time>
      </trkpt>
      <trkpt lat="49.09863" lon="-0.08786">
        <ele>44</ele>
        <time>2013-12-08T08:49:31Z</time>
      </trkpt>
      <trkpt lat="49.09859" lon="-0.08787">
        <ele>44</ele>
        <time>2013-12-08T08:49:32Z</time>
      </trkpt>
      <trkpt lat="49.09831" lon="-0.08797">
        <ele>44</ele>
        <time>2013-12-08T08:49:40Z</time>
      </trkpt>
      <trkpt lat="49.09805" lon="-0.08803">
        <ele>44</ele>
        <time>2013-12-08T08:49:46Z</time>
      </trkpt>
      <trkpt lat="49.09793" lon="-0.08807">
        <ele>44.4000015</ele>
        <time>2013-12-08T08:49:49Z</time>
      </trkpt>
      <trkpt lat="49.09788" lon="-0.08807">
        <ele>44.7999992</ele>
        <time>2013-12-08T08:49:50Z</time>
      </trkpt>
      <trkpt lat="49.09784" lon="-0.08807">
        <ele>45.2000008</ele>
        <time>2013-12-08T08:49:51Z</time>
      </trkpt>
      <trkpt lat="49.0978" lon="-0.08808">
        <ele>45.5999985</ele>
        <time>2013-12-08T08:49:52Z</time>
      </trkpt>
      <trkpt lat="49.09776" lon="-0.08809">
        <ele>46.2000008</ele>
        <time>2013-12-08T08:49:53Z</time>
      </trkpt>
      <trkpt lat="49.09758" lon="-0.08817">
        <ele>46.2000008</ele>
        <time>2013-12-08T08:49:58Z</time>
      </trkpt>
      <trkpt lat="49.09731" lon="-0.08823">
        <ele>46.2000008</ele>
        <time>2013-12-08T08:50:05Z</time>
      </trkpt>
      <trkpt lat="49.09708" lon="-0.08828">
        <ele>46.2000008</ele>
        <time>2013-12-08T08:50:11Z</time>
      </trkpt>
      <trkpt lat="49.09688" lon="-0.08833">
        <ele>46.2000008</ele>
        <time>2013-12-08T08:50:16Z</time>
      </trkpt>
      <trkpt lat="49.09667" lon="-0.08838">
        <ele>46.5999985</ele>
        <time>2013-12-08T08:50:21Z</time>
      </trkpt>
      <trkpt lat="49.09663" lon="-0.08839">
        <ele>47</ele>
        <time>2013-12-08T08:50:22Z</time>
      </trkpt>
      <trkpt lat="49.09659" lon="-0.0884">
        <ele>47.4000015</ele>
        <time>2013-12-08T08:50:23Z</time>
      </trkpt>
      <trkpt lat="49.09655" lon="-0.08841">
        <ele>47.7999992</ele>
        <time>2013-12-08T08:50:24Z</time>
      </trkpt>
      <trkpt lat="49.09651" lon="-0.08843">
        <ele>48.2000008</ele>
        <time>2013-12-08T08:50:25Z</time>
      </trkpt>
      <trkpt lat="49.09627" lon="-0.08849">
        <ele>48.2000008</ele>
        <time>2013-12-08T08:50:31Z</time>
      </trkpt>
      <trkpt lat="49.09623" lon="-0.08849">
        <ele>48.5999985</ele>
        <time>2013-12-08T08:50:32Z</time>
      </trkpt>
      <trkpt lat="49.09618" lon="-0.08851">
        <ele>49</ele>
        <time>2013-12-08T08:50:33Z</time>
      </trkpt>
      <trkpt lat="49.09614" lon="-0.08852">
        <ele>49.4000015</ele>
        <time>2013-12-08T08:50:34Z</time>
      </trkpt>
      <trkpt lat="49.09609" lon="-0.08853">
        <ele>50</ele>
        <time>2013-12-08T08:50:35Z</time>
      </trkpt>
      <trkpt lat="49.09605" lon="-0.08855">
        <ele>50.4000015</ele>
        <time>2013-12-08T08:50:36Z</time>
      </trkpt>
      <trkpt lat="49.0959" lon="-0.08858">
        <ele>50.4000015</ele>
        <time>2013-12-08T08:50:39Z</time>
      </trkpt>
      <trkpt lat="49.0956" lon="-0.08869">
        <ele>50.4000015</ele>
        <time>2013-12-08T08:50:46Z</time>
      </trkpt>
      <trkpt lat="49.09547" lon="-0.08888">
        <ele>50.4000015</ele>
        <time>2013-12-08T08:50:50Z</time>
      </trkpt>
      <trkpt lat="49.09545" lon="-0.08895">
        <ele>50.4000015</ele>
        <time>2013-12-08T08:50:51Z</time>
      </trkpt>
      <trkpt lat="49.09536" lon="-0.08913">
        <ele>51.2000008</ele>
        <time>2013-12-08T08:50:54Z</time>
      </trkpt>
      <trkpt lat="49.09533" lon="-0.0892">
        <ele>51.5999985</ele>
        <time>2013-12-08T08:50:55Z</time>
      </trkpt>
      <trkpt lat="49.0953" lon="-0.08926">
        <ele>52</ele>
        <time>2013-12-08T08:50:56Z</time>
      </trkpt>
      <trkpt lat="49.09527" lon="-0.08932">
        <ele>52.4000015</ele>
        <time>2013-12-08T08:50:57Z</time>
      </trkpt>
      <trkpt lat="49.09518" lon="-0.08951">
        <ele>52.4000015</ele>
        <time>2013-12-08T08:51:00Z</time>
      </trkpt>
      <trkpt lat="49.09494" lon="-0.09003">
        <ele>52.4000015</ele>
        <time>2013-12-08T08:51:08Z</time>
      </trkpt>
      <trkpt lat="49.09488" lon="-0.09016">
        <ele>52.4000015</ele>
        <time>2013-12-08T08:51:10Z</time>
      </trkpt>
      <trkpt lat="49.09481" lon="-0.09034">
        <ele>52.4000015</ele>
        <time>2013-12-08T08:51:13Z</time>
      </trkpt>
      <trkpt lat="49.09472" lon="-0.09052">
        <ele>52.4000015</ele>
        <time>2013-12-08T08:51:16Z</time>
      </trkpt>
      <trkpt lat="49.09469" lon="-0.09057">
        <ele>52.7999992</ele>
        <time>2013-12-08T08:51:17Z</time>
      </trkpt>
      <trkpt lat="49.09466" lon="-0.09063">
        <ele>53.7999992</ele>
        <time>2013-12-08T08:51:18Z</time>
      </trkpt>
      <trkpt lat="49.09463" lon="-0.09069">
        <ele>54.2000008</ele>
        <time>2013-12-08T08:51:19Z</time>
      </trkpt>
      <trkpt lat="49.0946" lon="-0.09075">
        <ele>54.5999985</ele>
        <time>2013-12-08T08:51:20Z</time>
      </trkpt>
      <trkpt lat="49.09438" lon="-0.09121">
        <ele>54.5999985</ele>
        <time>2013-12-08T08:51:28Z</time>
      </trkpt>
      <trkpt lat="49.09425" lon="-0.09151">
        <ele>54.5999985</ele>
        <time>2013-12-08T08:51:34Z</time>
      </trkpt>
      <trkpt lat="49.0943" lon="-0.09157">
        <ele>54.5999985</ele>
        <time>2013-12-08T08:51:36Z</time>
      </trkpt>
      <trkpt lat="49.09435" lon="-0.09156">
        <ele>54.5999985</ele>
        <time>2013-12-08T08:51:38Z</time>
      </trkpt>
      <trkpt lat="49.09437" lon="-0.09155">
        <ele>54.5999985</ele>
        <time>2013-12-08T08:51:40Z</time>
      </trkpt>
      <trkpt lat="49.09437" lon="-0.09155">
        <ele>54.5999985</ele>
        <time>2013-12-08T08:51:41Z</time>
      </trkpt>
      <trkpt lat="49.09437" lon="-0.09155">
        <ele>54.5999985</ele>
        <time>2013-12-08T08:53:08Z</time>
      </trkpt>
      <trkpt lat="49.09441" lon="-0.09153">
        <ele>54.5999985</ele>
        <time>2013-12-08T08:53:11Z</time>
      </trkpt>
      <trkpt lat="49.09455" lon="-0.09148">
        <ele>54.5999985</ele>
        <time>2013-12-08T08:53:16Z</time>
      </trkpt>
      <trkpt lat="49.09476" lon="-0.09141">
        <ele>54.5999985</ele>
        <time>2013-12-08T08:53:22Z</time>
      </trkpt>
      <trkpt lat="49.0949" lon="-0.09137">
        <ele>54.5999985</ele>
        <time>2013-12-08T08:53:25Z</time>
      </trkpt>
      <trkpt lat="49.095" lon="-0.09134">
        <ele>54.5999985</ele>
        <time>2013-12-08T08:53:27Z</time>
      </trkpt>
      <trkpt lat="49.09505" lon="-0.09132">
        <ele>54.5999985</ele>
        <time>2013-12-08T08:53:28Z</time>
      </trkpt>
      <trkpt lat="49.09539" lon="-0.09122">
        <ele>54.5999985</ele>
        <time>2013-12-08T08:53:34Z</time>
      </trkpt>
      <trkpt lat="49.0958" lon="-0.0911">
        <ele>54.2000008</ele>
        <time>2013-12-08T08:53:41Z</time>
      </trkpt>
      <trkpt lat="49.09586" lon="-0.09108">
        <ele>53.7999992</ele>
        <time>2013-12-08T08:53:42Z</time>
      </trkpt>
      <trkpt lat="49.09591" lon="-0.09106">
        <ele>53.4000015</ele>
        <time>2013-12-08T08:53:43Z</time>
      </trkpt>
      <trkpt lat="49.09597" lon="-0.09104">
        <ele>53</ele>
        <time>2013-12-08T08:53:44Z</time>
      </trkpt>
      <trkpt lat="49.09602" lon="-0.09102">
        <ele>52.5999985</ele>
        <time>2013-12-08T08:53:45Z</time>
      </trkpt>
      <trkpt lat="49.09615" lon="-0.09098">
        <ele>52.5999985</ele>
        <time>2013-12-08T08:53:47Z</time>
      </trkpt>
      <trkpt lat="49.09628" lon="-0.09093">
        <ele>52.5999985</ele>
        <time>2013-12-08T08:53:49Z</time>
      </trkpt>
      <trkpt lat="49.09647" lon="-0.09086">
        <ele>52.5999985</ele>
        <time>2013-12-08T08:53:52Z</time>
      </trkpt>
      <trkpt lat="49.09666" lon="-0.09079">
        <ele>52.2000008</ele>
        <time>2013-12-08T08:53:55Z</time>
      </trkpt>
      <trkpt lat="49.09672" lon="-0.09077">
        <ele>51.7999992</ele>
        <time>2013-12-08T08:53:56Z</time>
      </trkpt>
      <trkpt lat="49.09678" lon="-0.09075">
        <ele>51.4000015</ele>
        <time>2013-12-08T08:53:57Z</time>
      </trkpt>
      <trkpt lat="49.09684" lon="-0.09074">
        <ele>51</ele>
        <time>2013-12-08T08:53:58Z</time>
      </trkpt>
      <trkpt lat="49.09691" lon="-0.09072">
        <ele>50.5999985</ele>
        <time>2013-12-08T08:53:59Z</time>
      </trkpt>
      <trkpt lat="49.09731" lon="-0.0906">
        <ele>50.2000008</ele>
        <time>2013-12-08T08:54:05Z</time>
      </trkpt>
      <trkpt lat="49.09737" lon="-0.09058">
        <ele>49.7999992</ele>
        <time>2013-12-08T08:54:06Z</time>
      </trkpt>
      <trkpt lat="49.09743" lon="-0.09057">
        <ele>49.2000008</ele>
        <time>2013-12-08T08:54:07Z</time>
      </trkpt>
      <trkpt lat="49.0975" lon="-0.09055">
        <ele>48.7999992</ele>
        <time>2013-12-08T08:54:08Z</time>
      </trkpt>
      <trkpt lat="49.09756" lon="-0.09053">
        <ele>48.4000015</ele>
        <time>2013-12-08T08:54:09Z</time>
      </trkpt>
      <trkpt lat="49.09776" lon="-0.09045">
        <ele>48.4000015</ele>
        <time>2013-12-08T08:54:12Z</time>
      </trkpt>
      <trkpt lat="49.09815" lon="-0.09031">
        <ele>48.4000015</ele>
        <time>2013-12-08T08:54:18Z</time>
      </trkpt>
      <trkpt lat="49.09822" lon="-0.09029">
        <ele>48.4000015</ele>
        <time>2013-12-08T08:54:19Z</time>
      </trkpt>
      <trkpt lat="49.09843" lon="-0.09029">
        <ele>48.4000015</ele>
        <time>2013-12-08T08:54:22Z</time>
      </trkpt>
      <trkpt lat="49.0985" lon="-0.09031">
        <ele>48</ele>
        <time>2013-12-08T08:54:23Z</time>
      </trkpt>
      <trkpt lat="49.09857" lon="-0.09033">
        <ele>47.5999985</ele>
        <time>2013-12-08T08:54:24Z</time>
      </trkpt>
      <trkpt lat="49.09863" lon="-0.09035">
        <ele>47.2000008</ele>
        <time>2013-12-08T08:54:25Z</time>
      </trkpt>
      <trkpt lat="49.0987" lon="-0.09037">
        <ele>46.7999992</ele>
        <time>2013-12-08T08:54:26Z</time>
      </trkpt>
      <trkpt lat="49.09877" lon="-0.09039">
        <ele>46.4000015</ele>
        <time>2013-12-08T08:54:27Z</time>
      </trkpt>
      <trkpt lat="49.09883" lon="-0.09042">
        <ele>46.4000015</ele>
        <time>2013-12-08T08:54:28Z</time>
      </trkpt>
      <trkpt lat="49.09889" lon="-0.09046">
        <ele>46.4000015</ele>
        <time>2013-12-08T08:54:29Z</time>
      </trkpt>
      <trkpt lat="49.09917" lon="-0.09059">
        <ele>46.4000015</ele>
        <time>2013-12-08T08:54:34Z</time>
      </trkpt>
      <trkpt lat="49.09938" lon="-0.09072">
        <ele>46</ele>
        <time>2013-12-08T08:54:39Z</time>
      </trkpt>
      <trkpt lat="49.0994" lon="-0.09074">
        <ele>45.5999985</ele>
        <time>2013-12-08T08:54:40Z</time>
      </trkpt>
      <trkpt lat="49.09943" lon="-0.09075">
        <ele>45.2000008</ele>
        <time>2013-12-08T08:54:41Z</time>
      </trkpt>
      <trkpt lat="49.09945" lon="-0.09076">
        <ele>44.7999992</ele>
        <time>2013-12-08T08:54:42Z</time>
      </trkpt>
      <trkpt lat="49.09948" lon="-0.09077">
        <ele>44.4000015</ele>
        <time>2013-12-08T08:54:43Z</time>
      </trkpt>
      <trkpt lat="49.0996" lon="-0.09084">
        <ele>44.4000015</ele>
        <time>2013-12-08T08:54:48Z</time>
      </trkpt>
      <trkpt lat="49.09963" lon="-0.09083">
        <ele>44.4000015</ele>
        <time>2013-12-08T08:54:49Z</time>
      </trkpt>
      <trkpt lat="49.0997" lon="-0.0907">
        <ele>44.4000015</ele>
        <time>2013-12-08T08:54:54Z</time>
      </trkpt>
      <trkpt lat="49.09972" lon="-0.09067">
        <ele>44.4000015</ele>
        <time>2013-12-08T08:54:55Z</time>
      </trkpt>
      <trkpt lat="49.09981" lon="-0.09049">
        <ele>44.4000015</ele>
        <time>2013-12-08T08:55:00Z</time>
      </trkpt>
      <trkpt lat="49.09983" lon="-0.09044">
        <ele>44.4000015</ele>
        <time>2013-12-08T08:55:02Z</time>
      </trkpt>
      <trkpt lat="49.09987" lon="-0.09035">
        <ele>44.4000015</ele>
        <time>2013-12-08T08:55:05Z</time>
      </trkpt>
      <trkpt lat="49.09992" lon="-0.09018">
        <ele>44.4000015</ele>
        <time>2013-12-08T08:55:10Z</time>
      </trkpt>
      <trkpt lat="49.09997" lon="-0.09006">
        <ele>44.4000015</ele>
        <time>2013-12-08T08:55:15Z</time>
      </trkpt>
      <trkpt lat="49.10002" lon="-0.08986">
        <ele>44.4000015</ele>
        <time>2013-12-08T08:55:19Z</time>
      </trkpt>
      <trkpt lat="49.10012" lon="-0.08945">
        <ele>44.4000015</ele>
        <time>2013-12-08T08:55:25Z</time>
      </trkpt>
      <trkpt lat="49.10014" lon="-0.08937">
        <ele>43.5999985</ele>
        <time>2013-12-08T08:55:26Z</time>
      </trkpt>
      <trkpt lat="49.10017" lon="-0.08929">
        <ele>43.2000008</ele>
        <time>2013-12-08T08:55:27Z</time>
      </trkpt>
      <trkpt lat="49.1002" lon="-0.08921">
        <ele>42.7999992</ele>
        <time>2013-12-08T08:55:28Z</time>
      </trkpt>
      <trkpt lat="49.10023" lon="-0.08912">
        <ele>42.4000015</ele>
        <time>2013-12-08T08:55:29Z</time>
      </trkpt>
      <trkpt lat="49.10025" lon="-0.08902">
        <ele>42.4000015</ele>
        <time>2013-12-08T08:55:30Z</time>
      </trkpt>
      <trkpt lat="49.10032" lon="-0.08864">
        <ele>41.7999992</ele>
        <time>2013-12-08T08:55:34Z</time>
      </trkpt>
      <trkpt lat="49.10033" lon="-0.08855">
        <ele>41.4000015</ele>
        <time>2013-12-08T08:55:35Z</time>
      </trkpt>
      <trkpt lat="49.10034" lon="-0.08846">
        <ele>41</ele>
        <time>2013-12-08T08:55:36Z</time>
      </trkpt>
      <trkpt lat="49.10034" lon="-0.08838">
        <ele>40.5999985</ele>
        <time>2013-12-08T08:55:37Z</time>
      </trkpt>
      <trkpt lat="49.10035" lon="-0.0883">
        <ele>40.2000008</ele>
        <time>2013-12-08T08:55:38Z</time>
      </trkpt>
      <trkpt lat="49.10036" lon="-0.08823">
        <ele>39.5999985</ele>
        <time>2013-12-08T08:55:39Z</time>
      </trkpt>
      <trkpt lat="49.10039" lon="-0.08817">
        <ele>39.2000008</ele>
        <time>2013-12-08T08:55:40Z</time>
      </trkpt>
      <trkpt lat="49.10043" lon="-0.08813">
        <ele>38.5999985</ele>
        <time>2013-12-08T08:55:41Z</time>
      </trkpt>
      <trkpt lat="49.10048" lon="-0.0881">
        <ele>38.2000008</ele>
        <time>2013-12-08T08:55:42Z</time>
      </trkpt>
      <trkpt lat="49.10052" lon="-0.08806">
        <ele>37.5999985</ele>
        <time>2013-12-08T08:55:43Z</time>
      </trkpt>
      <trkpt lat="49.10058" lon="-0.08803">
        <ele>37.2000008</ele>
        <time>2013-12-08T08:55:44Z</time>
      </trkpt>
      <trkpt lat="49.10063" lon="-0.088">
        <ele>36.7999992</ele>
        <time>2013-12-08T08:55:45Z</time>
      </trkpt>
      <trkpt lat="49.10069" lon="-0.08797">
        <ele>36.4000015</ele>
        <time>2013-12-08T08:55:46Z</time>
      </trkpt>
      <trkpt lat="49.10075" lon="-0.08793">
        <ele>36</ele>
        <time>2013-12-08T08:55:47Z</time>
      </trkpt>
      <trkpt lat="49.1008" lon="-0.0879">
        <ele>35.5999985</ele>
        <time>2013-12-08T08:55:48Z</time>
      </trkpt>
      <trkpt lat="49.10086" lon="-0.08785">
        <ele>35.5999985</ele>
        <time>2013-12-08T08:55:49Z</time>
      </trkpt>
      <trkpt lat="49.10119" lon="-0.08763">
        <ele>35.2000008</ele>
        <time>2013-12-08T08:55:54Z</time>
      </trkpt>
      <trkpt lat="49.10126" lon="-0.08758">
        <ele>34.5999985</ele>
        <time>2013-12-08T08:55:55Z</time>
      </trkpt>
      <trkpt lat="49.10133" lon="-0.08753">
        <ele>34.2000008</ele>
        <time>2013-12-08T08:55:56Z</time>
      </trkpt>
      <trkpt lat="49.1014" lon="-0.08748">
        <ele>33.7999992</ele>
        <time>2013-12-08T08:55:57Z</time>
      </trkpt>
      <trkpt lat="49.10146" lon="-0.08744">
        <ele>33.2000008</ele>
        <time>2013-12-08T08:55:58Z</time>
      </trkpt>
      <trkpt lat="49.10151" lon="-0.08741">
        <ele>32.7999992</ele>
        <time>2013-12-08T08:55:59Z</time>
      </trkpt>
      <trkpt lat="49.10156" lon="-0.08737">
        <ele>32.2000008</ele>
        <time>2013-12-08T08:56:00Z</time>
      </trkpt>
      <trkpt lat="49.10159" lon="-0.08734">
        <ele>31.6000004</ele>
        <time>2013-12-08T08:56:01Z</time>
      </trkpt>
      <trkpt lat="49.10162" lon="-0.08731">
        <ele>31</ele>
        <time>2013-12-08T08:56:02Z</time>
      </trkpt>
      <trkpt lat="49.10164" lon="-0.08727">
        <ele>30.2000008</ele>
        <time>2013-12-08T08:56:03Z</time>
      </trkpt>
      <trkpt lat="49.10166" lon="-0.08725">
        <ele>29.3999996</ele>
        <time>2013-12-08T08:56:04Z</time>
      </trkpt>
      <trkpt lat="49.10167" lon="-0.08723">
        <ele>28.7999992</ele>
        <time>2013-12-08T08:56:05Z</time>
      </trkpt>
      <trkpt lat="49.10167" lon="-0.08722">
        <ele>28</ele>
        <time>2013-12-08T08:56:06Z</time>
      </trkpt>
      <trkpt lat="49.10167" lon="-0.0872">
        <ele>28</ele>
        <time>2013-12-08T08:56:07Z</time>
      </trkpt>
      <trkpt lat="49.10169" lon="-0.08717">
        <ele>28</ele>
        <time>2013-12-08T08:56:09Z</time>
      </trkpt>
      <trkpt lat="49.10175" lon="-0.08712">
        <ele>28</ele>
        <time>2013-12-08T08:56:12Z</time>
      </trkpt>
      <trkpt lat="49.10181" lon="-0.08707">
        <ele>28</ele>
        <time>2013-12-08T08:56:14Z</time>
      </trkpt>
      <trkpt lat="49.102" lon="-0.08683">
        <ele>28</ele>
        <time>2013-12-08T08:56:20Z</time>
      </trkpt>
      <trkpt lat="49.10216" lon="-0.08662">
        <ele>28</ele>
        <time>2013-12-08T08:56:24Z</time>
      </trkpt>
      <trkpt lat="49.10224" lon="-0.08652">
        <ele>28</ele>
        <time>2013-12-08T08:56:26Z</time>
      </trkpt>
      <trkpt lat="49.10229" lon="-0.08646">
        <ele>28</ele>
        <time>2013-12-08T08:56:27Z</time>
      </trkpt>
      <trkpt lat="49.1025" lon="-0.08625">
        <ele>28</ele>
        <time>2013-12-08T08:56:31Z</time>
      </trkpt>
      <trkpt lat="49.10285" lon="-0.08592">
        <ele>27.2000008</ele>
        <time>2013-12-08T08:56:38Z</time>
      </trkpt>
      <trkpt lat="49.10291" lon="-0.08586">
        <ele>26.7999992</ele>
        <time>2013-12-08T08:56:39Z</time>
      </trkpt>
      <trkpt lat="49.10297" lon="-0.08579">
        <ele>26.3999996</ele>
        <time>2013-12-08T08:56:40Z</time>
      </trkpt>
      <trkpt lat="49.10302" lon="-0.08573">
        <ele>26</ele>
        <time>2013-12-08T08:56:41Z</time>
      </trkpt>
      <trkpt lat="49.10307" lon="-0.08568">
        <ele>26</ele>
        <time>2013-12-08T08:56:42Z</time>
      </trkpt>
      <trkpt lat="49.10316" lon="-0.08558">
        <ele>25.6000004</ele>
        <time>2013-12-08T08:56:44Z</time>
      </trkpt>
      <trkpt lat="49.1032" lon="-0.08553">
        <ele>25.2000008</ele>
        <time>2013-12-08T08:56:45Z</time>
      </trkpt>
      <trkpt lat="49.10322" lon="-0.08546">
        <ele>24.7999992</ele>
        <time>2013-12-08T08:56:46Z</time>
      </trkpt>
      <trkpt lat="49.10326" lon="-0.08539">
        <ele>24.3999996</ele>
        <time>2013-12-08T08:56:47Z</time>
      </trkpt>
      <trkpt lat="49.10329" lon="-0.08532">
        <ele>24</ele>
        <time>2013-12-08T08:56:48Z</time>
      </trkpt>
      <trkpt lat="49.10346" lon="-0.08506">
        <ele>24</ele>
        <time>2013-12-08T08:56:52Z</time>
      </trkpt>
      <trkpt lat="49.10354" lon="-0.08494">
        <ele>24</ele>
        <time>2013-12-08T08:56:54Z</time>
      </trkpt>
      <trkpt lat="49.10358" lon="-0.08487">
        <ele>24</ele>
        <time>2013-12-08T08:56:55Z</time>
      </trkpt>
      <trkpt lat="49.10364" lon="-0.08473">
        <ele>24</ele>
        <time>2013-12-08T08:56:57Z</time>
      </trkpt>
      <trkpt lat="49.10381" lon="-0.08438">
        <ele>24</ele>
        <time>2013-12-08T08:57:02Z</time>
      </trkpt>
      <trkpt lat="49.10397" lon="-0.08395">
        <ele>24</ele>
        <time>2013-12-08T08:57:07Z</time>
      </trkpt>
      <trkpt lat="49.10401" lon="-0.08386">
        <ele>24</ele>
        <time>2013-12-08T08:57:08Z</time>
      </trkpt>
      <trkpt lat="49.10412" lon="-0.0836">
        <ele>23.6000004</ele>
        <time>2013-12-08T08:57:11Z</time>
      </trkpt>
      <trkpt lat="49.10415" lon="-0.08353">
        <ele>23</ele>
        <time>2013-12-08T08:57:12Z</time>
      </trkpt>
      <trkpt lat="49.10418" lon="-0.08346">
        <ele>22.6000004</ele>
        <time>2013-12-08T08:57:13Z</time>
      </trkpt>
      <trkpt lat="49.10422" lon="-0.0834">
        <ele>22.2000008</ele>
        <time>2013-12-08T08:57:14Z</time>
      </trkpt>
      <trkpt lat="49.10426" lon="-0.08334">
        <ele>21.7999992</ele>
        <time>2013-12-08T08:57:15Z</time>
      </trkpt>
      <trkpt lat="49.1043" lon="-0.08328">
        <ele>21.7999992</ele>
        <time>2013-12-08T08:57:16Z</time>
      </trkpt>
      <trkpt lat="49.10437" lon="-0.08314">
        <ele>21.7999992</ele>
        <time>2013-12-08T08:57:18Z</time>
      </trkpt>
      <trkpt lat="49.10447" lon="-0.08298">
        <ele>21.7999992</ele>
        <time>2013-12-08T08:57:20Z</time>
      </trkpt>
      <trkpt lat="49.10451" lon="-0.08288">
        <ele>21.7999992</ele>
        <time>2013-12-08T08:57:21Z</time>
      </trkpt>
      <trkpt lat="49.10462" lon="-0.08271">
        <ele>21.3999996</ele>
        <time>2013-12-08T08:57:23Z</time>
      </trkpt>
      <trkpt lat="49.10468" lon="-0.08264">
        <ele>21</ele>
        <time>2013-12-08T08:57:24Z</time>
      </trkpt>
      <trkpt lat="49.10474" lon="-0.08259">
        <ele>20.6000004</ele>
        <time>2013-12-08T08:57:25Z</time>
      </trkpt>
      <trkpt lat="49.1048" lon="-0.08254">
        <ele>20.2000008</ele>
        <time>2013-12-08T08:57:26Z</time>
      </trkpt>
      <trkpt lat="49.10485" lon="-0.08249">
        <ele>19.7999992</ele>
        <time>2013-12-08T08:57:27Z</time>
      </trkpt>
      <trkpt lat="49.10501" lon="-0.08231">
        <ele>19.7999992</ele>
        <time>2013-12-08T08:57:30Z</time>
      </trkpt>
      <trkpt lat="49.10512" lon="-0.08212">
        <ele>19.7999992</ele>
        <time>2013-12-08T08:57:33Z</time>
      </trkpt>
      <trkpt lat="49.10519" lon="-0.08199">
        <ele>19.7999992</ele>
        <time>2013-12-08T08:57:35Z</time>
      </trkpt>
      <trkpt lat="49.10522" lon="-0.0819">
        <ele>19.7999992</ele>
        <time>2013-12-08T08:57:36Z</time>
      </trkpt>
      <trkpt lat="49.10524" lon="-0.08181">
        <ele>19.2000008</ele>
        <time>2013-12-08T08:57:37Z</time>
      </trkpt>
      <trkpt lat="49.10524" lon="-0.08171">
        <ele>18.7999992</ele>
        <time>2013-12-08T08:57:38Z</time>
      </trkpt>
      <trkpt lat="49.10523" lon="-0.08164">
        <ele>18.3999996</ele>
        <time>2013-12-08T08:57:39Z</time>
      </trkpt>
      <trkpt lat="49.10521" lon="-0.08157">
        <ele>18</ele>
        <time>2013-12-08T08:57:40Z</time>
      </trkpt>
      <trkpt lat="49.10519" lon="-0.08151">
        <ele>17.6000004</ele>
        <time>2013-12-08T08:57:41Z</time>
      </trkpt>
      <trkpt lat="49.10515" lon="-0.08129">
        <ele>17.6000004</ele>
        <time>2013-12-08T08:57:44Z</time>
      </trkpt>
      <trkpt lat="49.10513" lon="-0.08122">
        <ele>17.6000004</ele>
        <time>2013-12-08T08:57:45Z</time>
      </trkpt>
      <trkpt lat="49.1051" lon="-0.08093">
        <ele>17.6000004</ele>
        <time>2013-12-08T08:57:50Z</time>
      </trkpt>
      <trkpt lat="49.10515" lon="-0.08067">
        <ele>17.6000004</ele>
        <time>2013-12-08T08:57:56Z</time>
      </trkpt>
      <trkpt lat="49.10522" lon="-0.08057">
        <ele>17.6000004</ele>
        <time>2013-12-08T08:58:00Z</time>
      </trkpt>
      <trkpt lat="49.10523" lon="-0.08056">
        <ele>17.6000004</ele>
        <time>2013-12-08T08:58:01Z</time>
      </trkpt>
      <trkpt lat="49.10524" lon="-0.08055">
        <ele>15.6000004</ele>
        <time>2013-12-08T08:59:20Z</time>
      </trkpt>
      <trkpt lat="49.10527" lon="-0.08054">
        <ele>15.6000004</ele>
        <time>2013-12-08T08:59:22Z</time>
      </trkpt>
      <trkpt lat="49.1053" lon="-0.08055">
        <ele>15.6000004</ele>
        <time>2013-12-08T08:59:24Z</time>
      </trkpt>
      <trkpt lat="49.10536" lon="-0.08063">
        <ele>15.6000004</ele>
        <time>2013-12-08T08:59:27Z</time>
      </trkpt>
      <trkpt lat="49.10552" lon="-0.08088">
        <ele>15.6000004</ele>
        <time>2013-12-08T08:59:33Z</time>
      </trkpt>
      <trkpt lat="49.10556" lon="-0.08092">
        <ele>15.6000004</ele>
        <time>2013-12-08T08:59:34Z</time>
      </trkpt>
      <trkpt lat="49.10562" lon="-0.08101">
        <ele>15.6000004</ele>
        <time>2013-12-08T08:59:36Z</time>
      </trkpt>
      <trkpt lat="49.10573" lon="-0.08114">
        <ele>15.6000004</ele>
        <time>2013-12-08T08:59:39Z</time>
      </trkpt>
      <trkpt lat="49.10602" lon="-0.08145">
        <ele>15.6000004</ele>
        <time>2013-12-08T08:59:46Z</time>
      </trkpt>
      <trkpt lat="49.10631" lon="-0.08165">
        <ele>15.6000004</ele>
        <time>2013-12-08T08:59:52Z</time>
      </trkpt>
      <trkpt lat="49.1068" lon="-0.08191">
        <ele>15.6000004</ele>
        <time>2013-12-08T09:00:02Z</time>
      </trkpt>
      <trkpt lat="49.10723" lon="-0.08214">
        <ele>15.6000004</ele>
        <time>2013-12-08T09:00:10Z</time>
      </trkpt>
      <trkpt lat="49.10761" lon="-0.08236">
        <ele>15.6000004</ele>
        <time>2013-12-08T09:00:17Z</time>
      </trkpt>
      <trkpt lat="49.10793" lon="-0.08267">
        <ele>15.6000004</ele>
        <time>2013-12-08T09:00:24Z</time>
      </trkpt>
      <trkpt lat="49.10819" lon="-0.08306">
        <ele>15.6000004</ele>
        <time>2013-12-08T09:00:31Z</time>
      </trkpt>
      <trkpt lat="49.10828" lon="-0.08322">
        <ele>15.6000004</ele>
        <time>2013-12-08T09:00:34Z</time>
      </trkpt>
      <trkpt lat="49.10839" lon="-0.08337">
        <ele>15.6000004</ele>
        <time>2013-12-08T09:00:37Z</time>
      </trkpt>
      <trkpt lat="49.10861" lon="-0.08367">
        <ele>15.6000004</ele>
        <time>2013-12-08T09:00:43Z</time>
      </trkpt>
      <trkpt lat="49.10891" lon="-0.08402">
        <ele>15.6000004</ele>
        <time>2013-12-08T09:00:50Z</time>
      </trkpt>
      <trkpt lat="49.10922" lon="-0.08434">
        <ele>15.6000004</ele>
        <time>2013-12-08T09:00:57Z</time>
      </trkpt>
      <trkpt lat="49.10943" lon="-0.08458">
        <ele>16</ele>
        <time>2013-12-08T09:01:02Z</time>
      </trkpt>
      <trkpt lat="49.10947" lon="-0.08462">
        <ele>16.3999996</ele>
        <time>2013-12-08T09:01:03Z</time>
      </trkpt>
      <trkpt lat="49.10951" lon="-0.08466">
        <ele>16.7999992</ele>
        <time>2013-12-08T09:01:04Z</time>
      </trkpt>
      <trkpt lat="49.10956" lon="-0.08471">
        <ele>17.2000008</ele>
        <time>2013-12-08T09:01:05Z</time>
      </trkpt>
      <trkpt lat="49.1096" lon="-0.08475">
        <ele>17.6000004</ele>
        <time>2013-12-08T09:01:06Z</time>
      </trkpt>
      <trkpt lat="49.10969" lon="-0.08483">
        <ele>17.6000004</ele>
        <time>2013-12-08T09:01:08Z</time>
      </trkpt>
      <trkpt lat="49.10978" lon="-0.0849">
        <ele>17.6000004</ele>
        <time>2013-12-08T09:01:10Z</time>
      </trkpt>
      <trkpt lat="49.11012" lon="-0.08527">
        <ele>17.6000004</ele>
        <time>2013-12-08T09:01:18Z</time>
      </trkpt>
      <trkpt lat="49.11054" lon="-0.08567">
        <ele>17.6000004</ele>
        <time>2013-12-08T09:01:27Z</time>
      </trkpt>
      <trkpt lat="49.11094" lon="-0.086">
        <ele>17.6000004</ele>
        <time>2013-12-08T09:01:35Z</time>
      </trkpt>
      <trkpt lat="49.11134" lon="-0.08628">
        <ele>17.6000004</ele>
        <time>2013-12-08T09:01:43Z</time>
      </trkpt>
      <trkpt lat="49.11149" lon="-0.08639">
        <ele>17.6000004</ele>
        <time>2013-12-08T09:01:46Z</time>
      </trkpt>
      <trkpt lat="49.11162" lon="-0.08649">
        <ele>17.6000004</ele>
        <time>2013-12-08T09:01:49Z</time>
      </trkpt>
      <trkpt lat="49.11163" lon="-0.08661">
        <ele>17.6000004</ele>
        <time>2013-12-08T09:01:51Z</time>
      </trkpt>
      <trkpt lat="49.1116" lon="-0.08673">
        <ele>17.6000004</ele>
        <time>2013-12-08T09:01:53Z</time>
      </trkpt>
      <trkpt lat="49.11153" lon="-0.08696">
        <ele>17.6000004</ele>
        <time>2013-12-08T09:01:57Z</time>
      </trkpt>
      <trkpt lat="49.11133" lon="-0.08747">
        <ele>17.6000004</ele>
        <time>2013-12-08T09:02:06Z</time>
      </trkpt>
      <trkpt lat="49.11123" lon="-0.08773">
        <ele>17.6000004</ele>
        <time>2013-12-08T09:02:11Z</time>
      </trkpt>
      <trkpt lat="49.11116" lon="-0.08802">
        <ele>17.6000004</ele>
        <time>2013-12-08T09:02:17Z</time>
      </trkpt>
      <trkpt lat="49.11114" lon="-0.08809">
        <ele>17.6000004</ele>
        <time>2013-12-08T09:02:20Z</time>
      </trkpt>
      <trkpt lat="49.11112" lon="-0.0881">
        <ele>17.6000004</ele>
        <time>2013-12-08T09:02:21Z</time>
      </trkpt>
      <trkpt lat="49.11111" lon="-0.08811">
        <ele>17.6000004</ele>
        <time>2013-12-08T09:02:23Z</time>
      </trkpt>
      <trkpt lat="49.11111" lon="-0.08812">
        <ele>17.6000004</ele>
        <time>2013-12-08T09:02:26Z</time>
      </trkpt>
      <trkpt lat="49.11111" lon="-0.08812">
        <ele>17.6000004</ele>
        <time>2013-12-08T09:02:27Z</time>
      </trkpt>
      <trkpt lat="49.11111" lon="-0.08812">
        <ele>17.6000004</ele>
        <time>2013-12-08T09:02:31Z</time>
      </trkpt>
      <trkpt lat="49.11111" lon="-0.08812">
        <ele>17.6000004</ele>
        <time>2013-12-08T09:02:32Z</time>
      </trkpt>
      <trkpt lat="49.11113" lon="-0.08812">
        <ele>21.7999992</ele>
        <time>2013-12-08T09:10:11Z</time>
      </trkpt>
      <trkpt lat="49.11112" lon="-0.08812">
        <ele>21.7999992</ele>
        <time>2013-12-08T09:10:12Z</time>
      </trkpt>
      <trkpt lat="49.11112" lon="-0.08813">
        <ele>21.7999992</ele>
        <time>2013-12-08T09:10:13Z</time>
      </trkpt>
      <trkpt lat="49.11111" lon="-0.08813">
        <ele>21.7999992</ele>
        <time>2013-12-08T09:10:56Z</time>
      </trkpt>
      <trkpt lat="49.11109" lon="-0.08816">
        <ele>21.7999992</ele>
        <time>2013-12-08T09:11:00Z</time>
      </trkpt>
      <trkpt lat="49.111" lon="-0.08828">
        <ele>21.7999992</ele>
        <time>2013-12-08T09:11:06Z</time>
      </trkpt>
      <trkpt lat="49.11089" lon="-0.08843">
        <ele>21.7999992</ele>
        <time>2013-12-08T09:11:13Z</time>
      </trkpt>
      <trkpt lat="49.11072" lon="-0.08853">
        <ele>22.2000008</ele>
        <time>2013-12-08T09:11:19Z</time>
      </trkpt>
      <trkpt lat="49.11068" lon="-0.08856">
        <ele>22.6000004</ele>
        <time>2013-12-08T09:11:20Z</time>
      </trkpt>
      <trkpt lat="49.11064" lon="-0.08859">
        <ele>23</ele>
        <time>2013-12-08T09:11:21Z</time>
      </trkpt>
      <trkpt lat="49.1106" lon="-0.08862">
        <ele>23.3999996</ele>
        <time>2013-12-08T09:11:22Z</time>
      </trkpt>
      <trkpt lat="49.11056" lon="-0.08865">
        <ele>23.7999992</ele>
        <time>2013-12-08T09:11:23Z</time>
      </trkpt>
      <trkpt lat="49.11042" lon="-0.08876">
        <ele>23.7999992</ele>
        <time>2013-12-08T09:11:27Z</time>
      </trkpt>
      <trkpt lat="49.11029" lon="-0.08885">
        <ele>24.2000008</ele>
        <time>2013-12-08T09:11:33Z</time>
      </trkpt>
      <trkpt lat="49.11027" lon="-0.08887">
        <ele>24.7999992</ele>
        <time>2013-12-08T09:11:34Z</time>
      </trkpt>
      <trkpt lat="49.11025" lon="-0.08888">
        <ele>25.2000008</ele>
        <time>2013-12-08T09:11:35Z</time>
      </trkpt>
      <trkpt lat="49.11023" lon="-0.08889">
        <ele>25.6000004</ele>
        <time>2013-12-08T09:11:36Z</time>
      </trkpt>
      <trkpt lat="49.1102" lon="-0.08891">
        <ele>26</ele>
        <time>2013-12-08T09:11:37Z</time>
      </trkpt>
      <trkpt lat="49.11013" lon="-0.08895">
        <ele>26</ele>
        <time>2013-12-08T09:11:40Z</time>
      </trkpt>
      <trkpt lat="49.11" lon="-0.08904">
        <ele>26.3999996</ele>
        <time>2013-12-08T09:11:44Z</time>
      </trkpt>
      <trkpt lat="49.10997" lon="-0.08907">
        <ele>26.7999992</ele>
        <time>2013-12-08T09:11:45Z</time>
      </trkpt>
      <trkpt lat="49.10994" lon="-0.08909">
        <ele>27.2000008</ele>
        <time>2013-12-08T09:11:46Z</time>
      </trkpt>
      <trkpt lat="49.10991" lon="-0.08912">
        <ele>27.6000004</ele>
        <time>2013-12-08T09:11:47Z</time>
      </trkpt>
      <trkpt lat="49.10986" lon="-0.08916">
        <ele>28</ele>
        <time>2013-12-08T09:11:48Z</time>
      </trkpt>
      <trkpt lat="49.10977" lon="-0.08923">
        <ele>28</ele>
        <time>2013-12-08T09:11:51Z</time>
      </trkpt>
      <trkpt lat="49.10963" lon="-0.08932">
        <ele>28</ele>
        <time>2013-12-08T09:11:56Z</time>
      </trkpt>
      <trkpt lat="49.10941" lon="-0.08948">
        <ele>28</ele>
        <time>2013-12-08T09:12:02Z</time>
      </trkpt>
      <trkpt lat="49.10925" lon="-0.08966">
        <ele>28.3999996</ele>
        <time>2013-12-08T09:12:09Z</time>
      </trkpt>
      <trkpt lat="49.10923" lon="-0.08968">
        <ele>28.7999992</ele>
        <time>2013-12-08T09:12:10Z</time>
      </trkpt>
      <trkpt lat="49.1092" lon="-0.0897">
        <ele>29.2000008</ele>
        <time>2013-12-08T09:12:11Z</time>
      </trkpt>
      <trkpt lat="49.10918" lon="-0.08971">
        <ele>29.7999992</ele>
        <time>2013-12-08T09:12:12Z</time>
      </trkpt>
      <trkpt lat="49.10916" lon="-0.08973">
        <ele>30.2000008</ele>
        <time>2013-12-08T09:12:13Z</time>
      </trkpt>
      <trkpt lat="49.10912" lon="-0.08977">
        <ele>30.2000008</ele>
        <time>2013-12-08T09:12:15Z</time>
      </trkpt>
      <trkpt lat="49.109" lon="-0.08986">
        <ele>31</ele>
        <time>2013-12-08T09:12:20Z</time>
      </trkpt>
      <trkpt lat="49.10898" lon="-0.08987">
        <ele>31.3999996</ele>
        <time>2013-12-08T09:12:21Z</time>
      </trkpt>
      <trkpt lat="49.10896" lon="-0.08989">
        <ele>31.7999992</ele>
        <time>2013-12-08T09:12:22Z</time>
      </trkpt>
      <trkpt lat="49.10894" lon="-0.08991">
        <ele>32.2000008</ele>
        <time>2013-12-08T09:12:23Z</time>
      </trkpt>
      <trkpt lat="49.10881" lon="-0.09001">
        <ele>32.2000008</ele>
        <time>2013-12-08T09:12:28Z</time>
      </trkpt>
      <trkpt lat="49.10869" lon="-0.09009">
        <ele>32.5999985</ele>
        <time>2013-12-08T09:12:32Z</time>
      </trkpt>
      <trkpt lat="49.10866" lon="-0.09011">
        <ele>33</ele>
        <time>2013-12-08T09:12:33Z</time>
      </trkpt>
      <trkpt lat="49.10864" lon="-0.09013">
        <ele>33.4000015</ele>
        <time>2013-12-08T09:12:34Z</time>
      </trkpt>
      <trkpt lat="49.10861" lon="-0.09015">
        <ele>33.7999992</ele>
        <time>2013-12-08T09:12:35Z</time>
      </trkpt>
      <trkpt lat="49.10858" lon="-0.09017">
        <ele>34.2000008</ele>
        <time>2013-12-08T09:12:36Z</time>
      </trkpt>
      <trkpt lat="49.10845" lon="-0.09029">
        <ele>34.2000008</ele>
        <time>2013-12-08T09:12:41Z</time>
      </trkpt>
      <trkpt lat="49.10828" lon="-0.09045">
        <ele>34.2000008</ele>
        <time>2013-12-08T09:12:47Z</time>
      </trkpt>
      <trkpt lat="49.10816" lon="-0.09054">
        <ele>34.5999985</ele>
        <time>2013-12-08T09:12:51Z</time>
      </trkpt>
      <trkpt lat="49.10814" lon="-0.09056">
        <ele>35</ele>
        <time>2013-12-08T09:12:52Z</time>
      </trkpt>
      <trkpt lat="49.10812" lon="-0.09059">
        <ele>35.4000015</ele>
        <time>2013-12-08T09:12:53Z</time>
      </trkpt>
      <trkpt lat="49.10809" lon="-0.09062">
        <ele>36</ele>
        <time>2013-12-08T09:12:54Z</time>
      </trkpt>
      <trkpt lat="49.10808" lon="-0.09064">
        <ele>36.4000015</ele>
        <time>2013-12-08T09:12:55Z</time>
      </trkpt>
      <trkpt lat="49.10797" lon="-0.09071">
        <ele>36.4000015</ele>
        <time>2013-12-08T09:12:59Z</time>
      </trkpt>
      <trkpt lat="49.10785" lon="-0.09083">
        <ele>36.4000015</ele>
        <time>2013-12-08T09:13:04Z</time>
      </trkpt>
      <trkpt lat="49.10779" lon="-0.09086">
        <ele>36.7999992</ele>
        <time>2013-12-08T09:13:06Z</time>
      </trkpt>
      <trkpt lat="49.10776" lon="-0.09089">
        <ele>37.2000008</ele>
        <time>2013-12-08T09:13:07Z</time>
      </trkpt>
      <trkpt lat="49.10774" lon="-0.09091">
        <ele>37.5999985</ele>
        <time>2013-12-08T09:13:08Z</time>
      </trkpt>
      <trkpt lat="49.1077" lon="-0.09094">
        <ele>38.4000015</ele>
        <time>2013-12-08T09:13:09Z</time>
      </trkpt>
      <trkpt lat="49.10748" lon="-0.09114">
        <ele>38.4000015</ele>
        <time>2013-12-08T09:13:16Z</time>
      </trkpt>
      <trkpt lat="49.1074" lon="-0.09125">
        <ele>38.4000015</ele>
        <time>2013-12-08T09:13:20Z</time>
      </trkpt>
      <trkpt lat="49.10737" lon="-0.09129">
        <ele>38.7999992</ele>
        <time>2013-12-08T09:13:21Z</time>
      </trkpt>
      <trkpt lat="49.10735" lon="-0.09132">
        <ele>39.2000008</ele>
        <time>2013-12-08T09:13:22Z</time>
      </trkpt>
      <trkpt lat="49.10732" lon="-0.09134">
        <ele>39.5999985</ele>
        <time>2013-12-08T09:13:23Z</time>
      </trkpt>
      <trkpt lat="49.10729" lon="-0.09137">
        <ele>40</ele>
        <time>2013-12-08T09:13:24Z</time>
      </trkpt>
      <trkpt lat="49.10726" lon="-0.0914">
        <ele>40.5999985</ele>
        <time>2013-12-08T09:13:25Z</time>
      </trkpt>
      <trkpt lat="49.10708" lon="-0.09153">
        <ele>40.5999985</ele>
        <time>2013-12-08T09:13:31Z</time>
      </trkpt>
      <trkpt lat="49.10689" lon="-0.09171">
        <ele>41</ele>
        <time>2013-12-08T09:13:37Z</time>
      </trkpt>
      <trkpt lat="49.10686" lon="-0.09174">
        <ele>41.4000015</ele>
        <time>2013-12-08T09:13:38Z</time>
      </trkpt>
      <trkpt lat="49.10684" lon="-0.09177">
        <ele>41.7999992</ele>
        <time>2013-12-08T09:13:39Z</time>
      </trkpt>
      <trkpt lat="49.10681" lon="-0.0918">
        <ele>42.2000008</ele>
        <time>2013-12-08T09:13:40Z</time>
      </trkpt>
      <trkpt lat="49.10678" lon="-0.09183">
        <ele>42.5999985</ele>
        <time>2013-12-08T09:13:41Z</time>
      </trkpt>
      <trkpt lat="49.10671" lon="-0.09191">
        <ele>42.5999985</ele>
        <time>2013-12-08T09:13:44Z</time>
      </trkpt>
      <trkpt lat="49.10654" lon="-0.09212">
        <ele>42.5999985</ele>
        <time>2013-12-08T09:13:50Z</time>
      </trkpt>
      <trkpt lat="49.10638" lon="-0.09241">
        <ele>42.5999985</ele>
        <time>2013-12-08T09:13:56Z</time>
      </trkpt>
      <trkpt lat="49.10634" lon="-0.09246">
        <ele>43</ele>
        <time>2013-12-08T09:13:57Z</time>
      </trkpt>
      <trkpt lat="49.10629" lon="-0.09252">
        <ele>43.4000015</ele>
        <time>2013-12-08T09:13:58Z</time>
      </trkpt>
      <trkpt lat="49.10624" lon="-0.09258">
        <ele>44.2000008</ele>
        <time>2013-12-08T09:13:59Z</time>
      </trkpt>
      <trkpt lat="49.1062" lon="-0.09263">
        <ele>44.5999985</ele>
        <time>2013-12-08T09:14:00Z</time>
      </trkpt>
      <trkpt lat="49.10611" lon="-0.09272">
        <ele>44.5999985</ele>
        <time>2013-12-08T09:14:02Z</time>
      </trkpt>
      <trkpt lat="49.10586" lon="-0.09301">
        <ele>44.5999985</ele>
        <time>2013-12-08T09:14:09Z</time>
      </trkpt>
      <trkpt lat="49.10563" lon="-0.09329">
        <ele>44.5999985</ele>
        <time>2013-12-08T09:14:15Z</time>
      </trkpt>
      <trkpt lat="49.10552" lon="-0.09341">
        <ele>45</ele>
        <time>2013-12-08T09:14:18Z</time>
      </trkpt>
      <trkpt lat="49.10549" lon="-0.09346">
        <ele>45.4000015</ele>
        <time>2013-12-08T09:14:19Z</time>
      </trkpt>
      <trkpt lat="49.10545" lon="-0.0935">
        <ele>45.7999992</ele>
        <time>2013-12-08T09:14:20Z</time>
      </trkpt>
      <trkpt lat="49.10541" lon="-0.09354">
        <ele>46.2000008</ele>
        <time>2013-12-08T09:14:21Z</time>
      </trkpt>
      <trkpt lat="49.10537" lon="-0.09358">
        <ele>46.5999985</ele>
        <time>2013-12-08T09:14:22Z</time>
      </trkpt>
      <trkpt lat="49.10511" lon="-0.09387">
        <ele>46.5999985</ele>
        <time>2013-12-08T09:14:29Z</time>
      </trkpt>
      <trkpt lat="49.10496" lon="-0.09408">
        <ele>46.5999985</ele>
        <time>2013-12-08T09:14:34Z</time>
      </trkpt>
      <trkpt lat="49.10484" lon="-0.09424">
        <ele>46.5999985</ele>
        <time>2013-12-08T09:14:38Z</time>
      </trkpt>
      <trkpt lat="49.10477" lon="-0.09433">
        <ele>46.5999985</ele>
        <time>2013-12-08T09:14:40Z</time>
      </trkpt>
      <trkpt lat="49.10458" lon="-0.09455">
        <ele>46.5999985</ele>
        <time>2013-12-08T09:14:46Z</time>
      </trkpt>
      <trkpt lat="49.10442" lon="-0.09472">
        <ele>46.5999985</ele>
        <time>2013-12-08T09:14:51Z</time>
      </trkpt>
      <trkpt lat="49.10431" lon="-0.09488">
        <ele>46.5999985</ele>
        <time>2013-12-08T09:14:56Z</time>
      </trkpt>
      <trkpt lat="49.10421" lon="-0.09494">
        <ele>46.5999985</ele>
        <time>2013-12-08T09:15:01Z</time>
      </trkpt>
      <trkpt lat="49.10419" lon="-0.09497">
        <ele>46.5999985</ele>
        <time>2013-12-08T09:15:02Z</time>
      </trkpt>
      <trkpt lat="49.10413" lon="-0.09501">
        <ele>46.5999985</ele>
        <time>2013-12-08T09:15:05Z</time>
      </trkpt>
      <trkpt lat="49.1041" lon="-0.09505">
        <ele>46.5999985</ele>
        <time>2013-12-08T09:15:07Z</time>
      </trkpt>
      <trkpt lat="49.10404" lon="-0.09514">
        <ele>46.5999985</ele>
        <time>2013-12-08T09:15:13Z</time>
      </trkpt>
      <trkpt lat="49.10396" lon="-0.09525">
        <ele>46.5999985</ele>
        <time>2013-12-08T09:15:20Z</time>
      </trkpt>
      <trkpt lat="49.10386" lon="-0.09539">
        <ele>46.5999985</ele>
        <time>2013-12-08T09:15:26Z</time>
      </trkpt>
      <trkpt lat="49.10377" lon="-0.09553">
        <ele>46.5999985</ele>
        <time>2013-12-08T09:15:32Z</time>
      </trkpt>
      <trkpt lat="49.10363" lon="-0.09569">
        <ele>46.5999985</ele>
        <time>2013-12-08T09:15:39Z</time>
      </trkpt>
      <trkpt lat="49.10346" lon="-0.09589">
        <ele>46.5999985</ele>
        <time>2013-12-08T09:15:46Z</time>
      </trkpt>
      <trkpt lat="49.1033" lon="-0.09607">
        <ele>46.5999985</ele>
        <time>2013-12-08T09:15:52Z</time>
      </trkpt>
      <trkpt lat="49.1031" lon="-0.09633">
        <ele>46.5999985</ele>
        <time>2013-12-08T09:15:59Z</time>
      </trkpt>
      <trkpt lat="49.10293" lon="-0.09655">
        <ele>46.5999985</ele>
        <time>2013-12-08T09:16:05Z</time>
      </trkpt>
      <trkpt lat="49.10273" lon="-0.0968">
        <ele>46.5999985</ele>
        <time>2013-12-08T09:16:12Z</time>
      </trkpt>
      <trkpt lat="49.10252" lon="-0.09692">
        <ele>46.5999985</ele>
        <time>2013-12-08T09:16:18Z</time>
      </trkpt>
      <trkpt lat="49.10244" lon="-0.09691">
        <ele>47</ele>
        <time>2013-12-08T09:16:20Z</time>
      </trkpt>
      <trkpt lat="49.10241" lon="-0.09691">
        <ele>47.4000015</ele>
        <time>2013-12-08T09:16:21Z</time>
      </trkpt>
      <trkpt lat="49.10237" lon="-0.0969">
        <ele>47.7999992</ele>
        <time>2013-12-08T09:16:22Z</time>
      </trkpt>
      <trkpt lat="49.10233" lon="-0.0969">
        <ele>48.2000008</ele>
        <time>2013-12-08T09:16:23Z</time>
      </trkpt>
      <trkpt lat="49.10229" lon="-0.09689">
        <ele>48.5999985</ele>
        <time>2013-12-08T09:16:24Z</time>
      </trkpt>
      <trkpt lat="49.10225" lon="-0.09689">
        <ele>48.5999985</ele>
        <time>2013-12-08T09:16:25Z</time>
      </trkpt>
      <trkpt lat="49.10197" lon="-0.09684">
        <ele>48.5999985</ele>
        <time>2013-12-08T09:16:32Z</time>
      </trkpt>
      <trkpt lat="49.10172" lon="-0.09681">
        <ele>48.5999985</ele>
        <time>2013-12-08T09:16:39Z</time>
      </trkpt>
      <trkpt lat="49.10154" lon="-0.09679">
        <ele>48.5999985</ele>
        <time>2013-12-08T09:16:45Z</time>
      </trkpt>
      <trkpt lat="49.10144" lon="-0.09682">
        <ele>48.5999985</ele>
        <time>2013-12-08T09:16:48Z</time>
      </trkpt>
      <trkpt lat="49.10142" lon="-0.09692">
        <ele>48.5999985</ele>
        <time>2013-12-08T09:16:50Z</time>
      </trkpt>
      <trkpt lat="49.10142" lon="-0.09704">
        <ele>48.5999985</ele>
        <time>2013-12-08T09:16:52Z</time>
      </trkpt>
      <trkpt lat="49.10143" lon="-0.09716">
        <ele>48.5999985</ele>
        <time>2013-12-08T09:16:54Z</time>
      </trkpt>
      <trkpt lat="49.10145" lon="-0.09771">
        <ele>48.5999985</ele>
        <time>2013-12-08T09:17:02Z</time>
      </trkpt>
      <trkpt lat="49.10146" lon="-0.09778">
        <ele>48.5999985</ele>
        <time>2013-12-08T09:17:03Z</time>
      </trkpt>
      <trkpt lat="49.10146" lon="-0.09811">
        <ele>48.5999985</ele>
        <time>2013-12-08T09:17:08Z</time>
      </trkpt>
      <trkpt lat="49.10146" lon="-0.09831">
        <ele>48.5999985</ele>
        <time>2013-12-08T09:17:11Z</time>
      </trkpt>
      <trkpt lat="49.10148" lon="-0.09858">
        <ele>48.5999985</ele>
        <time>2013-12-08T09:17:15Z</time>
      </trkpt>
      <trkpt lat="49.1015" lon="-0.09905">
        <ele>48.5999985</ele>
        <time>2013-12-08T09:17:22Z</time>
      </trkpt>
      <trkpt lat="49.10151" lon="-0.09956">
        <ele>48.5999985</ele>
        <time>2013-12-08T09:17:30Z</time>
      </trkpt>
      <trkpt lat="49.10153" lon="-0.09974">
        <ele>48.5999985</ele>
        <time>2013-12-08T09:17:33Z</time>
      </trkpt>
      <trkpt lat="49.10155" lon="-0.09987">
        <ele>48.5999985</ele>
        <time>2013-12-08T09:17:35Z</time>
      </trkpt>
      <trkpt lat="49.10157" lon="-0.09994">
        <ele>48.5999985</ele>
        <time>2013-12-08T09:17:36Z</time>
      </trkpt>
      <trkpt lat="49.10168" lon="-0.10015">
        <ele>48.5999985</ele>
        <time>2013-12-08T09:17:40Z</time>
      </trkpt>
      <trkpt lat="49.10172" lon="-0.1002">
        <ele>48.5999985</ele>
        <time>2013-12-08T09:17:41Z</time>
      </trkpt>
      <trkpt lat="49.10178" lon="-0.10028">
        <ele>48.5999985</ele>
        <time>2013-12-08T09:17:43Z</time>
      </trkpt>
      <trkpt lat="49.10189" lon="-0.10041">
        <ele>48.5999985</ele>
        <time>2013-12-08T09:17:46Z</time>
      </trkpt>
      <trkpt lat="49.10209" lon="-0.10067">
        <ele>48.5999985</ele>
        <time>2013-12-08T09:17:52Z</time>
      </trkpt>
      <trkpt lat="49.10229" lon="-0.10085">
        <ele>48.5999985</ele>
        <time>2013-12-08T09:17:57Z</time>
      </trkpt>
      <trkpt lat="49.10238" lon="-0.10092">
        <ele>48.5999985</ele>
        <time>2013-12-08T09:17:59Z</time>
      </trkpt>
      <trkpt lat="49.10263" lon="-0.10111">
        <ele>48.5999985</ele>
        <time>2013-12-08T09:18:05Z</time>
      </trkpt>
      <trkpt lat="49.10285" lon="-0.10125">
        <ele>48.5999985</ele>
        <time>2013-12-08T09:18:10Z</time>
      </trkpt>
      <trkpt lat="49.10306" lon="-0.10145">
        <ele>48.5999985</ele>
        <time>2013-12-08T09:18:15Z</time>
      </trkpt>
      <trkpt lat="49.10322" lon="-0.10172">
        <ele>48.5999985</ele>
        <time>2013-12-08T09:18:20Z</time>
      </trkpt>
      <trkpt lat="49.10341" lon="-0.1022">
        <ele>48.2000008</ele>
        <time>2013-12-08T09:18:27Z</time>
      </trkpt>
      <trkpt lat="49.10344" lon="-0.10226">
        <ele>47.7999992</ele>
        <time>2013-12-08T09:18:28Z</time>
      </trkpt>
      <trkpt lat="49.10346" lon="-0.10232">
        <ele>47.4000015</ele>
        <time>2013-12-08T09:18:29Z</time>
      </trkpt>
      <trkpt lat="49.10349" lon="-0.10238">
        <ele>46.5999985</ele>
        <time>2013-12-08T09:18:30Z</time>
      </trkpt>
      <trkpt lat="49.10362" lon="-0.10265">
        <ele>46.5999985</ele>
        <time>2013-12-08T09:18:35Z</time>
      </trkpt>
      <trkpt lat="49.10368" lon="-0.10277">
        <ele>46.5999985</ele>
        <time>2013-12-08T09:18:37Z</time>
      </trkpt>
      <trkpt lat="49.10378" lon="-0.10301">
        <ele>46.5999985</ele>
        <time>2013-12-08T09:18:41Z</time>
      </trkpt>
      <trkpt lat="49.10396" lon="-0.10336">
        <ele>46.5999985</ele>
        <time>2013-12-08T09:18:47Z</time>
      </trkpt>
      <trkpt lat="49.10404" lon="-0.10354">
        <ele>46.5999985</ele>
        <time>2013-12-08T09:18:50Z</time>
      </trkpt>
      <trkpt lat="49.10414" lon="-0.10379">
        <ele>46.5999985</ele>
        <time>2013-12-08T09:18:54Z</time>
      </trkpt>
      <trkpt lat="49.10428" lon="-0.10416">
        <ele>46.5999985</ele>
        <time>2013-12-08T09:19:00Z</time>
      </trkpt>
      <trkpt lat="49.10439" lon="-0.10439">
        <ele>46.2000008</ele>
        <time>2013-12-08T09:19:04Z</time>
      </trkpt>
      <trkpt lat="49.10442" lon="-0.10443">
        <ele>45.7999992</ele>
        <time>2013-12-08T09:19:05Z</time>
      </trkpt>
      <trkpt lat="49.10447" lon="-0.10444">
        <ele>45.4000015</ele>
        <time>2013-12-08T09:19:06Z</time>
      </trkpt>
      <trkpt lat="49.10451" lon="-0.10442">
        <ele>45</ele>
        <time>2013-12-08T09:19:07Z</time>
      </trkpt>
      <trkpt lat="49.10455" lon="-0.1044">
        <ele>44.5999985</ele>
        <time>2013-12-08T09:19:08Z</time>
      </trkpt>
      <trkpt lat="49.10459" lon="-0.10438">
        <ele>44.5999985</ele>
        <time>2013-12-08T09:19:09Z</time>
      </trkpt>
      <trkpt lat="49.10486" lon="-0.10427">
        <ele>44.5999985</ele>
        <time>2013-12-08T09:19:16Z</time>
      </trkpt>
      <trkpt lat="49.1049" lon="-0.10425">
        <ele>44.5999985</ele>
        <time>2013-12-08T09:19:17Z</time>
      </trkpt>
      <trkpt lat="49.10497" lon="-0.1042">
        <ele>44.5999985</ele>
        <time>2013-12-08T09:19:19Z</time>
      </trkpt>
      <trkpt lat="49.10509" lon="-0.10414">
        <ele>44.5999985</ele>
        <time>2013-12-08T09:19:22Z</time>
      </trkpt>
      <trkpt lat="49.10526" lon="-0.10406">
        <ele>44.2000008</ele>
        <time>2013-12-08T09:19:26Z</time>
      </trkpt>
      <trkpt lat="49.1053" lon="-0.10405">
        <ele>43.5999985</ele>
        <time>2013-12-08T09:19:27Z</time>
      </trkpt>
      <trkpt lat="49.10535" lon="-0.10403">
        <ele>43.2000008</ele>
        <time>2013-12-08T09:19:28Z</time>
      </trkpt>
      <trkpt lat="49.1054" lon="-0.104">
        <ele>42.7999992</ele>
        <time>2013-12-08T09:19:29Z</time>
      </trkpt>
      <trkpt lat="49.10544" lon="-0.10398">
        <ele>42.4000015</ele>
        <time>2013-12-08T09:19:30Z</time>
      </trkpt>
      <trkpt lat="49.10565" lon="-0.10387">
        <ele>42.4000015</ele>
        <time>2013-12-08T09:19:35Z</time>
      </trkpt>
      <trkpt lat="49.1059" lon="-0.10374">
        <ele>42.4000015</ele>
        <time>2013-12-08T09:19:40Z</time>
      </trkpt>
      <trkpt lat="49.10596" lon="-0.10373">
        <ele>41.7999992</ele>
        <time>2013-12-08T09:19:41Z</time>
      </trkpt>
      <trkpt lat="49.10602" lon="-0.10374">
        <ele>41.4000015</ele>
        <time>2013-12-08T09:19:42Z</time>
      </trkpt>
      <trkpt lat="49.10607" lon="-0.10376">
        <ele>41</ele>
        <time>2013-12-08T09:19:43Z</time>
      </trkpt>
      <trkpt lat="49.10612" lon="-0.1038">
        <ele>40</ele>
        <time>2013-12-08T09:19:44Z</time>
      </trkpt>
      <trkpt lat="49.10623" lon="-0.10388">
        <ele>40</ele>
        <time>2013-12-08T09:19:46Z</time>
      </trkpt>
      <trkpt lat="49.10639" lon="-0.10401">
        <ele>39.4000015</ele>
        <time>2013-12-08T09:19:49Z</time>
      </trkpt>
      <trkpt lat="49.10644" lon="-0.10404">
        <ele>39</ele>
        <time>2013-12-08T09:19:50Z</time>
      </trkpt>
      <trkpt lat="49.10649" lon="-0.10406">
        <ele>38.5999985</ele>
        <time>2013-12-08T09:19:51Z</time>
      </trkpt>
      <trkpt lat="49.10655" lon="-0.10409">
        <ele>38</ele>
        <time>2013-12-08T09:19:52Z</time>
      </trkpt>
      <trkpt lat="49.1066" lon="-0.10412">
        <ele>37.5999985</ele>
        <time>2013-12-08T09:19:53Z</time>
      </trkpt>
      <trkpt lat="49.10665" lon="-0.10417">
        <ele>37.5999985</ele>
        <time>2013-12-08T09:19:54Z</time>
      </trkpt>
      <trkpt lat="49.10669" lon="-0.10423">
        <ele>37.2000008</ele>
        <time>2013-12-08T09:19:55Z</time>
      </trkpt>
      <trkpt lat="49.10673" lon="-0.10429">
        <ele>36.7999992</ele>
        <time>2013-12-08T09:19:56Z</time>
      </trkpt>
      <trkpt lat="49.10677" lon="-0.10436">
        <ele>36.4000015</ele>
        <time>2013-12-08T09:19:57Z</time>
      </trkpt>
      <trkpt lat="49.10681" lon="-0.10444">
        <ele>36</ele>
        <time>2013-12-08T09:19:58Z</time>
      </trkpt>
      <trkpt lat="49.10685" lon="-0.10451">
        <ele>35.5999985</ele>
        <time>2013-12-08T09:19:59Z</time>
      </trkpt>
      <trkpt lat="49.10689" lon="-0.10459">
        <ele>35.5999985</ele>
        <time>2013-12-08T09:20:00Z</time>
      </trkpt>
      <trkpt lat="49.10698" lon="-0.10482">
        <ele>35.2000008</ele>
        <time>2013-12-08T09:20:03Z</time>
      </trkpt>
      <trkpt lat="49.10701" lon="-0.10491">
        <ele>34.5999985</ele>
        <time>2013-12-08T09:20:04Z</time>
      </trkpt>
      <trkpt lat="49.10703" lon="-0.10499">
        <ele>34.2000008</ele>
        <time>2013-12-08T09:20:05Z</time>
      </trkpt>
      <trkpt lat="49.10706" lon="-0.10508">
        <ele>33.5999985</ele>
        <time>2013-12-08T09:20:06Z</time>
      </trkpt>
      <trkpt lat="49.10708" lon="-0.10518">
        <ele>32.7999992</ele>
        <time>2013-12-08T09:20:07Z</time>
      </trkpt>
      <trkpt lat="49.10711" lon="-0.10527">
        <ele>32</ele>
        <time>2013-12-08T09:20:08Z</time>
      </trkpt>
      <trkpt lat="49.10714" lon="-0.10536">
        <ele>30.6000004</ele>
        <time>2013-12-08T09:20:09Z</time>
      </trkpt>
      <trkpt lat="49.10721" lon="-0.10553">
        <ele>30.2000008</ele>
        <time>2013-12-08T09:20:11Z</time>
      </trkpt>
      <trkpt lat="49.10725" lon="-0.1056">
        <ele>29.7999992</ele>
        <time>2013-12-08T09:20:12Z</time>
      </trkpt>
      <trkpt lat="49.10729" lon="-0.10568">
        <ele>29.2000008</ele>
        <time>2013-12-08T09:20:13Z</time>
      </trkpt>
      <trkpt lat="49.10734" lon="-0.10574">
        <ele>28.7999992</ele>
        <time>2013-12-08T09:20:14Z</time>
      </trkpt>
      <trkpt lat="49.10739" lon="-0.1058">
        <ele>28.3999996</ele>
        <time>2013-12-08T09:20:15Z</time>
      </trkpt>
      <trkpt lat="49.10744" lon="-0.10586">
        <ele>27.7999992</ele>
        <time>2013-12-08T09:20:16Z</time>
      </trkpt>
      <trkpt lat="49.10748" lon="-0.1059">
        <ele>27.3999996</ele>
        <time>2013-12-08T09:20:17Z</time>
      </trkpt>
      <trkpt lat="49.10749" lon="-0.10592">
        <ele>27</ele>
        <time>2013-12-08T09:20:18Z</time>
      </trkpt>
      <trkpt lat="49.10751" lon="-0.10594">
        <ele>26.6000004</ele>
        <time>2013-12-08T09:20:19Z</time>
      </trkpt>
      <trkpt lat="49.10754" lon="-0.10595">
        <ele>26</ele>
        <time>2013-12-08T09:20:20Z</time>
      </trkpt>
      <trkpt lat="49.10756" lon="-0.10598">
        <ele>25.3999996</ele>
        <time>2013-12-08T09:20:21Z</time>
      </trkpt>
      <trkpt lat="49.10759" lon="-0.10601">
        <ele>24.7999992</ele>
        <time>2013-12-08T09:20:22Z</time>
      </trkpt>
      <trkpt lat="49.10763" lon="-0.10603">
        <ele>24.2000008</ele>
        <time>2013-12-08T09:20:23Z</time>
      </trkpt>
      <trkpt lat="49.10768" lon="-0.10606">
        <ele>23.6000004</ele>
        <time>2013-12-08T09:20:24Z</time>
      </trkpt>
      <trkpt lat="49.10772" lon="-0.10608">
        <ele>23.6000004</ele>
        <time>2013-12-08T09:20:25Z</time>
      </trkpt>
      <trkpt lat="49.1078" lon="-0.10603">
        <ele>23.6000004</ele>
        <time>2013-12-08T09:20:28Z</time>
      </trkpt>
      <trkpt lat="49.10782" lon="-0.106">
        <ele>23.2000008</ele>
        <time>2013-12-08T09:20:29Z</time>
      </trkpt>
      <trkpt lat="49.10784" lon="-0.10597">
        <ele>22.7999992</ele>
        <time>2013-12-08T09:20:30Z</time>
      </trkpt>
      <trkpt lat="49.10787" lon="-0.10594">
        <ele>22.3999996</ele>
        <time>2013-12-08T09:20:31Z</time>
      </trkpt>
      <trkpt lat="49.10789" lon="-0.10591">
        <ele>22</ele>
        <time>2013-12-08T09:20:32Z</time>
      </trkpt>
      <trkpt lat="49.1079" lon="-0.10586">
        <ele>21.6000004</ele>
        <time>2013-12-08T09:20:33Z</time>
      </trkpt>
      <trkpt lat="49.108" lon="-0.10565">
        <ele>21.6000004</ele>
        <time>2013-12-08T09:20:38Z</time>
      </trkpt>
      <trkpt lat="49.10814" lon="-0.10556">
        <ele>21.6000004</ele>
        <time>2013-12-08T09:20:42Z</time>
      </trkpt>
      <trkpt lat="49.10834" lon="-0.10548">
        <ele>21.2000008</ele>
        <time>2013-12-08T09:20:47Z</time>
      </trkpt>
      <trkpt lat="49.10838" lon="-0.10547">
        <ele>20.7999992</ele>
        <time>2013-12-08T09:20:48Z</time>
      </trkpt>
      <trkpt lat="49.10842" lon="-0.10547">
        <ele>20.3999996</ele>
        <time>2013-12-08T09:20:49Z</time>
      </trkpt>
      <trkpt lat="49.10846" lon="-0.10547">
        <ele>20</ele>
        <time>2013-12-08T09:20:50Z</time>
      </trkpt>
      <trkpt lat="49.10851" lon="-0.10546">
        <ele>19.6000004</ele>
        <time>2013-12-08T09:20:51Z</time>
      </trkpt>
      <trkpt lat="49.1086" lon="-0.10544">
        <ele>19.6000004</ele>
        <time>2013-12-08T09:20:53Z</time>
      </trkpt>
      <trkpt lat="49.10874" lon="-0.10542">
        <ele>19.2000008</ele>
        <time>2013-12-08T09:20:56Z</time>
      </trkpt>
      <trkpt lat="49.10879" lon="-0.10541">
        <ele>18.7999992</ele>
        <time>2013-12-08T09:20:57Z</time>
      </trkpt>
      <trkpt lat="49.10884" lon="-0.1054">
        <ele>18</ele>
        <time>2013-12-08T09:20:58Z</time>
      </trkpt>
      <trkpt lat="49.10889" lon="-0.10539">
        <ele>17.6000004</ele>
        <time>2013-12-08T09:20:59Z</time>
      </trkpt>
      <trkpt lat="49.10911" lon="-0.10534">
        <ele>17.6000004</ele>
        <time>2013-12-08T09:21:04Z</time>
      </trkpt>
      <trkpt lat="49.10914" lon="-0.10534">
        <ele>17.6000004</ele>
        <time>2013-12-08T09:21:05Z</time>
      </trkpt>
      <trkpt lat="49.10934" lon="-0.1053">
        <ele>17.6000004</ele>
        <time>2013-12-08T09:21:12Z</time>
      </trkpt>
      <trkpt lat="49.10946" lon="-0.10528">
        <ele>17.6000004</ele>
        <time>2013-12-08T09:21:18Z</time>
      </trkpt>
      <trkpt lat="49.1095" lon="-0.10528">
        <ele>18</ele>
        <time>2013-12-08T09:21:20Z</time>
      </trkpt>
      <trkpt lat="49.10951" lon="-0.10528">
        <ele>18.3999996</ele>
        <time>2013-12-08T09:21:21Z</time>
      </trkpt>
      <trkpt lat="49.10953" lon="-0.10528">
        <ele>18.7999992</ele>
        <time>2013-12-08T09:21:22Z</time>
      </trkpt>
      <trkpt lat="49.10955" lon="-0.10527">
        <ele>19.6000004</ele>
        <time>2013-12-08T09:21:23Z</time>
      </trkpt>
      <trkpt lat="49.10957" lon="-0.10527">
        <ele>19.6000004</ele>
        <time>2013-12-08T09:21:24Z</time>
      </trkpt>
      <trkpt lat="49.10962" lon="-0.10523">
        <ele>20.2000008</ele>
        <time>2013-12-08T09:21:26Z</time>
      </trkpt>
      <trkpt lat="49.10965" lon="-0.10521">
        <ele>20.6000004</ele>
        <time>2013-12-08T09:21:27Z</time>
      </trkpt>
      <trkpt lat="49.10966" lon="-0.1052">
        <ele>21</ele>
        <time>2013-12-08T09:21:28Z</time>
      </trkpt>
      <trkpt lat="49.10968" lon="-0.10518">
        <ele>21.6000004</ele>
        <time>2013-12-08T09:21:29Z</time>
      </trkpt>
      <trkpt lat="49.10971" lon="-0.10515">
        <ele>22</ele>
        <time>2013-12-08T09:21:30Z</time>
      </trkpt>
      <trkpt lat="49.10973" lon="-0.10512">
        <ele>22</ele>
        <time>2013-12-08T09:21:31Z</time>
      </trkpt>
      <trkpt lat="49.10977" lon="-0.10508">
        <ele>22.3999996</ele>
        <time>2013-12-08T09:21:33Z</time>
      </trkpt>
      <trkpt lat="49.10978" lon="-0.10507">
        <ele>22.7999992</ele>
        <time>2013-12-08T09:21:34Z</time>
      </trkpt>
      <trkpt lat="49.10981" lon="-0.10505">
        <ele>23.2000008</ele>
        <time>2013-12-08T09:21:35Z</time>
      </trkpt>
      <trkpt lat="49.10983" lon="-0.10502">
        <ele>23.6000004</ele>
        <time>2013-12-08T09:21:36Z</time>
      </trkpt>
      <trkpt lat="49.10984" lon="-0.105">
        <ele>24</ele>
        <time>2013-12-08T09:21:37Z</time>
      </trkpt>
      <trkpt lat="49.10989" lon="-0.10498">
        <ele>24.3999996</ele>
        <time>2013-12-08T09:21:39Z</time>
      </trkpt>
      <trkpt lat="49.10991" lon="-0.10496">
        <ele>24.7999992</ele>
        <time>2013-12-08T09:21:40Z</time>
      </trkpt>
      <trkpt lat="49.10993" lon="-0.10494">
        <ele>25.2000008</ele>
        <time>2013-12-08T09:21:41Z</time>
      </trkpt>
      <trkpt lat="49.10995" lon="-0.10492">
        <ele>25.6000004</ele>
        <time>2013-12-08T09:21:42Z</time>
      </trkpt>
      <trkpt lat="49.10996" lon="-0.1049">
        <ele>26</ele>
        <time>2013-12-08T09:21:43Z</time>
      </trkpt>
      <trkpt lat="49.11001" lon="-0.10484">
        <ele>26.3999996</ele>
        <time>2013-12-08T09:21:45Z</time>
      </trkpt>
      <trkpt lat="49.11002" lon="-0.10482">
        <ele>26.7999992</ele>
        <time>2013-12-08T09:21:46Z</time>
      </trkpt>
      <trkpt lat="49.11003" lon="-0.1048">
        <ele>27.6000004</ele>
        <time>2013-12-08T09:21:47Z</time>
      </trkpt>
      <trkpt lat="49.11005" lon="-0.10477">
        <ele>28.2000008</ele>
        <time>2013-12-08T09:21:48Z</time>
      </trkpt>
      <trkpt lat="49.11007" lon="-0.10472">
        <ele>28.2000008</ele>
        <time>2013-12-08T09:21:50Z</time>
      </trkpt>
      <trkpt lat="49.11011" lon="-0.10459">
        <ele>28.6000004</ele>
        <time>2013-12-08T09:21:54Z</time>
      </trkpt>
      <trkpt lat="49.11011" lon="-0.10456">
        <ele>29</ele>
        <time>2013-12-08T09:21:55Z</time>
      </trkpt>
      <trkpt lat="49.11012" lon="-0.10453">
        <ele>29.3999996</ele>
        <time>2013-12-08T09:21:56Z</time>
      </trkpt>
      <trkpt lat="49.11013" lon="-0.1045">
        <ele>29.7999992</ele>
        <time>2013-12-08T09:21:57Z</time>
      </trkpt>
      <trkpt lat="49.11014" lon="-0.10447">
        <ele>30.2000008</ele>
        <time>2013-12-08T09:21:58Z</time>
      </trkpt>
      <trkpt lat="49.11018" lon="-0.1043">
        <ele>30.6000004</ele>
        <time>2013-12-08T09:22:03Z</time>
      </trkpt>
      <trkpt lat="49.11019" lon="-0.10426">
        <ele>31</ele>
        <time>2013-12-08T09:22:04Z</time>
      </trkpt>
      <trkpt lat="49.1102" lon="-0.10422">
        <ele>31.6000004</ele>
        <time>2013-12-08T09:22:05Z</time>
      </trkpt>
      <trkpt lat="49.11021" lon="-0.10419">
        <ele>32</ele>
        <time>2013-12-08T09:22:06Z</time>
      </trkpt>
      <trkpt lat="49.11021" lon="-0.10416">
        <ele>32.4000015</ele>
        <time>2013-12-08T09:22:07Z</time>
      </trkpt>
      <trkpt lat="49.11022" lon="-0.10409">
        <ele>32.4000015</ele>
        <time>2013-12-08T09:22:09Z</time>
      </trkpt>
      <trkpt lat="49.11027" lon="-0.10392">
        <ele>32.7999992</ele>
        <time>2013-12-08T09:22:14Z</time>
      </trkpt>
      <trkpt lat="49.11028" lon="-0.10388">
        <ele>33.2000008</ele>
        <time>2013-12-08T09:22:15Z</time>
      </trkpt>
      <trkpt lat="49.11028" lon="-0.10384">
        <ele>33.5999985</ele>
        <time>2013-12-08T09:22:16Z</time>
      </trkpt>
      <trkpt lat="49.11029" lon="-0.1038">
        <ele>34</ele>
        <time>2013-12-08T09:22:17Z</time>
      </trkpt>
      <trkpt lat="49.1103" lon="-0.10377">
        <ele>34.4000015</ele>
        <time>2013-12-08T09:22:18Z</time>
      </trkpt>
      <trkpt lat="49.11034" lon="-0.10358">
        <ele>34.4000015</ele>
        <time>2013-12-08T09:22:22Z</time>
      </trkpt>
      <trkpt lat="49.11039" lon="-0.10338">
        <ele>34.7999992</ele>
        <time>2013-12-08T09:22:26Z</time>
      </trkpt>
      <trkpt lat="49.11041" lon="-0.10334">
        <ele>35.2000008</ele>
        <time>2013-12-08T09:22:27Z</time>
      </trkpt>
      <trkpt lat="49.11042" lon="-0.10329">
        <ele>35.5999985</ele>
        <time>2013-12-08T09:22:28Z</time>
      </trkpt>
      <trkpt lat="49.11044" lon="-0.10324">
        <ele>36.2000008</ele>
        <time>2013-12-08T09:22:29Z</time>
      </trkpt>
      <trkpt lat="49.11045" lon="-0.1032">
        <ele>36.5999985</ele>
        <time>2013-12-08T09:22:30Z</time>
      </trkpt>
      <trkpt lat="49.11047" lon="-0.10312">
        <ele>36.5999985</ele>
        <time>2013-12-08T09:22:32Z</time>
      </trkpt>
      <trkpt lat="49.11052" lon="-0.10286">
        <ele>36.5999985</ele>
        <time>2013-12-08T09:22:38Z</time>
      </trkpt>
      <trkpt lat="49.11058" lon="-0.10263">
        <ele>37.4000015</ele>
        <time>2013-12-08T09:22:42Z</time>
      </trkpt>
      <trkpt lat="49.11059" lon="-0.10259">
        <ele>37.7999992</ele>
        <time>2013-12-08T09:22:44Z</time>
      </trkpt>
      <trkpt lat="49.11061" lon="-0.10255">
        <ele>38.2000008</ele>
        <time>2013-12-08T09:22:45Z</time>
      </trkpt>
      <trkpt lat="49.11062" lon="-0.10252">
        <ele>38.5999985</ele>
        <time>2013-12-08T09:22:46Z</time>
      </trkpt>
      <trkpt lat="49.11063" lon="-0.10248">
        <ele>38.5999985</ele>
        <time>2013-12-08T09:22:47Z</time>
      </trkpt>
      <trkpt lat="49.11069" lon="-0.10224">
        <ele>38.5999985</ele>
        <time>2013-12-08T09:22:52Z</time>
      </trkpt>
      <trkpt lat="49.11071" lon="-0.1021">
        <ele>38.5999985</ele>
        <time>2013-12-08T09:22:55Z</time>
      </trkpt>
      <trkpt lat="49.11073" lon="-0.10193">
        <ele>38.5999985</ele>
        <time>2013-12-08T09:22:59Z</time>
      </trkpt>
      <trkpt lat="49.11074" lon="-0.10187">
        <ele>39</ele>
        <time>2013-12-08T09:23:00Z</time>
      </trkpt>
      <trkpt lat="49.11075" lon="-0.10181">
        <ele>39.5999985</ele>
        <time>2013-12-08T09:23:01Z</time>
      </trkpt>
      <trkpt lat="49.11076" lon="-0.10175">
        <ele>40</ele>
        <time>2013-12-08T09:23:02Z</time>
      </trkpt>
      <trkpt lat="49.11078" lon="-0.10168">
        <ele>40.4000015</ele>
        <time>2013-12-08T09:23:03Z</time>
      </trkpt>
      <trkpt lat="49.1108" lon="-0.10162">
        <ele>40.7999992</ele>
        <time>2013-12-08T09:23:04Z</time>
      </trkpt>
      <trkpt lat="49.11087" lon="-0.10131">
        <ele>40.7999992</ele>
        <time>2013-12-08T09:23:09Z</time>
      </trkpt>
      <trkpt lat="49.11101" lon="-0.10107">
        <ele>40.7999992</ele>
        <time>2013-12-08T09:23:13Z</time>
      </trkpt>
      <trkpt lat="49.11105" lon="-0.10102">
        <ele>40.7999992</ele>
        <time>2013-12-08T09:23:14Z</time>
      </trkpt>
      <trkpt lat="49.11121" lon="-0.10078">
        <ele>40.7999992</ele>
        <time>2013-12-08T09:23:18Z</time>
      </trkpt>
      <trkpt lat="49.11149" lon="-0.1004">
        <ele>40.7999992</ele>
        <time>2013-12-08T09:23:25Z</time>
      </trkpt>
      <trkpt lat="49.11168" lon="-0.10009">
        <ele>40.7999992</ele>
        <time>2013-12-08T09:23:31Z</time>
      </trkpt>
      <trkpt lat="49.11186" lon="-0.09978">
        <ele>40.7999992</ele>
        <time>2013-12-08T09:23:37Z</time>
      </trkpt>
      <trkpt lat="49.1119" lon="-0.09973">
        <ele>40.7999992</ele>
        <time>2013-12-08T09:23:38Z</time>
      </trkpt>
      <trkpt lat="49.11205" lon="-0.09944">
        <ele>40.7999992</ele>
        <time>2013-12-08T09:23:43Z</time>
      </trkpt>
      <trkpt lat="49.11208" lon="-0.0994">
        <ele>40.7999992</ele>
        <time>2013-12-08T09:23:44Z</time>
      </trkpt>
      <trkpt lat="49.11219" lon="-0.09925">
        <ele>40.7999992</ele>
        <time>2013-12-08T09:23:47Z</time>
      </trkpt>
      <trkpt lat="49.11228" lon="-0.0991">
        <ele>40.7999992</ele>
        <time>2013-12-08T09:23:50Z</time>
      </trkpt>
      <trkpt lat="49.11234" lon="-0.09901">
        <ele>40.7999992</ele>
        <time>2013-12-08T09:23:52Z</time>
      </trkpt>
      <trkpt lat="49.11244" lon="-0.09887">
        <ele>40.7999992</ele>
        <time>2013-12-08T09:23:55Z</time>
      </trkpt>
      <trkpt lat="49.11246" lon="-0.09881">
        <ele>40.7999992</ele>
        <time>2013-12-08T09:23:56Z</time>
      </trkpt>
      <trkpt lat="49.11251" lon="-0.09863">
        <ele>40.7999992</ele>
        <time>2013-12-08T09:23:59Z</time>
      </trkpt>
      <trkpt lat="49.11253" lon="-0.0985">
        <ele>40.7999992</ele>
        <time>2013-12-08T09:24:01Z</time>
      </trkpt>
      <trkpt lat="49.11256" lon="-0.09799">
        <ele>40.7999992</ele>
        <time>2013-12-08T09:24:08Z</time>
      </trkpt>
      <trkpt lat="49.11256" lon="-0.09792">
        <ele>40.7999992</ele>
        <time>2013-12-08T09:24:09Z</time>
      </trkpt>
      <trkpt lat="49.11259" lon="-0.09758">
        <ele>40.7999992</ele>
        <time>2013-12-08T09:24:14Z</time>
      </trkpt>
      <trkpt lat="49.11265" lon="-0.0971">
        <ele>40.7999992</ele>
        <time>2013-12-08T09:24:21Z</time>
      </trkpt>
      <trkpt lat="49.11269" lon="-0.09664">
        <ele>40.7999992</ele>
        <time>2013-12-08T09:24:28Z</time>
      </trkpt>
      <trkpt lat="49.11272" lon="-0.0962">
        <ele>40.7999992</ele>
        <time>2013-12-08T09:24:36Z</time>
      </trkpt>
      <trkpt lat="49.11275" lon="-0.09607">
        <ele>40.7999992</ele>
        <time>2013-12-08T09:24:40Z</time>
      </trkpt>
      <trkpt lat="49.11276" lon="-0.09604">
        <ele>40.4000015</ele>
        <time>2013-12-08T09:24:41Z</time>
      </trkpt>
      <trkpt lat="49.11275" lon="-0.09602">
        <ele>40</ele>
        <time>2013-12-08T09:24:42Z</time>
      </trkpt>
      <trkpt lat="49.11275" lon="-0.09603">
        <ele>39.5999985</ele>
        <time>2013-12-08T09:24:43Z</time>
      </trkpt>
      <trkpt lat="49.11275" lon="-0.09603">
        <ele>38.7999992</ele>
        <time>2013-12-08T09:27:35Z</time>
      </trkpt>
      <trkpt lat="49.11275" lon="-0.09604">
        <ele>38.7999992</ele>
        <time>2013-12-08T09:27:36Z</time>
      </trkpt>
      <trkpt lat="49.11274" lon="-0.09602">
        <ele>38.7999992</ele>
        <time>2013-12-08T09:27:48Z</time>
      </trkpt>
      <trkpt lat="49.11272" lon="-0.096">
        <ele>38.7999992</ele>
        <time>2013-12-08T09:27:50Z</time>
      </trkpt>
      <trkpt lat="49.11267" lon="-0.09601">
        <ele>38.7999992</ele>
        <time>2013-12-08T09:27:52Z</time>
      </trkpt>
      <trkpt lat="49.11261" lon="-0.09602">
        <ele>38.7999992</ele>
        <time>2013-12-08T09:27:54Z</time>
      </trkpt>
      <trkpt lat="49.11242" lon="-0.09601">
        <ele>38.7999992</ele>
        <time>2013-12-08T09:27:59Z</time>
      </trkpt>
      <trkpt lat="49.11209" lon="-0.09601">
        <ele>38.7999992</ele>
        <time>2013-12-08T09:28:07Z</time>
      </trkpt>
      <trkpt lat="49.11176" lon="-0.09602">
        <ele>38.7999992</ele>
        <time>2013-12-08T09:28:15Z</time>
      </trkpt>
      <trkpt lat="49.11172" lon="-0.09601">
        <ele>38.7999992</ele>
        <time>2013-12-08T09:28:16Z</time>
      </trkpt>
      <trkpt lat="49.11153" lon="-0.09598">
        <ele>38.7999992</ele>
        <time>2013-12-08T09:28:21Z</time>
      </trkpt>
      <trkpt lat="49.1115" lon="-0.09579">
        <ele>38.7999992</ele>
        <time>2013-12-08T09:28:24Z</time>
      </trkpt>
      <trkpt lat="49.1115" lon="-0.09572">
        <ele>38.7999992</ele>
        <time>2013-12-08T09:28:25Z</time>
      </trkpt>
      <trkpt lat="49.11147" lon="-0.09545">
        <ele>38.7999992</ele>
        <time>2013-12-08T09:28:29Z</time>
      </trkpt>
      <trkpt lat="49.11147" lon="-0.09496">
        <ele>38.7999992</ele>
        <time>2013-12-08T09:28:36Z</time>
      </trkpt>
      <trkpt lat="49.11146" lon="-0.09469">
        <ele>38.7999992</ele>
        <time>2013-12-08T09:28:40Z</time>
      </trkpt>
      <trkpt lat="49.11148" lon="-0.09447">
        <ele>38.7999992</ele>
        <time>2013-12-08T09:28:43Z</time>
      </trkpt>
      <trkpt lat="49.11152" lon="-0.09404">
        <ele>38.7999992</ele>
        <time>2013-12-08T09:28:49Z</time>
      </trkpt>
      <trkpt lat="49.11157" lon="-0.09348">
        <ele>38.7999992</ele>
        <time>2013-12-08T09:28:57Z</time>
      </trkpt>
      <trkpt lat="49.11158" lon="-0.09341">
        <ele>38.7999992</ele>
        <time>2013-12-08T09:28:58Z</time>
      </trkpt>
      <trkpt lat="49.11161" lon="-0.09327">
        <ele>38.7999992</ele>
        <time>2013-12-08T09:29:01Z</time>
      </trkpt>
      <trkpt lat="49.11163" lon="-0.09325">
        <ele>38.7999992</ele>
        <time>2013-12-08T09:29:02Z</time>
      </trkpt>
      <trkpt lat="49.1117" lon="-0.09326">
        <ele>38.7999992</ele>
        <time>2013-12-08T09:29:04Z</time>
      </trkpt>
      <trkpt lat="49.1118" lon="-0.09332">
        <ele>38.7999992</ele>
        <time>2013-12-08T09:29:07Z</time>
      </trkpt>
      <trkpt lat="49.11184" lon="-0.09335">
        <ele>38.7999992</ele>
        <time>2013-12-08T09:29:08Z</time>
      </trkpt>
      <trkpt lat="49.11214" lon="-0.09344">
        <ele>38.7999992</ele>
        <time>2013-12-08T09:29:15Z</time>
      </trkpt>
      <trkpt lat="49.11232" lon="-0.09346">
        <ele>38.7999992</ele>
        <time>2013-12-08T09:29:19Z</time>
      </trkpt>
      <trkpt lat="49.11236" lon="-0.09345">
        <ele>38.7999992</ele>
        <time>2013-12-08T09:29:20Z</time>
      </trkpt>
      <trkpt lat="49.1124" lon="-0.09343">
        <ele>38.7999992</ele>
        <time>2013-12-08T09:29:21Z</time>
      </trkpt>
      <trkpt lat="49.11255" lon="-0.09332">
        <ele>38.7999992</ele>
        <time>2013-12-08T09:29:24Z</time>
      </trkpt>
      <trkpt lat="49.11275" lon="-0.09329">
        <ele>38.7999992</ele>
        <time>2013-12-08T09:29:28Z</time>
      </trkpt>
      <trkpt lat="49.11305" lon="-0.09334">
        <ele>38.7999992</ele>
        <time>2013-12-08T09:29:34Z</time>
      </trkpt>
      <trkpt lat="49.11329" lon="-0.09336">
        <ele>38.7999992</ele>
        <time>2013-12-08T09:29:39Z</time>
      </trkpt>
      <trkpt lat="49.11334" lon="-0.09333">
        <ele>38.7999992</ele>
        <time>2013-12-08T09:29:40Z</time>
      </trkpt>
      <trkpt lat="49.11344" lon="-0.09332">
        <ele>38.7999992</ele>
        <time>2013-12-08T09:29:42Z</time>
      </trkpt>
      <trkpt lat="49.11353" lon="-0.09337">
        <ele>38.7999992</ele>
        <time>2013-12-08T09:29:44Z</time>
      </trkpt>
      <trkpt lat="49.11372" lon="-0.09344">
        <ele>38.7999992</ele>
        <time>2013-12-08T09:29:48Z</time>
      </trkpt>
      <trkpt lat="49.11377" lon="-0.09345">
        <ele>38.7999992</ele>
        <time>2013-12-08T09:29:49Z</time>
      </trkpt>
      <trkpt lat="49.11396" lon="-0.0935">
        <ele>38.7999992</ele>
        <time>2013-12-08T09:29:53Z</time>
      </trkpt>
      <trkpt lat="49.1142" lon="-0.09356">
        <ele>38.7999992</ele>
        <time>2013-12-08T09:29:58Z</time>
      </trkpt>
      <trkpt lat="49.11429" lon="-0.09363">
        <ele>38.7999992</ele>
        <time>2013-12-08T09:30:00Z</time>
      </trkpt>
      <trkpt lat="49.11449" lon="-0.09376">
        <ele>38.7999992</ele>
        <time>2013-12-08T09:30:04Z</time>
      </trkpt>
      <trkpt lat="49.11459" lon="-0.09383">
        <ele>38.4000015</ele>
        <time>2013-12-08T09:30:06Z</time>
      </trkpt>
      <trkpt lat="49.11465" lon="-0.09386">
        <ele>38</ele>
        <time>2013-12-08T09:30:07Z</time>
      </trkpt>
      <trkpt lat="49.1147" lon="-0.09389">
        <ele>37.5999985</ele>
        <time>2013-12-08T09:30:08Z</time>
      </trkpt>
      <trkpt lat="49.11474" lon="-0.09392">
        <ele>37.2000008</ele>
        <time>2013-12-08T09:30:09Z</time>
      </trkpt>
      <trkpt lat="49.1148" lon="-0.09396">
        <ele>36.7999992</ele>
        <time>2013-12-08T09:30:10Z</time>
      </trkpt>
      <trkpt lat="49.11485" lon="-0.094">
        <ele>36.7999992</ele>
        <time>2013-12-08T09:30:11Z</time>
      </trkpt>
      <trkpt lat="49.11522" lon="-0.09426">
        <ele>36.7999992</ele>
        <time>2013-12-08T09:30:18Z</time>
      </trkpt>
      <trkpt lat="49.11527" lon="-0.09429">
        <ele>36.7999992</ele>
        <time>2013-12-08T09:30:19Z</time>
      </trkpt>
      <trkpt lat="49.11548" lon="-0.09443">
        <ele>36.7999992</ele>
        <time>2013-12-08T09:30:23Z</time>
      </trkpt>
      <trkpt lat="49.11561" lon="-0.09459">
        <ele>36.7999992</ele>
        <time>2013-12-08T09:30:26Z</time>
      </trkpt>
      <trkpt lat="49.11564" lon="-0.09466">
        <ele>36.7999992</ele>
        <time>2013-12-08T09:30:27Z</time>
      </trkpt>
      <trkpt lat="49.11583" lon="-0.09482">
        <ele>36.7999992</ele>
        <time>2013-12-08T09:30:31Z</time>
      </trkpt>
      <trkpt lat="49.11607" lon="-0.09498">
        <ele>36.7999992</ele>
        <time>2013-12-08T09:30:36Z</time>
      </trkpt>
      <trkpt lat="49.1161" lon="-0.09504">
        <ele>36.7999992</ele>
        <time>2013-12-08T09:30:37Z</time>
      </trkpt>
      <trkpt lat="49.11611" lon="-0.09512">
        <ele>36.7999992</ele>
        <time>2013-12-08T09:30:38Z</time>
      </trkpt>
      <trkpt lat="49.1161" lon="-0.09526">
        <ele>36.7999992</ele>
        <time>2013-12-08T09:30:40Z</time>
      </trkpt>
      <trkpt lat="49.11608" lon="-0.09541">
        <ele>36.7999992</ele>
        <time>2013-12-08T09:30:42Z</time>
      </trkpt>
      <trkpt lat="49.11605" lon="-0.09566">
        <ele>36.7999992</ele>
        <time>2013-12-08T09:30:46Z</time>
      </trkpt>
      <trkpt lat="49.11606" lon="-0.09588">
        <ele>36.7999992</ele>
        <time>2013-12-08T09:30:50Z</time>
      </trkpt>
      <trkpt lat="49.11609" lon="-0.0959">
        <ele>36.7999992</ele>
        <time>2013-12-08T09:30:51Z</time>
      </trkpt>
      <trkpt lat="49.11623" lon="-0.09588">
        <ele>36.7999992</ele>
        <time>2013-12-08T09:30:54Z</time>
      </trkpt>
      <trkpt lat="49.11662" lon="-0.09591">
        <ele>36.7999992</ele>
        <time>2013-12-08T09:31:02Z</time>
      </trkpt>
      <trkpt lat="49.11704" lon="-0.09592">
        <ele>36.7999992</ele>
        <time>2013-12-08T09:31:10Z</time>
      </trkpt>
      <trkpt lat="49.11747" lon="-0.09591">
        <ele>36.7999992</ele>
        <time>2013-12-08T09:31:18Z</time>
      </trkpt>
      <trkpt lat="49.11803" lon="-0.09593">
        <ele>36.7999992</ele>
        <time>2013-12-08T09:31:28Z</time>
      </trkpt>
      <trkpt lat="49.11809" lon="-0.09592">
        <ele>36.7999992</ele>
        <time>2013-12-08T09:31:29Z</time>
      </trkpt>
      <trkpt lat="49.11861" lon="-0.09593">
        <ele>36.7999992</ele>
        <time>2013-12-08T09:31:38Z</time>
      </trkpt>
      <trkpt lat="49.11878" lon="-0.09592">
        <ele>36.4000015</ele>
        <time>2013-12-08T09:31:41Z</time>
      </trkpt>
      <trkpt lat="49.11884" lon="-0.09592">
        <ele>36</ele>
        <time>2013-12-08T09:31:42Z</time>
      </trkpt>
      <trkpt lat="49.1189" lon="-0.09591">
        <ele>35.5999985</ele>
        <time>2013-12-08T09:31:43Z</time>
      </trkpt>
      <trkpt lat="49.11896" lon="-0.09591">
        <ele>35</ele>
        <time>2013-12-08T09:31:44Z</time>
      </trkpt>
      <trkpt lat="49.11902" lon="-0.0959">
        <ele>34.5999985</ele>
        <time>2013-12-08T09:31:45Z</time>
      </trkpt>
      <trkpt lat="49.11949" lon="-0.09582">
        <ele>34.5999985</ele>
        <time>2013-12-08T09:31:53Z</time>
      </trkpt>
      <trkpt lat="49.11958" lon="-0.0958">
        <ele>34.2000008</ele>
        <time>2013-12-08T09:31:55Z</time>
      </trkpt>
      <trkpt lat="49.11963" lon="-0.09582">
        <ele>33.7999992</ele>
        <time>2013-12-08T09:31:56Z</time>
      </trkpt>
      <trkpt lat="49.11967" lon="-0.09587">
        <ele>33.4000015</ele>
        <time>2013-12-08T09:31:57Z</time>
      </trkpt>
      <trkpt lat="49.11968" lon="-0.09594">
        <ele>33</ele>
        <time>2013-12-08T09:31:58Z</time>
      </trkpt>
      <trkpt lat="49.11968" lon="-0.09602">
        <ele>32.5999985</ele>
        <time>2013-12-08T09:31:59Z</time>
      </trkpt>
      <trkpt lat="49.11969" lon="-0.0961">
        <ele>32.5999985</ele>
        <time>2013-12-08T09:32:00Z</time>
      </trkpt>
      <trkpt lat="49.1197" lon="-0.09634">
        <ele>32.5999985</ele>
        <time>2013-12-08T09:32:03Z</time>
      </trkpt>
      <trkpt lat="49.11971" lon="-0.09642">
        <ele>32.5999985</ele>
        <time>2013-12-08T09:32:04Z</time>
      </trkpt>
      <trkpt lat="49.11977" lon="-0.09701">
        <ele>32.5999985</ele>
        <time>2013-12-08T09:32:11Z</time>
      </trkpt>
      <trkpt lat="49.11983" lon="-0.09763">
        <ele>32.2000008</ele>
        <time>2013-12-08T09:32:17Z</time>
      </trkpt>
      <trkpt lat="49.11984" lon="-0.09775">
        <ele>31.7999992</ele>
        <time>2013-12-08T09:32:18Z</time>
      </trkpt>
      <trkpt lat="49.11985" lon="-0.09786">
        <ele>31.3999996</ele>
        <time>2013-12-08T09:32:19Z</time>
      </trkpt>
      <trkpt lat="49.11986" lon="-0.09798">
        <ele>31</ele>
        <time>2013-12-08T09:32:20Z</time>
      </trkpt>
      <trkpt lat="49.11987" lon="-0.09813">
        <ele>30.6000004</ele>
        <time>2013-12-08T09:32:21Z</time>
      </trkpt>
      <trkpt lat="49.11987" lon="-0.09825">
        <ele>30</ele>
        <time>2013-12-08T09:32:22Z</time>
      </trkpt>
      <trkpt lat="49.11989" lon="-0.09839">
        <ele>29.3999996</ele>
        <time>2013-12-08T09:32:23Z</time>
      </trkpt>
      <trkpt lat="49.1199" lon="-0.09853">
        <ele>28.7999992</ele>
        <time>2013-12-08T09:32:24Z</time>
      </trkpt>
      <trkpt lat="49.11992" lon="-0.09866">
        <ele>28</ele>
        <time>2013-12-08T09:32:25Z</time>
      </trkpt>
      <trkpt lat="49.11994" lon="-0.09878">
        <ele>27.2000008</ele>
        <time>2013-12-08T09:32:26Z</time>
      </trkpt>
      <trkpt lat="49.11996" lon="-0.09888">
        <ele>26</ele>
        <time>2013-12-08T09:32:27Z</time>
      </trkpt>
      <trkpt lat="49.11998" lon="-0.09898">
        <ele>23.3999996</ele>
        <time>2013-12-08T09:32:28Z</time>
      </trkpt>
      <trkpt lat="49.11999" lon="-0.09906">
        <ele>22</ele>
        <time>2013-12-08T09:32:29Z</time>
      </trkpt>
      <trkpt lat="49.12" lon="-0.09914">
        <ele>20.3999996</ele>
        <time>2013-12-08T09:32:30Z</time>
      </trkpt>
      <trkpt lat="49.12001" lon="-0.09922">
        <ele>19</ele>
        <time>2013-12-08T09:32:31Z</time>
      </trkpt>
      <trkpt lat="49.12003" lon="-0.09932">
        <ele>17.3999996</ele>
        <time>2013-12-08T09:32:32Z</time>
      </trkpt>
      <trkpt lat="49.12005" lon="-0.09942">
        <ele>16</ele>
        <time>2013-12-08T09:32:33Z</time>
      </trkpt>
      <trkpt lat="49.12006" lon="-0.09953">
        <ele>15.1999998</ele>
        <time>2013-12-08T09:32:34Z</time>
      </trkpt>
      <trkpt lat="49.12008" lon="-0.09964">
        <ele>14.6000004</ele>
        <time>2013-12-08T09:32:35Z</time>
      </trkpt>
      <trkpt lat="49.12009" lon="-0.09974">
        <ele>13.8000002</ele>
        <time>2013-12-08T09:32:36Z</time>
      </trkpt>
      <trkpt lat="49.1201" lon="-0.09986">
        <ele>13.1999998</ele>
        <time>2013-12-08T09:32:37Z</time>
      </trkpt>
      <trkpt lat="49.12011" lon="-0.09996">
        <ele>12.3999996</ele>
        <time>2013-12-08T09:32:38Z</time>
      </trkpt>
      <trkpt lat="49.12012" lon="-0.10005">
        <ele>12.3999996</ele>
        <time>2013-12-08T09:32:39Z</time>
      </trkpt>
      <trkpt lat="49.12012" lon="-0.10052">
        <ele>12</ele>
        <time>2013-12-08T09:32:44Z</time>
      </trkpt>
      <trkpt lat="49.12011" lon="-0.10063">
        <ele>11.6000004</ele>
        <time>2013-12-08T09:32:45Z</time>
      </trkpt>
      <trkpt lat="49.1201" lon="-0.10074">
        <ele>11.1999998</ele>
        <time>2013-12-08T09:32:46Z</time>
      </trkpt>
      <trkpt lat="49.12008" lon="-0.10083">
        <ele>10.8000002</ele>
        <time>2013-12-08T09:32:47Z</time>
      </trkpt>
      <trkpt lat="49.12007" lon="-0.10093">
        <ele>10.3999996</ele>
        <time>2013-12-08T09:32:48Z</time>
      </trkpt>
      <trkpt lat="49.12005" lon="-0.10102">
        <ele>10.3999996</ele>
        <time>2013-12-08T09:32:49Z</time>
      </trkpt>
      <trkpt lat="49.11995" lon="-0.10152">
        <ele>10.3999996</ele>
        <time>2013-12-08T09:32:55Z</time>
      </trkpt>
      <trkpt lat="49.11982" lon="-0.10166">
        <ele>10.3999996</ele>
        <time>2013-12-08T09:32:58Z</time>
      </trkpt>
      <trkpt lat="49.1197" lon="-0.10168">
        <ele>10.3999996</ele>
        <time>2013-12-08T09:33:00Z</time>
      </trkpt>
      <trkpt lat="49.11965" lon="-0.10168">
        <ele>10.3999996</ele>
        <time>2013-12-08T09:33:01Z</time>
      </trkpt>
      <trkpt lat="49.11939" lon="-0.10178">
        <ele>10.3999996</ele>
        <time>2013-12-08T09:33:06Z</time>
      </trkpt>
      <trkpt lat="49.11928" lon="-0.10197">
        <ele>10.3999996</ele>
        <time>2013-12-08T09:33:09Z</time>
      </trkpt>
      <trkpt lat="49.11903" lon="-0.10238">
        <ele>10.3999996</ele>
        <time>2013-12-08T09:33:16Z</time>
      </trkpt>
      <trkpt lat="49.11884" lon="-0.10265">
        <ele>10.3999996</ele>
        <time>2013-12-08T09:33:21Z</time>
      </trkpt>
      <trkpt lat="49.1188" lon="-0.1027">
        <ele>10.3999996</ele>
        <time>2013-12-08T09:33:22Z</time>
      </trkpt>
      <trkpt lat="49.11859" lon="-0.103">
        <ele>10.3999996</ele>
        <time>2013-12-08T09:33:28Z</time>
      </trkpt>
      <trkpt lat="49.11836" lon="-0.10326">
        <ele>10.3999996</ele>
        <time>2013-12-08T09:33:34Z</time>
      </trkpt>
      <trkpt lat="49.11824" lon="-0.10338">
        <ele>10.8000002</ele>
        <time>2013-12-08T09:33:37Z</time>
      </trkpt>
      <trkpt lat="49.11819" lon="-0.10341">
        <ele>11.1999998</ele>
        <time>2013-12-08T09:33:38Z</time>
      </trkpt>
      <trkpt lat="49.11816" lon="-0.10345">
        <ele>11.6000004</ele>
        <time>2013-12-08T09:33:39Z</time>
      </trkpt>
      <trkpt lat="49.11812" lon="-0.10349">
        <ele>12</ele>
        <time>2013-12-08T09:33:40Z</time>
      </trkpt>
      <trkpt lat="49.11808" lon="-0.10352">
        <ele>12.3999996</ele>
        <time>2013-12-08T09:33:41Z</time>
      </trkpt>
      <trkpt lat="49.11784" lon="-0.10376">
        <ele>12.8000002</ele>
        <time>2013-12-08T09:33:47Z</time>
      </trkpt>
      <trkpt lat="49.1178" lon="-0.1038">
        <ele>13.1999998</ele>
        <time>2013-12-08T09:33:48Z</time>
      </trkpt>
      <trkpt lat="49.11776" lon="-0.10384">
        <ele>13.6000004</ele>
        <time>2013-12-08T09:33:49Z</time>
      </trkpt>
      <trkpt lat="49.11771" lon="-0.10388">
        <ele>14.1999998</ele>
        <time>2013-12-08T09:33:50Z</time>
      </trkpt>
      <trkpt lat="49.11767" lon="-0.10392">
        <ele>14.6000004</ele>
        <time>2013-12-08T09:33:51Z</time>
      </trkpt>
      <trkpt lat="49.11748" lon="-0.1041">
        <ele>14.6000004</ele>
        <time>2013-12-08T09:33:55Z</time>
      </trkpt>
      <trkpt lat="49.117" lon="-0.10455">
        <ele>14.6000004</ele>
        <time>2013-12-08T09:34:05Z</time>
      </trkpt>
      <trkpt lat="49.11654" lon="-0.10502">
        <ele>14.1999998</ele>
        <time>2013-12-08T09:34:14Z</time>
      </trkpt>
      <trkpt lat="49.11649" lon="-0.10507">
        <ele>13.6000004</ele>
        <time>2013-12-08T09:34:15Z</time>
      </trkpt>
      <trkpt lat="49.11644" lon="-0.10511">
        <ele>13.1999998</ele>
        <time>2013-12-08T09:34:16Z</time>
      </trkpt>
      <trkpt lat="49.11639" lon="-0.10516">
        <ele>12.8000002</ele>
        <time>2013-12-08T09:34:17Z</time>
      </trkpt>
      <trkpt lat="49.11634" lon="-0.10521">
        <ele>12.3999996</ele>
        <time>2013-12-08T09:34:18Z</time>
      </trkpt>
      <trkpt lat="49.1162" lon="-0.10535">
        <ele>12.3999996</ele>
        <time>2013-12-08T09:34:21Z</time>
      </trkpt>
      <trkpt lat="49.11588" lon="-0.1056">
        <ele>12.3999996</ele>
        <time>2013-12-08T09:34:28Z</time>
      </trkpt>
      <trkpt lat="49.11583" lon="-0.10564">
        <ele>12.8000002</ele>
        <time>2013-12-08T09:34:29Z</time>
      </trkpt>
      <trkpt lat="49.11579" lon="-0.10567">
        <ele>13.3999996</ele>
        <time>2013-12-08T09:34:30Z</time>
      </trkpt>
      <trkpt lat="49.11574" lon="-0.10569">
        <ele>13.8000002</ele>
        <time>2013-12-08T09:34:31Z</time>
      </trkpt>
      <trkpt lat="49.11569" lon="-0.10572">
        <ele>14.1999998</ele>
        <time>2013-12-08T09:34:32Z</time>
      </trkpt>
      <trkpt lat="49.11564" lon="-0.10575">
        <ele>14.6000004</ele>
        <time>2013-12-08T09:34:33Z</time>
      </trkpt>
      <trkpt lat="49.11535" lon="-0.10591">
        <ele>15</ele>
        <time>2013-12-08T09:34:39Z</time>
      </trkpt>
      <trkpt lat="49.1153" lon="-0.10593">
        <ele>15.6000004</ele>
        <time>2013-12-08T09:34:40Z</time>
      </trkpt>
      <trkpt lat="49.11525" lon="-0.10594">
        <ele>16</ele>
        <time>2013-12-08T09:34:41Z</time>
      </trkpt>
      <trkpt lat="49.1152" lon="-0.10596">
        <ele>16.3999996</ele>
        <time>2013-12-08T09:34:42Z</time>
      </trkpt>
      <trkpt lat="49.11514" lon="-0.10597">
        <ele>16.7999992</ele>
        <time>2013-12-08T09:34:43Z</time>
      </trkpt>
      <trkpt lat="49.11498" lon="-0.10603">
        <ele>16.7999992</ele>
        <time>2013-12-08T09:34:46Z</time>
      </trkpt>
      <trkpt lat="49.11459" lon="-0.10623">
        <ele>16.7999992</ele>
        <time>2013-12-08T09:34:53Z</time>
      </trkpt>
      <trkpt lat="49.11422" lon="-0.1065">
        <ele>16.7999992</ele>
        <time>2013-12-08T09:35:00Z</time>
      </trkpt>
      <trkpt lat="49.11379" lon="-0.10685">
        <ele>16.7999992</ele>
        <time>2013-12-08T09:35:08Z</time>
      </trkpt>
      <trkpt lat="49.11342" lon="-0.10717">
        <ele>16.7999992</ele>
        <time>2013-12-08T09:35:16Z</time>
      </trkpt>
      <trkpt lat="49.11337" lon="-0.10721">
        <ele>16.3999996</ele>
        <time>2013-12-08T09:35:17Z</time>
      </trkpt>
      <trkpt lat="49.11333" lon="-0.10724">
        <ele>16</ele>
        <time>2013-12-08T09:35:18Z</time>
      </trkpt>
      <trkpt lat="49.11329" lon="-0.10729">
        <ele>15.6000004</ele>
        <time>2013-12-08T09:35:19Z</time>
      </trkpt>
      <trkpt lat="49.11325" lon="-0.10734">
        <ele>15.1999998</ele>
        <time>2013-12-08T09:35:20Z</time>
      </trkpt>
      <trkpt lat="49.11323" lon="-0.1074">
        <ele>14.8000002</ele>
        <time>2013-12-08T09:35:21Z</time>
      </trkpt>
      <trkpt lat="49.11326" lon="-0.1076">
        <ele>14.8000002</ele>
        <time>2013-12-08T09:35:24Z</time>
      </trkpt>
      <trkpt lat="49.11338" lon="-0.10803">
        <ele>14.8000002</ele>
        <time>2013-12-08T09:35:31Z</time>
      </trkpt>
      <trkpt lat="49.11346" lon="-0.10833">
        <ele>15.1999998</ele>
        <time>2013-12-08T09:35:36Z</time>
      </trkpt>
      <trkpt lat="49.11348" lon="-0.10839">
        <ele>15.6000004</ele>
        <time>2013-12-08T09:35:37Z</time>
      </trkpt>
      <trkpt lat="49.11349" lon="-0.10845">
        <ele>16</ele>
        <time>2013-12-08T09:35:38Z</time>
      </trkpt>
      <trkpt lat="49.11351" lon="-0.10851">
        <ele>16.3999996</ele>
        <time>2013-12-08T09:35:39Z</time>
      </trkpt>
      <trkpt lat="49.11353" lon="-0.10857">
        <ele>16.7999992</ele>
        <time>2013-12-08T09:35:40Z</time>
      </trkpt>
      <trkpt lat="49.1136" lon="-0.10884">
        <ele>16.7999992</ele>
        <time>2013-12-08T09:35:45Z</time>
      </trkpt>
      <trkpt lat="49.11362" lon="-0.10889">
        <ele>17.2000008</ele>
        <time>2013-12-08T09:35:46Z</time>
      </trkpt>
      <trkpt lat="49.11363" lon="-0.10894">
        <ele>18</ele>
        <time>2013-12-08T09:35:47Z</time>
      </trkpt>
      <trkpt lat="49.11365" lon="-0.109">
        <ele>18.3999996</ele>
        <time>2013-12-08T09:35:48Z</time>
      </trkpt>
      <trkpt lat="49.11367" lon="-0.10905">
        <ele>18.7999992</ele>
        <time>2013-12-08T09:35:49Z</time>
      </trkpt>
      <trkpt lat="49.11371" lon="-0.10919">
        <ele>18.7999992</ele>
        <time>2013-12-08T09:35:52Z</time>
      </trkpt>
      <trkpt lat="49.11378" lon="-0.10942">
        <ele>19.3999996</ele>
        <time>2013-12-08T09:35:57Z</time>
      </trkpt>
      <trkpt lat="49.1138" lon="-0.10947">
        <ele>19.7999992</ele>
        <time>2013-12-08T09:35:58Z</time>
      </trkpt>
      <trkpt lat="49.11381" lon="-0.10951">
        <ele>20.2000008</ele>
        <time>2013-12-08T09:35:59Z</time>
      </trkpt>
      <trkpt lat="49.11383" lon="-0.10956">
        <ele>20.6000004</ele>
        <time>2013-12-08T09:36:00Z</time>
      </trkpt>
      <trkpt lat="49.11384" lon="-0.10961">
        <ele>21</ele>
        <time>2013-12-08T09:36:01Z</time>
      </trkpt>
      <trkpt lat="49.11389" lon="-0.10978">
        <ele>21</ele>
        <time>2013-12-08T09:36:05Z</time>
      </trkpt>
      <trkpt lat="49.11393" lon="-0.10991">
        <ele>21.3999996</ele>
        <time>2013-12-08T09:36:08Z</time>
      </trkpt>
      <trkpt lat="49.11395" lon="-0.10997">
        <ele>21.7999992</ele>
        <time>2013-12-08T09:36:09Z</time>
      </trkpt>
      <trkpt lat="49.11397" lon="-0.11002">
        <ele>22.3999996</ele>
        <time>2013-12-08T09:36:10Z</time>
      </trkpt>
      <trkpt lat="49.11399" lon="-0.11009">
        <ele>22.7999992</ele>
        <time>2013-12-08T09:36:11Z</time>
      </trkpt>
      <trkpt lat="49.114" lon="-0.11014">
        <ele>23.2000008</ele>
        <time>2013-12-08T09:36:12Z</time>
      </trkpt>
      <trkpt lat="49.11405" lon="-0.11032">
        <ele>23.6000004</ele>
        <time>2013-12-08T09:36:15Z</time>
      </trkpt>
      <trkpt lat="49.11407" lon="-0.11038">
        <ele>24.2000008</ele>
        <time>2013-12-08T09:36:16Z</time>
      </trkpt>
      <trkpt lat="49.11408" lon="-0.11043">
        <ele>24.6000004</ele>
        <time>2013-12-08T09:36:17Z</time>
      </trkpt>
      <trkpt lat="49.1141" lon="-0.11049">
        <ele>25</ele>
        <time>2013-12-08T09:36:18Z</time>
      </trkpt>
      <trkpt lat="49.11412" lon="-0.11055">
        <ele>25.6000004</ele>
        <time>2013-12-08T09:36:19Z</time>
      </trkpt>
      <trkpt lat="49.11416" lon="-0.11083">
        <ele>26</ele>
        <time>2013-12-08T09:36:24Z</time>
      </trkpt>
      <trkpt lat="49.11416" lon="-0.11089">
        <ele>26.3999996</ele>
        <time>2013-12-08T09:36:25Z</time>
      </trkpt>
      <trkpt lat="49.11417" lon="-0.11095">
        <ele>26.7999992</ele>
        <time>2013-12-08T09:36:26Z</time>
      </trkpt>
      <trkpt lat="49.11417" lon="-0.11101">
        <ele>27.2000008</ele>
        <time>2013-12-08T09:36:27Z</time>
      </trkpt>
      <trkpt lat="49.11418" lon="-0.11107">
        <ele>27.6000004</ele>
        <time>2013-12-08T09:36:28Z</time>
      </trkpt>
      <trkpt lat="49.11419" lon="-0.11125">
        <ele>27.6000004</ele>
        <time>2013-12-08T09:36:31Z</time>
      </trkpt>
      <trkpt lat="49.11419" lon="-0.11143">
        <ele>28</ele>
        <time>2013-12-08T09:36:34Z</time>
      </trkpt>
      <trkpt lat="49.1142" lon="-0.11149">
        <ele>28.6000004</ele>
        <time>2013-12-08T09:36:35Z</time>
      </trkpt>
      <trkpt lat="49.1142" lon="-0.11155">
        <ele>29</ele>
        <time>2013-12-08T09:36:36Z</time>
      </trkpt>
      <trkpt lat="49.11421" lon="-0.11161">
        <ele>29.7999992</ele>
        <time>2013-12-08T09:36:37Z</time>
      </trkpt>
      <trkpt lat="49.11423" lon="-0.1119">
        <ele>30.3999996</ele>
        <time>2013-12-08T09:36:42Z</time>
      </trkpt>
      <trkpt lat="49.11423" lon="-0.11196">
        <ele>30.7999992</ele>
        <time>2013-12-08T09:36:43Z</time>
      </trkpt>
      <trkpt lat="49.11424" lon="-0.11202">
        <ele>31.2000008</ele>
        <time>2013-12-08T09:36:44Z</time>
      </trkpt>
      <trkpt lat="49.11424" lon="-0.11207">
        <ele>31.6000004</ele>
        <time>2013-12-08T09:36:45Z</time>
      </trkpt>
      <trkpt lat="49.11424" lon="-0.11212">
        <ele>32</ele>
        <time>2013-12-08T09:36:46Z</time>
      </trkpt>
      <trkpt lat="49.11426" lon="-0.1124">
        <ele>32.5999985</ele>
        <time>2013-12-08T09:36:51Z</time>
      </trkpt>
      <trkpt lat="49.11426" lon="-0.11245">
        <ele>33</ele>
        <time>2013-12-08T09:36:52Z</time>
      </trkpt>
      <trkpt lat="49.11426" lon="-0.11251">
        <ele>33.4000015</ele>
        <time>2013-12-08T09:36:53Z</time>
      </trkpt>
      <trkpt lat="49.11425" lon="-0.11256">
        <ele>33.7999992</ele>
        <time>2013-12-08T09:36:54Z</time>
      </trkpt>
      <trkpt lat="49.11426" lon="-0.11262">
        <ele>34.2000008</ele>
        <time>2013-12-08T09:36:55Z</time>
      </trkpt>
      <trkpt lat="49.11426" lon="-0.11273">
        <ele>34.2000008</ele>
        <time>2013-12-08T09:36:57Z</time>
      </trkpt>
      <trkpt lat="49.11425" lon="-0.11289">
        <ele>34.5999985</ele>
        <time>2013-12-08T09:37:00Z</time>
      </trkpt>
      <trkpt lat="49.11425" lon="-0.11295">
        <ele>35.4000015</ele>
        <time>2013-12-08T09:37:01Z</time>
      </trkpt>
      <trkpt lat="49.11424" lon="-0.11301">
        <ele>35.7999992</ele>
        <time>2013-12-08T09:37:02Z</time>
      </trkpt>
      <trkpt lat="49.11424" lon="-0.11307">
        <ele>36.2000008</ele>
        <time>2013-12-08T09:37:03Z</time>
      </trkpt>
      <trkpt lat="49.11425" lon="-0.1132">
        <ele>36.2000008</ele>
        <time>2013-12-08T09:37:05Z</time>
      </trkpt>
      <trkpt lat="49.11426" lon="-0.11332">
        <ele>36.2000008</ele>
        <time>2013-12-08T09:37:07Z</time>
      </trkpt>
      <trkpt lat="49.11427" lon="-0.11339">
        <ele>36.2000008</ele>
        <time>2013-12-08T09:37:08Z</time>
      </trkpt>
      <trkpt lat="49.11429" lon="-0.11351">
        <ele>36.5999985</ele>
        <time>2013-12-08T09:37:10Z</time>
      </trkpt>
      <trkpt lat="49.1143" lon="-0.11356">
        <ele>37</ele>
        <time>2013-12-08T09:37:11Z</time>
      </trkpt>
      <trkpt lat="49.11432" lon="-0.11361">
        <ele>37.5999985</ele>
        <time>2013-12-08T09:37:12Z</time>
      </trkpt>
      <trkpt lat="49.11434" lon="-0.11367">
        <ele>38</ele>
        <time>2013-12-08T09:37:13Z</time>
      </trkpt>
      <trkpt lat="49.11436" lon="-0.11373">
        <ele>38.4000015</ele>
        <time>2013-12-08T09:37:14Z</time>
      </trkpt>
      <trkpt lat="49.11439" lon="-0.11378">
        <ele>38.4000015</ele>
        <time>2013-12-08T09:37:15Z</time>
      </trkpt>
      <trkpt lat="49.11441" lon="-0.11384">
        <ele>38.4000015</ele>
        <time>2013-12-08T09:37:16Z</time>
      </trkpt>
      <trkpt lat="49.11446" lon="-0.11401">
        <ele>38.4000015</ele>
        <time>2013-12-08T09:37:19Z</time>
      </trkpt>
      <trkpt lat="49.11446" lon="-0.11408">
        <ele>38.4000015</ele>
        <time>2013-12-08T09:37:20Z</time>
      </trkpt>
      <trkpt lat="49.11443" lon="-0.1143">
        <ele>38.4000015</ele>
        <time>2013-12-08T09:37:24Z</time>
      </trkpt>
      <trkpt lat="49.11441" lon="-0.11437">
        <ele>38.7999992</ele>
        <time>2013-12-08T09:37:25Z</time>
      </trkpt>
      <trkpt lat="49.11439" lon="-0.11443">
        <ele>39.5999985</ele>
        <time>2013-12-08T09:37:26Z</time>
      </trkpt>
      <trkpt lat="49.11437" lon="-0.1145">
        <ele>40</ele>
        <time>2013-12-08T09:37:27Z</time>
      </trkpt>
      <trkpt lat="49.11435" lon="-0.11457">
        <ele>40.5999985</ele>
        <time>2013-12-08T09:37:28Z</time>
      </trkpt>
      <trkpt lat="49.11434" lon="-0.11465">
        <ele>40.5999985</ele>
        <time>2013-12-08T09:37:29Z</time>
      </trkpt>
      <trkpt lat="49.1143" lon="-0.11503">
        <ele>40.5999985</ele>
        <time>2013-12-08T09:37:34Z</time>
      </trkpt>
      <trkpt lat="49.1143" lon="-0.11511">
        <ele>40.5999985</ele>
        <time>2013-12-08T09:37:35Z</time>
      </trkpt>
      <trkpt lat="49.11427" lon="-0.11569">
        <ele>40.5999985</ele>
        <time>2013-12-08T09:37:42Z</time>
      </trkpt>
      <trkpt lat="49.11427" lon="-0.11585">
        <ele>40.5999985</ele>
        <time>2013-12-08T09:37:44Z</time>
      </trkpt>
      <trkpt lat="49.11425" lon="-0.11611">
        <ele>40.5999985</ele>
        <time>2013-12-08T09:37:47Z</time>
      </trkpt>
      <trkpt lat="49.11424" lon="-0.11646">
        <ele>40.5999985</ele>
        <time>2013-12-08T09:37:51Z</time>
      </trkpt>
      <trkpt lat="49.11423" lon="-0.11654">
        <ele>41</ele>
        <time>2013-12-08T09:37:52Z</time>
      </trkpt>
      <trkpt lat="49.11423" lon="-0.11663">
        <ele>41.4000015</ele>
        <time>2013-12-08T09:37:53Z</time>
      </trkpt>
      <trkpt lat="49.11423" lon="-0.11671">
        <ele>41.7999992</ele>
        <time>2013-12-08T09:37:54Z</time>
      </trkpt>
      <trkpt lat="49.11423" lon="-0.1168">
        <ele>42.2000008</ele>
        <time>2013-12-08T09:37:55Z</time>
      </trkpt>
      <trkpt lat="49.11423" lon="-0.11689">
        <ele>42.7999992</ele>
        <time>2013-12-08T09:37:56Z</time>
      </trkpt>
      <trkpt lat="49.11421" lon="-0.11726">
        <ele>42.7999992</ele>
        <time>2013-12-08T09:38:00Z</time>
      </trkpt>
      <trkpt lat="49.11419" lon="-0.11791">
        <ele>42.7999992</ele>
        <time>2013-12-08T09:38:07Z</time>
      </trkpt>
      <trkpt lat="49.11418" lon="-0.11819">
        <ele>42.7999992</ele>
        <time>2013-12-08T09:38:10Z</time>
      </trkpt>
      <trkpt lat="49.11416" lon="-0.11843">
        <ele>42.7999992</ele>
        <time>2013-12-08T09:38:13Z</time>
      </trkpt>
      <trkpt lat="49.11415" lon="-0.11881">
        <ele>42.7999992</ele>
        <time>2013-12-08T09:38:19Z</time>
      </trkpt>
      <trkpt lat="49.11419" lon="-0.119">
        <ele>42.7999992</ele>
        <time>2013-12-08T09:38:23Z</time>
      </trkpt>
      <trkpt lat="49.11426" lon="-0.11902">
        <ele>42.7999992</ele>
        <time>2013-12-08T09:38:26Z</time>
      </trkpt>
      <trkpt lat="49.11447" lon="-0.11902">
        <ele>42.7999992</ele>
        <time>2013-12-08T09:38:33Z</time>
      </trkpt>
      <trkpt lat="49.11468" lon="-0.11901">
        <ele>42.7999992</ele>
        <time>2013-12-08T09:38:39Z</time>
      </trkpt>
      <trkpt lat="49.11472" lon="-0.11903">
        <ele>42.7999992</ele>
        <time>2013-12-08T09:38:40Z</time>
      </trkpt>
      <trkpt lat="49.11475" lon="-0.11911">
        <ele>42.7999992</ele>
        <time>2013-12-08T09:38:42Z</time>
      </trkpt>
      <trkpt lat="49.11473" lon="-0.11917">
        <ele>42.7999992</ele>
        <time>2013-12-08T09:38:45Z</time>
      </trkpt>
      <trkpt lat="49.11473" lon="-0.11917">
        <ele>42.7999992</ele>
        <time>2013-12-08T09:39:05Z</time>
      </trkpt>
      <trkpt lat="49.11473" lon="-0.11918">
        <ele>42.7999992</ele>
        <time>2013-12-08T09:39:06Z</time>
      </trkpt>
      <trkpt lat="49.11473" lon="-0.11919">
        <ele>42.7999992</ele>
        <time>2013-12-08T09:40:01Z</time>
      </trkpt>
      <trkpt lat="49.11474" lon="-0.1192">
        <ele>42.7999992</ele>
        <time>2013-12-08T09:40:02Z</time>
      </trkpt>
      <trkpt lat="49.11476" lon="-0.11934">
        <ele>42.7999992</ele>
        <time>2013-12-08T09:40:08Z</time>
      </trkpt>
      <trkpt lat="49.11476" lon="-0.11934">
        <ele>42.7999992</ele>
        <time>2013-12-08T09:40:12Z</time>
      </trkpt>
      <trkpt lat="49.11477" lon="-0.11942">
        <ele>42.7999992</ele>
        <time>2013-12-08T09:40:15Z</time>
      </trkpt>
      <trkpt lat="49.11476" lon="-0.11961">
        <ele>42.7999992</ele>
        <time>2013-12-08T09:40:21Z</time>
      </trkpt>
      <trkpt lat="49.11478" lon="-0.11984">
        <ele>42.7999992</ele>
        <time>2013-12-08T09:40:27Z</time>
      </trkpt>
      <trkpt lat="49.11479" lon="-0.1201">
        <ele>42.7999992</ele>
        <time>2013-12-08T09:40:33Z</time>
      </trkpt>
      <trkpt lat="49.1148" lon="-0.12034">
        <ele>42.7999992</ele>
        <time>2013-12-08T09:40:39Z</time>
      </trkpt>
      <trkpt lat="49.11482" lon="-0.12059">
        <ele>42.7999992</ele>
        <time>2013-12-08T09:40:44Z</time>
      </trkpt>
      <trkpt lat="49.11484" lon="-0.12093">
        <ele>42.7999992</ele>
        <time>2013-12-08T09:40:51Z</time>
      </trkpt>
      <trkpt lat="49.11484" lon="-0.1212">
        <ele>42.7999992</ele>
        <time>2013-12-08T09:40:56Z</time>
      </trkpt>
      <trkpt lat="49.11486" lon="-0.12151">
        <ele>42.7999992</ele>
        <time>2013-12-08T09:41:02Z</time>
      </trkpt>
      <trkpt lat="49.11487" lon="-0.12176">
        <ele>42.7999992</ele>
        <time>2013-12-08T09:41:07Z</time>
      </trkpt>
      <trkpt lat="49.11489" lon="-0.12206">
        <ele>42.7999992</ele>
        <time>2013-12-08T09:41:13Z</time>
      </trkpt>
      <trkpt lat="49.11492" lon="-0.12235">
        <ele>42.7999992</ele>
        <time>2013-12-08T09:41:18Z</time>
      </trkpt>
      <trkpt lat="49.11494" lon="-0.12273">
        <ele>42.7999992</ele>
        <time>2013-12-08T09:41:24Z</time>
      </trkpt>
      <trkpt lat="49.11497" lon="-0.12303">
        <ele>42.7999992</ele>
        <time>2013-12-08T09:41:29Z</time>
      </trkpt>
      <trkpt lat="49.11498" lon="-0.12333">
        <ele>42.7999992</ele>
        <time>2013-12-08T09:41:34Z</time>
      </trkpt>
      <trkpt lat="49.11501" lon="-0.12384">
        <ele>42.7999992</ele>
        <time>2013-12-08T09:41:42Z</time>
      </trkpt>
      <trkpt lat="49.11503" lon="-0.12419">
        <ele>42.7999992</ele>
        <time>2013-12-08T09:41:48Z</time>
      </trkpt>
      <trkpt lat="49.11503" lon="-0.1243">
        <ele>42.7999992</ele>
        <time>2013-12-08T09:41:50Z</time>
      </trkpt>
      <trkpt lat="49.11504" lon="-0.12437">
        <ele>42.7999992</ele>
        <time>2013-12-08T09:41:51Z</time>
      </trkpt>
      <trkpt lat="49.11507" lon="-0.12478">
        <ele>42.7999992</ele>
        <time>2013-12-08T09:41:57Z</time>
      </trkpt>
      <trkpt lat="49.11509" lon="-0.12516">
        <ele>42.7999992</ele>
        <time>2013-12-08T09:42:03Z</time>
      </trkpt>
      <trkpt lat="49.1151" lon="-0.12574">
        <ele>42.7999992</ele>
        <time>2013-12-08T09:42:11Z</time>
      </trkpt>
      <trkpt lat="49.1151" lon="-0.12587">
        <ele>42.7999992</ele>
        <time>2013-12-08T09:42:13Z</time>
      </trkpt>
      <trkpt lat="49.11511" lon="-0.12605">
        <ele>42.7999992</ele>
        <time>2013-12-08T09:42:16Z</time>
      </trkpt>
      <trkpt lat="49.11515" lon="-0.12645">
        <ele>42.7999992</ele>
        <time>2013-12-08T09:42:22Z</time>
      </trkpt>
      <trkpt lat="49.11515" lon="-0.12652">
        <ele>43.2000008</ele>
        <time>2013-12-08T09:42:23Z</time>
      </trkpt>
      <trkpt lat="49.11515" lon="-0.12658">
        <ele>43.5999985</ele>
        <time>2013-12-08T09:42:24Z</time>
      </trkpt>
      <trkpt lat="49.11516" lon="-0.12664">
        <ele>44</ele>
        <time>2013-12-08T09:42:25Z</time>
      </trkpt>
      <trkpt lat="49.11516" lon="-0.1267">
        <ele>44.4000015</ele>
        <time>2013-12-08T09:42:26Z</time>
      </trkpt>
      <trkpt lat="49.11517" lon="-0.12675">
        <ele>44.7999992</ele>
        <time>2013-12-08T09:42:27Z</time>
      </trkpt>
      <trkpt lat="49.11517" lon="-0.12681">
        <ele>44.7999992</ele>
        <time>2013-12-08T09:42:28Z</time>
      </trkpt>
      <trkpt lat="49.11519" lon="-0.12718">
        <ele>44.7999992</ele>
        <time>2013-12-08T09:42:34Z</time>
      </trkpt>
      <trkpt lat="49.1152" lon="-0.12724">
        <ele>44.7999992</ele>
        <time>2013-12-08T09:42:35Z</time>
      </trkpt>
      <trkpt lat="49.11521" lon="-0.1275">
        <ele>44.7999992</ele>
        <time>2013-12-08T09:42:39Z</time>
      </trkpt>
      <trkpt lat="49.11523" lon="-0.12791">
        <ele>44.7999992</ele>
        <time>2013-12-08T09:42:45Z</time>
      </trkpt>
      <trkpt lat="49.11524" lon="-0.12837">
        <ele>44.7999992</ele>
        <time>2013-12-08T09:42:51Z</time>
      </trkpt>
      <trkpt lat="49.11524" lon="-0.12872">
        <ele>44.7999992</ele>
        <time>2013-12-08T09:42:57Z</time>
      </trkpt>
      <trkpt lat="49.11525" lon="-0.12883">
        <ele>45.2000008</ele>
        <time>2013-12-08T09:42:59Z</time>
      </trkpt>
      <trkpt lat="49.11525" lon="-0.12889">
        <ele>45.5999985</ele>
        <time>2013-12-08T09:43:00Z</time>
      </trkpt>
      <trkpt lat="49.11526" lon="-0.12895">
        <ele>46.2000008</ele>
        <time>2013-12-08T09:43:01Z</time>
      </trkpt>
      <trkpt lat="49.11526" lon="-0.12902">
        <ele>46.5999985</ele>
        <time>2013-12-08T09:43:02Z</time>
      </trkpt>
      <trkpt lat="49.11526" lon="-0.12909">
        <ele>47</ele>
        <time>2013-12-08T09:43:03Z</time>
      </trkpt>
      <trkpt lat="49.11527" lon="-0.12935">
        <ele>47</ele>
        <time>2013-12-08T09:43:07Z</time>
      </trkpt>
      <trkpt lat="49.11529" lon="-0.1296">
        <ele>47</ele>
        <time>2013-12-08T09:43:11Z</time>
      </trkpt>
      <trkpt lat="49.11532" lon="-0.13005">
        <ele>47</ele>
        <time>2013-12-08T09:43:18Z</time>
      </trkpt>
      <trkpt lat="49.11534" lon="-0.1301">
        <ele>47</ele>
        <time>2013-12-08T09:43:19Z</time>
      </trkpt>
      <trkpt lat="49.11539" lon="-0.13014">
        <ele>47</ele>
        <time>2013-12-08T09:43:21Z</time>
      </trkpt>
      <trkpt lat="49.11551" lon="-0.13011">
        <ele>47</ele>
        <time>2013-12-08T09:43:26Z</time>
      </trkpt>
      <trkpt lat="49.11566" lon="-0.13007">
        <ele>47</ele>
        <time>2013-12-08T09:43:34Z</time>
      </trkpt>
      <trkpt lat="49.11577" lon="-0.13006">
        <ele>46.5999985</ele>
        <time>2013-12-08T09:43:38Z</time>
      </trkpt>
      <trkpt lat="49.11579" lon="-0.13006">
        <ele>46.2000008</ele>
        <time>2013-12-08T09:43:39Z</time>
      </trkpt>
      <trkpt lat="49.11583" lon="-0.13006">
        <ele>45.7999992</ele>
        <time>2013-12-08T09:43:40Z</time>
      </trkpt>
      <trkpt lat="49.11586" lon="-0.13006">
        <ele>45.4000015</ele>
        <time>2013-12-08T09:43:41Z</time>
      </trkpt>
      <trkpt lat="49.11589" lon="-0.13005">
        <ele>45</ele>
        <time>2013-12-08T09:43:42Z</time>
      </trkpt>
      <trkpt lat="49.11599" lon="-0.13004">
        <ele>45</ele>
        <time>2013-12-08T09:43:45Z</time>
      </trkpt>
      <trkpt lat="49.11611" lon="-0.13002">
        <ele>45</ele>
        <time>2013-12-08T09:43:48Z</time>
      </trkpt>
      <trkpt lat="49.11619" lon="-0.12999">
        <ele>45</ele>
        <time>2013-12-08T09:43:50Z</time>
      </trkpt>
      <trkpt lat="49.11624" lon="-0.12998">
        <ele>44.5999985</ele>
        <time>2013-12-08T09:43:51Z</time>
      </trkpt>
      <trkpt lat="49.11628" lon="-0.12997">
        <ele>44.2000008</ele>
        <time>2013-12-08T09:43:52Z</time>
      </trkpt>
      <trkpt lat="49.11632" lon="-0.12997">
        <ele>43.7999992</ele>
        <time>2013-12-08T09:43:53Z</time>
      </trkpt>
      <trkpt lat="49.11636" lon="-0.12997">
        <ele>43.4000015</ele>
        <time>2013-12-08T09:43:54Z</time>
      </trkpt>
      <trkpt lat="49.1164" lon="-0.12996">
        <ele>43</ele>
        <time>2013-12-08T09:43:55Z</time>
      </trkpt>
      <trkpt lat="49.11672" lon="-0.12994">
        <ele>43</ele>
        <time>2013-12-08T09:44:01Z</time>
      </trkpt>
      <trkpt lat="49.11706" lon="-0.1299">
        <ele>43</ele>
        <time>2013-12-08T09:44:07Z</time>
      </trkpt>
      <trkpt lat="49.11717" lon="-0.12988">
        <ele>42.5999985</ele>
        <time>2013-12-08T09:44:09Z</time>
      </trkpt>
      <trkpt lat="49.11723" lon="-0.12988">
        <ele>42</ele>
        <time>2013-12-08T09:44:10Z</time>
      </trkpt>
      <trkpt lat="49.11729" lon="-0.12987">
        <ele>41.5999985</ele>
        <time>2013-12-08T09:44:11Z</time>
      </trkpt>
      <trkpt lat="49.11735" lon="-0.12986">
        <ele>41.2000008</ele>
        <time>2013-12-08T09:44:12Z</time>
      </trkpt>
      <trkpt lat="49.1174" lon="-0.12985">
        <ele>40.7999992</ele>
        <time>2013-12-08T09:44:13Z</time>
      </trkpt>
      <trkpt lat="49.11751" lon="-0.12983">
        <ele>40.7999992</ele>
        <time>2013-12-08T09:44:15Z</time>
      </trkpt>
      <trkpt lat="49.11791" lon="-0.12977">
        <ele>40.7999992</ele>
        <time>2013-12-08T09:44:22Z</time>
      </trkpt>
      <trkpt lat="49.11827" lon="-0.1297">
        <ele>40.7999992</ele>
        <time>2013-12-08T09:44:28Z</time>
      </trkpt>
      <trkpt lat="49.11859" lon="-0.12964">
        <ele>40.7999992</ele>
        <time>2013-12-08T09:44:34Z</time>
      </trkpt>
      <trkpt lat="49.11864" lon="-0.12964">
        <ele>40.7999992</ele>
        <time>2013-12-08T09:44:35Z</time>
      </trkpt>
      <trkpt lat="49.11886" lon="-0.12958">
        <ele>40.7999992</ele>
        <time>2013-12-08T09:44:40Z</time>
      </trkpt>
      <trkpt lat="49.11927" lon="-0.12948">
        <ele>40.7999992</ele>
        <time>2013-12-08T09:44:48Z</time>
      </trkpt>
      <trkpt lat="49.11932" lon="-0.12947">
        <ele>40.4000015</ele>
        <time>2013-12-08T09:44:49Z</time>
      </trkpt>
      <trkpt lat="49.11937" lon="-0.12945">
        <ele>40</ele>
        <time>2013-12-08T09:44:50Z</time>
      </trkpt>
      <trkpt lat="49.11942" lon="-0.12943">
        <ele>39.2000008</ele>
        <time>2013-12-08T09:44:51Z</time>
      </trkpt>
      <trkpt lat="49.11947" lon="-0.12941">
        <ele>38.7999992</ele>
        <time>2013-12-08T09:44:52Z</time>
      </trkpt>
      <trkpt lat="49.11954" lon="-0.12939">
        <ele>38.7999992</ele>
        <time>2013-12-08T09:44:54Z</time>
      </trkpt>
      <trkpt lat="49.11961" lon="-0.1294">
        <ele>38.7999992</ele>
        <time>2013-12-08T09:44:56Z</time>
      </trkpt>
      <trkpt lat="49.11964" lon="-0.12943">
        <ele>38.7999992</ele>
        <time>2013-12-08T09:44:57Z</time>
      </trkpt>
      <trkpt lat="49.11967" lon="-0.12959">
        <ele>38.7999992</ele>
        <time>2013-12-08T09:45:00Z</time>
      </trkpt>
      <trkpt lat="49.11968" lon="-0.12965">
        <ele>38.7999992</ele>
        <time>2013-12-08T09:45:01Z</time>
      </trkpt>
      <trkpt lat="49.11968" lon="-0.12998">
        <ele>38.7999992</ele>
        <time>2013-12-08T09:45:06Z</time>
      </trkpt>
      <trkpt lat="49.11967" lon="-0.13027">
        <ele>38.4000015</ele>
        <time>2013-12-08T09:45:11Z</time>
      </trkpt>
      <trkpt lat="49.11967" lon="-0.13033">
        <ele>38</ele>
        <time>2013-12-08T09:45:12Z</time>
      </trkpt>
      <trkpt lat="49.11967" lon="-0.13039">
        <ele>37.4000015</ele>
        <time>2013-12-08T09:45:13Z</time>
      </trkpt>
      <trkpt lat="49.11966" lon="-0.13045">
        <ele>37</ele>
        <time>2013-12-08T09:45:14Z</time>
      </trkpt>
      <trkpt lat="49.11967" lon="-0.1305">
        <ele>36.5999985</ele>
        <time>2013-12-08T09:45:15Z</time>
      </trkpt>
      <trkpt lat="49.11971" lon="-0.13056">
        <ele>36.5999985</ele>
        <time>2013-12-08T09:45:17Z</time>
      </trkpt>
      <trkpt lat="49.1198" lon="-0.13059">
        <ele>36.5999985</ele>
        <time>2013-12-08T09:45:20Z</time>
      </trkpt>
      <trkpt lat="49.11982" lon="-0.13059">
        <ele>36.5999985</ele>
        <time>2013-12-08T09:45:21Z</time>
      </trkpt>
      <trkpt lat="49.11985" lon="-0.1306">
        <ele>36.5999985</ele>
        <time>2013-12-08T09:45:24Z</time>
      </trkpt>
      <trkpt lat="49.11985" lon="-0.13059">
        <ele>36.5999985</ele>
        <time>2013-12-08T09:46:22Z</time>
      </trkpt>
      <trkpt lat="49.11987" lon="-0.13058">
        <ele>36.5999985</ele>
        <time>2013-12-08T09:46:23Z</time>
      </trkpt>
      <trkpt lat="49.11993" lon="-0.13054">
        <ele>36.5999985</ele>
        <time>2013-12-08T09:46:27Z</time>
      </trkpt>
      <trkpt lat="49.12004" lon="-0.13053">
        <ele>36.5999985</ele>
        <time>2013-12-08T09:46:33Z</time>
      </trkpt>
      <trkpt lat="49.12017" lon="-0.13057">
        <ele>36.5999985</ele>
        <time>2013-12-08T09:46:38Z</time>
      </trkpt>
      <trkpt lat="49.12019" lon="-0.13059">
        <ele>36.5999985</ele>
        <time>2013-12-08T09:46:39Z</time>
      </trkpt>
      <trkpt lat="49.12028" lon="-0.13066">
        <ele>36.5999985</ele>
        <time>2013-12-08T09:46:42Z</time>
      </trkpt>
      <trkpt lat="49.12056" lon="-0.13087">
        <ele>36.5999985</ele>
        <time>2013-12-08T09:46:50Z</time>
      </trkpt>
      <trkpt lat="49.12082" lon="-0.1311">
        <ele>36.5999985</ele>
        <time>2013-12-08T09:46:58Z</time>
      </trkpt>
      <trkpt lat="49.12096" lon="-0.13124">
        <ele>36.5999985</ele>
        <time>2013-12-08T09:47:02Z</time>
      </trkpt>
      <trkpt lat="49.12106" lon="-0.13132">
        <ele>36.5999985</ele>
        <time>2013-12-08T09:47:05Z</time>
      </trkpt>
      <trkpt lat="49.12132" lon="-0.13149">
        <ele>36.5999985</ele>
        <time>2013-12-08T09:47:12Z</time>
      </trkpt>
      <trkpt lat="49.1216" lon="-0.13153">
        <ele>36.5999985</ele>
        <time>2013-12-08T09:47:19Z</time>
      </trkpt>
      <trkpt lat="49.12184" lon="-0.13151">
        <ele>36.5999985</ele>
        <time>2013-12-08T09:47:25Z</time>
      </trkpt>
      <trkpt lat="49.12204" lon="-0.13149">
        <ele>36.5999985</ele>
        <time>2013-12-08T09:47:31Z</time>
      </trkpt>
      <trkpt lat="49.12212" lon="-0.13147">
        <ele>37</ele>
        <time>2013-12-08T09:47:34Z</time>
      </trkpt>
      <trkpt lat="49.12214" lon="-0.13146">
        <ele>37.4000015</ele>
        <time>2013-12-08T09:47:35Z</time>
      </trkpt>
      <trkpt lat="49.12216" lon="-0.13145">
        <ele>37.7999992</ele>
        <time>2013-12-08T09:47:36Z</time>
      </trkpt>
      <trkpt lat="49.12218" lon="-0.13143">
        <ele>38.4000015</ele>
        <time>2013-12-08T09:47:37Z</time>
      </trkpt>
      <trkpt lat="49.1222" lon="-0.13142">
        <ele>38.7999992</ele>
        <time>2013-12-08T09:47:38Z</time>
      </trkpt>
      <trkpt lat="49.12229" lon="-0.1314">
        <ele>38.7999992</ele>
        <time>2013-12-08T09:47:41Z</time>
      </trkpt>
      <trkpt lat="49.12237" lon="-0.13138">
        <ele>38.7999992</ele>
        <time>2013-12-08T09:47:43Z</time>
      </trkpt>
      <trkpt lat="49.12246" lon="-0.13134">
        <ele>38.7999992</ele>
        <time>2013-12-08T09:47:45Z</time>
      </trkpt>
      <trkpt lat="49.12283" lon="-0.1311">
        <ele>38.7999992</ele>
        <time>2013-12-08T09:47:53Z</time>
      </trkpt>
      <trkpt lat="49.12312" lon="-0.13091">
        <ele>38.7999992</ele>
        <time>2013-12-08T09:47:59Z</time>
      </trkpt>
      <trkpt lat="49.12316" lon="-0.13088">
        <ele>38.7999992</ele>
        <time>2013-12-08T09:48:00Z</time>
      </trkpt>
      <trkpt lat="49.12335" lon="-0.13076">
        <ele>38.2000008</ele>
        <time>2013-12-08T09:48:04Z</time>
      </trkpt>
      <trkpt lat="49.12339" lon="-0.13073">
        <ele>37.7999992</ele>
        <time>2013-12-08T09:48:05Z</time>
      </trkpt>
      <trkpt lat="49.12344" lon="-0.13069">
        <ele>37.4000015</ele>
        <time>2013-12-08T09:48:06Z</time>
      </trkpt>
      <trkpt lat="49.12349" lon="-0.13066">
        <ele>37</ele>
        <time>2013-12-08T09:48:07Z</time>
      </trkpt>
      <trkpt lat="49.12353" lon="-0.13063">
        <ele>36.5999985</ele>
        <time>2013-12-08T09:48:08Z</time>
      </trkpt>
      <trkpt lat="49.12371" lon="-0.13056">
        <ele>36.5999985</ele>
        <time>2013-12-08T09:48:12Z</time>
      </trkpt>
      <trkpt lat="49.12391" lon="-0.13055">
        <ele>36.5999985</ele>
        <time>2013-12-08T09:48:16Z</time>
      </trkpt>
      <trkpt lat="49.12395" lon="-0.13055">
        <ele>36.5999985</ele>
        <time>2013-12-08T09:48:17Z</time>
      </trkpt>
      <trkpt lat="49.12427" lon="-0.13057">
        <ele>36.5999985</ele>
        <time>2013-12-08T09:48:24Z</time>
      </trkpt>
      <trkpt lat="49.12456" lon="-0.13065">
        <ele>36.5999985</ele>
        <time>2013-12-08T09:48:30Z</time>
      </trkpt>
      <trkpt lat="49.12488" lon="-0.13074">
        <ele>36.5999985</ele>
        <time>2013-12-08T09:48:36Z</time>
      </trkpt>
      <trkpt lat="49.12504" lon="-0.13078">
        <ele>36.5999985</ele>
        <time>2013-12-08T09:48:39Z</time>
      </trkpt>
      <trkpt lat="49.12515" lon="-0.13084">
        <ele>36.5999985</ele>
        <time>2013-12-08T09:48:41Z</time>
      </trkpt>
      <trkpt lat="49.1252" lon="-0.13088">
        <ele>36.5999985</ele>
        <time>2013-12-08T09:48:42Z</time>
      </trkpt>
      <trkpt lat="49.12533" lon="-0.13102">
        <ele>36.5999985</ele>
        <time>2013-12-08T09:48:45Z</time>
      </trkpt>
      <trkpt lat="49.12536" lon="-0.13106">
        <ele>36.5999985</ele>
        <time>2013-12-08T09:48:46Z</time>
      </trkpt>
      <trkpt lat="49.12543" lon="-0.13115">
        <ele>36.5999985</ele>
        <time>2013-12-08T09:48:48Z</time>
      </trkpt>
      <trkpt lat="49.12551" lon="-0.13132">
        <ele>36.5999985</ele>
        <time>2013-12-08T09:48:51Z</time>
      </trkpt>
      <trkpt lat="49.12554" lon="-0.13138">
        <ele>36.5999985</ele>
        <time>2013-12-08T09:48:52Z</time>
      </trkpt>
      <trkpt lat="49.12565" lon="-0.13166">
        <ele>36.5999985</ele>
        <time>2013-12-08T09:48:57Z</time>
      </trkpt>
      <trkpt lat="49.12571" lon="-0.13199">
        <ele>37</ele>
        <time>2013-12-08T09:49:02Z</time>
      </trkpt>
      <trkpt lat="49.12572" lon="-0.13206">
        <ele>37.4000015</ele>
        <time>2013-12-08T09:49:03Z</time>
      </trkpt>
      <trkpt lat="49.12572" lon="-0.13213">
        <ele>38</ele>
        <time>2013-12-08T09:49:04Z</time>
      </trkpt>
      <trkpt lat="49.12573" lon="-0.13221">
        <ele>38.4000015</ele>
        <time>2013-12-08T09:49:05Z</time>
      </trkpt>
      <trkpt lat="49.12575" lon="-0.13228">
        <ele>38.7999992</ele>
        <time>2013-12-08T09:49:06Z</time>
      </trkpt>
      <trkpt lat="49.12581" lon="-0.13258">
        <ele>38.7999992</ele>
        <time>2013-12-08T09:49:10Z</time>
      </trkpt>
      <trkpt lat="49.12592" lon="-0.13306">
        <ele>38.7999992</ele>
        <time>2013-12-08T09:49:17Z</time>
      </trkpt>
      <trkpt lat="49.12604" lon="-0.13365">
        <ele>38.7999992</ele>
        <time>2013-12-08T09:49:25Z</time>
      </trkpt>
      <trkpt lat="49.12611" lon="-0.13403">
        <ele>38.7999992</ele>
        <time>2013-12-08T09:49:30Z</time>
      </trkpt>
      <trkpt lat="49.12613" lon="-0.1341">
        <ele>38.7999992</ele>
        <time>2013-12-08T09:49:31Z</time>
      </trkpt>
      <trkpt lat="49.1262" lon="-0.13454">
        <ele>38.7999992</ele>
        <time>2013-12-08T09:49:37Z</time>
      </trkpt>
      <trkpt lat="49.12625" lon="-0.13499">
        <ele>38.7999992</ele>
        <time>2013-12-08T09:49:43Z</time>
      </trkpt>
      <trkpt lat="49.12627" lon="-0.13521">
        <ele>39.5999985</ele>
        <time>2013-12-08T09:49:46Z</time>
      </trkpt>
      <trkpt lat="49.12627" lon="-0.13528">
        <ele>40</ele>
        <time>2013-12-08T09:49:47Z</time>
      </trkpt>
      <trkpt lat="49.12627" lon="-0.13535">
        <ele>40.4000015</ele>
        <time>2013-12-08T09:49:48Z</time>
      </trkpt>
      <trkpt lat="49.12628" lon="-0.13542">
        <ele>41</ele>
        <time>2013-12-08T09:49:49Z</time>
      </trkpt>
      <trkpt lat="49.12629" lon="-0.13549">
        <ele>41</ele>
        <time>2013-12-08T09:49:50Z</time>
      </trkpt>
      <trkpt lat="49.12634" lon="-0.13605">
        <ele>41.4000015</ele>
        <time>2013-12-08T09:49:58Z</time>
      </trkpt>
      <trkpt lat="49.12634" lon="-0.13612">
        <ele>41.7999992</ele>
        <time>2013-12-08T09:49:59Z</time>
      </trkpt>
      <trkpt lat="49.12635" lon="-0.13619">
        <ele>42.2000008</ele>
        <time>2013-12-08T09:50:00Z</time>
      </trkpt>
      <trkpt lat="49.12635" lon="-0.13627">
        <ele>42.5999985</ele>
        <time>2013-12-08T09:50:01Z</time>
      </trkpt>
      <trkpt lat="49.12635" lon="-0.13635">
        <ele>43</ele>
        <time>2013-12-08T09:50:02Z</time>
      </trkpt>
      <trkpt lat="49.12636" lon="-0.13649">
        <ele>43</ele>
        <time>2013-12-08T09:50:04Z</time>
      </trkpt>
      <trkpt lat="49.12641" lon="-0.13699">
        <ele>43.7999992</ele>
        <time>2013-12-08T09:50:11Z</time>
      </trkpt>
      <trkpt lat="49.12641" lon="-0.13706">
        <ele>44.2000008</ele>
        <time>2013-12-08T09:50:12Z</time>
      </trkpt>
      <trkpt lat="49.12642" lon="-0.13713">
        <ele>44.5999985</ele>
        <time>2013-12-08T09:50:13Z</time>
      </trkpt>
      <trkpt lat="49.12642" lon="-0.1372">
        <ele>45.2000008</ele>
        <time>2013-12-08T09:50:14Z</time>
      </trkpt>
      <trkpt lat="49.12644" lon="-0.13741">
        <ele>45.2000008</ele>
        <time>2013-12-08T09:50:17Z</time>
      </trkpt>
      <trkpt lat="49.12645" lon="-0.13747">
        <ele>45.2000008</ele>
        <time>2013-12-08T09:50:18Z</time>
      </trkpt>
      <trkpt lat="49.12651" lon="-0.13772">
        <ele>45.5999985</ele>
        <time>2013-12-08T09:50:22Z</time>
      </trkpt>
      <trkpt lat="49.12653" lon="-0.13778">
        <ele>46</ele>
        <time>2013-12-08T09:50:23Z</time>
      </trkpt>
      <trkpt lat="49.12655" lon="-0.13784">
        <ele>46.4000015</ele>
        <time>2013-12-08T09:50:24Z</time>
      </trkpt>
      <trkpt lat="49.12657" lon="-0.1379">
        <ele>46.7999992</ele>
        <time>2013-12-08T09:50:25Z</time>
      </trkpt>
      <trkpt lat="49.12658" lon="-0.13796">
        <ele>47.2000008</ele>
        <time>2013-12-08T09:50:26Z</time>
      </trkpt>
      <trkpt lat="49.12662" lon="-0.13815">
        <ele>47.2000008</ele>
        <time>2013-12-08T09:50:29Z</time>
      </trkpt>
      <trkpt lat="49.12672" lon="-0.13847">
        <ele>47.2000008</ele>
        <time>2013-12-08T09:50:34Z</time>
      </trkpt>
      <trkpt lat="49.12674" lon="-0.13864">
        <ele>47.2000008</ele>
        <time>2013-12-08T09:50:38Z</time>
      </trkpt>
      <trkpt lat="49.12673" lon="-0.13867">
        <ele>47.2000008</ele>
        <time>2013-12-08T09:50:40Z</time>
      </trkpt>
      <trkpt lat="49.12673" lon="-0.1387">
        <ele>47.2000008</ele>
        <time>2013-12-08T09:51:33Z</time>
      </trkpt>
      <trkpt lat="49.12673" lon="-0.13873">
        <ele>47.2000008</ele>
        <time>2013-12-08T09:51:35Z</time>
      </trkpt>
      <trkpt lat="49.12674" lon="-0.13887">
        <ele>47.2000008</ele>
        <time>2013-12-08T09:51:39Z</time>
      </trkpt>
      <trkpt lat="49.12674" lon="-0.13895">
        <ele>47.2000008</ele>
        <time>2013-12-08T09:51:41Z</time>
      </trkpt>
      <trkpt lat="49.12675" lon="-0.13921">
        <ele>47.2000008</ele>
        <time>2013-12-08T09:51:45Z</time>
      </trkpt>
      <trkpt lat="49.12676" lon="-0.13928">
        <ele>47.2000008</ele>
        <time>2013-12-08T09:51:46Z</time>
      </trkpt>
      <trkpt lat="49.12679" lon="-0.13953">
        <ele>47.2000008</ele>
        <time>2013-12-08T09:51:50Z</time>
      </trkpt>
      <trkpt lat="49.12685" lon="-0.13982">
        <ele>47.2000008</ele>
        <time>2013-12-08T09:51:55Z</time>
      </trkpt>
      <trkpt lat="49.12696" lon="-0.14008">
        <ele>47.2000008</ele>
        <time>2013-12-08T09:52:00Z</time>
      </trkpt>
      <trkpt lat="49.12704" lon="-0.14034">
        <ele>47.2000008</ele>
        <time>2013-12-08T09:52:04Z</time>
      </trkpt>
      <trkpt lat="49.12705" lon="-0.14042">
        <ele>47.2000008</ele>
        <time>2013-12-08T09:52:05Z</time>
      </trkpt>
      <trkpt lat="49.12706" lon="-0.14063">
        <ele>47.5999985</ele>
        <time>2013-12-08T09:52:08Z</time>
      </trkpt>
      <trkpt lat="49.12706" lon="-0.14068">
        <ele>48</ele>
        <time>2013-12-08T09:52:09Z</time>
      </trkpt>
      <trkpt lat="49.12706" lon="-0.14073">
        <ele>48.4000015</ele>
        <time>2013-12-08T09:52:10Z</time>
      </trkpt>
      <trkpt lat="49.12706" lon="-0.14079">
        <ele>48.7999992</ele>
        <time>2013-12-08T09:52:11Z</time>
      </trkpt>
      <trkpt lat="49.12706" lon="-0.14084">
        <ele>49.2000008</ele>
        <time>2013-12-08T09:52:12Z</time>
      </trkpt>
      <trkpt lat="49.12706" lon="-0.141">
        <ele>49.2000008</ele>
        <time>2013-12-08T09:52:15Z</time>
      </trkpt>
      <trkpt lat="49.12706" lon="-0.14136">
        <ele>49.2000008</ele>
        <time>2013-12-08T09:52:21Z</time>
      </trkpt>
      <trkpt lat="49.12706" lon="-0.14164">
        <ele>49.2000008</ele>
        <time>2013-12-08T09:52:25Z</time>
      </trkpt>
      <trkpt lat="49.12706" lon="-0.14183">
        <ele>49.2000008</ele>
        <time>2013-12-08T09:52:28Z</time>
      </trkpt>
      <trkpt lat="49.1271" lon="-0.14228">
        <ele>49.2000008</ele>
        <time>2013-12-08T09:52:35Z</time>
      </trkpt>
      <trkpt lat="49.12713" lon="-0.14255">
        <ele>49.2000008</ele>
        <time>2013-12-08T09:52:40Z</time>
      </trkpt>
      <trkpt lat="49.12716" lon="-0.14271">
        <ele>49.5999985</ele>
        <time>2013-12-08T09:52:43Z</time>
      </trkpt>
      <trkpt lat="49.12716" lon="-0.14276">
        <ele>50</ele>
        <time>2013-12-08T09:52:44Z</time>
      </trkpt>
      <trkpt lat="49.12716" lon="-0.1428">
        <ele>50.4000015</ele>
        <time>2013-12-08T09:52:45Z</time>
      </trkpt>
      <trkpt lat="49.12716" lon="-0.14285">
        <ele>50.7999992</ele>
        <time>2013-12-08T09:52:46Z</time>
      </trkpt>
      <trkpt lat="49.12716" lon="-0.1429">
        <ele>51.2000008</ele>
        <time>2013-12-08T09:52:47Z</time>
      </trkpt>
      <trkpt lat="49.12716" lon="-0.14296">
        <ele>51.2000008</ele>
        <time>2013-12-08T09:52:48Z</time>
      </trkpt>
      <trkpt lat="49.12718" lon="-0.14321">
        <ele>51.2000008</ele>
        <time>2013-12-08T09:52:53Z</time>
      </trkpt>
      <trkpt lat="49.12726" lon="-0.14344">
        <ele>51.2000008</ele>
        <time>2013-12-08T09:52:59Z</time>
      </trkpt>
      <trkpt lat="49.12732" lon="-0.14363">
        <ele>52</ele>
        <time>2013-12-08T09:53:04Z</time>
      </trkpt>
      <trkpt lat="49.12734" lon="-0.14367">
        <ele>52.4000015</ele>
        <time>2013-12-08T09:53:05Z</time>
      </trkpt>
      <trkpt lat="49.12735" lon="-0.14371">
        <ele>52.7999992</ele>
        <time>2013-12-08T09:53:06Z</time>
      </trkpt>
      <trkpt lat="49.12737" lon="-0.14375">
        <ele>53.2000008</ele>
        <time>2013-12-08T09:53:07Z</time>
      </trkpt>
      <trkpt lat="49.1274" lon="-0.14391">
        <ele>53.2000008</ele>
        <time>2013-12-08T09:53:10Z</time>
      </trkpt>
      <trkpt lat="49.12747" lon="-0.14421">
        <ele>53.2000008</ele>
        <time>2013-12-08T09:53:16Z</time>
      </trkpt>
      <trkpt lat="49.12748" lon="-0.1443">
        <ele>53.5999985</ele>
        <time>2013-12-08T09:53:18Z</time>
      </trkpt>
      <trkpt lat="49.12749" lon="-0.14436">
        <ele>54</ele>
        <time>2013-12-08T09:53:19Z</time>
      </trkpt>
      <trkpt lat="49.12749" lon="-0.14441">
        <ele>54.4000015</ele>
        <time>2013-12-08T09:53:20Z</time>
      </trkpt>
      <trkpt lat="49.1275" lon="-0.14446">
        <ele>54.7999992</ele>
        <time>2013-12-08T09:53:21Z</time>
      </trkpt>
      <trkpt lat="49.12751" lon="-0.14451">
        <ele>55.2000008</ele>
        <time>2013-12-08T09:53:22Z</time>
      </trkpt>
      <trkpt lat="49.12751" lon="-0.14456">
        <ele>55.2000008</ele>
        <time>2013-12-08T09:53:23Z</time>
      </trkpt>
      <trkpt lat="49.12753" lon="-0.14475">
        <ele>55.2000008</ele>
        <time>2013-12-08T09:53:28Z</time>
      </trkpt>
      <trkpt lat="49.12755" lon="-0.14478">
        <ele>55.2000008</ele>
        <time>2013-12-08T09:53:29Z</time>
      </trkpt>
      <trkpt lat="49.12757" lon="-0.1448">
        <ele>55.2000008</ele>
        <time>2013-12-08T09:53:33Z</time>
      </trkpt>
      <trkpt lat="49.12757" lon="-0.1448">
        <ele>55.2000008</ele>
        <time>2013-12-08T09:54:03Z</time>
      </trkpt>
      <trkpt lat="49.12764" lon="-0.14483">
        <ele>55.2000008</ele>
        <time>2013-12-08T09:54:07Z</time>
      </trkpt>
      <trkpt lat="49.12773" lon="-0.14485">
        <ele>55.7999992</ele>
        <time>2013-12-08T09:54:10Z</time>
      </trkpt>
      <trkpt lat="49.12776" lon="-0.14486">
        <ele>56.2000008</ele>
        <time>2013-12-08T09:54:11Z</time>
      </trkpt>
      <trkpt lat="49.1278" lon="-0.14487">
        <ele>56.5999985</ele>
        <time>2013-12-08T09:54:12Z</time>
      </trkpt>
      <trkpt lat="49.12783" lon="-0.14487">
        <ele>57</ele>
        <time>2013-12-08T09:54:13Z</time>
      </trkpt>
      <trkpt lat="49.12786" lon="-0.14488">
        <ele>57.4000015</ele>
        <time>2013-12-08T09:54:14Z</time>
      </trkpt>
      <trkpt lat="49.12803" lon="-0.14493">
        <ele>57.4000015</ele>
        <time>2013-12-08T09:54:20Z</time>
      </trkpt>
      <trkpt lat="49.1283" lon="-0.14502">
        <ele>57.7999992</ele>
        <time>2013-12-08T09:54:28Z</time>
      </trkpt>
      <trkpt lat="49.12834" lon="-0.14504">
        <ele>58.4000015</ele>
        <time>2013-12-08T09:54:29Z</time>
      </trkpt>
      <trkpt lat="49.12838" lon="-0.14505">
        <ele>58.7999992</ele>
        <time>2013-12-08T09:54:30Z</time>
      </trkpt>
      <trkpt lat="49.12841" lon="-0.14507">
        <ele>59.2000008</ele>
        <time>2013-12-08T09:54:31Z</time>
      </trkpt>
      <trkpt lat="49.12845" lon="-0.14508">
        <ele>59.5999985</ele>
        <time>2013-12-08T09:54:32Z</time>
      </trkpt>
      <trkpt lat="49.12857" lon="-0.14513">
        <ele>59.5999985</ele>
        <time>2013-12-08T09:54:35Z</time>
      </trkpt>
      <trkpt lat="49.12883" lon="-0.14525">
        <ele>59.5999985</ele>
        <time>2013-12-08T09:54:42Z</time>
      </trkpt>
      <trkpt lat="49.129" lon="-0.14533">
        <ele>59.5999985</ele>
        <time>2013-12-08T09:54:48Z</time>
      </trkpt>
      <trkpt lat="49.12908" lon="-0.14537">
        <ele>59.5999985</ele>
        <time>2013-12-08T09:54:53Z</time>
      </trkpt>
      <trkpt lat="49.12912" lon="-0.14539">
        <ele>59.5999985</ele>
        <time>2013-12-08T09:54:58Z</time>
      </trkpt>
      <trkpt lat="49.1292" lon="-0.14544">
        <ele>59.5999985</ele>
        <time>2013-12-08T09:55:02Z</time>
      </trkpt>
      <trkpt lat="49.12941" lon="-0.14551">
        <ele>59.5999985</ele>
        <time>2013-12-08T09:55:08Z</time>
      </trkpt>
      <trkpt lat="49.12961" lon="-0.1456">
        <ele>59.5999985</ele>
        <time>2013-12-08T09:55:14Z</time>
      </trkpt>
      <trkpt lat="49.12968" lon="-0.14564">
        <ele>59.5999985</ele>
        <time>2013-12-08T09:55:18Z</time>
      </trkpt>
      <trkpt lat="49.12974" lon="-0.14566">
        <ele>59.5999985</ele>
        <time>2013-12-08T09:55:23Z</time>
      </trkpt>
      <trkpt lat="49.12991" lon="-0.1457">
        <ele>59.5999985</ele>
        <time>2013-12-08T09:55:28Z</time>
      </trkpt>
      <trkpt lat="49.13005" lon="-0.14582">
        <ele>59.5999985</ele>
        <time>2013-12-08T09:55:33Z</time>
      </trkpt>
      <trkpt lat="49.13024" lon="-0.14591">
        <ele>59.5999985</ele>
        <time>2013-12-08T09:55:38Z</time>
      </trkpt>
      <trkpt lat="49.13039" lon="-0.14606">
        <ele>59.5999985</ele>
        <time>2013-12-08T09:55:43Z</time>
      </trkpt>
      <trkpt lat="49.13055" lon="-0.14621">
        <ele>59.5999985</ele>
        <time>2013-12-08T09:55:48Z</time>
      </trkpt>
      <trkpt lat="49.13062" lon="-0.14628">
        <ele>59</ele>
        <time>2013-12-08T09:55:50Z</time>
      </trkpt>
      <trkpt lat="49.13066" lon="-0.14632">
        <ele>58.5999985</ele>
        <time>2013-12-08T09:55:51Z</time>
      </trkpt>
      <trkpt lat="49.1307" lon="-0.14635">
        <ele>58.2000008</ele>
        <time>2013-12-08T09:55:52Z</time>
      </trkpt>
      <trkpt lat="49.13074" lon="-0.14638">
        <ele>57.7999992</ele>
        <time>2013-12-08T09:55:53Z</time>
      </trkpt>
      <trkpt lat="49.13077" lon="-0.14641">
        <ele>57.4000015</ele>
        <time>2013-12-08T09:55:54Z</time>
      </trkpt>
      <trkpt lat="49.13096" lon="-0.14662">
        <ele>57.4000015</ele>
        <time>2013-12-08T09:56:00Z</time>
      </trkpt>
      <trkpt lat="49.13112" lon="-0.1468">
        <ele>57</ele>
        <time>2013-12-08T09:56:05Z</time>
      </trkpt>
      <trkpt lat="49.13115" lon="-0.14683">
        <ele>56.5999985</ele>
        <time>2013-12-08T09:56:06Z</time>
      </trkpt>
      <trkpt lat="49.13118" lon="-0.14687">
        <ele>56.2000008</ele>
        <time>2013-12-08T09:56:07Z</time>
      </trkpt>
      <trkpt lat="49.13121" lon="-0.14689">
        <ele>55.7999992</ele>
        <time>2013-12-08T09:56:08Z</time>
      </trkpt>
      <trkpt lat="49.13124" lon="-0.14691">
        <ele>55.4000015</ele>
        <time>2013-12-08T09:56:09Z</time>
      </trkpt>
      <trkpt lat="49.1313" lon="-0.14697">
        <ele>55.4000015</ele>
        <time>2013-12-08T09:56:11Z</time>
      </trkpt>
      <trkpt lat="49.1314" lon="-0.14706">
        <ele>55.4000015</ele>
        <time>2013-12-08T09:56:15Z</time>
      </trkpt>
      <trkpt lat="49.13143" lon="-0.1471">
        <ele>55.4000015</ele>
        <time>2013-12-08T09:56:17Z</time>
      </trkpt>
      <trkpt lat="49.13149" lon="-0.14719">
        <ele>55.4000015</ele>
        <time>2013-12-08T09:56:20Z</time>
      </trkpt>
      <trkpt lat="49.13158" lon="-0.14729">
        <ele>55.4000015</ele>
        <time>2013-12-08T09:56:25Z</time>
      </trkpt>
      <trkpt lat="49.1317" lon="-0.14742">
        <ele>55.4000015</ele>
        <time>2013-12-08T09:56:31Z</time>
      </trkpt>
      <trkpt lat="49.13183" lon="-0.14758">
        <ele>54.7999992</ele>
        <time>2013-12-08T09:56:39Z</time>
      </trkpt>
      <trkpt lat="49.13185" lon="-0.14761">
        <ele>54.4000015</ele>
        <time>2013-12-08T09:56:40Z</time>
      </trkpt>
      <trkpt lat="49.13187" lon="-0.14762">
        <ele>54</ele>
        <time>2013-12-08T09:56:41Z</time>
      </trkpt>
      <trkpt lat="49.13189" lon="-0.14764">
        <ele>53.5999985</ele>
        <time>2013-12-08T09:56:42Z</time>
      </trkpt>
      <trkpt lat="49.13191" lon="-0.14766">
        <ele>53.2000008</ele>
        <time>2013-12-08T09:56:43Z</time>
      </trkpt>
      <trkpt lat="49.13193" lon="-0.14767">
        <ele>53.2000008</ele>
        <time>2013-12-08T09:56:44Z</time>
      </trkpt>
      <trkpt lat="49.132" lon="-0.14779">
        <ele>53.2000008</ele>
        <time>2013-12-08T09:56:49Z</time>
      </trkpt>
      <trkpt lat="49.13203" lon="-0.14782">
        <ele>53.2000008</ele>
        <time>2013-12-08T09:56:51Z</time>
      </trkpt>
      <trkpt lat="49.13207" lon="-0.14784">
        <ele>53.2000008</ele>
        <time>2013-12-08T09:56:54Z</time>
      </trkpt>
      <trkpt lat="49.1321" lon="-0.14786">
        <ele>53.2000008</ele>
        <time>2013-12-08T09:56:56Z</time>
      </trkpt>
      <trkpt lat="49.13218" lon="-0.14797">
        <ele>53.2000008</ele>
        <time>2013-12-08T09:56:59Z</time>
      </trkpt>
      <trkpt lat="49.13225" lon="-0.14804">
        <ele>53.2000008</ele>
        <time>2013-12-08T09:57:02Z</time>
      </trkpt>
      <trkpt lat="49.13229" lon="-0.14809">
        <ele>53.2000008</ele>
        <time>2013-12-08T09:57:04Z</time>
      </trkpt>
      <trkpt lat="49.13232" lon="-0.14815">
        <ele>53.2000008</ele>
        <time>2013-12-08T09:57:06Z</time>
      </trkpt>
      <trkpt lat="49.13233" lon="-0.14816">
        <ele>53.2000008</ele>
        <time>2013-12-08T09:57:08Z</time>
      </trkpt>
      <trkpt lat="49.13234" lon="-0.14817">
        <ele>53.2000008</ele>
        <time>2013-12-08T09:57:09Z</time>
      </trkpt>
      <trkpt lat="49.13235" lon="-0.14819">
        <ele>53.2000008</ele>
        <time>2013-12-08T09:59:12Z</time>
      </trkpt>
      <trkpt lat="49.13235" lon="-0.14819">
        <ele>53.2000008</ele>
        <time>2013-12-08T09:59:13Z</time>
      </trkpt>
      <trkpt lat="49.13235" lon="-0.14819">
        <ele>53.2000008</ele>
        <time>2013-12-08T09:59:15Z</time>
      </trkpt>
      <trkpt lat="49.13235" lon="-0.14819">
        <ele>53.2000008</ele>
        <time>2013-12-08T09:59:16Z</time>
      </trkpt>
      <trkpt lat="49.13247" lon="-0.14832">
        <ele>53.2000008</ele>
        <time>2013-12-08T09:59:22Z</time>
      </trkpt>
      <trkpt lat="49.13267" lon="-0.1485">
        <ele>53.2000008</ele>
        <time>2013-12-08T09:59:27Z</time>
      </trkpt>
      <trkpt lat="49.1328" lon="-0.14865">
        <ele>53.2000008</ele>
        <time>2013-12-08T09:59:31Z</time>
      </trkpt>
      <trkpt lat="49.13289" lon="-0.14875">
        <ele>53.2000008</ele>
        <time>2013-12-08T09:59:34Z</time>
      </trkpt>
      <trkpt lat="49.13295" lon="-0.14879">
        <ele>53.2000008</ele>
        <time>2013-12-08T09:59:36Z</time>
      </trkpt>
      <trkpt lat="49.13309" lon="-0.14889">
        <ele>53.2000008</ele>
        <time>2013-12-08T09:59:41Z</time>
      </trkpt>
      <trkpt lat="49.1332" lon="-0.14903">
        <ele>53.2000008</ele>
        <time>2013-12-08T09:59:46Z</time>
      </trkpt>
      <trkpt lat="49.13332" lon="-0.14916">
        <ele>53.2000008</ele>
        <time>2013-12-08T09:59:51Z</time>
      </trkpt>
      <trkpt lat="49.13346" lon="-0.14929">
        <ele>53.2000008</ele>
        <time>2013-12-08T09:59:56Z</time>
      </trkpt>
      <trkpt lat="49.13373" lon="-0.14965">
        <ele>53.2000008</ele>
        <time>2013-12-08T10:00:03Z</time>
      </trkpt>
      <trkpt lat="49.1338" lon="-0.14975">
        <ele>53.2000008</ele>
        <time>2013-12-08T10:00:08Z</time>
      </trkpt>
      <trkpt lat="49.1338" lon="-0.14976">
        <ele>53.2000008</ele>
        <time>2013-12-08T10:00:17Z</time>
      </trkpt>
      <trkpt lat="49.13383" lon="-0.14982">
        <ele>53.2000008</ele>
        <time>2013-12-08T10:00:21Z</time>
      </trkpt>
      <trkpt lat="49.13383" lon="-0.14983">
        <ele>53.2000008</ele>
        <time>2013-12-08T10:00:23Z</time>
      </trkpt>
      <trkpt lat="49.13384" lon="-0.14983">
        <ele>53.2000008</ele>
        <time>2013-12-08T10:00:24Z</time>
      </trkpt>
      <trkpt lat="49.13384" lon="-0.14983">
        <ele>53.2000008</ele>
        <time>2013-12-08T10:00:33Z</time>
      </trkpt>
      <trkpt lat="49.13384" lon="-0.14984">
        <ele>53.2000008</ele>
        <time>2013-12-08T10:00:34Z</time>
      </trkpt>
      <trkpt lat="49.13383" lon="-0.14987">
        <ele>53.2000008</ele>
        <time>2013-12-08T10:00:36Z</time>
      </trkpt>
      <trkpt lat="49.13381" lon="-0.14995">
        <ele>53.2000008</ele>
        <time>2013-12-08T10:00:40Z</time>
      </trkpt>
      <trkpt lat="49.13377" lon="-0.15006">
        <ele>53.2000008</ele>
        <time>2013-12-08T10:00:45Z</time>
      </trkpt>
      <trkpt lat="49.13371" lon="-0.15024">
        <ele>53.2000008</ele>
        <time>2013-12-08T10:00:51Z</time>
      </trkpt>
      <trkpt lat="49.13368" lon="-0.15031">
        <ele>53.5999985</ele>
        <time>2013-12-08T10:00:53Z</time>
      </trkpt>
      <trkpt lat="49.13366" lon="-0.15035">
        <ele>54</ele>
        <time>2013-12-08T10:00:54Z</time>
      </trkpt>
      <trkpt lat="49.13364" lon="-0.15039">
        <ele>54.4000015</ele>
        <time>2013-12-08T10:00:55Z</time>
      </trkpt>
      <trkpt lat="49.13363" lon="-0.15043">
        <ele>54.7999992</ele>
        <time>2013-12-08T10:00:56Z</time>
      </trkpt>
      <trkpt lat="49.13361" lon="-0.15046">
        <ele>55.4000015</ele>
        <time>2013-12-08T10:00:57Z</time>
      </trkpt>
      <trkpt lat="49.13349" lon="-0.15068">
        <ele>55.4000015</ele>
        <time>2013-12-08T10:01:04Z</time>
      </trkpt>
      <trkpt lat="49.13345" lon="-0.15074">
        <ele>55.7999992</ele>
        <time>2013-12-08T10:01:06Z</time>
      </trkpt>
      <trkpt lat="49.13343" lon="-0.15077">
        <ele>56.2000008</ele>
        <time>2013-12-08T10:01:07Z</time>
      </trkpt>
      <trkpt lat="49.13341" lon="-0.15081">
        <ele>56.5999985</ele>
        <time>2013-12-08T10:01:08Z</time>
      </trkpt>
      <trkpt lat="49.13339" lon="-0.15084">
        <ele>57</ele>
        <time>2013-12-08T10:01:09Z</time>
      </trkpt>
      <trkpt lat="49.13337" lon="-0.15088">
        <ele>57.4000015</ele>
        <time>2013-12-08T10:01:10Z</time>
      </trkpt>
      <trkpt lat="49.13328" lon="-0.15106">
        <ele>57.4000015</ele>
        <time>2013-12-08T10:01:15Z</time>
      </trkpt>
      <trkpt lat="49.13319" lon="-0.15126">
        <ele>57.4000015</ele>
        <time>2013-12-08T10:01:20Z</time>
      </trkpt>
      <trkpt lat="49.13311" lon="-0.15144">
        <ele>57.7999992</ele>
        <time>2013-12-08T10:01:24Z</time>
      </trkpt>
      <trkpt lat="49.13309" lon="-0.15147">
        <ele>58.2000008</ele>
        <time>2013-12-08T10:01:25Z</time>
      </trkpt>
      <trkpt lat="49.13307" lon="-0.15151">
        <ele>58.5999985</ele>
        <time>2013-12-08T10:01:26Z</time>
      </trkpt>
      <trkpt lat="49.13305" lon="-0.15155">
        <ele>59</ele>
        <time>2013-12-08T10:01:27Z</time>
      </trkpt>
      <trkpt lat="49.13303" lon="-0.15159">
        <ele>59.4000015</ele>
        <time>2013-12-08T10:01:28Z</time>
      </trkpt>
      <trkpt lat="49.13292" lon="-0.1518">
        <ele>59.4000015</ele>
        <time>2013-12-08T10:01:33Z</time>
      </trkpt>
      <trkpt lat="49.13284" lon="-0.15198">
        <ele>59.4000015</ele>
        <time>2013-12-08T10:01:39Z</time>
      </trkpt>
      <trkpt lat="49.13282" lon="-0.15208">
        <ele>59.4000015</ele>
        <time>2013-12-08T10:01:42Z</time>
      </trkpt>
      <trkpt lat="49.13285" lon="-0.15214">
        <ele>59.4000015</ele>
        <time>2013-12-08T10:01:44Z</time>
      </trkpt>
      <trkpt lat="49.13288" lon="-0.15218">
        <ele>59.4000015</ele>
        <time>2013-12-08T10:01:46Z</time>
      </trkpt>
      <trkpt lat="49.13295" lon="-0.15222">
        <ele>59.7999992</ele>
        <time>2013-12-08T10:01:49Z</time>
      </trkpt>
      <trkpt lat="49.13298" lon="-0.15224">
        <ele>60.2000008</ele>
        <time>2013-12-08T10:01:50Z</time>
      </trkpt>
      <trkpt lat="49.13301" lon="-0.15225">
        <ele>60.5999985</ele>
        <time>2013-12-08T10:01:51Z</time>
      </trkpt>
      <trkpt lat="49.13303" lon="-0.15226">
        <ele>61</ele>
        <time>2013-12-08T10:01:52Z</time>
      </trkpt>
      <trkpt lat="49.13306" lon="-0.15227">
        <ele>61.4000015</ele>
        <time>2013-12-08T10:01:53Z</time>
      </trkpt>
      <trkpt lat="49.13313" lon="-0.15233">
        <ele>61.4000015</ele>
        <time>2013-12-08T10:01:56Z</time>
      </trkpt>
      <trkpt lat="49.13328" lon="-0.15246">
        <ele>61.4000015</ele>
        <time>2013-12-08T10:02:01Z</time>
      </trkpt>
      <trkpt lat="49.13337" lon="-0.1525">
        <ele>61.4000015</ele>
        <time>2013-12-08T10:02:05Z</time>
      </trkpt>
      <trkpt lat="49.13351" lon="-0.15259">
        <ele>61.7999992</ele>
        <time>2013-12-08T10:02:09Z</time>
      </trkpt>
      <trkpt lat="49.13354" lon="-0.15263">
        <ele>62.2000008</ele>
        <time>2013-12-08T10:02:10Z</time>
      </trkpt>
      <trkpt lat="49.13358" lon="-0.15267">
        <ele>62.5999985</ele>
        <time>2013-12-08T10:02:11Z</time>
      </trkpt>
      <trkpt lat="49.13361" lon="-0.15271">
        <ele>63</ele>
        <time>2013-12-08T10:02:12Z</time>
      </trkpt>
      <trkpt lat="49.13365" lon="-0.15275">
        <ele>63.4000015</ele>
        <time>2013-12-08T10:02:13Z</time>
      </trkpt>
      <trkpt lat="49.13382" lon="-0.15291">
        <ele>63.4000015</ele>
        <time>2013-12-08T10:02:17Z</time>
      </trkpt>
      <trkpt lat="49.13405" lon="-0.1531">
        <ele>63.4000015</ele>
        <time>2013-12-08T10:02:23Z</time>
      </trkpt>
      <trkpt lat="49.13424" lon="-0.15319">
        <ele>63.4000015</ele>
        <time>2013-12-08T10:02:28Z</time>
      </trkpt>
      <trkpt lat="49.13443" lon="-0.15327">
        <ele>63.4000015</ele>
        <time>2013-12-08T10:02:33Z</time>
      </trkpt>
      <trkpt lat="49.13462" lon="-0.15332">
        <ele>63.4000015</ele>
        <time>2013-12-08T10:02:38Z</time>
      </trkpt>
      <trkpt lat="49.13481" lon="-0.15338">
        <ele>63.4000015</ele>
        <time>2013-12-08T10:02:43Z</time>
      </trkpt>
      <trkpt lat="49.13507" lon="-0.15344">
        <ele>63.4000015</ele>
        <time>2013-12-08T10:02:49Z</time>
      </trkpt>
      <trkpt lat="49.13522" lon="-0.15347">
        <ele>63.4000015</ele>
        <time>2013-12-08T10:02:53Z</time>
      </trkpt>
      <trkpt lat="49.13542" lon="-0.15352">
        <ele>63.4000015</ele>
        <time>2013-12-08T10:02:58Z</time>
      </trkpt>
      <trkpt lat="49.13557" lon="-0.15356">
        <ele>63.4000015</ele>
        <time>2013-12-08T10:03:01Z</time>
      </trkpt>
      <trkpt lat="49.13571" lon="-0.15362">
        <ele>63.4000015</ele>
        <time>2013-12-08T10:03:04Z</time>
      </trkpt>
      <trkpt lat="49.13598" lon="-0.15368">
        <ele>63.4000015</ele>
        <time>2013-12-08T10:03:10Z</time>
      </trkpt>
      <trkpt lat="49.1363" lon="-0.15376">
        <ele>63.4000015</ele>
        <time>2013-12-08T10:03:15Z</time>
      </trkpt>
      <trkpt lat="49.13644" lon="-0.15386">
        <ele>63.4000015</ele>
        <time>2013-12-08T10:03:18Z</time>
      </trkpt>
      <trkpt lat="49.13646" lon="-0.1539">
        <ele>63.4000015</ele>
        <time>2013-12-08T10:03:19Z</time>
      </trkpt>
      <trkpt lat="49.13645" lon="-0.15408">
        <ele>63.4000015</ele>
        <time>2013-12-08T10:03:22Z</time>
      </trkpt>
      <trkpt lat="49.13644" lon="-0.15414">
        <ele>63.4000015</ele>
        <time>2013-12-08T10:03:23Z</time>
      </trkpt>
      <trkpt lat="49.13644" lon="-0.15421">
        <ele>63.4000015</ele>
        <time>2013-12-08T10:03:24Z</time>
      </trkpt>
      <trkpt lat="49.1364" lon="-0.15446">
        <ele>63.4000015</ele>
        <time>2013-12-08T10:03:28Z</time>
      </trkpt>
      <trkpt lat="49.13633" lon="-0.15479">
        <ele>63.4000015</ele>
        <time>2013-12-08T10:03:34Z</time>
      </trkpt>
      <trkpt lat="49.13623" lon="-0.1552">
        <ele>63.4000015</ele>
        <time>2013-12-08T10:03:41Z</time>
      </trkpt>
      <trkpt lat="49.13617" lon="-0.15543">
        <ele>63</ele>
        <time>2013-12-08T10:03:45Z</time>
      </trkpt>
      <trkpt lat="49.13615" lon="-0.1555">
        <ele>62.5999985</ele>
        <time>2013-12-08T10:03:46Z</time>
      </trkpt>
      <trkpt lat="49.13613" lon="-0.15557">
        <ele>62.2000008</ele>
        <time>2013-12-08T10:03:47Z</time>
      </trkpt>
      <trkpt lat="49.13611" lon="-0.15564">
        <ele>61.7999992</ele>
        <time>2013-12-08T10:03:48Z</time>
      </trkpt>
      <trkpt lat="49.13609" lon="-0.15571">
        <ele>61.4000015</ele>
        <time>2013-12-08T10:03:49Z</time>
      </trkpt>
      <trkpt lat="49.13602" lon="-0.15599">
        <ele>61.4000015</ele>
        <time>2013-12-08T10:03:53Z</time>
      </trkpt>
      <trkpt lat="49.13591" lon="-0.15638">
        <ele>61.4000015</ele>
        <time>2013-12-08T10:04:00Z</time>
      </trkpt>
      <trkpt lat="49.13582" lon="-0.15654">
        <ele>61.4000015</ele>
        <time>2013-12-08T10:04:05Z</time>
      </trkpt>
      <trkpt lat="49.13572" lon="-0.1565">
        <ele>61.4000015</ele>
        <time>2013-12-08T10:04:09Z</time>
      </trkpt>
      <trkpt lat="49.13558" lon="-0.1564">
        <ele>61.4000015</ele>
        <time>2013-12-08T10:04:15Z</time>
      </trkpt>
      <trkpt lat="49.13543" lon="-0.1563">
        <ele>61.4000015</ele>
        <time>2013-12-08T10:04:21Z</time>
      </trkpt>
      <trkpt lat="49.1353" lon="-0.15621">
        <ele>61.4000015</ele>
        <time>2013-12-08T10:04:27Z</time>
      </trkpt>
      <trkpt lat="49.1352" lon="-0.15614">
        <ele>61.4000015</ele>
        <time>2013-12-08T10:04:33Z</time>
      </trkpt>
      <trkpt lat="49.13507" lon="-0.15605">
        <ele>61.4000015</ele>
        <time>2013-12-08T10:04:38Z</time>
      </trkpt>
      <trkpt lat="49.13492" lon="-0.15596">
        <ele>61.4000015</ele>
        <time>2013-12-08T10:04:43Z</time>
      </trkpt>
      <trkpt lat="49.13482" lon="-0.15587">
        <ele>61.4000015</ele>
        <time>2013-12-08T10:04:47Z</time>
      </trkpt>
      <trkpt lat="49.13471" lon="-0.15585">
        <ele>61.4000015</ele>
        <time>2013-12-08T10:04:51Z</time>
      </trkpt>
      <trkpt lat="49.13469" lon="-0.15588">
        <ele>61.4000015</ele>
        <time>2013-12-08T10:04:52Z</time>
      </trkpt>
      <trkpt lat="49.13465" lon="-0.156">
        <ele>61.4000015</ele>
        <time>2013-12-08T10:04:55Z</time>
      </trkpt>
      <trkpt lat="49.13462" lon="-0.15609">
        <ele>61.4000015</ele>
        <time>2013-12-08T10:04:57Z</time>
      </trkpt>
      <trkpt lat="49.13456" lon="-0.15631">
        <ele>61.7999992</ele>
        <time>2013-12-08T10:05:02Z</time>
      </trkpt>
      <trkpt lat="49.13454" lon="-0.15636">
        <ele>62.2000008</ele>
        <time>2013-12-08T10:05:03Z</time>
      </trkpt>
      <trkpt lat="49.13452" lon="-0.15641">
        <ele>62.5999985</ele>
        <time>2013-12-08T10:05:04Z</time>
      </trkpt>
      <trkpt lat="49.1345" lon="-0.15645">
        <ele>63</ele>
        <time>2013-12-08T10:05:05Z</time>
      </trkpt>
      <trkpt lat="49.13449" lon="-0.1565">
        <ele>63.4000015</ele>
        <time>2013-12-08T10:05:06Z</time>
      </trkpt>
      <trkpt lat="49.13444" lon="-0.15665">
        <ele>63.4000015</ele>
        <time>2013-12-08T10:05:09Z</time>
      </trkpt>
      <trkpt lat="49.13431" lon="-0.15704">
        <ele>63.4000015</ele>
        <time>2013-12-08T10:05:16Z</time>
      </trkpt>
      <trkpt lat="49.1343" lon="-0.15709">
        <ele>63.7999992</ele>
        <time>2013-12-08T10:05:17Z</time>
      </trkpt>
      <trkpt lat="49.13428" lon="-0.15715">
        <ele>64.1999969</ele>
        <time>2013-12-08T10:05:18Z</time>
      </trkpt>
      <trkpt lat="49.13426" lon="-0.15721">
        <ele>64.5999985</ele>
        <time>2013-12-08T10:05:19Z</time>
      </trkpt>
      <trkpt lat="49.13424" lon="-0.15727">
        <ele>65.1999969</ele>
        <time>2013-12-08T10:05:20Z</time>
      </trkpt>
      <trkpt lat="49.13422" lon="-0.15732">
        <ele>65.5999985</ele>
        <time>2013-12-08T10:05:21Z</time>
      </trkpt>
      <trkpt lat="49.1342" lon="-0.15742">
        <ele>65.5999985</ele>
        <time>2013-12-08T10:05:23Z</time>
      </trkpt>
      <trkpt lat="49.13413" lon="-0.15764">
        <ele>65.5999985</ele>
        <time>2013-12-08T10:05:27Z</time>
      </trkpt>
      <trkpt lat="49.1341" lon="-0.15775">
        <ele>65.5999985</ele>
        <time>2013-12-08T10:05:29Z</time>
      </trkpt>
      <trkpt lat="49.13404" lon="-0.15792">
        <ele>65.5999985</ele>
        <time>2013-12-08T10:05:32Z</time>
      </trkpt>
      <trkpt lat="49.13399" lon="-0.1581">
        <ele>65.5999985</ele>
        <time>2013-12-08T10:05:35Z</time>
      </trkpt>
      <trkpt lat="49.1339" lon="-0.15832">
        <ele>65.5999985</ele>
        <time>2013-12-08T10:05:39Z</time>
      </trkpt>
      <trkpt lat="49.13383" lon="-0.15838">
        <ele>65.5999985</ele>
        <time>2013-12-08T10:05:41Z</time>
      </trkpt>
      <trkpt lat="49.13377" lon="-0.15842">
        <ele>65.5999985</ele>
        <time>2013-12-08T10:05:43Z</time>
      </trkpt>
      <trkpt lat="49.13368" lon="-0.15849">
        <ele>65.5999985</ele>
        <time>2013-12-08T10:05:46Z</time>
      </trkpt>
      <trkpt lat="49.13362" lon="-0.15854">
        <ele>65.5999985</ele>
        <time>2013-12-08T10:05:49Z</time>
      </trkpt>
      <trkpt lat="49.13361" lon="-0.15856">
        <ele>65.5999985</ele>
        <time>2013-12-08T10:05:50Z</time>
      </trkpt>
      <trkpt lat="49.13351" lon="-0.15866">
        <ele>65.5999985</ele>
        <time>2013-12-08T10:05:56Z</time>
      </trkpt>
      <trkpt lat="49.13334" lon="-0.15874">
        <ele>65.5999985</ele>
        <time>2013-12-08T10:06:02Z</time>
      </trkpt>
      <trkpt lat="49.13321" lon="-0.15879">
        <ele>65.5999985</ele>
        <time>2013-12-08T10:06:07Z</time>
      </trkpt>
      <trkpt lat="49.13307" lon="-0.15884">
        <ele>65.5999985</ele>
        <time>2013-12-08T10:06:12Z</time>
      </trkpt>
      <trkpt lat="49.13286" lon="-0.1589">
        <ele>65.5999985</ele>
        <time>2013-12-08T10:06:20Z</time>
      </trkpt>
      <trkpt lat="49.13273" lon="-0.15887">
        <ele>65.5999985</ele>
        <time>2013-12-08T10:06:25Z</time>
      </trkpt>
      <trkpt lat="49.13271" lon="-0.15887">
        <ele>66</ele>
        <time>2013-12-08T10:06:26Z</time>
      </trkpt>
      <trkpt lat="49.13269" lon="-0.15886">
        <ele>66.4000015</ele>
        <time>2013-12-08T10:06:27Z</time>
      </trkpt>
      <trkpt lat="49.13267" lon="-0.15885">
        <ele>66.8000031</ele>
        <time>2013-12-08T10:06:28Z</time>
      </trkpt>
      <trkpt lat="49.13265" lon="-0.15884">
        <ele>67.1999969</ele>
        <time>2013-12-08T10:06:29Z</time>
      </trkpt>
      <trkpt lat="49.13262" lon="-0.15884">
        <ele>67.5999985</ele>
        <time>2013-12-08T10:06:30Z</time>
      </trkpt>
      <trkpt lat="49.1326" lon="-0.15883">
        <ele>67.5999985</ele>
        <time>2013-12-08T10:06:31Z</time>
      </trkpt>
      <trkpt lat="49.13247" lon="-0.15883">
        <ele>67.5999985</ele>
        <time>2013-12-08T10:06:36Z</time>
      </trkpt>
      <trkpt lat="49.13232" lon="-0.15892">
        <ele>67.5999985</ele>
        <time>2013-12-08T10:06:42Z</time>
      </trkpt>
      <trkpt lat="49.13231" lon="-0.15894">
        <ele>67.5999985</ele>
        <time>2013-12-08T10:06:43Z</time>
      </trkpt>
      <trkpt lat="49.13227" lon="-0.15903">
        <ele>67.5999985</ele>
        <time>2013-12-08T10:06:46Z</time>
      </trkpt>
      <trkpt lat="49.13224" lon="-0.15909">
        <ele>67.5999985</ele>
        <time>2013-12-08T10:06:50Z</time>
      </trkpt>
      <trkpt lat="49.13225" lon="-0.15911">
        <ele>67.5999985</ele>
        <time>2013-12-08T10:07:07Z</time>
      </trkpt>
      <trkpt lat="49.13222" lon="-0.1593">
        <ele>67.5999985</ele>
        <time>2013-12-08T10:07:11Z</time>
      </trkpt>
      <trkpt lat="49.13221" lon="-0.15944">
        <ele>67.5999985</ele>
        <time>2013-12-08T10:07:13Z</time>
      </trkpt>
      <trkpt lat="49.13221" lon="-0.1595">
        <ele>67.1999969</ele>
        <time>2013-12-08T10:07:14Z</time>
      </trkpt>
      <trkpt lat="49.13221" lon="-0.15956">
        <ele>66.8000031</ele>
        <time>2013-12-08T10:07:15Z</time>
      </trkpt>
      <trkpt lat="49.1322" lon="-0.15961">
        <ele>66.4000015</ele>
        <time>2013-12-08T10:07:16Z</time>
      </trkpt>
      <trkpt lat="49.1322" lon="-0.15964">
        <ele>65.5999985</ele>
        <time>2013-12-08T10:07:17Z</time>
      </trkpt>
      <trkpt lat="49.13219" lon="-0.15968">
        <ele>65</ele>
        <time>2013-12-08T10:07:18Z</time>
      </trkpt>
      <trkpt lat="49.13218" lon="-0.15972">
        <ele>64.4000015</ele>
        <time>2013-12-08T10:07:19Z</time>
      </trkpt>
      <trkpt lat="49.13217" lon="-0.15976">
        <ele>63.5999985</ele>
        <time>2013-12-08T10:07:20Z</time>
      </trkpt>
      <trkpt lat="49.13215" lon="-0.1598">
        <ele>63</ele>
        <time>2013-12-08T10:07:21Z</time>
      </trkpt>
      <trkpt lat="49.13213" lon="-0.15983">
        <ele>63</ele>
        <time>2013-12-08T10:07:22Z</time>
      </trkpt>
      <trkpt lat="49.1321" lon="-0.15985">
        <ele>62.5999985</ele>
        <time>2013-12-08T10:07:23Z</time>
      </trkpt>
      <trkpt lat="49.13208" lon="-0.15985">
        <ele>62.2000008</ele>
        <time>2013-12-08T10:07:24Z</time>
      </trkpt>
      <trkpt lat="49.13206" lon="-0.15984">
        <ele>61.7999992</ele>
        <time>2013-12-08T10:07:25Z</time>
      </trkpt>
      <trkpt lat="49.13204" lon="-0.15984">
        <ele>61.4000015</ele>
        <time>2013-12-08T10:07:26Z</time>
      </trkpt>
      <trkpt lat="49.13203" lon="-0.15983">
        <ele>61</ele>
        <time>2013-12-08T10:07:27Z</time>
      </trkpt>
      <trkpt lat="49.13201" lon="-0.15982">
        <ele>61</ele>
        <time>2013-12-08T10:07:28Z</time>
      </trkpt>
      <trkpt lat="49.13197" lon="-0.15981">
        <ele>61.4000015</ele>
        <time>2013-12-08T10:07:30Z</time>
      </trkpt>
      <trkpt lat="49.13195" lon="-0.15982">
        <ele>62</ele>
        <time>2013-12-08T10:07:31Z</time>
      </trkpt>
      <trkpt lat="49.13192" lon="-0.15981">
        <ele>62.4000015</ele>
        <time>2013-12-08T10:07:32Z</time>
      </trkpt>
      <trkpt lat="49.1319" lon="-0.15981">
        <ele>62.7999992</ele>
        <time>2013-12-08T10:07:33Z</time>
      </trkpt>
      <trkpt lat="49.13188" lon="-0.15981">
        <ele>63.4000015</ele>
        <time>2013-12-08T10:07:34Z</time>
      </trkpt>
      <trkpt lat="49.13185" lon="-0.1598">
        <ele>63.7999992</ele>
        <time>2013-12-08T10:07:35Z</time>
      </trkpt>
      <trkpt lat="49.13182" lon="-0.15979">
        <ele>64.1999969</ele>
        <time>2013-12-08T10:07:36Z</time>
      </trkpt>
      <trkpt lat="49.1318" lon="-0.15978">
        <ele>64.5999985</ele>
        <time>2013-12-08T10:07:37Z</time>
      </trkpt>
      <trkpt lat="49.13177" lon="-0.15976">
        <ele>65</ele>
        <time>2013-12-08T10:07:38Z</time>
      </trkpt>
      <trkpt lat="49.13173" lon="-0.15975">
        <ele>65.5999985</ele>
        <time>2013-12-08T10:07:39Z</time>
      </trkpt>
      <trkpt lat="49.13168" lon="-0.15974">
        <ele>65.5999985</ele>
        <time>2013-12-08T10:07:41Z</time>
      </trkpt>
      <trkpt lat="49.13165" lon="-0.15973">
        <ele>66</ele>
        <time>2013-12-08T10:07:42Z</time>
      </trkpt>
      <trkpt lat="49.13162" lon="-0.15972">
        <ele>66.4000015</ele>
        <time>2013-12-08T10:07:43Z</time>
      </trkpt>
      <trkpt lat="49.13159" lon="-0.15972">
        <ele>66.8000031</ele>
        <time>2013-12-08T10:07:44Z</time>
      </trkpt>
      <trkpt lat="49.13156" lon="-0.15972">
        <ele>67.1999969</ele>
        <time>2013-12-08T10:07:45Z</time>
      </trkpt>
      <trkpt lat="49.13154" lon="-0.15971">
        <ele>67.5999985</ele>
        <time>2013-12-08T10:07:46Z</time>
      </trkpt>
      <trkpt lat="49.13149" lon="-0.1597">
        <ele>67.5999985</ele>
        <time>2013-12-08T10:07:48Z</time>
      </trkpt>
      <trkpt lat="49.13132" lon="-0.1596">
        <ele>67.5999985</ele>
        <time>2013-12-08T10:07:54Z</time>
      </trkpt>
      <trkpt lat="49.13121" lon="-0.15944">
        <ele>67.5999985</ele>
        <time>2013-12-08T10:07:59Z</time>
      </trkpt>
      <trkpt lat="49.13107" lon="-0.15909">
        <ele>67.5999985</ele>
        <time>2013-12-08T10:08:06Z</time>
      </trkpt>
      <trkpt lat="49.1309" lon="-0.15874">
        <ele>67.5999985</ele>
        <time>2013-12-08T10:08:13Z</time>
      </trkpt>
      <trkpt lat="49.13076" lon="-0.15847">
        <ele>67.5999985</ele>
        <time>2013-12-08T10:08:19Z</time>
      </trkpt>
      <trkpt lat="49.13056" lon="-0.15808">
        <ele>67.5999985</ele>
        <time>2013-12-08T10:08:26Z</time>
      </trkpt>
      <trkpt lat="49.1305" lon="-0.15798">
        <ele>67.5999985</ele>
        <time>2013-12-08T10:08:28Z</time>
      </trkpt>
      <trkpt lat="49.13035" lon="-0.1578">
        <ele>67.5999985</ele>
        <time>2013-12-08T10:08:32Z</time>
      </trkpt>
      <trkpt lat="49.13014" lon="-0.15764">
        <ele>67.5999985</ele>
        <time>2013-12-08T10:08:38Z</time>
      </trkpt>
      <trkpt lat="49.13008" lon="-0.15761">
        <ele>67.5999985</ele>
        <time>2013-12-08T10:08:41Z</time>
      </trkpt>
      <trkpt lat="49.13008" lon="-0.15761">
        <ele>67.5999985</ele>
        <time>2013-12-08T10:10:07Z</time>
      </trkpt>
      <trkpt lat="49.13007" lon="-0.15762">
        <ele>67.5999985</ele>
        <time>2013-12-08T10:10:09Z</time>
      </trkpt>
      <trkpt lat="49.13004" lon="-0.1577">
        <ele>67.5999985</ele>
        <time>2013-12-08T10:10:12Z</time>
      </trkpt>
      <trkpt lat="49.13002" lon="-0.15775">
        <ele>67.5999985</ele>
        <time>2013-12-08T10:10:13Z</time>
      </trkpt>
      <trkpt lat="49.13" lon="-0.15785">
        <ele>67</ele>
        <time>2013-12-08T10:10:15Z</time>
      </trkpt>
      <trkpt lat="49.12998" lon="-0.15791">
        <ele>66.5999985</ele>
        <time>2013-12-08T10:10:16Z</time>
      </trkpt>
      <trkpt lat="49.12995" lon="-0.15797">
        <ele>66</ele>
        <time>2013-12-08T10:10:17Z</time>
      </trkpt>
      <trkpt lat="49.12992" lon="-0.15804">
        <ele>65.4000015</ele>
        <time>2013-12-08T10:10:18Z</time>
      </trkpt>
      <trkpt lat="49.1299" lon="-0.15811">
        <ele>64.8000031</ele>
        <time>2013-12-08T10:10:19Z</time>
      </trkpt>
      <trkpt lat="49.12988" lon="-0.15818">
        <ele>64.1999969</ele>
        <time>2013-12-08T10:10:20Z</time>
      </trkpt>
      <trkpt lat="49.12985" lon="-0.15826">
        <ele>63.4000015</ele>
        <time>2013-12-08T10:10:21Z</time>
      </trkpt>
      <trkpt lat="49.12982" lon="-0.15834">
        <ele>62.5999985</ele>
        <time>2013-12-08T10:10:22Z</time>
      </trkpt>
      <trkpt lat="49.12979" lon="-0.15843">
        <ele>61.5999985</ele>
        <time>2013-12-08T10:10:23Z</time>
      </trkpt>
      <trkpt lat="49.12976" lon="-0.15852">
        <ele>60.7999992</ele>
        <time>2013-12-08T10:10:24Z</time>
      </trkpt>
      <trkpt lat="49.12972" lon="-0.15861">
        <ele>59.7999992</ele>
        <time>2013-12-08T10:10:25Z</time>
      </trkpt>
      <trkpt lat="49.12969" lon="-0.1587">
        <ele>59</ele>
        <time>2013-12-08T10:10:26Z</time>
      </trkpt>
      <trkpt lat="49.12965" lon="-0.15879">
        <ele>58</ele>
        <time>2013-12-08T10:10:27Z</time>
      </trkpt>
      <trkpt lat="49.12962" lon="-0.15886">
        <ele>57</ele>
        <time>2013-12-08T10:10:28Z</time>
      </trkpt>
      <trkpt lat="49.12958" lon="-0.15893">
        <ele>56</ele>
        <time>2013-12-08T10:10:29Z</time>
      </trkpt>
      <trkpt lat="49.12955" lon="-0.159">
        <ele>54.5999985</ele>
        <time>2013-12-08T10:10:30Z</time>
      </trkpt>
      <trkpt lat="49.12951" lon="-0.15907">
        <ele>53.4000015</ele>
        <time>2013-12-08T10:10:31Z</time>
      </trkpt>
      <trkpt lat="49.12947" lon="-0.15914">
        <ele>52.2000008</ele>
        <time>2013-12-08T10:10:32Z</time>
      </trkpt>
      <trkpt lat="49.12943" lon="-0.15922">
        <ele>50.7999992</ele>
        <time>2013-12-08T10:10:33Z</time>
      </trkpt>
      <trkpt lat="49.1294" lon="-0.15929">
        <ele>49.4000015</ele>
        <time>2013-12-08T10:10:34Z</time>
      </trkpt>
      <trkpt lat="49.12937" lon="-0.15936">
        <ele>48.2000008</ele>
        <time>2013-12-08T10:10:35Z</time>
      </trkpt>
      <trkpt lat="49.12935" lon="-0.15942">
        <ele>46.7999992</ele>
        <time>2013-12-08T10:10:36Z</time>
      </trkpt>
      <trkpt lat="49.12933" lon="-0.15949">
        <ele>45.5999985</ele>
        <time>2013-12-08T10:10:37Z</time>
      </trkpt>
      <trkpt lat="49.12931" lon="-0.15956">
        <ele>43.2000008</ele>
        <time>2013-12-08T10:10:38Z</time>
      </trkpt>
      <trkpt lat="49.1293" lon="-0.15965">
        <ele>42</ele>
        <time>2013-12-08T10:10:39Z</time>
      </trkpt>
      <trkpt lat="49.12931" lon="-0.15974">
        <ele>40.7999992</ele>
        <time>2013-12-08T10:10:40Z</time>
      </trkpt>
      <trkpt lat="49.12932" lon="-0.15984">
        <ele>39.5999985</ele>
        <time>2013-12-08T10:10:41Z</time>
      </trkpt>
      <trkpt lat="49.12933" lon="-0.15993">
        <ele>38.5999985</ele>
        <time>2013-12-08T10:10:42Z</time>
      </trkpt>
      <trkpt lat="49.12936" lon="-0.16002">
        <ele>37.5999985</ele>
        <time>2013-12-08T10:10:43Z</time>
      </trkpt>
      <trkpt lat="49.12939" lon="-0.16011">
        <ele>36.5999985</ele>
        <time>2013-12-08T10:10:44Z</time>
      </trkpt>
      <trkpt lat="49.12942" lon="-0.16019">
        <ele>35.4000015</ele>
        <time>2013-12-08T10:10:45Z</time>
      </trkpt>
      <trkpt lat="49.12944" lon="-0.16025">
        <ele>34.4000015</ele>
        <time>2013-12-08T10:10:46Z</time>
      </trkpt>
      <trkpt lat="49.12946" lon="-0.1603">
        <ele>33.2000008</ele>
        <time>2013-12-08T10:10:47Z</time>
      </trkpt>
      <trkpt lat="49.12948" lon="-0.16034">
        <ele>32</ele>
        <time>2013-12-08T10:10:48Z</time>
      </trkpt>
      <trkpt lat="49.12948" lon="-0.1604">
        <ele>30.7999992</ele>
        <time>2013-12-08T10:10:49Z</time>
      </trkpt>
      <trkpt lat="49.12949" lon="-0.16046">
        <ele>29.6000004</ele>
        <time>2013-12-08T10:10:50Z</time>
      </trkpt>
      <trkpt lat="49.1295" lon="-0.16054">
        <ele>28.3999996</ele>
        <time>2013-12-08T10:10:51Z</time>
      </trkpt>
      <trkpt lat="49.12952" lon="-0.16062">
        <ele>27.2000008</ele>
        <time>2013-12-08T10:10:52Z</time>
      </trkpt>
      <trkpt lat="49.12953" lon="-0.16068">
        <ele>26.7999992</ele>
        <time>2013-12-08T10:10:53Z</time>
      </trkpt>
      <trkpt lat="49.12954" lon="-0.16075">
        <ele>26.2000008</ele>
        <time>2013-12-08T10:10:54Z</time>
      </trkpt>
      <trkpt lat="49.12955" lon="-0.16081">
        <ele>25.7999992</ele>
        <time>2013-12-08T10:10:55Z</time>
      </trkpt>
      <trkpt lat="49.12957" lon="-0.16087">
        <ele>25.3999996</ele>
        <time>2013-12-08T10:10:56Z</time>
      </trkpt>
      <trkpt lat="49.12958" lon="-0.16095">
        <ele>24.6000004</ele>
        <time>2013-12-08T10:10:57Z</time>
      </trkpt>
      <trkpt lat="49.12959" lon="-0.16101">
        <ele>24</ele>
        <time>2013-12-08T10:10:58Z</time>
      </trkpt>
      <trkpt lat="49.12961" lon="-0.16107">
        <ele>23.3999996</ele>
        <time>2013-12-08T10:10:59Z</time>
      </trkpt>
      <trkpt lat="49.12962" lon="-0.16114">
        <ele>22.7999992</ele>
        <time>2013-12-08T10:11:00Z</time>
      </trkpt>
      <trkpt lat="49.12963" lon="-0.16121">
        <ele>22.2000008</ele>
        <time>2013-12-08T10:11:01Z</time>
      </trkpt>
      <trkpt lat="49.12963" lon="-0.16128">
        <ele>21.7999992</ele>
        <time>2013-12-08T10:11:02Z</time>
      </trkpt>
      <trkpt lat="49.12962" lon="-0.16135">
        <ele>20.6000004</ele>
        <time>2013-12-08T10:11:03Z</time>
      </trkpt>
      <trkpt lat="49.12962" lon="-0.16142">
        <ele>20</ele>
        <time>2013-12-08T10:11:04Z</time>
      </trkpt>
      <trkpt lat="49.12962" lon="-0.16149">
        <ele>19.6000004</ele>
        <time>2013-12-08T10:11:05Z</time>
      </trkpt>
      <trkpt lat="49.12962" lon="-0.16155">
        <ele>19.2000008</ele>
        <time>2013-12-08T10:11:06Z</time>
      </trkpt>
      <trkpt lat="49.12962" lon="-0.16162">
        <ele>18.6000004</ele>
        <time>2013-12-08T10:11:07Z</time>
      </trkpt>
      <trkpt lat="49.12961" lon="-0.16168">
        <ele>18.2000008</ele>
        <time>2013-12-08T10:11:08Z</time>
      </trkpt>
      <trkpt lat="49.1296" lon="-0.16174">
        <ele>17.6000004</ele>
        <time>2013-12-08T10:11:09Z</time>
      </trkpt>
      <trkpt lat="49.12959" lon="-0.1618">
        <ele>17.6000004</ele>
        <time>2013-12-08T10:11:10Z</time>
      </trkpt>
      <trkpt lat="49.12957" lon="-0.16187">
        <ele>17.6000004</ele>
        <time>2013-12-08T10:11:11Z</time>
      </trkpt>
      <trkpt lat="49.12955" lon="-0.16195">
        <ele>17.2000008</ele>
        <time>2013-12-08T10:11:12Z</time>
      </trkpt>
      <trkpt lat="49.12954" lon="-0.16203">
        <ele>16.7999992</ele>
        <time>2013-12-08T10:11:13Z</time>
      </trkpt>
      <trkpt lat="49.12952" lon="-0.1621">
        <ele>16.3999996</ele>
        <time>2013-12-08T10:11:14Z</time>
      </trkpt>
      <trkpt lat="49.12951" lon="-0.16215">
        <ele>16</ele>
        <time>2013-12-08T10:11:15Z</time>
      </trkpt>
      <trkpt lat="49.12949" lon="-0.1622">
        <ele>15.6000004</ele>
        <time>2013-12-08T10:11:16Z</time>
      </trkpt>
      <trkpt lat="49.12947" lon="-0.16224">
        <ele>15</ele>
        <time>2013-12-08T10:11:17Z</time>
      </trkpt>
      <trkpt lat="49.12944" lon="-0.16227">
        <ele>14.6000004</ele>
        <time>2013-12-08T10:11:18Z</time>
      </trkpt>
      <trkpt lat="49.12941" lon="-0.16229">
        <ele>14</ele>
        <time>2013-12-08T10:11:19Z</time>
      </trkpt>
      <trkpt lat="49.1294" lon="-0.16231">
        <ele>13.6000004</ele>
        <time>2013-12-08T10:11:20Z</time>
      </trkpt>
      <trkpt lat="49.12939" lon="-0.16232">
        <ele>13</ele>
        <time>2013-12-08T10:11:22Z</time>
      </trkpt>
      <trkpt lat="49.12939" lon="-0.16232">
        <ele>11.3999996</ele>
        <time>2013-12-08T10:11:47Z</time>
      </trkpt>
      <trkpt lat="49.12937" lon="-0.16233">
        <ele>11.3999996</ele>
        <time>2013-12-08T10:11:49Z</time>
      </trkpt>
      <trkpt lat="49.12935" lon="-0.16235">
        <ele>11.3999996</ele>
        <time>2013-12-08T10:11:51Z</time>
      </trkpt>
      <trkpt lat="49.12926" lon="-0.16245">
        <ele>11.3999996</ele>
        <time>2013-12-08T10:11:55Z</time>
      </trkpt>
      <trkpt lat="49.12923" lon="-0.16248">
        <ele>11.3999996</ele>
        <time>2013-12-08T10:11:56Z</time>
      </trkpt>
      <trkpt lat="49.1291" lon="-0.16275">
        <ele>11.3999996</ele>
        <time>2013-12-08T10:12:02Z</time>
      </trkpt>
      <trkpt lat="49.12892" lon="-0.16323">
        <ele>11.3999996</ele>
        <time>2013-12-08T10:12:10Z</time>
      </trkpt>
      <trkpt lat="49.12876" lon="-0.1636">
        <ele>11.3999996</ele>
        <time>2013-12-08T10:12:17Z</time>
      </trkpt>
      <trkpt lat="49.12862" lon="-0.16397">
        <ele>11.3999996</ele>
        <time>2013-12-08T10:12:24Z</time>
      </trkpt>
      <trkpt lat="49.12849" lon="-0.16441">
        <ele>11.3999996</ele>
        <time>2013-12-08T10:12:31Z</time>
      </trkpt>
      <trkpt lat="49.12846" lon="-0.16454">
        <ele>11.3999996</ele>
        <time>2013-12-08T10:12:33Z</time>
      </trkpt>
      <trkpt lat="49.12843" lon="-0.16482">
        <ele>11.3999996</ele>
        <time>2013-12-08T10:12:37Z</time>
      </trkpt>
      <trkpt lat="49.12835" lon="-0.16528">
        <ele>11.3999996</ele>
        <time>2013-12-08T10:12:44Z</time>
      </trkpt>
      <trkpt lat="49.1283" lon="-0.16548">
        <ele>11.3999996</ele>
        <time>2013-12-08T10:12:47Z</time>
      </trkpt>
      <trkpt lat="49.12826" lon="-0.16561">
        <ele>11.3999996</ele>
        <time>2013-12-08T10:12:49Z</time>
      </trkpt>
      <trkpt lat="49.12821" lon="-0.1658">
        <ele>11.3999996</ele>
        <time>2013-12-08T10:12:52Z</time>
      </trkpt>
      <trkpt lat="49.12812" lon="-0.16599">
        <ele>11.3999996</ele>
        <time>2013-12-08T10:12:56Z</time>
      </trkpt>
      <trkpt lat="49.12809" lon="-0.166">
        <ele>11.3999996</ele>
        <time>2013-12-08T10:12:57Z</time>
      </trkpt>
      <trkpt lat="49.12792" lon="-0.16598">
        <ele>11.3999996</ele>
        <time>2013-12-08T10:13:02Z</time>
      </trkpt>
      <trkpt lat="49.12778" lon="-0.16579">
        <ele>11.3999996</ele>
        <time>2013-12-08T10:13:07Z</time>
      </trkpt>
      <trkpt lat="49.12772" lon="-0.16559">
        <ele>11.3999996</ele>
        <time>2013-12-08T10:13:11Z</time>
      </trkpt>
      <trkpt lat="49.12756" lon="-0.16548">
        <ele>11.3999996</ele>
        <time>2013-12-08T10:13:16Z</time>
      </trkpt>
      <trkpt lat="49.12747" lon="-0.16549">
        <ele>11.3999996</ele>
        <time>2013-12-08T10:13:19Z</time>
      </trkpt>
      <trkpt lat="49.12745" lon="-0.16552">
        <ele>11.3999996</ele>
        <time>2013-12-08T10:13:20Z</time>
      </trkpt>
      <trkpt lat="49.12739" lon="-0.16567">
        <ele>11.3999996</ele>
        <time>2013-12-08T10:13:24Z</time>
      </trkpt>
      <trkpt lat="49.12736" lon="-0.16572">
        <ele>11.3999996</ele>
        <time>2013-12-08T10:13:27Z</time>
      </trkpt>
    </trkseg>
  </trk>
</gpx>